<?xml version='1.0' encoding='UTF-8'?><gpx version="1.1" creator="JPX - https://github.com/jenetics/jpx" xmlns="http://www.topografix.com/GPX/1/1"><trk><trkseg><trkpt lat="42.3783214" lon="12.9713359"><ele>435.0</ele><time>2026-04-26T08:53:53.882Z</time></trkpt><trkpt lat="42.3782857" lon="12.9714769"><ele>435.0</ele><time>2026-04-26T08:53:55.88Z</time></trkpt><trkpt lat="42.3782523" lon="12.9715542"><ele>435.0</ele><time>2026-04-26T08:53:56.886Z</time></trkpt><trkpt lat="42.3781894" lon="12.9717026"><ele>435.0</ele><time>2026-04-26T08:53:58.884Z</time></trkpt><trkpt lat="42.3781602" lon="12.9717878"><ele>435.0</ele><time>2026-04-26T08:53:59.896Z</time></trkpt><trkpt lat="42.3781283" lon="12.9718732"><ele>435.0</ele><time>2026-04-26T08:54:00.883Z</time></trkpt><trkpt lat="42.3780746" lon="12.9720185"><ele>434.8</ele><time>2026-04-26T08:54:02.885Z</time></trkpt><trkpt lat="42.3780202" lon="12.9721144"><ele>434.6</ele><time>2026-04-26T08:54:04.888Z</time></trkpt><trkpt lat="42.3779533" lon="12.972155"><ele>434.4</ele><time>2026-04-26T08:54:06.885Z</time></trkpt><trkpt lat="42.3778751" lon="12.9721765"><ele>434.2</ele><time>2026-04-26T08:54:08.881Z</time></trkpt><trkpt lat="42.3777752" lon="12.972162"><ele>434.0</ele><time>2026-04-26T08:54:10.88Z</time></trkpt><trkpt lat="42.3776763" lon="12.9720943"><ele>432.99999999999994</ele><time>2026-04-26T08:54:12.877Z</time></trkpt><trkpt lat="42.3775749" lon="12.9720159"><ele>432.0</ele><time>2026-04-26T08:54:14.937Z</time></trkpt><trkpt lat="42.3775164" lon="12.9719755"><ele>431.0</ele><time>2026-04-26T08:54:15.892Z</time></trkpt><trkpt lat="42.3774541" lon="12.9719328"><ele>430.0</ele><time>2026-04-26T08:54:16.886Z</time></trkpt><trkpt lat="42.3773916" lon="12.9718876"><ele>428.99999999999994</ele><time>2026-04-26T08:54:17.892Z</time></trkpt><trkpt lat="42.3773308" lon="12.9718405"><ele>428.0</ele><time>2026-04-26T08:54:18.881Z</time></trkpt><trkpt lat="42.3772592" lon="12.9717896"><ele>426.5</ele><time>2026-04-26T08:54:19.892Z</time></trkpt><trkpt lat="42.3771625" lon="12.9717337"><ele>425.0</ele><time>2026-04-26T08:54:20.886Z</time></trkpt><trkpt lat="42.3770546" lon="12.9716769"><ele>423.5</ele><time>2026-04-26T08:54:21.884Z</time></trkpt><trkpt lat="42.3769438" lon="12.9716069"><ele>422.0</ele><time>2026-04-26T08:54:22.883Z</time></trkpt><trkpt lat="42.3768373" lon="12.9715216"><ele>422.0</ele><time>2026-04-26T08:54:23.882Z</time></trkpt><trkpt lat="42.3767208" lon="12.9714219"><ele>422.0</ele><time>2026-04-26T08:54:24.885Z</time></trkpt><trkpt lat="42.3765851" lon="12.9713152"><ele>422.0</ele><time>2026-04-26T08:54:25.885Z</time></trkpt><trkpt lat="42.3764366" lon="12.9712117"><ele>420.66666666666663</ele><time>2026-04-26T08:54:26.892Z</time></trkpt><trkpt lat="42.3762892" lon="12.971109"><ele>419.33333333333337</ele><time>2026-04-26T08:54:27.886Z</time></trkpt><trkpt lat="42.3761393" lon="12.9710108"><ele>418.0</ele><time>2026-04-26T08:54:28.89Z</time></trkpt><trkpt lat="42.3759872" lon="12.9709126"><ele>418.0</ele><time>2026-04-26T08:54:29.887Z</time></trkpt><trkpt lat="42.3758424" lon="12.9708114"><ele>418.0</ele><time>2026-04-26T08:54:30.878Z</time></trkpt><trkpt lat="42.3757042" lon="12.9707107"><ele>418.0</ele><time>2026-04-26T08:54:31.878Z</time></trkpt><trkpt lat="42.3755722" lon="12.9706179"><ele>417.0</ele><time>2026-04-26T08:54:32.883Z</time></trkpt><trkpt lat="42.37544" lon="12.9705208"><ele>416.0</ele><time>2026-04-26T08:54:33.883Z</time></trkpt><trkpt lat="42.3753075" lon="12.9704282"><ele>415.0</ele><time>2026-04-26T08:54:34.882Z</time></trkpt><trkpt lat="42.3751703" lon="12.9703301"><ele>415.0</ele><time>2026-04-26T08:54:35.889Z</time></trkpt><trkpt lat="42.3750228" lon="12.9702307"><ele>415.0</ele><time>2026-04-26T08:54:36.887Z</time></trkpt><trkpt lat="42.3748796" lon="12.9701308"><ele>415.0</ele><time>2026-04-26T08:54:37.883Z</time></trkpt><trkpt lat="42.3747479" lon="12.9700467"><ele>413.75</ele><time>2026-04-26T08:54:38.884Z</time></trkpt><trkpt lat="42.3746195" lon="12.9699764"><ele>412.5</ele><time>2026-04-26T08:54:39.883Z</time></trkpt><trkpt lat="42.3744939" lon="12.9698988"><ele>411.25</ele><time>2026-04-26T08:54:40.93Z</time></trkpt><trkpt lat="42.3743616" lon="12.9698066"><ele>410.0</ele><time>2026-04-26T08:54:41.883Z</time></trkpt><trkpt lat="42.3742174" lon="12.9696882"><ele>410.0</ele><time>2026-04-26T08:54:42.882Z</time></trkpt><trkpt lat="42.3740866" lon="12.9695551"><ele>410.0</ele><time>2026-04-26T08:54:43.878Z</time></trkpt><trkpt lat="42.3739835" lon="12.9694153"><ele>410.0</ele><time>2026-04-26T08:54:44.889Z</time></trkpt><trkpt lat="42.373895" lon="12.9692793"><ele>410.0</ele><time>2026-04-26T08:54:45.876Z</time></trkpt><trkpt lat="42.3738098" lon="12.9691509"><ele>409.25</ele><time>2026-04-26T08:54:46.885Z</time></trkpt><trkpt lat="42.3737049" lon="12.9690446"><ele>408.5</ele><time>2026-04-26T08:54:47.884Z</time></trkpt><trkpt lat="42.3735793" lon="12.9689648"><ele>407.75</ele><time>2026-04-26T08:54:48.886Z</time></trkpt><trkpt lat="42.3734361" lon="12.9688897"><ele>407.0</ele><time>2026-04-26T08:54:49.892Z</time></trkpt><trkpt lat="42.3732842" lon="12.968818"><ele>407.0</ele><time>2026-04-26T08:54:50.878Z</time></trkpt><trkpt lat="42.3731583" lon="12.9687523"><ele>407.0</ele><time>2026-04-26T08:54:51.931Z</time></trkpt><trkpt lat="42.3730392" lon="12.9686983"><ele>407.0</ele><time>2026-04-26T08:54:52.877Z</time></trkpt><trkpt lat="42.3729348" lon="12.9686403"><ele>407.0</ele><time>2026-04-26T08:54:53.881Z</time></trkpt><trkpt lat="42.3728238" lon="12.9685826"><ele>406.99999999999994</ele><time>2026-04-26T08:54:54.89Z</time></trkpt><trkpt lat="42.3727296" lon="12.9685295"><ele>407.0</ele><time>2026-04-26T08:54:55.886Z</time></trkpt><trkpt lat="42.3726512" lon="12.9684859"><ele>407.0</ele><time>2026-04-26T08:54:56.876Z</time></trkpt><trkpt lat="42.3725735" lon="12.9684583"><ele>407.0</ele><time>2026-04-26T08:54:57.883Z</time></trkpt><trkpt lat="42.3724941" lon="12.9684732"><ele>406.99999999999994</ele><time>2026-04-26T08:54:58.885Z</time></trkpt><trkpt lat="42.3724248" lon="12.9685154"><ele>407.0</ele><time>2026-04-26T08:54:59.884Z</time></trkpt><trkpt lat="42.3723617" lon="12.9685874"><ele>407.0</ele><time>2026-04-26T08:55:00.884Z</time></trkpt><trkpt lat="42.3723225" lon="12.9686926"><ele>407.0</ele><time>2026-04-26T08:55:01.883Z</time></trkpt><trkpt lat="42.3722736" lon="12.9688389"><ele>407.0</ele><time>2026-04-26T08:55:02.879Z</time></trkpt><trkpt lat="42.3722159" lon="12.969014"><ele>407.0</ele><time>2026-04-26T08:55:03.882Z</time></trkpt><trkpt lat="42.372146" lon="12.9692008"><ele>408.75</ele><time>2026-04-26T08:55:04.883Z</time></trkpt><trkpt lat="42.3720657" lon="12.9693829"><ele>410.5</ele><time>2026-04-26T08:55:05.884Z</time></trkpt><trkpt lat="42.3719883" lon="12.969549"><ele>412.25</ele><time>2026-04-26T08:55:06.919Z</time></trkpt><trkpt lat="42.3719074" lon="12.9697145"><ele>414.0</ele><time>2026-04-26T08:55:07.882Z</time></trkpt><trkpt lat="42.3718237" lon="12.9698714"><ele>414.0</ele><time>2026-04-26T08:55:08.882Z</time></trkpt><trkpt lat="42.3717437" lon="12.9700198"><ele>414.0</ele><time>2026-04-26T08:55:09.878Z</time></trkpt><trkpt lat="42.3716563" lon="12.9701689"><ele>414.0</ele><time>2026-04-26T08:55:10.875Z</time></trkpt><trkpt lat="42.3715601" lon="12.9703069"><ele>414.0</ele><time>2026-04-26T08:55:11.886Z</time></trkpt><trkpt lat="42.3714557" lon="12.9704497"><ele>417.0</ele><time>2026-04-26T08:55:12.877Z</time></trkpt><trkpt lat="42.3713434" lon="12.9705824"><ele>420.0</ele><time>2026-04-26T08:55:13.882Z</time></trkpt><trkpt lat="42.3712306" lon="12.970717"><ele>423.0</ele><time>2026-04-26T08:55:14.883Z</time></trkpt><trkpt lat="42.3711089" lon="12.9708486"><ele>418.33333333333337</ele><time>2026-04-26T08:55:15.89Z</time></trkpt><trkpt lat="42.3709781" lon="12.9709843"><ele>413.6666666666667</ele><time>2026-04-26T08:55:16.882Z</time></trkpt><trkpt lat="42.3708402" lon="12.9711168"><ele>409.0</ele><time>2026-04-26T08:55:17.883Z</time></trkpt><trkpt lat="42.3707041" lon="12.9712413"><ele>409.0</ele><time>2026-04-26T08:55:18.928Z</time></trkpt><trkpt lat="42.3705734" lon="12.9713595"><ele>409.0</ele><time>2026-04-26T08:55:19.88Z</time></trkpt><trkpt lat="42.3704456" lon="12.9714785"><ele>409.0</ele><time>2026-04-26T08:55:20.883Z</time></trkpt><trkpt lat="42.3703264" lon="12.9716075"><ele>411.6666666666667</ele><time>2026-04-26T08:55:21.882Z</time></trkpt><trkpt lat="42.3702154" lon="12.9717505"><ele>414.33333333333337</ele><time>2026-04-26T08:55:22.883Z</time></trkpt><trkpt lat="42.3701177" lon="12.97191"><ele>417.0</ele><time>2026-04-26T08:55:23.879Z</time></trkpt><trkpt lat="42.3700177" lon="12.9720772"><ele>417.0</ele><time>2026-04-26T08:55:24.88Z</time></trkpt><trkpt lat="42.3699282" lon="12.9722607"><ele>417.0</ele><time>2026-04-26T08:55:25.876Z</time></trkpt><trkpt lat="42.3698588" lon="12.9724536"><ele>417.0</ele><time>2026-04-26T08:55:26.881Z</time></trkpt><trkpt lat="42.3698102" lon="12.9726487"><ele>414.66666666666663</ele><time>2026-04-26T08:55:27.887Z</time></trkpt><trkpt lat="42.3697719" lon="12.9728534"><ele>412.3333333333333</ele><time>2026-04-26T08:55:28.887Z</time></trkpt><trkpt lat="42.3697321" lon="12.973056"><ele>410.0</ele><time>2026-04-26T08:55:29.882Z</time></trkpt><trkpt lat="42.3696831" lon="12.9732566"><ele>412.0</ele><time>2026-04-26T08:55:30.889Z</time></trkpt><trkpt lat="42.3696152" lon="12.973451"><ele>414.0</ele><time>2026-04-26T08:55:31.891Z</time></trkpt><trkpt lat="42.3695303" lon="12.9736317"><ele>416.0</ele><time>2026-04-26T08:55:32.925Z</time></trkpt><trkpt lat="42.3694339" lon="12.9737805"><ele>416.0</ele><time>2026-04-26T08:55:33.887Z</time></trkpt><trkpt lat="42.3693163" lon="12.9738897"><ele>416.0</ele><time>2026-04-26T08:55:34.887Z</time></trkpt><trkpt lat="42.3691866" lon="12.9739684"><ele>416.0</ele><time>2026-04-26T08:55:35.887Z</time></trkpt><trkpt lat="42.369018" lon="12.9740364"><ele>415.3333333333333</ele><time>2026-04-26T08:55:36.885Z</time></trkpt><trkpt lat="42.3688402" lon="12.9741169"><ele>414.66666666666663</ele><time>2026-04-26T08:55:37.889Z</time></trkpt><trkpt lat="42.3686683" lon="12.9742248"><ele>414.0</ele><time>2026-04-26T08:55:38.886Z</time></trkpt><trkpt lat="42.3685139" lon="12.9743487"><ele>414.0</ele><time>2026-04-26T08:55:39.884Z</time></trkpt><trkpt lat="42.3683668" lon="12.9744859"><ele>414.0</ele><time>2026-04-26T08:55:40.886Z</time></trkpt><trkpt lat="42.3682091" lon="12.9746151"><ele>414.0</ele><time>2026-04-26T08:55:41.887Z</time></trkpt><trkpt lat="42.3680476" lon="12.9747244"><ele>415.0</ele><time>2026-04-26T08:55:42.889Z</time></trkpt><trkpt lat="42.3678825" lon="12.9748244"><ele>416.0</ele><time>2026-04-26T08:55:43.925Z</time></trkpt><trkpt lat="42.3677196" lon="12.9749341"><ele>417.0</ele><time>2026-04-26T08:55:44.886Z</time></trkpt><trkpt lat="42.3675701" lon="12.9750604"><ele>417.0</ele><time>2026-04-26T08:55:45.925Z</time></trkpt><trkpt lat="42.3674269" lon="12.9752148"><ele>417.0</ele><time>2026-04-26T08:55:46.875Z</time></trkpt><trkpt lat="42.3672915" lon="12.9753839"><ele>417.0</ele><time>2026-04-26T08:55:47.879Z</time></trkpt><trkpt lat="42.367166" lon="12.9755733"><ele>421.0</ele><time>2026-04-26T08:55:48.877Z</time></trkpt><trkpt lat="42.3670336" lon="12.9757772"><ele>425.0</ele><time>2026-04-26T08:55:49.88Z</time></trkpt><trkpt lat="42.3669057" lon="12.9759777"><ele>429.0</ele><time>2026-04-26T08:55:50.877Z</time></trkpt><trkpt lat="42.366777" lon="12.9761737"><ele>429.0</ele><time>2026-04-26T08:55:51.885Z</time></trkpt><trkpt lat="42.366656" lon="12.9763786"><ele>429.0</ele><time>2026-04-26T08:55:52.874Z</time></trkpt><trkpt lat="42.3665474" lon="12.9765897"><ele>429.0</ele><time>2026-04-26T08:55:53.883Z</time></trkpt><trkpt lat="42.3664507" lon="12.9768126"><ele>443.33333333333337</ele><time>2026-04-26T08:55:54.881Z</time></trkpt><trkpt lat="42.3663554" lon="12.9770358"><ele>457.6666666666667</ele><time>2026-04-26T08:55:55.88Z</time></trkpt><trkpt lat="42.3662779" lon="12.9772669"><ele>472.0</ele><time>2026-04-26T08:55:56.881Z</time></trkpt><trkpt lat="42.3662105" lon="12.9774974"><ele>466.6666666666667</ele><time>2026-04-26T08:55:57.878Z</time></trkpt><trkpt lat="42.3661566" lon="12.9777189"><ele>461.33333333333337</ele><time>2026-04-26T08:55:58.925Z</time></trkpt><trkpt lat="42.3661192" lon="12.9779223"><ele>456.0</ele><time>2026-04-26T08:55:59.881Z</time></trkpt><trkpt lat="42.3660881" lon="12.9781178"><ele>456.0</ele><time>2026-04-26T08:56:00.892Z</time></trkpt><trkpt lat="42.3660441" lon="12.9783099"><ele>456.0</ele><time>2026-04-26T08:56:01.874Z</time></trkpt><trkpt lat="42.3659847" lon="12.9785061"><ele>456.0</ele><time>2026-04-26T08:56:02.879Z</time></trkpt><trkpt lat="42.3659034" lon="12.9786967"><ele>449.33333333333337</ele><time>2026-04-26T08:56:03.878Z</time></trkpt><trkpt lat="42.3658269" lon="12.9788924"><ele>442.6666666666667</ele><time>2026-04-26T08:56:04.875Z</time></trkpt><trkpt lat="42.3657468" lon="12.979101"><ele>436.0</ele><time>2026-04-26T08:56:05.883Z</time></trkpt><trkpt lat="42.3656767" lon="12.9793164"><ele>430.6666666666667</ele><time>2026-04-26T08:56:06.88Z</time></trkpt><trkpt lat="42.3656258" lon="12.9795225"><ele>425.33333333333337</ele><time>2026-04-26T08:56:07.885Z</time></trkpt><trkpt lat="42.3655736" lon="12.979736"><ele>420.0</ele><time>2026-04-26T08:56:08.888Z</time></trkpt><trkpt lat="42.3655253" lon="12.9799648"><ele>425.66666666666663</ele><time>2026-04-26T08:56:09.886Z</time></trkpt><trkpt lat="42.3654577" lon="12.980202"><ele>431.3333333333333</ele><time>2026-04-26T08:56:10.887Z</time></trkpt><trkpt lat="42.3653681" lon="12.9804284"><ele>437.0</ele><time>2026-04-26T08:56:11.881Z</time></trkpt><trkpt lat="42.3652691" lon="12.980624"><ele>437.0</ele><time>2026-04-26T08:56:12.881Z</time></trkpt><trkpt lat="42.3651573" lon="12.9807828"><ele>437.0</ele><time>2026-04-26T08:56:13.889Z</time></trkpt><trkpt lat="42.36502" lon="12.9809128"><ele>437.0</ele><time>2026-04-26T08:56:14.884Z</time></trkpt><trkpt lat="42.3648627" lon="12.9810228"><ele>434.3333333333333</ele><time>2026-04-26T08:56:15.876Z</time></trkpt><trkpt lat="42.3646729" lon="12.9811192"><ele>431.66666666666663</ele><time>2026-04-26T08:56:16.874Z</time></trkpt><trkpt lat="42.3644973" lon="12.9811947"><ele>429.0</ele><time>2026-04-26T08:56:17.878Z</time></trkpt><trkpt lat="42.3643358" lon="12.9812649"><ele>429.0</ele><time>2026-04-26T08:56:18.876Z</time></trkpt><trkpt lat="42.3641688" lon="12.9813088"><ele>429.0</ele><time>2026-04-26T08:56:19.87Z</time></trkpt><trkpt lat="42.3640125" lon="12.981315"><ele>429.0</ele><time>2026-04-26T08:56:20.874Z</time></trkpt><trkpt lat="42.3638451" lon="12.9812968"><ele>431.33333333333337</ele><time>2026-04-26T08:56:21.882Z</time></trkpt><trkpt lat="42.3636839" lon="12.9812563"><ele>433.6666666666667</ele><time>2026-04-26T08:56:22.879Z</time></trkpt><trkpt lat="42.3635299" lon="12.9811945"><ele>436.0</ele><time>2026-04-26T08:56:23.888Z</time></trkpt><trkpt lat="42.3633822" lon="12.9811212"><ele>436.0</ele><time>2026-04-26T08:56:24.88Z</time></trkpt><trkpt lat="42.3632438" lon="12.9810363"><ele>436.0</ele><time>2026-04-26T08:56:25.881Z</time></trkpt><trkpt lat="42.3631187" lon="12.9809538"><ele>436.0</ele><time>2026-04-26T08:56:26.882Z</time></trkpt><trkpt lat="42.3630255" lon="12.9809062"><ele>436.0</ele><time>2026-04-26T08:56:27.883Z</time></trkpt><trkpt lat="42.362953" lon="12.9809055"><ele>443.0</ele><time>2026-04-26T08:56:28.875Z</time></trkpt><trkpt lat="42.3628783" lon="12.9809591"><ele>450.0</ele><time>2026-04-26T08:56:29.878Z</time></trkpt><trkpt lat="42.3628266" lon="12.9810621"><ele>457.0</ele><time>2026-04-26T08:56:30.879Z</time></trkpt><trkpt lat="42.3627983" lon="12.9812117"><ele>464.0</ele><time>2026-04-26T08:56:31.883Z</time></trkpt><trkpt lat="42.3627997" lon="12.9813823"><ele>471.0</ele><time>2026-04-26T08:56:32.877Z</time></trkpt><trkpt lat="42.3628325" lon="12.9815802"><ele>468.25</ele><time>2026-04-26T08:56:33.879Z</time></trkpt><trkpt lat="42.3628829" lon="12.9817835"><ele>465.5</ele><time>2026-04-26T08:56:34.872Z</time></trkpt><trkpt lat="42.3629271" lon="12.9819826"><ele>462.75</ele><time>2026-04-26T08:56:35.875Z</time></trkpt><trkpt lat="42.3629692" lon="12.9821573"><ele>460.0</ele><time>2026-04-26T08:56:36.881Z</time></trkpt><trkpt lat="42.3629971" lon="12.982318"><ele>460.0</ele><time>2026-04-26T08:56:37.877Z</time></trkpt><trkpt lat="42.3630066" lon="12.9824702"><ele>460.0</ele><time>2026-04-26T08:56:38.878Z</time></trkpt><trkpt lat="42.3629683" lon="12.9825869"><ele>460.0</ele><time>2026-04-26T08:56:39.88Z</time></trkpt><trkpt lat="42.3628893" lon="12.9826815"><ele>460.0</ele><time>2026-04-26T08:56:40.879Z</time></trkpt><trkpt lat="42.3627831" lon="12.982733"><ele>460.0</ele><time>2026-04-26T08:56:41.88Z</time></trkpt><trkpt lat="42.3626454" lon="12.9827666"><ele>457.25</ele><time>2026-04-26T08:56:42.877Z</time></trkpt><trkpt lat="42.3625032" lon="12.982773"><ele>454.5</ele><time>2026-04-26T08:56:43.88Z</time></trkpt><trkpt lat="42.3623647" lon="12.9827525"><ele>451.75</ele><time>2026-04-26T08:56:44.882Z</time></trkpt><trkpt lat="42.3622339" lon="12.9827256"><ele>449.0</ele><time>2026-04-26T08:56:45.878Z</time></trkpt><trkpt lat="42.3620989" lon="12.9827071"><ele>449.0</ele><time>2026-04-26T08:56:46.883Z</time></trkpt><trkpt lat="42.3619612" lon="12.9827127"><ele>449.0</ele><time>2026-04-26T08:56:47.883Z</time></trkpt><trkpt lat="42.3618334" lon="12.9827578"><ele>449.0</ele><time>2026-04-26T08:56:48.88Z</time></trkpt><trkpt lat="42.3617163" lon="12.9828399"><ele>449.0</ele><time>2026-04-26T08:56:49.883Z</time></trkpt><trkpt lat="42.3616168" lon="12.9829648"><ele>449.0</ele><time>2026-04-26T08:56:50.89Z</time></trkpt><trkpt lat="42.3615444" lon="12.9830926"><ele>449.0</ele><time>2026-04-26T08:56:51.884Z</time></trkpt><trkpt lat="42.3614975" lon="12.9833976"><ele>449.0</ele><time>2026-04-26T08:56:53.89Z</time></trkpt><trkpt lat="42.3614913" lon="12.9835642"><ele>447.75</ele><time>2026-04-26T08:56:54.889Z</time></trkpt><trkpt lat="42.3614747" lon="12.9837237"><ele>446.5</ele><time>2026-04-26T08:56:55.876Z</time></trkpt><trkpt lat="42.3614482" lon="12.9839012"><ele>445.25</ele><time>2026-04-26T08:56:56.881Z</time></trkpt><trkpt lat="42.3614266" lon="12.984084"><ele>444.0</ele><time>2026-04-26T08:56:57.881Z</time></trkpt><trkpt lat="42.3614191" lon="12.9842525"><ele>441.5</ele><time>2026-04-26T08:56:58.881Z</time></trkpt><trkpt lat="42.361428" lon="12.984414"><ele>439.0</ele><time>2026-04-26T08:56:59.879Z</time></trkpt><trkpt lat="42.3614358" lon="12.9845673"><ele>436.5</ele><time>2026-04-26T08:57:00.884Z</time></trkpt><trkpt lat="42.3614237" lon="12.9847077"><ele>434.0</ele><time>2026-04-26T08:57:01.887Z</time></trkpt><trkpt lat="42.3613661" lon="12.9848388"><ele>432.75</ele><time>2026-04-26T08:57:02.922Z</time></trkpt><trkpt lat="42.3612695" lon="12.9849551"><ele>431.5</ele><time>2026-04-26T08:57:03.881Z</time></trkpt><trkpt lat="42.3611571" lon="12.985031"><ele>430.25</ele><time>2026-04-26T08:57:04.878Z</time></trkpt><trkpt lat="42.361031" lon="12.9850566"><ele>429.0</ele><time>2026-04-26T08:57:05.885Z</time></trkpt><trkpt lat="42.3608982" lon="12.985067"><ele>429.0</ele><time>2026-04-26T08:57:06.887Z</time></trkpt><trkpt lat="42.3607456" lon="12.9850635"><ele>429.0</ele><time>2026-04-26T08:57:07.883Z</time></trkpt><trkpt lat="42.3605981" lon="12.9850522"><ele>429.0</ele><time>2026-04-26T08:57:08.893Z</time></trkpt><trkpt lat="42.3604446" lon="12.9850302"><ele>439.0</ele><time>2026-04-26T08:57:09.885Z</time></trkpt><trkpt lat="42.3602863" lon="12.9849971"><ele>449.0</ele><time>2026-04-26T08:57:10.887Z</time></trkpt><trkpt lat="42.3601404" lon="12.9849659"><ele>459.0</ele><time>2026-04-26T08:57:11.883Z</time></trkpt><trkpt lat="42.3599975" lon="12.9849613"><ele>459.0</ele><time>2026-04-26T08:57:12.888Z</time></trkpt><trkpt lat="42.3598655" lon="12.9849852"><ele>459.0</ele><time>2026-04-26T08:57:13.886Z</time></trkpt><trkpt lat="42.359743" lon="12.9850398"><ele>459.0</ele><time>2026-04-26T08:57:14.889Z</time></trkpt><trkpt lat="42.3596187" lon="12.9851348"><ele>459.0</ele><time>2026-04-26T08:57:15.885Z</time></trkpt><trkpt lat="42.3594807" lon="12.9852472"><ele>459.0</ele><time>2026-04-26T08:57:16.886Z</time></trkpt><trkpt lat="42.3593423" lon="12.9853681"><ele>459.0</ele><time>2026-04-26T08:57:17.885Z</time></trkpt><trkpt lat="42.3592153" lon="12.9854849"><ele>459.0</ele><time>2026-04-26T08:57:18.88Z</time></trkpt><trkpt lat="42.3591045" lon="12.9856004"><ele>459.0</ele><time>2026-04-26T08:57:19.886Z</time></trkpt><trkpt lat="42.3590229" lon="12.9857145"><ele>459.0</ele><time>2026-04-26T08:57:20.889Z</time></trkpt><trkpt lat="42.3589881" lon="12.9858372"><ele>459.0</ele><time>2026-04-26T08:57:21.879Z</time></trkpt><trkpt lat="42.3589923" lon="12.985975"><ele>459.0</ele><time>2026-04-26T08:57:22.879Z</time></trkpt><trkpt lat="42.3590022" lon="12.9861285"><ele>459.0</ele><time>2026-04-26T08:57:23.877Z</time></trkpt><trkpt lat="42.3590375" lon="12.9862585"><ele>461.75</ele><time>2026-04-26T08:57:24.885Z</time></trkpt><trkpt lat="42.3590854" lon="12.9863716"><ele>464.5</ele><time>2026-04-26T08:57:25.883Z</time></trkpt><trkpt lat="42.3591653" lon="12.9864717"><ele>467.25</ele><time>2026-04-26T08:57:26.882Z</time></trkpt><trkpt lat="42.3592686" lon="12.9865618"><ele>470.0</ele><time>2026-04-26T08:57:27.88Z</time></trkpt><trkpt lat="42.3593764" lon="12.9866555"><ele>470.25</ele><time>2026-04-26T08:57:28.88Z</time></trkpt><trkpt lat="42.3594759" lon="12.9867828"><ele>470.5</ele><time>2026-04-26T08:57:29.918Z</time></trkpt><trkpt lat="42.3595352" lon="12.9869408"><ele>470.75</ele><time>2026-04-26T08:57:30.878Z</time></trkpt><trkpt lat="42.359564" lon="12.9871084"><ele>471.0</ele><time>2026-04-26T08:57:31.88Z</time></trkpt><trkpt lat="42.3595818" lon="12.987265"><ele>471.0</ele><time>2026-04-26T08:57:32.873Z</time></trkpt><trkpt lat="42.3595446" lon="12.9873792"><ele>471.0</ele><time>2026-04-26T08:57:33.872Z</time></trkpt><trkpt lat="42.35946" lon="12.9874617"><ele>471.0</ele><time>2026-04-26T08:57:34.867Z</time></trkpt><trkpt lat="42.3593432" lon="12.9875231"><ele>471.0</ele><time>2026-04-26T08:57:35.879Z</time></trkpt><trkpt lat="42.3592333" lon="12.9875865"><ele>471.0</ele><time>2026-04-26T08:57:36.875Z</time></trkpt><trkpt lat="42.3591587" lon="12.9876854"><ele>471.25</ele><time>2026-04-26T08:57:37.874Z</time></trkpt><trkpt lat="42.3591195" lon="12.9878195"><ele>471.5</ele><time>2026-04-26T08:57:38.875Z</time></trkpt><trkpt lat="42.3590851" lon="12.9879694"><ele>471.75</ele><time>2026-04-26T08:57:39.879Z</time></trkpt><trkpt lat="42.3590915" lon="12.9881465"><ele>472.0</ele><time>2026-04-26T08:57:40.874Z</time></trkpt><trkpt lat="42.3591318" lon="12.9883568"><ele>472.0</ele><time>2026-04-26T08:57:41.883Z</time></trkpt><trkpt lat="42.3591776" lon="12.9885718"><ele>472.0</ele><time>2026-04-26T08:57:42.875Z</time></trkpt><trkpt lat="42.3592311" lon="12.9887812"><ele>472.0</ele><time>2026-04-26T08:57:43.88Z</time></trkpt><trkpt lat="42.3592952" lon="12.9889598"><ele>472.0</ele><time>2026-04-26T08:57:44.874Z</time></trkpt><trkpt lat="42.3593782" lon="12.9891212"><ele>472.0</ele><time>2026-04-26T08:57:45.881Z</time></trkpt><trkpt lat="42.3594722" lon="12.989253"><ele>472.0</ele><time>2026-04-26T08:57:46.881Z</time></trkpt><trkpt lat="42.359549" lon="12.9893695"><ele>472.0</ele><time>2026-04-26T08:57:47.879Z</time></trkpt><trkpt lat="42.3595802" lon="12.9895045"><ele>469.6</ele><time>2026-04-26T08:57:48.882Z</time></trkpt><trkpt lat="42.3595724" lon="12.9896262"><ele>467.20000000000005</ele><time>2026-04-26T08:57:49.885Z</time></trkpt><trkpt lat="42.3595215" lon="12.9897233"><ele>464.8</ele><time>2026-04-26T08:57:50.881Z</time></trkpt><trkpt lat="42.3594462" lon="12.9897943"><ele>462.4</ele><time>2026-04-26T08:57:51.882Z</time></trkpt><trkpt lat="42.3593239" lon="12.9898303"><ele>460.0</ele><time>2026-04-26T08:57:52.874Z</time></trkpt><trkpt lat="42.3591547" lon="12.9898531"><ele>460.0</ele><time>2026-04-26T08:57:53.879Z</time></trkpt><trkpt lat="42.3589892" lon="12.9898657"><ele>460.0</ele><time>2026-04-26T08:57:54.882Z</time></trkpt><trkpt lat="42.3588199" lon="12.9898658"><ele>460.0</ele><time>2026-04-26T08:57:55.883Z</time></trkpt><trkpt lat="42.35864" lon="12.9898572"><ele>463.6666666666667</ele><time>2026-04-26T08:57:56.917Z</time></trkpt><trkpt lat="42.3584631" lon="12.9898265"><ele>467.33333333333337</ele><time>2026-04-26T08:57:57.882Z</time></trkpt><trkpt lat="42.3582946" lon="12.989789"><ele>471.0</ele><time>2026-04-26T08:57:58.88Z</time></trkpt><trkpt lat="42.3581421" lon="12.9897694"><ele>476.66666666666663</ele><time>2026-04-26T08:57:59.884Z</time></trkpt><trkpt lat="42.3579804" lon="12.9897575"><ele>482.3333333333333</ele><time>2026-04-26T08:58:00.884Z</time></trkpt><trkpt lat="42.3578181" lon="12.9897636"><ele>488.0</ele><time>2026-04-26T08:58:01.873Z</time></trkpt><trkpt lat="42.3576651" lon="12.9897824"><ele>488.0</ele><time>2026-04-26T08:58:02.882Z</time></trkpt><trkpt lat="42.3575301" lon="12.9898247"><ele>488.0</ele><time>2026-04-26T08:58:03.878Z</time></trkpt><trkpt lat="42.3574167" lon="12.9898695"><ele>488.0</ele><time>2026-04-26T08:58:04.876Z</time></trkpt><trkpt lat="42.3573239" lon="12.9899322"><ele>488.0</ele><time>2026-04-26T08:58:05.881Z</time></trkpt><trkpt lat="42.357263" lon="12.9900295"><ele>488.2</ele><time>2026-04-26T08:58:06.912Z</time></trkpt><trkpt lat="42.3572243" lon="12.9901332"><ele>488.4</ele><time>2026-04-26T08:58:07.877Z</time></trkpt><trkpt lat="42.3572326" lon="12.99025"><ele>488.59999999999997</ele><time>2026-04-26T08:58:08.884Z</time></trkpt><trkpt lat="42.3572742" lon="12.9903778"><ele>488.79999999999995</ele><time>2026-04-26T08:58:09.886Z</time></trkpt><trkpt lat="42.3573215" lon="12.9905369"><ele>489.0</ele><time>2026-04-26T08:58:10.878Z</time></trkpt><trkpt lat="42.3573858" lon="12.9907133"><ele>488.79999999999995</ele><time>2026-04-26T08:58:11.884Z</time></trkpt><trkpt lat="42.3574601" lon="12.9908717"><ele>488.59999999999997</ele><time>2026-04-26T08:58:12.887Z</time></trkpt><trkpt lat="42.3575429" lon="12.9910006"><ele>488.4</ele><time>2026-04-26T08:58:13.878Z</time></trkpt><trkpt lat="42.3575973" lon="12.9911098"><ele>488.2</ele><time>2026-04-26T08:58:14.881Z</time></trkpt><trkpt lat="42.3576257" lon="12.9912089"><ele>488.0</ele><time>2026-04-26T08:58:15.881Z</time></trkpt><trkpt lat="42.3576045" lon="12.9913246"><ele>488.0</ele><time>2026-04-26T08:58:16.887Z</time></trkpt><trkpt lat="42.3575347" lon="12.9914284"><ele>488.0</ele><time>2026-04-26T08:58:17.877Z</time></trkpt><trkpt lat="42.3574501" lon="12.9915128"><ele>488.0</ele><time>2026-04-26T08:58:18.881Z</time></trkpt><trkpt lat="42.3573403" lon="12.9915843"><ele>488.0</ele><time>2026-04-26T08:58:19.879Z</time></trkpt><trkpt lat="42.3571887" lon="12.991645"><ele>493.0</ele><time>2026-04-26T08:58:20.879Z</time></trkpt><trkpt lat="42.3570386" lon="12.9916947"><ele>498.0</ele><time>2026-04-26T08:58:21.876Z</time></trkpt><trkpt lat="42.3568968" lon="12.9917379"><ele>503.0</ele><time>2026-04-26T08:58:22.881Z</time></trkpt><trkpt lat="42.356761" lon="12.9917711"><ele>508.0</ele><time>2026-04-26T08:58:23.878Z</time></trkpt><trkpt lat="42.3566346" lon="12.9917941"><ele>508.00000000000006</ele><time>2026-04-26T08:58:24.892Z</time></trkpt><trkpt lat="42.3565199" lon="12.9918046"><ele>508.0</ele><time>2026-04-26T08:58:25.883Z</time></trkpt><trkpt lat="42.3564191" lon="12.9918181"><ele>508.0</ele><time>2026-04-26T08:58:26.881Z</time></trkpt><trkpt lat="42.3563495" lon="12.991854"><ele>508.0</ele><time>2026-04-26T08:58:27.878Z</time></trkpt><trkpt lat="42.356294" lon="12.9919146"><ele>508.00000000000006</ele><time>2026-04-26T08:58:28.88Z</time></trkpt><trkpt lat="42.3562656" lon="12.9920123"><ele>508.0</ele><time>2026-04-26T08:58:29.885Z</time></trkpt><trkpt lat="42.3562754" lon="12.9921182"><ele>508.0</ele><time>2026-04-26T08:58:30.884Z</time></trkpt><trkpt lat="42.3563347" lon="12.9922244"><ele>508.0</ele><time>2026-04-26T08:58:31.88Z</time></trkpt><trkpt lat="42.3564155" lon="12.9923651"><ele>508.0</ele><time>2026-04-26T08:58:32.878Z</time></trkpt><trkpt lat="42.3565205" lon="12.9925032"><ele>508.0</ele><time>2026-04-26T08:58:33.881Z</time></trkpt><trkpt lat="42.35662" lon="12.9926439"><ele>515.6666666666667</ele><time>2026-04-26T08:58:34.877Z</time></trkpt><trkpt lat="42.3567219" lon="12.9927962"><ele>523.3333333333334</ele><time>2026-04-26T08:58:35.881Z</time></trkpt><trkpt lat="42.356832" lon="12.9929584"><ele>531.0</ele><time>2026-04-26T08:58:36.883Z</time></trkpt><trkpt lat="42.3569324" lon="12.9931191"><ele>531.0</ele><time>2026-04-26T08:58:37.872Z</time></trkpt><trkpt lat="42.3570409" lon="12.9932668"><ele>531.0</ele><time>2026-04-26T08:58:38.882Z</time></trkpt><trkpt lat="42.3571635" lon="12.9933731"><ele>531.0</ele><time>2026-04-26T08:58:39.88Z</time></trkpt><trkpt lat="42.3572848" lon="12.9934416"><ele>531.0</ele><time>2026-04-26T08:58:40.884Z</time></trkpt><trkpt lat="42.3574113" lon="12.9935252"><ele>532.0</ele><time>2026-04-26T08:58:41.88Z</time></trkpt><trkpt lat="42.3575487" lon="12.9936307"><ele>533.0</ele><time>2026-04-26T08:58:42.896Z</time></trkpt><trkpt lat="42.3576704" lon="12.9937542"><ele>534.0</ele><time>2026-04-26T08:58:43.882Z</time></trkpt><trkpt lat="42.3577856" lon="12.9939071"><ele>534.0</ele><time>2026-04-26T08:58:44.879Z</time></trkpt><trkpt lat="42.3578982" lon="12.9940658"><ele>534.0</ele><time>2026-04-26T08:58:45.884Z</time></trkpt><trkpt lat="42.357991" lon="12.9942218"><ele>534.0</ele><time>2026-04-26T08:58:46.884Z</time></trkpt><trkpt lat="42.3580723" lon="12.994368"><ele>534.0</ele><time>2026-04-26T08:58:47.889Z</time></trkpt><trkpt lat="42.3581431" lon="12.9945212"><ele>530.5</ele><time>2026-04-26T08:58:48.879Z</time></trkpt><trkpt lat="42.3582032" lon="12.99469"><ele>527.0</ele><time>2026-04-26T08:58:49.881Z</time></trkpt><trkpt lat="42.3582359" lon="12.994876"><ele>523.5</ele><time>2026-04-26T08:58:50.882Z</time></trkpt><trkpt lat="42.3582558" lon="12.9950576"><ele>520.0</ele><time>2026-04-26T08:58:51.887Z</time></trkpt><trkpt lat="42.3582686" lon="12.9952309"><ele>520.0</ele><time>2026-04-26T08:58:52.893Z</time></trkpt><trkpt lat="42.3582747" lon="12.9953982"><ele>520.0</ele><time>2026-04-26T08:58:53.881Z</time></trkpt><trkpt lat="42.3582501" lon="12.9955697"><ele>520.0</ele><time>2026-04-26T08:58:54.882Z</time></trkpt><trkpt lat="42.3582135" lon="12.9957302"><ele>520.0</ele><time>2026-04-26T08:58:55.882Z</time></trkpt><trkpt lat="42.3581547" lon="12.9958734"><ele>519.8</ele><time>2026-04-26T08:58:56.879Z</time></trkpt><trkpt lat="42.3580784" lon="12.9959934"><ele>519.6</ele><time>2026-04-26T08:58:57.887Z</time></trkpt><trkpt lat="42.3579877" lon="12.9960959"><ele>519.4</ele><time>2026-04-26T08:58:58.884Z</time></trkpt><trkpt lat="42.3579086" lon="12.9961905"><ele>519.2</ele><time>2026-04-26T08:58:59.886Z</time></trkpt><trkpt lat="42.3578279" lon="12.9962751"><ele>519.0</ele><time>2026-04-26T08:59:00.881Z</time></trkpt><trkpt lat="42.3577429" lon="12.9963483"><ele>519.0</ele><time>2026-04-26T08:59:01.922Z</time></trkpt><trkpt lat="42.3576347" lon="12.9963732"><ele>519.0</ele><time>2026-04-26T08:59:02.884Z</time></trkpt><trkpt lat="42.3575185" lon="12.9963638"><ele>519.0</ele><time>2026-04-26T08:59:03.88Z</time></trkpt><trkpt lat="42.357403" lon="12.9963303"><ele>519.0</ele><time>2026-04-26T08:59:04.888Z</time></trkpt><trkpt lat="42.3572887" lon="12.9962622"><ele>521.0</ele><time>2026-04-26T08:59:05.883Z</time></trkpt><trkpt lat="42.3571877" lon="12.9962119"><ele>523.0</ele><time>2026-04-26T08:59:06.884Z</time></trkpt><trkpt lat="42.3570735" lon="12.9961925"><ele>525.0</ele><time>2026-04-26T08:59:07.883Z</time></trkpt><trkpt lat="42.3569324" lon="12.9961895"><ele>527.0</ele><time>2026-04-26T08:59:08.879Z</time></trkpt><trkpt lat="42.3568158" lon="12.9961478"><ele>527.0</ele><time>2026-04-26T08:59:09.891Z</time></trkpt><trkpt lat="42.3567248" lon="12.9960474"><ele>527.0</ele><time>2026-04-26T08:59:10.883Z</time></trkpt><trkpt lat="42.3566203" lon="12.9958975"><ele>527.0</ele><time>2026-04-26T08:59:11.876Z</time></trkpt><trkpt lat="42.3565183" lon="12.9957045"><ele>527.0</ele><time>2026-04-26T08:59:12.886Z</time></trkpt><trkpt lat="42.3564288" lon="12.9955158"><ele>535.3333333333333</ele><time>2026-04-26T08:59:13.886Z</time></trkpt><trkpt lat="42.3563408" lon="12.9953309"><ele>543.6666666666666</ele><time>2026-04-26T08:59:14.929Z</time></trkpt><trkpt lat="42.3562412" lon="12.9951764"><ele>552.0</ele><time>2026-04-26T08:59:15.88Z</time></trkpt><trkpt lat="42.3561004" lon="12.9950742"><ele>552.0</ele><time>2026-04-26T08:59:16.875Z</time></trkpt><trkpt lat="42.355947" lon="12.9949883"><ele>552.0</ele><time>2026-04-26T08:59:17.876Z</time></trkpt><trkpt lat="42.3557926" lon="12.9949253"><ele>552.0</ele><time>2026-04-26T08:59:18.878Z</time></trkpt><trkpt lat="42.3556535" lon="12.9948786"><ele>554.8000000000001</ele><time>2026-04-26T08:59:19.873Z</time></trkpt><trkpt lat="42.3555228" lon="12.9948663"><ele>557.6</ele><time>2026-04-26T08:59:20.883Z</time></trkpt><trkpt lat="42.35542" lon="12.9948889"><ele>560.4000000000001</ele><time>2026-04-26T08:59:21.879Z</time></trkpt><trkpt lat="42.3553448" lon="12.9949664"><ele>563.2</ele><time>2026-04-26T08:59:22.888Z</time></trkpt><trkpt lat="42.3552924" lon="12.9950754"><ele>566.0</ele><time>2026-04-26T08:59:23.875Z</time></trkpt><trkpt lat="42.3552599" lon="12.9951876"><ele>567.0</ele><time>2026-04-26T08:59:24.881Z</time></trkpt><trkpt lat="42.3552689" lon="12.9952967"><ele>568.0</ele><time>2026-04-26T08:59:25.882Z</time></trkpt><trkpt lat="42.3553197" lon="12.9953971"><ele>569.0</ele><time>2026-04-26T08:59:26.879Z</time></trkpt><trkpt lat="42.3553925" lon="12.995465"><ele>570.0</ele><time>2026-04-26T08:59:27.915Z</time></trkpt><trkpt lat="42.3554996" lon="12.9955204"><ele>571.0</ele><time>2026-04-26T08:59:28.875Z</time></trkpt><trkpt lat="42.355603" lon="12.9955956"><ele>568.25</ele><time>2026-04-26T08:59:29.884Z</time></trkpt><trkpt lat="42.3556952" lon="12.9956886"><ele>565.5</ele><time>2026-04-26T08:59:30.875Z</time></trkpt><trkpt lat="42.3557644" lon="12.9958101"><ele>562.75</ele><time>2026-04-26T08:59:31.881Z</time></trkpt><trkpt lat="42.3558243" lon="12.9959612"><ele>560.0</ele><time>2026-04-26T08:59:32.876Z</time></trkpt><trkpt lat="42.3558411" lon="12.9961385"><ele>560.0</ele><time>2026-04-26T08:59:33.879Z</time></trkpt><trkpt lat="42.3558341" lon="12.9963019"><ele>560.0</ele><time>2026-04-26T08:59:34.877Z</time></trkpt><trkpt lat="42.3557978" lon="12.9964435"><ele>560.0</ele><time>2026-04-26T08:59:35.874Z</time></trkpt><trkpt lat="42.3557521" lon="12.9965886"><ele>560.0</ele><time>2026-04-26T08:59:36.875Z</time></trkpt><trkpt lat="42.3557201" lon="12.9967261"><ele>564.5</ele><time>2026-04-26T08:59:37.872Z</time></trkpt><trkpt lat="42.3557351" lon="12.996865"><ele>569.0</ele><time>2026-04-26T08:59:38.881Z</time></trkpt><trkpt lat="42.3557711" lon="12.997003"><ele>573.5</ele><time>2026-04-26T08:59:39.872Z</time></trkpt><trkpt lat="42.3558156" lon="12.9971713"><ele>578.0</ele><time>2026-04-26T08:59:40.876Z</time></trkpt><trkpt lat="42.3558828" lon="12.9973596"><ele>583.6666666666666</ele><time>2026-04-26T08:59:41.921Z</time></trkpt><trkpt lat="42.3559573" lon="12.9975555"><ele>589.3333333333334</ele><time>2026-04-26T08:59:42.875Z</time></trkpt><trkpt lat="42.3560412" lon="12.9977411"><ele>595.0</ele><time>2026-04-26T08:59:43.879Z</time></trkpt><trkpt lat="42.3561182" lon="12.9979335"><ele>595.0</ele><time>2026-04-26T08:59:44.88Z</time></trkpt><trkpt lat="42.3561757" lon="12.9981158"><ele>595.0</ele><time>2026-04-26T08:59:45.874Z</time></trkpt><trkpt lat="42.3562645" lon="12.9982582"><ele>595.0</ele><time>2026-04-26T08:59:46.877Z</time></trkpt><trkpt lat="42.3563812" lon="12.9983645"><ele>595.0</ele><time>2026-04-26T08:59:47.882Z</time></trkpt><trkpt lat="42.356522" lon="12.9984523"><ele>590.5</ele><time>2026-04-26T08:59:48.881Z</time></trkpt><trkpt lat="42.3566659" lon="12.9985425"><ele>586.0</ele><time>2026-04-26T08:59:49.888Z</time></trkpt><trkpt lat="42.3567694" lon="12.9986409"><ele>581.5</ele><time>2026-04-26T08:59:50.88Z</time></trkpt><trkpt lat="42.3568206" lon="12.9987507"><ele>577.0</ele><time>2026-04-26T08:59:51.883Z</time></trkpt><trkpt lat="42.3568325" lon="12.9988651"><ele>577.0</ele><time>2026-04-26T08:59:52.92Z</time></trkpt><trkpt lat="42.3568077" lon="12.9989686"><ele>577.0</ele><time>2026-04-26T08:59:53.882Z</time></trkpt><trkpt lat="42.3567427" lon="12.9991003"><ele>577.0</ele><time>2026-04-26T08:59:54.872Z</time></trkpt><trkpt lat="42.3566564" lon="12.9992475"><ele>577.0</ele><time>2026-04-26T08:59:55.879Z</time></trkpt><trkpt lat="42.3565708" lon="12.9993951"><ele>575.0</ele><time>2026-04-26T08:59:56.879Z</time></trkpt><trkpt lat="42.3564842" lon="12.9995415"><ele>573.0</ele><time>2026-04-26T08:59:57.886Z</time></trkpt><trkpt lat="42.3563966" lon="12.9996824"><ele>571.0</ele><time>2026-04-26T08:59:58.881Z</time></trkpt><trkpt lat="42.3563136" lon="12.9997876"><ele>569.0</ele><time>2026-04-26T08:59:59.888Z</time></trkpt><trkpt lat="42.3562262" lon="12.999851"><ele>569.0</ele><time>2026-04-26T09:00:00.884Z</time></trkpt><trkpt lat="42.3561389" lon="12.9998753"><ele>569.0</ele><time>2026-04-26T09:00:01.885Z</time></trkpt><trkpt lat="42.3560497" lon="12.9998498"><ele>569.0</ele><time>2026-04-26T09:00:02.881Z</time></trkpt><trkpt lat="42.3559351" lon="12.9997772"><ele>569.0</ele><time>2026-04-26T09:00:03.879Z</time></trkpt><trkpt lat="42.3558204" lon="12.9996647"><ele>569.0</ele><time>2026-04-26T09:00:04.884Z</time></trkpt><trkpt lat="42.3557264" lon="12.9995188"><ele>569.0</ele><time>2026-04-26T09:00:05.886Z</time></trkpt><trkpt lat="42.3556151" lon="12.9993318"><ele>569.0</ele><time>2026-04-26T09:00:06.889Z</time></trkpt><trkpt lat="42.3555014" lon="12.999169"><ele>569.0</ele><time>2026-04-26T09:00:07.879Z</time></trkpt><trkpt lat="42.3553838" lon="12.9990143"><ele>573.0</ele><time>2026-04-26T09:00:08.894Z</time></trkpt><trkpt lat="42.3552537" lon="12.9988601"><ele>577.0</ele><time>2026-04-26T09:00:09.877Z</time></trkpt><trkpt lat="42.3551271" lon="12.9987153"><ele>581.0</ele><time>2026-04-26T09:00:10.884Z</time></trkpt><trkpt lat="42.3549936" lon="12.9985994"><ele>581.0</ele><time>2026-04-26T09:00:11.882Z</time></trkpt><trkpt lat="42.3548532" lon="12.9985178"><ele>581.0</ele><time>2026-04-26T09:00:12.885Z</time></trkpt><trkpt lat="42.3547109" lon="12.9984484"><ele>581.0</ele><time>2026-04-26T09:00:13.886Z</time></trkpt><trkpt lat="42.3545701" lon="12.9984008"><ele>581.0</ele><time>2026-04-26T09:00:14.885Z</time></trkpt><trkpt lat="42.3544334" lon="12.9983691"><ele>584.75</ele><time>2026-04-26T09:00:15.887Z</time></trkpt><trkpt lat="42.3543327" lon="12.998306"><ele>588.5</ele><time>2026-04-26T09:00:16.885Z</time></trkpt><trkpt lat="42.3542659" lon="12.9981909"><ele>592.25</ele><time>2026-04-26T09:00:17.882Z</time></trkpt><trkpt lat="42.3542024" lon="12.9980395"><ele>596.0</ele><time>2026-04-26T09:00:18.876Z</time></trkpt><trkpt lat="42.3541424" lon="12.9979109"><ele>596.0</ele><time>2026-04-26T09:00:19.883Z</time></trkpt><trkpt lat="42.3540666" lon="12.9978225"><ele>596.0</ele><time>2026-04-26T09:00:20.879Z</time></trkpt><trkpt lat="42.3539834" lon="12.9977684"><ele>596.0</ele><time>2026-04-26T09:00:21.919Z</time></trkpt><trkpt lat="42.3538861" lon="12.9977623"><ele>596.0</ele><time>2026-04-26T09:00:22.877Z</time></trkpt><trkpt lat="42.353776" lon="12.9978054"><ele>596.0</ele><time>2026-04-26T09:00:23.877Z</time></trkpt><trkpt lat="42.353683" lon="12.9978548"><ele>598.75</ele><time>2026-04-26T09:00:24.886Z</time></trkpt><trkpt lat="42.3535727" lon="12.997909"><ele>601.5</ele><time>2026-04-26T09:00:25.878Z</time></trkpt><trkpt lat="42.3534404" lon="12.9979283"><ele>604.25</ele><time>2026-04-26T09:00:26.883Z</time></trkpt><trkpt lat="42.3532938" lon="12.9979262"><ele>607.0</ele><time>2026-04-26T09:00:27.882Z</time></trkpt><trkpt lat="42.3531616" lon="12.9979226"><ele>607.0</ele><time>2026-04-26T09:00:28.875Z</time></trkpt><trkpt lat="42.3530482" lon="12.997934"><ele>607.0</ele><time>2026-04-26T09:00:29.884Z</time></trkpt><trkpt lat="42.3529697" lon="12.9979746"><ele>607.0</ele><time>2026-04-26T09:00:30.876Z</time></trkpt><trkpt lat="42.3529203" lon="12.9980583"><ele>607.0</ele><time>2026-04-26T09:00:31.924Z</time></trkpt><trkpt lat="42.3529322" lon="12.9981581"><ele>607.0</ele><time>2026-04-26T09:00:32.921Z</time></trkpt><trkpt lat="42.3529602" lon="12.9982355"><ele>607.0</ele><time>2026-04-26T09:00:33.877Z</time></trkpt><trkpt lat="42.3530192" lon="12.9983451"><ele>609.5</ele><time>2026-04-26T09:00:34.877Z</time></trkpt><trkpt lat="42.3530959" lon="12.998465"><ele>612.0</ele><time>2026-04-26T09:00:35.883Z</time></trkpt><trkpt lat="42.3531912" lon="12.9986051"><ele>614.5</ele><time>2026-04-26T09:00:36.879Z</time></trkpt><trkpt lat="42.3532852" lon="12.9987601"><ele>617.0</ele><time>2026-04-26T09:00:37.879Z</time></trkpt><trkpt lat="42.3533638" lon="12.9989141"><ele>617.0</ele><time>2026-04-26T09:00:38.883Z</time></trkpt><trkpt lat="42.3534258" lon="12.9990858"><ele>617.0</ele><time>2026-04-26T09:00:39.882Z</time></trkpt><trkpt lat="42.3534834" lon="12.9992832"><ele>617.0</ele><time>2026-04-26T09:00:40.886Z</time></trkpt><trkpt lat="42.3535131" lon="12.9995031"><ele>617.8000000000001</ele><time>2026-04-26T09:00:41.883Z</time></trkpt><trkpt lat="42.3535258" lon="12.9997059"><ele>618.6</ele><time>2026-04-26T09:00:42.89Z</time></trkpt><trkpt lat="42.3535289" lon="12.9998708"><ele>619.4000000000001</ele><time>2026-04-26T09:00:43.882Z</time></trkpt><trkpt lat="42.3535201" lon="12.9999862"><ele>620.2</ele><time>2026-04-26T09:00:44.931Z</time></trkpt><trkpt lat="42.3534761" lon="13.0000699"><ele>621.0</ele><time>2026-04-26T09:00:45.883Z</time></trkpt><trkpt lat="42.3534043" lon="13.0001318"><ele>621.0</ele><time>2026-04-26T09:00:46.884Z</time></trkpt><trkpt lat="42.3533176" lon="13.0001786"><ele>621.0</ele><time>2026-04-26T09:00:47.882Z</time></trkpt><trkpt lat="42.3531899" lon="13.0002029"><ele>621.0</ele><time>2026-04-26T09:00:48.883Z</time></trkpt><trkpt lat="42.3530599" lon="13.0002359"><ele>621.0</ele><time>2026-04-26T09:00:49.881Z</time></trkpt><trkpt lat="42.3529421" lon="13.0002725"><ele>626.0</ele><time>2026-04-26T09:00:50.883Z</time></trkpt><trkpt lat="42.3528454" lon="13.0003265"><ele>631.0</ele><time>2026-04-26T09:00:51.877Z</time></trkpt><trkpt lat="42.3527754" lon="13.0003998"><ele>636.0</ele><time>2026-04-26T09:00:52.881Z</time></trkpt><trkpt lat="42.3527483" lon="13.0005519"><ele>641.0</ele><time>2026-04-26T09:00:53.875Z</time></trkpt><trkpt lat="42.3527119" lon="13.0007361"><ele>639.3333333333333</ele><time>2026-04-26T09:00:54.882Z</time></trkpt><trkpt lat="42.3527072" lon="13.0009473"><ele>637.6666666666666</ele><time>2026-04-26T09:00:55.877Z</time></trkpt><trkpt lat="42.3526948" lon="13.0011531"><ele>636.0</ele><time>2026-04-26T09:00:56.889Z</time></trkpt><trkpt lat="42.3526919" lon="13.0013617"><ele>636.0</ele><time>2026-04-26T09:00:57.883Z</time></trkpt><trkpt lat="42.352706" lon="13.0015827"><ele>636.0</ele><time>2026-04-26T09:00:58.879Z</time></trkpt><trkpt lat="42.3527218" lon="13.0018304"><ele>636.0</ele><time>2026-04-26T09:00:59.874Z</time></trkpt><trkpt lat="42.3527426" lon="13.0020601"><ele>636.3333333333334</ele><time>2026-04-26T09:01:00.877Z</time></trkpt><trkpt lat="42.3527641" lon="13.0022817"><ele>636.6666666666667</ele><time>2026-04-26T09:01:01.882Z</time></trkpt><trkpt lat="42.3527775" lon="13.002508"><ele>637.0</ele><time>2026-04-26T09:01:02.879Z</time></trkpt><trkpt lat="42.352793" lon="13.0027316"><ele>638.0</ele><time>2026-04-26T09:01:03.883Z</time></trkpt><trkpt lat="42.3528181" lon="13.0029548"><ele>639.0</ele><time>2026-04-26T09:01:04.881Z</time></trkpt><trkpt lat="42.3528769" lon="13.0031906"><ele>640.0</ele><time>2026-04-26T09:01:05.878Z</time></trkpt><trkpt lat="42.3529459" lon="13.0034131"><ele>641.25</ele><time>2026-04-26T09:01:06.878Z</time></trkpt><trkpt lat="42.3530121" lon="13.003613"><ele>642.5</ele><time>2026-04-26T09:01:07.885Z</time></trkpt><trkpt lat="42.3530783" lon="13.003778"><ele>643.75</ele><time>2026-04-26T09:01:08.882Z</time></trkpt><trkpt lat="42.3531088" lon="13.0039173"><ele>645.0</ele><time>2026-04-26T09:01:09.888Z</time></trkpt><trkpt lat="42.3531141" lon="13.0040484"><ele>646.75</ele><time>2026-04-26T09:01:10.881Z</time></trkpt><trkpt lat="42.353081" lon="13.0041761"><ele>648.5</ele><time>2026-04-26T09:01:11.886Z</time></trkpt><trkpt lat="42.3530028" lon="13.0042968"><ele>650.25</ele><time>2026-04-26T09:01:12.874Z</time></trkpt><trkpt lat="42.3529085" lon="13.0043862"><ele>652.0</ele><time>2026-04-26T09:01:13.881Z</time></trkpt><trkpt lat="42.3527856" lon="13.0044634"><ele>652.0</ele><time>2026-04-26T09:01:14.879Z</time></trkpt><trkpt lat="42.35265" lon="13.0045545"><ele>652.0</ele><time>2026-04-26T09:01:15.886Z</time></trkpt><trkpt lat="42.3525142" lon="13.0046318"><ele>652.0</ele><time>2026-04-26T09:01:16.879Z</time></trkpt><trkpt lat="42.3523934" lon="13.0046827"><ele>652.0</ele><time>2026-04-26T09:01:17.883Z</time></trkpt><trkpt lat="42.3522829" lon="13.004713"><ele>654.75</ele><time>2026-04-26T09:01:18.885Z</time></trkpt><trkpt lat="42.3521673" lon="13.0047104"><ele>657.5</ele><time>2026-04-26T09:01:19.88Z</time></trkpt><trkpt lat="42.3520357" lon="13.0046756"><ele>660.25</ele><time>2026-04-26T09:01:20.881Z</time></trkpt><trkpt lat="42.3518879" lon="13.0046169"><ele>663.0</ele><time>2026-04-26T09:01:21.887Z</time></trkpt><trkpt lat="42.3517345" lon="13.0045446"><ele>663.0</ele><time>2026-04-26T09:01:22.874Z</time></trkpt><trkpt lat="42.3516056" lon="13.0044569"><ele>663.0</ele><time>2026-04-26T09:01:23.891Z</time></trkpt><trkpt lat="42.3514906" lon="13.004381"><ele>663.0</ele><time>2026-04-26T09:01:24.88Z</time></trkpt><trkpt lat="42.3513929" lon="13.0043085"><ele>663.0</ele><time>2026-04-26T09:01:25.884Z</time></trkpt><trkpt lat="42.3513046" lon="13.0042796"><ele>664.0</ele><time>2026-04-26T09:01:26.882Z</time></trkpt><trkpt lat="42.3512203" lon="13.0043052"><ele>665.0</ele><time>2026-04-26T09:01:27.889Z</time></trkpt><trkpt lat="42.3511338" lon="13.0043846"><ele>666.0</ele><time>2026-04-26T09:01:28.882Z</time></trkpt><trkpt lat="42.3510376" lon="13.0045046"><ele>667.0</ele><time>2026-04-26T09:01:29.877Z</time></trkpt><trkpt lat="42.3509711" lon="13.0046228"><ele>668.0</ele><time>2026-04-26T09:01:30.882Z</time></trkpt><trkpt lat="42.3509427" lon="13.0047714"><ele>668.0</ele><time>2026-04-26T09:01:31.881Z</time></trkpt><trkpt lat="42.3509206" lon="13.0049414"><ele>668.0</ele><time>2026-04-26T09:01:32.895Z</time></trkpt><trkpt lat="42.350884" lon="13.0051096"><ele>668.0</ele><time>2026-04-26T09:01:33.886Z</time></trkpt><trkpt lat="42.3507959" lon="13.0052719"><ele>668.0</ele><time>2026-04-26T09:01:34.881Z</time></trkpt><trkpt lat="42.3506932" lon="13.0054102"><ele>667.25</ele><time>2026-04-26T09:01:35.879Z</time></trkpt><trkpt lat="42.3506068" lon="13.0055454"><ele>666.5</ele><time>2026-04-26T09:01:36.933Z</time></trkpt><trkpt lat="42.3505188" lon="13.0056698"><ele>665.75</ele><time>2026-04-26T09:01:37.881Z</time></trkpt><trkpt lat="42.3504366" lon="13.0057645"><ele>665.0</ele><time>2026-04-26T09:01:38.925Z</time></trkpt><trkpt lat="42.3503407" lon="13.0057987"><ele>668.0</ele><time>2026-04-26T09:01:39.878Z</time></trkpt><trkpt lat="42.3502441" lon="13.005797"><ele>671.0</ele><time>2026-04-26T09:01:40.887Z</time></trkpt><trkpt lat="42.3501419" lon="13.0057345"><ele>674.0</ele><time>2026-04-26T09:01:41.883Z</time></trkpt><trkpt lat="42.3500306" lon="13.005642"><ele>677.0</ele><time>2026-04-26T09:01:42.882Z</time></trkpt><trkpt lat="42.3499228" lon="13.0055669"><ele>677.0</ele><time>2026-04-26T09:01:43.882Z</time></trkpt><trkpt lat="42.3498288" lon="13.0055208"><ele>677.0</ele><time>2026-04-26T09:01:44.877Z</time></trkpt><trkpt lat="42.3497432" lon="13.0055157"><ele>677.0</ele><time>2026-04-26T09:01:45.885Z</time></trkpt><trkpt lat="42.3496687" lon="13.0055527"><ele>677.0</ele><time>2026-04-26T09:01:46.878Z</time></trkpt><trkpt lat="42.3496133" lon="13.0056396"><ele>677.0</ele><time>2026-04-26T09:01:47.888Z</time></trkpt><trkpt lat="42.3495666" lon="13.0057576"><ele>677.0</ele><time>2026-04-26T09:01:48.887Z</time></trkpt><trkpt lat="42.3495362" lon="13.0059077"><ele>678.5</ele><time>2026-04-26T09:01:49.878Z</time></trkpt><trkpt lat="42.3495211" lon="13.0060728"><ele>680.0</ele><time>2026-04-26T09:01:50.881Z</time></trkpt><trkpt lat="42.3494823" lon="13.006243"><ele>681.5</ele><time>2026-04-26T09:01:51.881Z</time></trkpt><trkpt lat="42.3494184" lon="13.0064152"><ele>683.0</ele><time>2026-04-26T09:01:52.875Z</time></trkpt><trkpt lat="42.3493377" lon="13.0065634"><ele>683.25</ele><time>2026-04-26T09:01:53.869Z</time></trkpt><trkpt lat="42.3492616" lon="13.00671"><ele>683.5</ele><time>2026-04-26T09:01:54.881Z</time></trkpt><trkpt lat="42.3492136" lon="13.0068513"><ele>683.75</ele><time>2026-04-26T09:01:55.879Z</time></trkpt><trkpt lat="42.3491932" lon="13.006999"><ele>684.0</ele><time>2026-04-26T09:01:56.882Z</time></trkpt><trkpt lat="42.3492135" lon="13.0071304"><ele>684.0</ele><time>2026-04-26T09:01:57.884Z</time></trkpt><trkpt lat="42.3492651" lon="13.0072574"><ele>684.0</ele><time>2026-04-26T09:01:58.886Z</time></trkpt><trkpt lat="42.3493406" lon="13.0073658"><ele>684.0</ele><time>2026-04-26T09:01:59.885Z</time></trkpt><trkpt lat="42.3493983" lon="13.0074936"><ele>684.0</ele><time>2026-04-26T09:02:00.878Z</time></trkpt><trkpt lat="42.3494242" lon="13.007615"><ele>684.0</ele><time>2026-04-26T09:02:01.879Z</time></trkpt><trkpt lat="42.349424" lon="13.0077563"><ele>684.3333333333334</ele><time>2026-04-26T09:02:02.883Z</time></trkpt><trkpt lat="42.3493741" lon="13.0079319"><ele>684.6666666666667</ele><time>2026-04-26T09:02:03.874Z</time></trkpt><trkpt lat="42.3493111" lon="13.0081145"><ele>685.0</ele><time>2026-04-26T09:02:04.878Z</time></trkpt><trkpt lat="42.3492249" lon="13.0083024"><ele>685.0</ele><time>2026-04-26T09:02:05.917Z</time></trkpt><trkpt lat="42.3491406" lon="13.0084836"><ele>685.0</ele><time>2026-04-26T09:02:06.886Z</time></trkpt><trkpt lat="42.3490508" lon="13.0086664"><ele>685.0</ele><time>2026-04-26T09:02:07.882Z</time></trkpt><trkpt lat="42.348961" lon="13.0088481"><ele>685.0</ele><time>2026-04-26T09:02:08.888Z</time></trkpt><trkpt lat="42.3488898" lon="13.0090285"><ele>685.0</ele><time>2026-04-26T09:02:09.874Z</time></trkpt><trkpt lat="42.3488448" lon="13.009216"><ele>685.0</ele><time>2026-04-26T09:02:10.877Z</time></trkpt><trkpt lat="42.3488125" lon="13.0094197"><ele>686.0</ele><time>2026-04-26T09:02:11.877Z</time></trkpt><trkpt lat="42.348799" lon="13.0096496"><ele>687.0</ele><time>2026-04-26T09:02:12.882Z</time></trkpt><trkpt lat="42.3488002" lon="13.009873"><ele>688.0</ele><time>2026-04-26T09:02:13.88Z</time></trkpt><trkpt lat="42.3488021" lon="13.0100811"><ele>688.0</ele><time>2026-04-26T09:02:14.885Z</time></trkpt><trkpt lat="42.3488085" lon="13.0102833"><ele>688.0</ele><time>2026-04-26T09:02:15.884Z</time></trkpt><trkpt lat="42.3488192" lon="13.0104804"><ele>688.0</ele><time>2026-04-26T09:02:16.882Z</time></trkpt><trkpt lat="42.3488411" lon="13.0106539"><ele>688.0</ele><time>2026-04-26T09:02:17.917Z</time></trkpt><trkpt lat="42.348863" lon="13.0108269"><ele>687.2</ele><time>2026-04-26T09:02:18.878Z</time></trkpt><trkpt lat="42.34888" lon="13.0109778"><ele>686.4</ele><time>2026-04-26T09:02:19.886Z</time></trkpt><trkpt lat="42.3488847" lon="13.011118"><ele>685.6</ele><time>2026-04-26T09:02:20.884Z</time></trkpt><trkpt lat="42.3488674" lon="13.0112374"><ele>684.8000000000001</ele><time>2026-04-26T09:02:21.884Z</time></trkpt><trkpt lat="42.3488226" lon="13.0113495"><ele>684.0</ele><time>2026-04-26T09:02:22.879Z</time></trkpt><trkpt lat="42.3487511" lon="13.0114601"><ele>684.0</ele><time>2026-04-26T09:02:23.893Z</time></trkpt><trkpt lat="42.3486634" lon="13.0115765"><ele>684.0</ele><time>2026-04-26T09:02:24.886Z</time></trkpt><trkpt lat="42.3485354" lon="13.0116767"><ele>684.0</ele><time>2026-04-26T09:02:25.88Z</time></trkpt><trkpt lat="42.3483975" lon="13.0117257"><ele>684.0</ele><time>2026-04-26T09:02:26.874Z</time></trkpt><trkpt lat="42.3482686" lon="13.0117208"><ele>683.5</ele><time>2026-04-26T09:02:27.881Z</time></trkpt><trkpt lat="42.3481407" lon="13.0116811"><ele>683.0</ele><time>2026-04-26T09:02:28.875Z</time></trkpt><trkpt lat="42.3480116" lon="13.0116144"><ele>682.5</ele><time>2026-04-26T09:02:29.883Z</time></trkpt><trkpt lat="42.3478766" lon="13.0115366"><ele>682.0</ele><time>2026-04-26T09:02:30.885Z</time></trkpt><trkpt lat="42.3477333" lon="13.0114859"><ele>682.0</ele><time>2026-04-26T09:02:31.978Z</time></trkpt><trkpt lat="42.3475829" lon="13.0114813"><ele>682.0</ele><time>2026-04-26T09:02:32.884Z</time></trkpt><trkpt lat="42.3474363" lon="13.0114814"><ele>682.0</ele><time>2026-04-26T09:02:33.884Z</time></trkpt><trkpt lat="42.3473037" lon="13.0115051"><ele>682.0</ele><time>2026-04-26T09:02:34.881Z</time></trkpt><trkpt lat="42.3471968" lon="13.011562"><ele>681.0</ele><time>2026-04-26T09:02:35.881Z</time></trkpt><trkpt lat="42.347115" lon="13.0116337"><ele>680.0</ele><time>2026-04-26T09:02:36.877Z</time></trkpt><trkpt lat="42.3470719" lon="13.0117293"><ele>679.0</ele><time>2026-04-26T09:02:37.882Z</time></trkpt><trkpt lat="42.347071" lon="13.0118274"><ele>678.0</ele><time>2026-04-26T09:02:38.871Z</time></trkpt><trkpt lat="42.3471171" lon="13.0119372"><ele>677.0</ele><time>2026-04-26T09:02:39.881Z</time></trkpt><trkpt lat="42.3472053" lon="13.0120454"><ele>681.3333333333333</ele><time>2026-04-26T09:02:40.884Z</time></trkpt><trkpt lat="42.3473186" lon="13.0121739"><ele>685.6666666666666</ele><time>2026-04-26T09:02:41.884Z</time></trkpt><trkpt lat="42.3474295" lon="13.0123091"><ele>690.0</ele><time>2026-04-26T09:02:42.883Z</time></trkpt><trkpt lat="42.3475357" lon="13.0124588"><ele>691.25</ele><time>2026-04-26T09:02:43.88Z</time></trkpt><trkpt lat="42.3476152" lon="13.012607"><ele>692.5</ele><time>2026-04-26T09:02:44.931Z</time></trkpt><trkpt lat="42.3476608" lon="13.0127697"><ele>693.75</ele><time>2026-04-26T09:02:45.881Z</time></trkpt><trkpt lat="42.3476721" lon="13.0129091"><ele>695.0</ele><time>2026-04-26T09:02:46.871Z</time></trkpt><trkpt lat="42.3476343" lon="13.0130369"><ele>695.0</ele><time>2026-04-26T09:02:47.887Z</time></trkpt><trkpt lat="42.3475547" lon="13.0131437"><ele>695.0</ele><time>2026-04-26T09:02:48.882Z</time></trkpt><trkpt lat="42.3474588" lon="13.0132461"><ele>695.0</ele><time>2026-04-26T09:02:49.88Z</time></trkpt><trkpt lat="42.3473778" lon="13.0133458"><ele>695.0</ele><time>2026-04-26T09:02:50.878Z</time></trkpt><trkpt lat="42.3473106" lon="13.0134485"><ele>695.0</ele><time>2026-04-26T09:02:51.879Z</time></trkpt><trkpt lat="42.347273" lon="13.0135873"><ele>695.5</ele><time>2026-04-26T09:02:52.887Z</time></trkpt><trkpt lat="42.3472398" lon="13.0137559"><ele>696.0</ele><time>2026-04-26T09:02:53.885Z</time></trkpt><trkpt lat="42.3471806" lon="13.0139249"><ele>696.5</ele><time>2026-04-26T09:02:54.889Z</time></trkpt><trkpt lat="42.3470994" lon="13.0140502"><ele>697.0</ele><time>2026-04-26T09:02:55.88Z</time></trkpt><trkpt lat="42.3470217" lon="13.0141585"><ele>697.0</ele><time>2026-04-26T09:02:56.875Z</time></trkpt><trkpt lat="42.3469601" lon="13.0142875"><ele>697.0</ele><time>2026-04-26T09:02:57.93Z</time></trkpt><trkpt lat="42.3469458" lon="13.0144431"><ele>697.0</ele><time>2026-04-26T09:02:58.929Z</time></trkpt><trkpt lat="42.3469603" lon="13.0146103"><ele>697.0</ele><time>2026-04-26T09:02:59.895Z</time></trkpt><trkpt lat="42.3469975" lon="13.0147917"><ele>697.0</ele><time>2026-04-26T09:03:00.888Z</time></trkpt><trkpt lat="42.3470549" lon="13.0149693"><ele>697.0</ele><time>2026-04-26T09:03:01.879Z</time></trkpt><trkpt lat="42.3471345" lon="13.0151203"><ele>697.0</ele><time>2026-04-26T09:03:02.883Z</time></trkpt><trkpt lat="42.347247" lon="13.0152321"><ele>697.0</ele><time>2026-04-26T09:03:03.879Z</time></trkpt><trkpt lat="42.3473751" lon="13.0153177"><ele>701.6666666666667</ele><time>2026-04-26T09:03:04.876Z</time></trkpt><trkpt lat="42.3475215" lon="13.0153897"><ele>706.3333333333334</ele><time>2026-04-26T09:03:05.885Z</time></trkpt><trkpt lat="42.3476746" lon="13.0154416"><ele>711.0</ele><time>2026-04-26T09:03:06.886Z</time></trkpt><trkpt lat="42.3478313" lon="13.0154785"><ele>711.0</ele><time>2026-04-26T09:03:07.882Z</time></trkpt><trkpt lat="42.3479853" lon="13.0154856"><ele>711.0</ele><time>2026-04-26T09:03:08.913Z</time></trkpt><trkpt lat="42.3481263" lon="13.0154759"><ele>711.0</ele><time>2026-04-26T09:03:09.881Z</time></trkpt><trkpt lat="42.3482654" lon="13.0154685"><ele>711.0</ele><time>2026-04-26T09:03:10.889Z</time></trkpt><trkpt lat="42.3483966" lon="13.0154735"><ele>713.5</ele><time>2026-04-26T09:03:11.889Z</time></trkpt><trkpt lat="42.3485221" lon="13.0154888"><ele>716.0</ele><time>2026-04-26T09:03:12.891Z</time></trkpt><trkpt lat="42.3486359" lon="13.0154756"><ele>718.5</ele><time>2026-04-26T09:03:13.883Z</time></trkpt><trkpt lat="42.3487485" lon="13.0154055"><ele>721.0</ele><time>2026-04-26T09:03:14.899Z</time></trkpt><trkpt lat="42.3488694" lon="13.0153073"><ele>719.5</ele><time>2026-04-26T09:03:15.881Z</time></trkpt><trkpt lat="42.3489929" lon="13.0151982"><ele>718.0</ele><time>2026-04-26T09:03:16.879Z</time></trkpt><trkpt lat="42.3491186" lon="13.0151099"><ele>716.5</ele><time>2026-04-26T09:03:17.886Z</time></trkpt><trkpt lat="42.3492444" lon="13.015059"><ele>715.0</ele><time>2026-04-26T09:03:18.878Z</time></trkpt><trkpt lat="42.3493731" lon="13.0150401"><ele>715.0</ele><time>2026-04-26T09:03:19.89Z</time></trkpt><trkpt lat="42.3494983" lon="13.0150795"><ele>715.0</ele><time>2026-04-26T09:03:20.884Z</time></trkpt><trkpt lat="42.3496014" lon="13.0151766"><ele>715.0</ele><time>2026-04-26T09:03:21.88Z</time></trkpt><trkpt lat="42.3497009" lon="13.0153064"><ele>715.0</ele><time>2026-04-26T09:03:22.874Z</time></trkpt><trkpt lat="42.3498086" lon="13.0154623"><ele>714.3333333333334</ele><time>2026-04-26T09:03:23.883Z</time></trkpt><trkpt lat="42.3499333" lon="13.0155957"><ele>713.6666666666666</ele><time>2026-04-26T09:03:24.88Z</time></trkpt><trkpt lat="42.3500601" lon="13.0157199"><ele>713.0</ele><time>2026-04-26T09:03:25.882Z</time></trkpt><trkpt lat="42.350182" lon="13.0158379"><ele>713.0</ele><time>2026-04-26T09:03:26.885Z</time></trkpt><trkpt lat="42.3502874" lon="13.015969"><ele>713.0</ele><time>2026-04-26T09:03:27.887Z</time></trkpt><trkpt lat="42.3503719" lon="13.0160998"><ele>713.0</ele><time>2026-04-26T09:03:28.885Z</time></trkpt><trkpt lat="42.3504232" lon="13.0162429"><ele>713.0</ele><time>2026-04-26T09:03:29.887Z</time></trkpt><trkpt lat="42.3504282" lon="13.0164016"><ele>713.0</ele><time>2026-04-26T09:03:30.887Z</time></trkpt><trkpt lat="42.3503996" lon="13.0165676"><ele>713.0</ele><time>2026-04-26T09:03:31.882Z</time></trkpt><trkpt lat="42.3503511" lon="13.0167448"><ele>713.0</ele><time>2026-04-26T09:03:32.882Z</time></trkpt><trkpt lat="42.3502893" lon="13.0169344"><ele>713.0</ele><time>2026-04-26T09:03:33.867Z</time></trkpt><trkpt lat="42.3502435" lon="13.0171071"><ele>711.5</ele><time>2026-04-26T09:03:34.878Z</time></trkpt><trkpt lat="42.3502111" lon="13.0172947"><ele>710.0</ele><time>2026-04-26T09:03:35.887Z</time></trkpt><trkpt lat="42.3501843" lon="13.0174735"><ele>708.5</ele><time>2026-04-26T09:03:36.869Z</time></trkpt><trkpt lat="42.3501419" lon="13.0176423"><ele>707.0</ele><time>2026-04-26T09:03:37.885Z</time></trkpt><trkpt lat="42.3500626" lon="13.0177838"><ele>705.25</ele><time>2026-04-26T09:03:38.887Z</time></trkpt><trkpt lat="42.3499663" lon="13.0178626"><ele>703.5</ele><time>2026-04-26T09:03:39.88Z</time></trkpt><trkpt lat="42.3498533" lon="13.0179194"><ele>701.75</ele><time>2026-04-26T09:03:40.881Z</time></trkpt><trkpt lat="42.3497385" lon="13.017944"><ele>700.0</ele><time>2026-04-26T09:03:41.88Z</time></trkpt><trkpt lat="42.3495984" lon="13.0179336"><ele>700.0</ele><time>2026-04-26T09:03:42.882Z</time></trkpt><trkpt lat="42.3494467" lon="13.0179271"><ele>700.0</ele><time>2026-04-26T09:03:43.877Z</time></trkpt><trkpt lat="42.3493057" lon="13.0179677"><ele>700.0</ele><time>2026-04-26T09:03:44.876Z</time></trkpt><trkpt lat="42.3491629" lon="13.0180507"><ele>700.0</ele><time>2026-04-26T09:03:45.877Z</time></trkpt><trkpt lat="42.3490248" lon="13.018165"><ele>700.0</ele><time>2026-04-26T09:03:46.879Z</time></trkpt><trkpt lat="42.3489154" lon="13.0182921"><ele>700.0</ele><time>2026-04-26T09:03:47.876Z</time></trkpt><trkpt lat="42.3488347" lon="13.0184425"><ele>700.0</ele><time>2026-04-26T09:03:48.882Z</time></trkpt><trkpt lat="42.3487728" lon="13.0185907"><ele>701.4</ele><time>2026-04-26T09:03:49.886Z</time></trkpt><trkpt lat="42.3487067" lon="13.0187371"><ele>702.8</ele><time>2026-04-26T09:03:50.882Z</time></trkpt><trkpt lat="42.3486429" lon="13.0188187"><ele>704.2</ele><time>2026-04-26T09:03:51.888Z</time></trkpt><trkpt lat="42.3485636" lon="13.0188591"><ele>705.6</ele><time>2026-04-26T09:03:52.884Z</time></trkpt><trkpt lat="42.3485001" lon="13.0188754"><ele>707.0</ele><time>2026-04-26T09:03:53.89Z</time></trkpt><trkpt lat="42.3483776" lon="13.018918"><ele>707.0</ele><time>2026-04-26T09:03:55.885Z</time></trkpt><trkpt lat="42.3482982" lon="13.0189951"><ele>707.0</ele><time>2026-04-26T09:03:56.88Z</time></trkpt><trkpt lat="42.348232" lon="13.0191214"><ele>707.0</ele><time>2026-04-26T09:03:57.885Z</time></trkpt><trkpt lat="42.3481884" lon="13.0192898"><ele>707.0</ele><time>2026-04-26T09:03:58.882Z</time></trkpt><trkpt lat="42.3481486" lon="13.0194587"><ele>708.0</ele><time>2026-04-26T09:03:59.891Z</time></trkpt><trkpt lat="42.3480974" lon="13.0196591"><ele>709.0</ele><time>2026-04-26T09:04:00.892Z</time></trkpt><trkpt lat="42.3480526" lon="13.0198619"><ele>710.0</ele><time>2026-04-26T09:04:01.933Z</time></trkpt><trkpt lat="42.3480121" lon="13.020047"><ele>710.0</ele><time>2026-04-26T09:04:02.886Z</time></trkpt><trkpt lat="42.3479754" lon="13.0202376"><ele>710.0</ele><time>2026-04-26T09:04:03.894Z</time></trkpt><trkpt lat="42.34794" lon="13.0204334"><ele>710.0</ele><time>2026-04-26T09:04:04.876Z</time></trkpt><trkpt lat="42.3479079" lon="13.0206327"><ele>710.0</ele><time>2026-04-26T09:04:05.88Z</time></trkpt><trkpt lat="42.3478722" lon="13.0208321"><ele>712.6666666666666</ele><time>2026-04-26T09:04:06.876Z</time></trkpt><trkpt lat="42.3478259" lon="13.0210266"><ele>715.3333333333334</ele><time>2026-04-26T09:04:07.879Z</time></trkpt><trkpt lat="42.347765" lon="13.0212175"><ele>718.0</ele><time>2026-04-26T09:04:08.875Z</time></trkpt><trkpt lat="42.3476956" lon="13.0214033"><ele>718.0</ele><time>2026-04-26T09:04:09.886Z</time></trkpt><trkpt lat="42.347634" lon="13.0215775"><ele>718.0</ele><time>2026-04-26T09:04:10.881Z</time></trkpt><trkpt lat="42.3475702" lon="13.0217571"><ele>718.0</ele><time>2026-04-26T09:04:11.883Z</time></trkpt><trkpt lat="42.3475033" lon="13.0219334"><ele>718.0</ele><time>2026-04-26T09:04:12.873Z</time></trkpt><trkpt lat="42.3474407" lon="13.0221166"><ele>720.75</ele><time>2026-04-26T09:04:13.874Z</time></trkpt><trkpt lat="42.3473772" lon="13.022289"><ele>723.5</ele><time>2026-04-26T09:04:14.879Z</time></trkpt><trkpt lat="42.3473175" lon="13.0224452"><ele>726.25</ele><time>2026-04-26T09:04:15.878Z</time></trkpt><trkpt lat="42.3472518" lon="13.0226041"><ele>729.0</ele><time>2026-04-26T09:04:16.877Z</time></trkpt><trkpt lat="42.3471876" lon="13.0227747"><ele>726.5</ele><time>2026-04-26T09:04:17.875Z</time></trkpt><trkpt lat="42.3471235" lon="13.0229635"><ele>724.0</ele><time>2026-04-26T09:04:18.871Z</time></trkpt><trkpt lat="42.3470651" lon="13.0231521"><ele>721.5</ele><time>2026-04-26T09:04:19.875Z</time></trkpt><trkpt lat="42.34701" lon="13.0233251"><ele>719.0</ele><time>2026-04-26T09:04:20.873Z</time></trkpt><trkpt lat="42.3469683" lon="13.0234971"><ele>719.0</ele><time>2026-04-26T09:04:21.872Z</time></trkpt><trkpt lat="42.3469223" lon="13.0236727"><ele>719.0</ele><time>2026-04-26T09:04:22.881Z</time></trkpt><trkpt lat="42.3468859" lon="13.023862"><ele>719.0</ele><time>2026-04-26T09:04:23.877Z</time></trkpt><trkpt lat="42.3468386" lon="13.0240472"><ele>719.0</ele><time>2026-04-26T09:04:24.872Z</time></trkpt><trkpt lat="42.3468027" lon="13.0242302"><ele>721.25</ele><time>2026-04-26T09:04:25.876Z</time></trkpt><trkpt lat="42.3467707" lon="13.0244108"><ele>723.5</ele><time>2026-04-26T09:04:26.881Z</time></trkpt><trkpt lat="42.346739" lon="13.0245796"><ele>725.75</ele><time>2026-04-26T09:04:27.872Z</time></trkpt><trkpt lat="42.3466994" lon="13.0247399"><ele>728.0</ele><time>2026-04-26T09:04:28.88Z</time></trkpt><trkpt lat="42.346656" lon="13.0248923"><ele>731.25</ele><time>2026-04-26T09:04:29.886Z</time></trkpt><trkpt lat="42.3465932" lon="13.0250348"><ele>734.5</ele><time>2026-04-26T09:04:30.876Z</time></trkpt><trkpt lat="42.3465169" lon="13.0251816"><ele>737.75</ele><time>2026-04-26T09:04:31.878Z</time></trkpt><trkpt lat="42.3464386" lon="13.025322"><ele>741.0</ele><time>2026-04-26T09:04:32.882Z</time></trkpt><trkpt lat="42.346383" lon="13.0254696"><ele>737.0</ele><time>2026-04-26T09:04:33.878Z</time></trkpt><trkpt lat="42.3463386" lon="13.0256412"><ele>733.0</ele><time>2026-04-26T09:04:34.877Z</time></trkpt><trkpt lat="42.3463144" lon="13.0258366"><ele>729.0</ele><time>2026-04-26T09:04:35.874Z</time></trkpt><trkpt lat="42.3463123" lon="13.0260582"><ele>725.0</ele><time>2026-04-26T09:04:36.877Z</time></trkpt><trkpt lat="42.3463037" lon="13.0262611"><ele>725.0</ele><time>2026-04-26T09:04:37.877Z</time></trkpt><trkpt lat="42.3462828" lon="13.0264483"><ele>725.0</ele><time>2026-04-26T09:04:38.878Z</time></trkpt><trkpt lat="42.34625" lon="13.0266117"><ele>725.0</ele><time>2026-04-26T09:04:39.877Z</time></trkpt><trkpt lat="42.346202" lon="13.0267572"><ele>725.0</ele><time>2026-04-26T09:04:40.881Z</time></trkpt><trkpt lat="42.3461385" lon="13.0268896"><ele>728.5</ele><time>2026-04-26T09:04:41.881Z</time></trkpt><trkpt lat="42.3460596" lon="13.0269988"><ele>732.0</ele><time>2026-04-26T09:04:42.883Z</time></trkpt><trkpt lat="42.3459624" lon="13.0270879"><ele>735.5</ele><time>2026-04-26T09:04:43.878Z</time></trkpt><trkpt lat="42.345841" lon="13.0271513"><ele>739.0</ele><time>2026-04-26T09:04:44.886Z</time></trkpt><trkpt lat="42.345714" lon="13.0271906"><ele>739.0</ele><time>2026-04-26T09:04:45.887Z</time></trkpt><trkpt lat="42.3455912" lon="13.027187"><ele>739.0</ele><time>2026-04-26T09:04:46.89Z</time></trkpt><trkpt lat="42.345476" lon="13.0271699"><ele>739.0</ele><time>2026-04-26T09:04:47.882Z</time></trkpt><trkpt lat="42.3453672" lon="13.0271451"><ele>739.0</ele><time>2026-04-26T09:04:48.885Z</time></trkpt><trkpt lat="42.3452651" lon="13.0271235"><ele>740.0</ele><time>2026-04-26T09:04:49.889Z</time></trkpt><trkpt lat="42.345186" lon="13.027148"><ele>741.0</ele><time>2026-04-26T09:04:50.887Z</time></trkpt><trkpt lat="42.3451232" lon="13.0272506"><ele>742.0</ele><time>2026-04-26T09:04:51.882Z</time></trkpt><trkpt lat="42.3450815" lon="13.027386"><ele>743.0</ele><time>2026-04-26T09:04:52.891Z</time></trkpt><trkpt lat="42.3450605" lon="13.0275561"><ele>744.0</ele><time>2026-04-26T09:04:53.888Z</time></trkpt><trkpt lat="42.3450437" lon="13.0277105"><ele>744.0</ele><time>2026-04-26T09:04:54.916Z</time></trkpt><trkpt lat="42.3450141" lon="13.0278703"><ele>744.0</ele><time>2026-04-26T09:04:55.881Z</time></trkpt><trkpt lat="42.3449807" lon="13.0280165"><ele>744.0</ele><time>2026-04-26T09:04:56.88Z</time></trkpt><trkpt lat="42.3449491" lon="13.0281711"><ele>744.0</ele><time>2026-04-26T09:04:57.884Z</time></trkpt><trkpt lat="42.3449249" lon="13.0283223"><ele>746.5</ele><time>2026-04-26T09:04:58.883Z</time></trkpt><trkpt lat="42.3449029" lon="13.0284793"><ele>749.0</ele><time>2026-04-26T09:04:59.885Z</time></trkpt><trkpt lat="42.3448745" lon="13.0286313"><ele>751.5</ele><time>2026-04-26T09:05:00.894Z</time></trkpt><trkpt lat="42.3448338" lon="13.0287769"><ele>754.0</ele><time>2026-04-26T09:05:01.882Z</time></trkpt><trkpt lat="42.3447927" lon="13.0289195"><ele>754.0</ele><time>2026-04-26T09:05:02.886Z</time></trkpt><trkpt lat="42.3447472" lon="13.0290522"><ele>754.0</ele><time>2026-04-26T09:05:03.883Z</time></trkpt><trkpt lat="42.3446894" lon="13.0291757"><ele>754.0</ele><time>2026-04-26T09:05:04.88Z</time></trkpt><trkpt lat="42.3446303" lon="13.0292933"><ele>754.0</ele><time>2026-04-26T09:05:05.877Z</time></trkpt><trkpt lat="42.3445672" lon="13.0294174"><ele>754.0</ele><time>2026-04-26T09:05:06.881Z</time></trkpt><trkpt lat="42.3445136" lon="13.029542"><ele>754.0</ele><time>2026-04-26T09:05:07.879Z</time></trkpt><trkpt lat="42.3444617" lon="13.0296588"><ele>754.0</ele><time>2026-04-26T09:05:08.877Z</time></trkpt><trkpt lat="42.3444147" lon="13.029757"><ele>754.0</ele><time>2026-04-26T09:05:09.883Z</time></trkpt><trkpt lat="42.3443651" lon="13.0298437"><ele>754.0</ele><time>2026-04-26T09:05:10.875Z</time></trkpt><trkpt lat="42.3443122" lon="13.029966"><ele>754.0</ele><time>2026-04-26T09:05:12.886Z</time></trkpt><trkpt lat="42.3443402" lon="13.0300496"><ele>754.0</ele><time>2026-04-26T09:05:14.886Z</time></trkpt><trkpt lat="42.3444138" lon="13.0301131"><ele>754.0</ele><time>2026-04-26T09:05:16.897Z</time></trkpt><trkpt lat="42.3445076" lon="13.0301871"><ele>754.0</ele><time>2026-04-26T09:05:18.903Z</time></trkpt><trkpt lat="42.3445586" lon="13.0302602"><ele>754.0</ele><time>2026-04-26T09:05:19.883Z</time></trkpt><trkpt lat="42.3445948" lon="13.0303402"><ele>754.0</ele><time>2026-04-26T09:05:20.886Z</time></trkpt><trkpt lat="42.3446298" lon="13.0304335"><ele>754.0</ele><time>2026-04-26T09:05:21.882Z</time></trkpt><trkpt lat="42.3446416" lon="13.0305246"><ele>754.0</ele><time>2026-04-26T09:05:22.882Z</time></trkpt><trkpt lat="42.3446398" lon="13.0306127"><ele>753.9999999999999</ele><time>2026-04-26T09:05:23.876Z</time></trkpt><trkpt lat="42.344633" lon="13.0307084"><ele>754.0</ele><time>2026-04-26T09:05:24.876Z</time></trkpt><trkpt lat="42.3446289" lon="13.0307977"><ele>754.0</ele><time>2026-04-26T09:05:25.877Z</time></trkpt><trkpt lat="42.3446303" lon="13.0308967"><ele>754.0</ele><time>2026-04-26T09:05:26.875Z</time></trkpt><trkpt lat="42.3446341" lon="13.0309942"><ele>754.0</ele><time>2026-04-26T09:05:27.884Z</time></trkpt><trkpt lat="42.3446482" lon="13.0310972"><ele>753.9999999999999</ele><time>2026-04-26T09:05:28.878Z</time></trkpt><trkpt lat="42.3446689" lon="13.0311993"><ele>754.0</ele><time>2026-04-26T09:05:29.89Z</time></trkpt><trkpt lat="42.3446883" lon="13.0313031"><ele>757.1666666666667</ele><time>2026-04-26T09:05:30.879Z</time></trkpt><trkpt lat="42.3447032" lon="13.0314082"><ele>760.3333333333334</ele><time>2026-04-26T09:05:31.877Z</time></trkpt><trkpt lat="42.3447186" lon="13.0315137"><ele>763.5</ele><time>2026-04-26T09:05:32.881Z</time></trkpt><trkpt lat="42.3447291" lon="13.0316314"><ele>766.6666666666667</ele><time>2026-04-26T09:05:33.882Z</time></trkpt><trkpt lat="42.3447309" lon="13.0317618"><ele>769.8333333333334</ele><time>2026-04-26T09:05:34.89Z</time></trkpt><trkpt lat="42.344743" lon="13.0318579"><ele>773.0</ele><time>2026-04-26T09:05:35.884Z</time></trkpt><trkpt lat="42.3447606" lon="13.0319441"><ele>777.0</ele><time>2026-04-26T09:05:36.882Z</time></trkpt><trkpt lat="42.344821" lon="13.0320417"><ele>781.0</ele><time>2026-04-26T09:05:38.872Z</time></trkpt><trkpt lat="42.3449329" lon="13.0320207"><ele>785.0</ele><time>2026-04-26T09:05:40.871Z</time></trkpt><trkpt lat="42.3450213" lon="13.0319415"><ele>789.0</ele><time>2026-04-26T09:05:41.874Z</time></trkpt><trkpt lat="42.3450825" lon="13.0318593"><ele>793.0</ele><time>2026-04-26T09:05:42.875Z</time></trkpt><trkpt lat="42.3451302" lon="13.0317811"><ele>793.0000000000001</ele><time>2026-04-26T09:05:43.875Z</time></trkpt><trkpt lat="42.3451389" lon="13.0316902"><ele>793.0</ele><time>2026-04-26T09:05:44.878Z</time></trkpt><trkpt lat="42.3451509" lon="13.0315848"><ele>793.0</ele><time>2026-04-26T09:05:45.885Z</time></trkpt><trkpt lat="42.34516" lon="13.0314844"><ele>793.0</ele><time>2026-04-26T09:05:46.895Z</time></trkpt><trkpt lat="42.3451832" lon="13.0313899"><ele>793.0</ele><time>2026-04-26T09:05:47.887Z</time></trkpt><trkpt lat="42.345221" lon="13.0313209"><ele>793.0000000000001</ele><time>2026-04-26T09:05:48.895Z</time></trkpt><trkpt lat="42.3452764" lon="13.0312716"><ele>793.0</ele><time>2026-04-26T09:05:49.891Z</time></trkpt><trkpt lat="42.3453995" lon="13.0312261"><ele>791.4999999999999</ele><time>2026-04-26T09:05:51.904Z</time></trkpt><trkpt lat="42.3454789" lon="13.0311994"><ele>790.0</ele><time>2026-04-26T09:05:52.878Z</time></trkpt><trkpt lat="42.3455622" lon="13.0311813"><ele>788.5</ele><time>2026-04-26T09:05:53.89Z</time></trkpt><trkpt lat="42.3456449" lon="13.0311592"><ele>787.0</ele><time>2026-04-26T09:05:54.883Z</time></trkpt><trkpt lat="42.3457086" lon="13.031148"><ele>785.4999999999999</ele><time>2026-04-26T09:05:55.889Z</time></trkpt><trkpt lat="42.3458252" lon="13.0310846"><ele>784.0</ele><time>2026-04-26T09:05:57.897Z</time></trkpt><trkpt lat="42.3458855" lon="13.0310355"><ele>786.3333333333333</ele><time>2026-04-26T09:05:58.888Z</time></trkpt><trkpt lat="42.3459447" lon="13.0309748"><ele>788.6666666666666</ele><time>2026-04-26T09:05:59.885Z</time></trkpt><trkpt lat="42.3460043" lon="13.0309119"><ele>791.0</ele><time>2026-04-26T09:06:00.883Z</time></trkpt><trkpt lat="42.3460623" lon="13.0308544"><ele>793.3333333333333</ele><time>2026-04-26T09:06:01.893Z</time></trkpt><trkpt lat="42.3461191" lon="13.0307767"><ele>795.6666666666666</ele><time>2026-04-26T09:06:02.882Z</time></trkpt><trkpt lat="42.346181" lon="13.030679"><ele>798.0</ele><time>2026-04-26T09:06:03.882Z</time></trkpt><trkpt lat="42.3462467" lon="13.030572"><ele>798.0</ele><time>2026-04-26T09:06:04.885Z</time></trkpt><trkpt lat="42.3463094" lon="13.0304737"><ele>798.0</ele><time>2026-04-26T09:06:05.895Z</time></trkpt><trkpt lat="42.3463532" lon="13.0303928"><ele>798.0</ele><time>2026-04-26T09:06:06.885Z</time></trkpt><trkpt lat="42.346384" lon="13.0303047"><ele>798.0</ele><time>2026-04-26T09:06:07.897Z</time></trkpt><trkpt lat="42.3464009" lon="13.0302131"><ele>798.0</ele><time>2026-04-26T09:06:08.888Z</time></trkpt><trkpt lat="42.3463939" lon="13.0301112"><ele>798.0</ele><time>2026-04-26T09:06:09.878Z</time></trkpt><trkpt lat="42.3463799" lon="13.0300087"><ele>797.8</ele><time>2026-04-26T09:06:10.897Z</time></trkpt><trkpt lat="42.3463546" lon="13.0299098"><ele>797.5999999999999</ele><time>2026-04-26T09:06:11.93Z</time></trkpt><trkpt lat="42.3463336" lon="13.0298217"><ele>797.4000000000001</ele><time>2026-04-26T09:06:12.903Z</time></trkpt><trkpt lat="42.3463242" lon="13.0296686"><ele>797.2</ele><time>2026-04-26T09:06:14.891Z</time></trkpt><trkpt lat="42.3464309" lon="13.0295879"><ele>797.0</ele><time>2026-04-26T09:06:16.875Z</time></trkpt><trkpt lat="42.3465279" lon="13.0295645"><ele>798.8333333333334</ele><time>2026-04-26T09:06:17.879Z</time></trkpt><trkpt lat="42.3466174" lon="13.029544"><ele>800.6666666666667</ele><time>2026-04-26T09:06:18.886Z</time></trkpt><trkpt lat="42.3466943" lon="13.0295496"><ele>802.5</ele><time>2026-04-26T09:06:19.897Z</time></trkpt><trkpt lat="42.346776" lon="13.0295654"><ele>804.3333333333333</ele><time>2026-04-26T09:06:20.874Z</time></trkpt><trkpt lat="42.3468597" lon="13.0295721"><ele>806.1666666666666</ele><time>2026-04-26T09:06:21.874Z</time></trkpt><trkpt lat="42.3469475" lon="13.0295772"><ele>808.0</ele><time>2026-04-26T09:06:22.889Z</time></trkpt><trkpt lat="42.3470292" lon="13.0295596"><ele>808.0</ele><time>2026-04-26T09:06:23.894Z</time></trkpt><trkpt lat="42.3471115" lon="13.0295401"><ele>808.0</ele><time>2026-04-26T09:06:24.884Z</time></trkpt><trkpt lat="42.347195" lon="13.0295209"><ele>808.0</ele><time>2026-04-26T09:06:25.909Z</time></trkpt><trkpt lat="42.347286" lon="13.0294964"><ele>808.0</ele><time>2026-04-26T09:06:26.889Z</time></trkpt><trkpt lat="42.3473804" lon="13.0294617"><ele>808.0</ele><time>2026-04-26T09:06:27.877Z</time></trkpt><trkpt lat="42.3474667" lon="13.0294181"><ele>810.4999999999999</ele><time>2026-04-26T09:06:28.882Z</time></trkpt><trkpt lat="42.3475409" lon="13.0293744"><ele>813.0</ele><time>2026-04-26T09:06:29.88Z</time></trkpt><trkpt lat="42.3476036" lon="13.0293213"><ele>815.5</ele><time>2026-04-26T09:06:30.879Z</time></trkpt><trkpt lat="42.3476597" lon="13.0292636"><ele>818.0</ele><time>2026-04-26T09:06:31.88Z</time></trkpt><trkpt lat="42.3477353" lon="13.0291887"><ele>820.4999999999999</ele><time>2026-04-26T09:06:33.886Z</time></trkpt><trkpt lat="42.3477791" lon="13.0292654"><ele>823.0</ele><time>2026-04-26T09:06:36.878Z</time></trkpt><trkpt lat="42.3476927" lon="13.0294062"><ele>823.0</ele><time>2026-04-26T09:06:39.878Z</time></trkpt><trkpt lat="42.3476138" lon="13.0295049"><ele>823.0</ele><time>2026-04-26T09:06:40.876Z</time></trkpt><trkpt lat="42.3475357" lon="13.0296027"><ele>823.0</ele><time>2026-04-26T09:06:41.88Z</time></trkpt><trkpt lat="42.3474536" lon="13.0296957"><ele>823.0</ele><time>2026-04-26T09:06:42.876Z</time></trkpt><trkpt lat="42.3473846" lon="13.0297657"><ele>823.0</ele><time>2026-04-26T09:06:43.877Z</time></trkpt><trkpt lat="42.3473261" lon="13.0298373"><ele>822.9999999999999</ele><time>2026-04-26T09:06:44.874Z</time></trkpt><trkpt lat="42.3472833" lon="13.0299104"><ele>823.0</ele><time>2026-04-26T09:06:45.881Z</time></trkpt><trkpt lat="42.3472512" lon="13.0300052"><ele>823.0</ele><time>2026-04-26T09:06:46.873Z</time></trkpt><trkpt lat="42.3472271" lon="13.0301222"><ele>823.0</ele><time>2026-04-26T09:06:47.876Z</time></trkpt><trkpt lat="42.3471989" lon="13.0302285"><ele>822.9999999999999</ele><time>2026-04-26T09:06:48.873Z</time></trkpt><trkpt lat="42.3471547" lon="13.0303513"><ele>823.0</ele><time>2026-04-26T09:06:49.881Z</time></trkpt><trkpt lat="42.347082" lon="13.0304669"><ele>823.5</ele><time>2026-04-26T09:06:50.879Z</time></trkpt><trkpt lat="42.3470107" lon="13.0305897"><ele>824.0</ele><time>2026-04-26T09:06:51.886Z</time></trkpt><trkpt lat="42.3469401" lon="13.030715"><ele>824.5</ele><time>2026-04-26T09:06:52.882Z</time></trkpt><trkpt lat="42.3468749" lon="13.0308399"><ele>825.0</ele><time>2026-04-26T09:06:53.873Z</time></trkpt><trkpt lat="42.3468023" lon="13.0309573"><ele>827.75</ele><time>2026-04-26T09:06:54.879Z</time></trkpt><trkpt lat="42.3467219" lon="13.0310985"><ele>830.5</ele><time>2026-04-26T09:06:55.884Z</time></trkpt><trkpt lat="42.3466563" lon="13.0312229"><ele>833.25</ele><time>2026-04-26T09:06:56.879Z</time></trkpt><trkpt lat="42.3465894" lon="13.0313469"><ele>836.0</ele><time>2026-04-26T09:06:57.893Z</time></trkpt><trkpt lat="42.3465286" lon="13.0314635"><ele>836.0</ele><time>2026-04-26T09:06:58.882Z</time></trkpt><trkpt lat="42.346467" lon="13.0315776"><ele>836.0</ele><time>2026-04-26T09:06:59.877Z</time></trkpt><trkpt lat="42.3463998" lon="13.0316981"><ele>836.0</ele><time>2026-04-26T09:07:00.876Z</time></trkpt><trkpt lat="42.3463452" lon="13.0318215"><ele>836.0</ele><time>2026-04-26T09:07:01.877Z</time></trkpt><trkpt lat="42.3463051" lon="13.0319576"><ele>836.0</ele><time>2026-04-26T09:07:02.879Z</time></trkpt><trkpt lat="42.3462723" lon="13.0320923"><ele>834.1999999999999</ele><time>2026-04-26T09:07:03.893Z</time></trkpt><trkpt lat="42.3462568" lon="13.0322194"><ele>832.4</ele><time>2026-04-26T09:07:04.892Z</time></trkpt><trkpt lat="42.3462588" lon="13.0323509"><ele>830.6</ele><time>2026-04-26T09:07:05.916Z</time></trkpt><trkpt lat="42.3462672" lon="13.0324935"><ele>828.8</ele><time>2026-04-26T09:07:06.886Z</time></trkpt><trkpt lat="42.3462813" lon="13.0326131"><ele>827.0</ele><time>2026-04-26T09:07:07.893Z</time></trkpt><trkpt lat="42.3463001" lon="13.0326964"><ele>827.0</ele><time>2026-04-26T09:07:08.892Z</time></trkpt><trkpt lat="42.3463592" lon="13.032765"><ele>827.0</ele><time>2026-04-26T09:07:10.885Z</time></trkpt><trkpt lat="42.346429" lon="13.0327245"><ele>827.0</ele><time>2026-04-26T09:07:12.915Z</time></trkpt><trkpt lat="42.3464467" lon="13.0325783"><ele>827.0</ele><time>2026-04-26T09:07:14.885Z</time></trkpt><trkpt lat="42.3464396" lon="13.0324684"><ele>827.0</ele><time>2026-04-26T09:07:16.034Z</time></trkpt><trkpt lat="42.346503" lon="13.0322174"><ele>832.2</ele><time>2026-04-26T09:07:17.887Z</time></trkpt><trkpt lat="42.3465513" lon="13.0321195"><ele>837.4000000000001</ele><time>2026-04-26T09:07:18.885Z</time></trkpt><trkpt lat="42.3466091" lon="13.0320163"><ele>842.5999999999999</ele><time>2026-04-26T09:07:19.885Z</time></trkpt><trkpt lat="42.346684" lon="13.0319318"><ele>847.8</ele><time>2026-04-26T09:07:20.896Z</time></trkpt><trkpt lat="42.3467758" lon="13.0318475"><ele>853.0</ele><time>2026-04-26T09:07:21.888Z</time></trkpt><trkpt lat="42.3468755" lon="13.0317791"><ele>853.0</ele><time>2026-04-26T09:07:22.882Z</time></trkpt><trkpt lat="42.3469737" lon="13.03173"><ele>853.0</ele><time>2026-04-26T09:07:23.885Z</time></trkpt><trkpt lat="42.3470631" lon="13.0316921"><ele>853.0</ele><time>2026-04-26T09:07:24.886Z</time></trkpt><trkpt lat="42.3471556" lon="13.0316523"><ele>853.0</ele><time>2026-04-26T09:07:25.885Z</time></trkpt><trkpt lat="42.3472414" lon="13.0316029"><ele>853.0</ele><time>2026-04-26T09:07:26.89Z</time></trkpt><trkpt lat="42.3473112" lon="13.0315552"><ele>855.2</ele><time>2026-04-26T09:07:27.886Z</time></trkpt><trkpt lat="42.347372" lon="13.031519"><ele>857.4</ele><time>2026-04-26T09:07:28.885Z</time></trkpt><trkpt lat="42.3474754" lon="13.0314948"><ele>859.6000000000001</ele><time>2026-04-26T09:07:30.884Z</time></trkpt><trkpt lat="42.3475101" lon="13.031617"><ele>861.8000000000001</ele><time>2026-04-26T09:07:33.877Z</time></trkpt><trkpt lat="42.3474872" lon="13.031709"><ele>864.0</ele><time>2026-04-26T09:07:34.885Z</time></trkpt><trkpt lat="42.3474167" lon="13.0318349"><ele>867.4000000000001</ele><time>2026-04-26T09:07:35.879Z</time></trkpt><trkpt lat="42.3473444" lon="13.0319677"><ele>870.8000000000001</ele><time>2026-04-26T09:07:36.878Z</time></trkpt><trkpt lat="42.3472963" lon="13.032107"><ele>874.1999999999999</ele><time>2026-04-26T09:07:37.878Z</time></trkpt><trkpt lat="42.3472881" lon="13.0322424"><ele>877.5999999999999</ele><time>2026-04-26T09:07:38.881Z</time></trkpt><trkpt lat="42.3472865" lon="13.0323576"><ele>881.0</ele><time>2026-04-26T09:07:39.922Z</time></trkpt><trkpt lat="42.3472947" lon="13.0324677"><ele>883.1999999999999</ele><time>2026-04-26T09:07:40.867Z</time></trkpt><trkpt lat="42.3473214" lon="13.0325778"><ele>885.3999999999999</ele><time>2026-04-26T09:07:41.885Z</time></trkpt><trkpt lat="42.3473635" lon="13.0326757"><ele>887.6</ele><time>2026-04-26T09:07:42.88Z</time></trkpt><trkpt lat="42.3474064" lon="13.0327481"><ele>889.8</ele><time>2026-04-26T09:07:43.882Z</time></trkpt><trkpt lat="42.3475167" lon="13.0327685"><ele>892.0</ele><time>2026-04-26T09:07:45.88Z</time></trkpt><trkpt lat="42.3476322" lon="13.0326695"><ele>892.0</ele><time>2026-04-26T09:07:47.877Z</time></trkpt><trkpt lat="42.3477101" lon="13.032623"><ele>892.0</ele><time>2026-04-26T09:07:48.886Z</time></trkpt><trkpt lat="42.3478005" lon="13.0326227"><ele>892.0</ele><time>2026-04-26T09:07:49.888Z</time></trkpt><trkpt lat="42.347904" lon="13.032667"><ele>892.0</ele><time>2026-04-26T09:07:50.894Z</time></trkpt><trkpt lat="42.3480151" lon="13.0327256"><ele>892.0</ele><time>2026-04-26T09:07:51.897Z</time></trkpt><trkpt lat="42.3481066" lon="13.0327746"><ele>894.9999999999999</ele><time>2026-04-26T09:07:52.903Z</time></trkpt><trkpt lat="42.348195" lon="13.0327824"><ele>898.0</ele><time>2026-04-26T09:07:53.88Z</time></trkpt><trkpt lat="42.3482838" lon="13.0327905"><ele>901.0</ele><time>2026-04-26T09:07:54.885Z</time></trkpt><trkpt lat="42.3483675" lon="13.0327884"><ele>904.0</ele><time>2026-04-26T09:07:55.885Z</time></trkpt><trkpt lat="42.3484568" lon="13.0327658"><ele>906.9999999999999</ele><time>2026-04-26T09:07:56.876Z</time></trkpt><trkpt lat="42.3485452" lon="13.0327318"><ele>910.0</ele><time>2026-04-26T09:07:57.889Z</time></trkpt><trkpt lat="42.348658" lon="13.0326786"><ele>910.0</ele><time>2026-04-26T09:07:58.884Z</time></trkpt><trkpt lat="42.3487692" lon="13.0326465"><ele>910.0</ele><time>2026-04-26T09:07:59.894Z</time></trkpt><trkpt lat="42.3488594" lon="13.032612"><ele>910.0</ele><time>2026-04-26T09:08:00.875Z</time></trkpt><trkpt lat="42.3489401" lon="13.0325742"><ele>910.0</ele><time>2026-04-26T09:08:01.887Z</time></trkpt><trkpt lat="42.3490141" lon="13.0325044"><ele>910.0</ele><time>2026-04-26T09:08:02.897Z</time></trkpt><trkpt lat="42.3490777" lon="13.0324272"><ele>913.2</ele><time>2026-04-26T09:08:03.879Z</time></trkpt><trkpt lat="42.349124" lon="13.0323248"><ele>916.4</ele><time>2026-04-26T09:08:04.888Z</time></trkpt><trkpt lat="42.3491763" lon="13.0322125"><ele>919.5999999999999</ele><time>2026-04-26T09:08:05.886Z</time></trkpt><trkpt lat="42.3492286" lon="13.0320725"><ele>922.8</ele><time>2026-04-26T09:08:06.933Z</time></trkpt><trkpt lat="42.3492658" lon="13.0319225"><ele>926.0</ele><time>2026-04-26T09:08:07.89Z</time></trkpt><trkpt lat="42.3492981" lon="13.0317754"><ele>926.0</ele><time>2026-04-26T09:08:08.881Z</time></trkpt><trkpt lat="42.3493226" lon="13.0316308"><ele>925.9999999999999</ele><time>2026-04-26T09:08:09.879Z</time></trkpt><trkpt lat="42.3493419" lon="13.0315011"><ele>925.9999999999999</ele><time>2026-04-26T09:08:10.888Z</time></trkpt><trkpt lat="42.3493589" lon="13.0313489"><ele>926.0</ele><time>2026-04-26T09:08:11.888Z</time></trkpt><trkpt lat="42.3493846" lon="13.0312096"><ele>926.0</ele><time>2026-04-26T09:08:12.89Z</time></trkpt><trkpt lat="42.3494245" lon="13.031089"><ele>926.0000000000001</ele><time>2026-04-26T09:08:13.891Z</time></trkpt><trkpt lat="42.3494686" lon="13.0309726"><ele>926.0</ele><time>2026-04-26T09:08:14.885Z</time></trkpt><trkpt lat="42.3495094" lon="13.0308811"><ele>926.0</ele><time>2026-04-26T09:08:15.889Z</time></trkpt><trkpt lat="42.349545" lon="13.0308004"><ele>926.0</ele><time>2026-04-26T09:08:16.893Z</time></trkpt><trkpt lat="42.3496173" lon="13.030705"><ele>926.0000000000001</ele><time>2026-04-26T09:08:18.892Z</time></trkpt><trkpt lat="42.3496931" lon="13.0307324"><ele>926.0</ele><time>2026-04-26T09:08:20.893Z</time></trkpt><trkpt lat="42.3497137" lon="13.0308788"><ele>933.0</ele><time>2026-04-26T09:08:22.874Z</time></trkpt><trkpt lat="42.3497241" lon="13.0309947"><ele>940.0</ele><time>2026-04-26T09:08:23.875Z</time></trkpt><trkpt lat="42.3497487" lon="13.0311633"><ele>947.0</ele><time>2026-04-26T09:08:24.881Z</time></trkpt><trkpt lat="42.3497777" lon="13.031346"><ele>954.0</ele><time>2026-04-26T09:08:25.882Z</time></trkpt><trkpt lat="42.3498068" lon="13.0314977"><ele>955.5</ele><time>2026-04-26T09:08:26.88Z</time></trkpt><trkpt lat="42.3498437" lon="13.031645"><ele>957.0</ele><time>2026-04-26T09:08:27.883Z</time></trkpt><trkpt lat="42.3498873" lon="13.0317931"><ele>958.5</ele><time>2026-04-26T09:08:28.878Z</time></trkpt><trkpt lat="42.3499402" lon="13.0319396"><ele>960.0</ele><time>2026-04-26T09:08:29.884Z</time></trkpt><trkpt lat="42.3499917" lon="13.032072"><ele>960.0</ele><time>2026-04-26T09:08:30.885Z</time></trkpt><trkpt lat="42.3500332" lon="13.0322081"><ele>960.0</ele><time>2026-04-26T09:08:31.875Z</time></trkpt><trkpt lat="42.3500714" lon="13.0323366"><ele>960.0</ele><time>2026-04-26T09:08:32.926Z</time></trkpt><trkpt lat="42.3501062" lon="13.0324509"><ele>960.0</ele><time>2026-04-26T09:08:33.885Z</time></trkpt><trkpt lat="42.350135" lon="13.032567"><ele>960.0</ele><time>2026-04-26T09:08:34.873Z</time></trkpt><trkpt lat="42.3501669" lon="13.0326868"><ele>959.6666666666666</ele><time>2026-04-26T09:08:35.886Z</time></trkpt><trkpt lat="42.3502047" lon="13.0328108"><ele>959.3333333333333</ele><time>2026-04-26T09:08:36.88Z</time></trkpt><trkpt lat="42.3502491" lon="13.0329166"><ele>959.0</ele><time>2026-04-26T09:08:37.879Z</time></trkpt><trkpt lat="42.3502979" lon="13.0330146"><ele>958.6666666666666</ele><time>2026-04-26T09:08:38.882Z</time></trkpt><trkpt lat="42.3503454" lon="13.0330911"><ele>958.3333333333333</ele><time>2026-04-26T09:08:39.873Z</time></trkpt><trkpt lat="42.3504015" lon="13.0331756"><ele>958.0</ele><time>2026-04-26T09:08:40.878Z</time></trkpt><trkpt lat="42.3504626" lon="13.0332629"><ele>957.5999999999999</ele><time>2026-04-26T09:08:41.885Z</time></trkpt><trkpt lat="42.3505341" lon="13.03334"><ele>957.1999999999999</ele><time>2026-04-26T09:08:42.879Z</time></trkpt><trkpt lat="42.3506044" lon="13.0334074"><ele>956.8</ele><time>2026-04-26T09:08:43.94Z</time></trkpt><trkpt lat="42.3506782" lon="13.0334703"><ele>956.4</ele><time>2026-04-26T09:08:44.882Z</time></trkpt><trkpt lat="42.3507331" lon="13.0335214"><ele>956.0</ele><time>2026-04-26T09:08:45.873Z</time></trkpt><trkpt lat="42.3508429" lon="13.033584"><ele>960.3333333333334</ele><time>2026-04-26T09:08:47.893Z</time></trkpt><trkpt lat="42.3509061" lon="13.0335783"><ele>964.6666666666667</ele><time>2026-04-26T09:08:48.888Z</time></trkpt><trkpt lat="42.3509708" lon="13.0335779"><ele>969.0</ele><time>2026-04-26T09:08:49.884Z</time></trkpt><trkpt lat="42.3510392" lon="13.0335678"><ele>973.3333333333333</ele><time>2026-04-26T09:08:50.88Z</time></trkpt><trkpt lat="42.3511134" lon="13.033628"><ele>977.6666666666666</ele><time>2026-04-26T09:08:52.89Z</time></trkpt><trkpt lat="42.3511573" lon="13.0337558"><ele>982.0</ele><time>2026-04-26T09:08:54.889Z</time></trkpt><trkpt lat="42.3511779" lon="13.033865"><ele>982.0</ele><time>2026-04-26T09:08:56.88Z</time></trkpt><trkpt lat="42.3510969" lon="13.0339903"><ele>982.0</ele><time>2026-04-26T09:08:58.88Z</time></trkpt><trkpt lat="42.3510249" lon="13.0340501"><ele>982.0</ele><time>2026-04-26T09:08:59.887Z</time></trkpt><trkpt lat="42.3509546" lon="13.0341031"><ele>982.0</ele><time>2026-04-26T09:09:00.883Z</time></trkpt><trkpt lat="42.3508815" lon="13.0341489"><ele>982.0</ele><time>2026-04-26T09:09:01.879Z</time></trkpt><trkpt lat="42.3507957" lon="13.0341748"><ele>982.8333333333333</ele><time>2026-04-26T09:09:02.876Z</time></trkpt><trkpt lat="42.3507183" lon="13.0341962"><ele>983.6666666666666</ele><time>2026-04-26T09:09:03.882Z</time></trkpt><trkpt lat="42.3506459" lon="13.0342192"><ele>984.5</ele><time>2026-04-26T09:09:04.886Z</time></trkpt><trkpt lat="42.3505788" lon="13.0342481"><ele>985.3333333333333</ele><time>2026-04-26T09:09:05.879Z</time></trkpt><trkpt lat="42.3505334" lon="13.0343085"><ele>986.1666666666666</ele><time>2026-04-26T09:09:06.883Z</time></trkpt><trkpt lat="42.3505253" lon="13.0344144"><ele>987.0</ele><time>2026-04-26T09:09:07.89Z</time></trkpt><trkpt lat="42.3504929" lon="13.0345614"><ele>986.0</ele><time>2026-04-26T09:09:08.884Z</time></trkpt><trkpt lat="42.3504588" lon="13.0346979"><ele>985.0</ele><time>2026-04-26T09:09:09.885Z</time></trkpt><trkpt lat="42.3504205" lon="13.0348088"><ele>984.0</ele><time>2026-04-26T09:09:10.891Z</time></trkpt><trkpt lat="42.3503824" lon="13.0349158"><ele>983.0</ele><time>2026-04-26T09:09:11.889Z</time></trkpt><trkpt lat="42.3503528" lon="13.0349982"><ele>982.0</ele><time>2026-04-26T09:09:12.89Z</time></trkpt><trkpt lat="42.3503616" lon="13.0351539"><ele>982.0</ele><time>2026-04-26T09:09:14.88Z</time></trkpt><trkpt lat="42.3503846" lon="13.035243"><ele>982.0</ele><time>2026-04-26T09:09:15.895Z</time></trkpt><trkpt lat="42.3504333" lon="13.0353863"><ele>982.0</ele><time>2026-04-26T09:09:17.882Z</time></trkpt><trkpt lat="42.3504536" lon="13.0355615"><ele>982.0</ele><time>2026-04-26T09:09:19.889Z</time></trkpt><trkpt lat="42.3504388" lon="13.0356579"><ele>982.0</ele><time>2026-04-26T09:09:20.886Z</time></trkpt><trkpt lat="42.3504168" lon="13.0357545"><ele>983.4000000000001</ele><time>2026-04-26T09:09:21.885Z</time></trkpt><trkpt lat="42.3503719" lon="13.0358583"><ele>984.8000000000001</ele><time>2026-04-26T09:09:22.888Z</time></trkpt><trkpt lat="42.350316" lon="13.0359781"><ele>986.2</ele><time>2026-04-26T09:09:23.887Z</time></trkpt><trkpt lat="42.3502633" lon="13.0361235"><ele>987.6</ele><time>2026-04-26T09:09:24.887Z</time></trkpt><trkpt lat="42.3502252" lon="13.0362443"><ele>989.0</ele><time>2026-04-26T09:09:25.885Z</time></trkpt><trkpt lat="42.3502067" lon="13.0363572"><ele>989.0000000000001</ele><time>2026-04-26T09:09:26.894Z</time></trkpt><trkpt lat="42.3502109" lon="13.0364667"><ele>989.0</ele><time>2026-04-26T09:09:27.884Z</time></trkpt><trkpt lat="42.3502276" lon="13.0365792"><ele>989.0</ele><time>2026-04-26T09:09:28.883Z</time></trkpt><trkpt lat="42.3502463" lon="13.0366819"><ele>989.0</ele><time>2026-04-26T09:09:29.877Z</time></trkpt><trkpt lat="42.350279" lon="13.0367989"><ele>989.0000000000001</ele><time>2026-04-26T09:09:30.891Z</time></trkpt><trkpt lat="42.3503121" lon="13.0368894"><ele>989.0</ele><time>2026-04-26T09:09:31.895Z</time></trkpt><trkpt lat="42.3503798" lon="13.0369487"><ele>989.6</ele><time>2026-04-26T09:09:33.872Z</time></trkpt><trkpt lat="42.3504991" lon="13.0368632"><ele>990.2</ele><time>2026-04-26T09:09:35.88Z</time></trkpt><trkpt lat="42.3505422" lon="13.0367822"><ele>990.8000000000001</ele><time>2026-04-26T09:09:36.877Z</time></trkpt><trkpt lat="42.3505831" lon="13.036674"><ele>991.4000000000001</ele><time>2026-04-26T09:09:37.88Z</time></trkpt><trkpt lat="42.3506333" lon="13.0365728"><ele>992.0</ele><time>2026-04-26T09:09:38.926Z</time></trkpt><trkpt lat="42.3507042" lon="13.0364914"><ele>995.6</ele><time>2026-04-26T09:09:39.885Z</time></trkpt><trkpt lat="42.3507809" lon="13.036408"><ele>999.2</ele><time>2026-04-26T09:09:40.902Z</time></trkpt><trkpt lat="42.3508677" lon="13.0363358"><ele>1002.8</ele><time>2026-04-26T09:09:41.886Z</time></trkpt><trkpt lat="42.3509524" lon="13.0362593"><ele>1006.4</ele><time>2026-04-26T09:09:42.88Z</time></trkpt><trkpt lat="42.3510392" lon="13.0361811"><ele>1010.0</ele><time>2026-04-26T09:09:43.888Z</time></trkpt><trkpt lat="42.3511143" lon="13.0361129"><ele>1010.0</ele><time>2026-04-26T09:09:44.88Z</time></trkpt><trkpt lat="42.3511874" lon="13.0360363"><ele>1010.0</ele><time>2026-04-26T09:09:45.882Z</time></trkpt><trkpt lat="42.3512591" lon="13.0359702"><ele>1010.0</ele><time>2026-04-26T09:09:46.886Z</time></trkpt><trkpt lat="42.3513311" lon="13.0358928"><ele>1010.0</ele><time>2026-04-26T09:09:47.885Z</time></trkpt><trkpt lat="42.3513978" lon="13.035816"><ele>1010.0</ele><time>2026-04-26T09:09:48.893Z</time></trkpt><trkpt lat="42.3514592" lon="13.0357235"><ele>1011.6666666666667</ele><time>2026-04-26T09:09:49.879Z</time></trkpt><trkpt lat="42.3514986" lon="13.0356123"><ele>1013.3333333333334</ele><time>2026-04-26T09:09:50.883Z</time></trkpt><trkpt lat="42.3515353" lon="13.0355017"><ele>1015.0</ele><time>2026-04-26T09:09:51.883Z</time></trkpt><trkpt lat="42.3515707" lon="13.0354011"><ele>1016.6666666666667</ele><time>2026-04-26T09:09:52.884Z</time></trkpt><trkpt lat="42.3516279" lon="13.0353423"><ele>1018.3333333333334</ele><time>2026-04-26T09:09:53.884Z</time></trkpt><trkpt lat="42.3517213" lon="13.035361"><ele>1020.0</ele><time>2026-04-26T09:09:55.882Z</time></trkpt><trkpt lat="42.3517551" lon="13.035532"><ele>1020.0</ele><time>2026-04-26T09:09:57.876Z</time></trkpt><trkpt lat="42.3517777" lon="13.035667"><ele>1020.0</ele><time>2026-04-26T09:09:58.877Z</time></trkpt><trkpt lat="42.3517954" lon="13.0358118"><ele>1020.0</ele><time>2026-04-26T09:09:59.879Z</time></trkpt><trkpt lat="42.3518308" lon="13.0359388"><ele>1020.0</ele><time>2026-04-26T09:10:00.883Z</time></trkpt><trkpt lat="42.3518685" lon="13.0360403"><ele>1020.0</ele><time>2026-04-26T09:10:01.878Z</time></trkpt><trkpt lat="42.3519063" lon="13.0361392"><ele>1021.5714285714287</ele><time>2026-04-26T09:10:02.869Z</time></trkpt><trkpt lat="42.3519255" lon="13.0362382"><ele>1023.1428571428572</ele><time>2026-04-26T09:10:03.879Z</time></trkpt><trkpt lat="42.35193" lon="13.0363363"><ele>1024.7142857142858</ele><time>2026-04-26T09:10:04.917Z</time></trkpt><trkpt lat="42.3519338" lon="13.0364363"><ele>1026.2857142857142</ele><time>2026-04-26T09:10:05.875Z</time></trkpt><trkpt lat="42.3519302" lon="13.0365341"><ele>1027.8571428571427</ele><time>2026-04-26T09:10:06.873Z</time></trkpt><trkpt lat="42.3519157" lon="13.0366264"><ele>1029.4285714285713</ele><time>2026-04-26T09:10:07.88Z</time></trkpt><trkpt lat="42.3518879" lon="13.0367191"><ele>1031.0</ele><time>2026-04-26T09:10:08.869Z</time></trkpt><trkpt lat="42.3518481" lon="13.0368189"><ele>1033.0</ele><time>2026-04-26T09:10:09.877Z</time></trkpt><trkpt lat="42.351792" lon="13.0369161"><ele>1035.0</ele><time>2026-04-26T09:10:10.883Z</time></trkpt><trkpt lat="42.3517204" lon="13.0370077"><ele>1037.0</ele><time>2026-04-26T09:10:11.875Z</time></trkpt><trkpt lat="42.3516403" lon="13.0371088"><ele>1039.0</ele><time>2026-04-26T09:10:12.872Z</time></trkpt><trkpt lat="42.3515677" lon="13.0372025"><ele>1041.0</ele><time>2026-04-26T09:10:13.88Z</time></trkpt><trkpt lat="42.3515193" lon="13.0373145"><ele>1041.0</ele><time>2026-04-26T09:10:14.881Z</time></trkpt><trkpt lat="42.3514748" lon="13.0374524"><ele>1041.0</ele><time>2026-04-26T09:10:15.867Z</time></trkpt><trkpt lat="42.351432" lon="13.0376197"><ele>1041.0</ele><time>2026-04-26T09:10:16.874Z</time></trkpt><trkpt lat="42.3514004" lon="13.037773"><ele>1041.0</ele><time>2026-04-26T09:10:17.935Z</time></trkpt><trkpt lat="42.3513795" lon="13.0379212"><ele>1038.8</ele><time>2026-04-26T09:10:18.877Z</time></trkpt><trkpt lat="42.3513639" lon="13.0380631"><ele>1036.6</ele><time>2026-04-26T09:10:19.875Z</time></trkpt><trkpt lat="42.3513624" lon="13.0381916"><ele>1034.4</ele><time>2026-04-26T09:10:20.872Z</time></trkpt><trkpt lat="42.3513666" lon="13.038311"><ele>1032.2</ele><time>2026-04-26T09:10:21.875Z</time></trkpt><trkpt lat="42.3513875" lon="13.0384224"><ele>1030.0</ele><time>2026-04-26T09:10:22.884Z</time></trkpt><trkpt lat="42.3514154" lon="13.038523"><ele>1038.25</ele><time>2026-04-26T09:10:23.881Z</time></trkpt><trkpt lat="42.3514585" lon="13.0386339"><ele>1046.5</ele><time>2026-04-26T09:10:24.887Z</time></trkpt><trkpt lat="42.3515166" lon="13.038767"><ele>1054.75</ele><time>2026-04-26T09:10:25.877Z</time></trkpt><trkpt lat="42.3515711" lon="13.0389176"><ele>1063.0</ele><time>2026-04-26T09:10:26.881Z</time></trkpt><trkpt lat="42.3516289" lon="13.0390692"><ele>1064.4</ele><time>2026-04-26T09:10:27.882Z</time></trkpt><trkpt lat="42.3516851" lon="13.0391996"><ele>1065.8</ele><time>2026-04-26T09:10:28.881Z</time></trkpt><trkpt lat="42.3517339" lon="13.0393129"><ele>1067.2</ele><time>2026-04-26T09:10:29.886Z</time></trkpt><trkpt lat="42.3517772" lon="13.0394064"><ele>1068.6</ele><time>2026-04-26T09:10:30.897Z</time></trkpt><trkpt lat="42.3518182" lon="13.0395485"><ele>1070.0</ele><time>2026-04-26T09:10:32.883Z</time></trkpt><trkpt lat="42.351804" lon="13.0396369"><ele>1070.0</ele><time>2026-04-26T09:10:33.882Z</time></trkpt><trkpt lat="42.3517611" lon="13.0397219"><ele>1070.0</ele><time>2026-04-26T09:10:34.874Z</time></trkpt><trkpt lat="42.3516866" lon="13.0397789"><ele>1070.0</ele><time>2026-04-26T09:10:35.875Z</time></trkpt><trkpt lat="42.3516017" lon="13.0398253"><ele>1070.0</ele><time>2026-04-26T09:10:36.879Z</time></trkpt><trkpt lat="42.3515089" lon="13.0398657"><ele>1070.0</ele><time>2026-04-26T09:10:37.875Z</time></trkpt><trkpt lat="42.3514316" lon="13.039927"><ele>1070.0</ele><time>2026-04-26T09:10:38.885Z</time></trkpt><trkpt lat="42.3513774" lon="13.0400062"><ele>1068.6</ele><time>2026-04-26T09:10:39.879Z</time></trkpt><trkpt lat="42.3513425" lon="13.0401042"><ele>1067.2</ele><time>2026-04-26T09:10:40.875Z</time></trkpt><trkpt lat="42.3513087" lon="13.0402065"><ele>1065.8</ele><time>2026-04-26T09:10:41.868Z</time></trkpt><trkpt lat="42.3512759" lon="13.0403302"><ele>1064.4</ele><time>2026-04-26T09:10:42.873Z</time></trkpt><trkpt lat="42.3512316" lon="13.040478"><ele>1063.0</ele><time>2026-04-26T09:10:43.882Z</time></trkpt><trkpt lat="42.351186" lon="13.0406339"><ele>1067.5</ele><time>2026-04-26T09:10:44.876Z</time></trkpt><trkpt lat="42.3511441" lon="13.0408005"><ele>1072.0</ele><time>2026-04-26T09:10:45.877Z</time></trkpt><trkpt lat="42.3511102" lon="13.040969"><ele>1076.5</ele><time>2026-04-26T09:10:46.881Z</time></trkpt><trkpt lat="42.3510741" lon="13.04115"><ele>1081.0</ele><time>2026-04-26T09:10:47.882Z</time></trkpt><trkpt lat="42.3510477" lon="13.0413381"><ele>1081.0</ele><time>2026-04-26T09:10:48.882Z</time></trkpt><trkpt lat="42.3510294" lon="13.0415139"><ele>1081.0</ele><time>2026-04-26T09:10:49.878Z</time></trkpt><trkpt lat="42.3510181" lon="13.0416699"><ele>1081.0</ele><time>2026-04-26T09:10:50.883Z</time></trkpt><trkpt lat="42.3509981" lon="13.0418126"><ele>1081.0</ele><time>2026-04-26T09:10:51.872Z</time></trkpt><trkpt lat="42.3509663" lon="13.0419287"><ele>1081.0</ele><time>2026-04-26T09:10:52.88Z</time></trkpt><trkpt lat="42.3509071" lon="13.0420295"><ele>1084.25</ele><time>2026-04-26T09:10:53.88Z</time></trkpt><trkpt lat="42.3508291" lon="13.0421276"><ele>1087.5</ele><time>2026-04-26T09:10:54.879Z</time></trkpt><trkpt lat="42.3507536" lon="13.0422391"><ele>1090.75</ele><time>2026-04-26T09:10:55.92Z</time></trkpt><trkpt lat="42.3506864" lon="13.0423625"><ele>1094.0</ele><time>2026-04-26T09:10:56.88Z</time></trkpt><trkpt lat="42.3506222" lon="13.0424966"><ele>1093.75</ele><time>2026-04-26T09:10:57.88Z</time></trkpt><trkpt lat="42.3505613" lon="13.0426334"><ele>1093.5</ele><time>2026-04-26T09:10:58.887Z</time></trkpt><trkpt lat="42.3505008" lon="13.0427728"><ele>1093.25</ele><time>2026-04-26T09:10:59.885Z</time></trkpt><trkpt lat="42.3504457" lon="13.0429229"><ele>1093.0</ele><time>2026-04-26T09:11:00.885Z</time></trkpt><trkpt lat="42.3503924" lon="13.0430799"><ele>1093.0</ele><time>2026-04-26T09:11:01.888Z</time></trkpt><trkpt lat="42.3503401" lon="13.0432221"><ele>1093.0</ele><time>2026-04-26T09:11:02.887Z</time></trkpt><trkpt lat="42.3502941" lon="13.0433551"><ele>1093.0</ele><time>2026-04-26T09:11:03.876Z</time></trkpt><trkpt lat="42.3502589" lon="13.043479"><ele>1093.0</ele><time>2026-04-26T09:11:04.878Z</time></trkpt><trkpt lat="42.350237" lon="13.0435933"><ele>1093.0</ele><time>2026-04-26T09:11:05.885Z</time></trkpt><trkpt lat="42.3502221" lon="13.0437211"><ele>1094.6</ele><time>2026-04-26T09:11:06.876Z</time></trkpt><trkpt lat="42.3502257" lon="13.0438483"><ele>1096.1999999999998</ele><time>2026-04-26T09:11:07.903Z</time></trkpt><trkpt lat="42.350243" lon="13.0439897"><ele>1097.8</ele><time>2026-04-26T09:11:08.891Z</time></trkpt><trkpt lat="42.350266" lon="13.044137"><ele>1099.3999999999999</ele><time>2026-04-26T09:11:09.886Z</time></trkpt><trkpt lat="42.3502945" lon="13.0442775"><ele>1101.0</ele><time>2026-04-26T09:11:10.891Z</time></trkpt><trkpt lat="42.3503202" lon="13.0444206"><ele>1101.6</ele><time>2026-04-26T09:11:11.884Z</time></trkpt><trkpt lat="42.3503476" lon="13.0445587"><ele>1102.1999999999998</ele><time>2026-04-26T09:11:12.903Z</time></trkpt><trkpt lat="42.3503793" lon="13.0446829"><ele>1102.8000000000002</ele><time>2026-04-26T09:11:13.885Z</time></trkpt><trkpt lat="42.3504198" lon="13.044793"><ele>1103.4</ele><time>2026-04-26T09:11:14.889Z</time></trkpt><trkpt lat="42.3504602" lon="13.0449023"><ele>1104.0</ele><time>2026-04-26T09:11:15.892Z</time></trkpt><trkpt lat="42.3505078" lon="13.0450111"><ele>1108.1666666666667</ele><time>2026-04-26T09:11:16.88Z</time></trkpt><trkpt lat="42.3505664" lon="13.0451044"><ele>1112.3333333333333</ele><time>2026-04-26T09:11:17.875Z</time></trkpt><trkpt lat="42.3506268" lon="13.0451877"><ele>1116.5</ele><time>2026-04-26T09:11:18.879Z</time></trkpt><trkpt lat="42.3506901" lon="13.0452649"><ele>1120.6666666666665</ele><time>2026-04-26T09:11:19.894Z</time></trkpt><trkpt lat="42.3507585" lon="13.045337"><ele>1124.8333333333333</ele><time>2026-04-26T09:11:20.892Z</time></trkpt><trkpt lat="42.3508293" lon="13.0453975"><ele>1129.0</ele><time>2026-04-26T09:11:21.894Z</time></trkpt><trkpt lat="42.3508997" lon="13.0454499"><ele>1129.0</ele><time>2026-04-26T09:11:22.896Z</time></trkpt><trkpt lat="42.3509696" lon="13.0455127"><ele>1129.0</ele><time>2026-04-26T09:11:23.878Z</time></trkpt><trkpt lat="42.3510236" lon="13.045585"><ele>1129.0</ele><time>2026-04-26T09:11:24.888Z</time></trkpt><trkpt lat="42.3510552" lon="13.0456692"><ele>1129.0</ele><time>2026-04-26T09:11:25.882Z</time></trkpt><trkpt lat="42.3510696" lon="13.045775"><ele>1129.0</ele><time>2026-04-26T09:11:26.877Z</time></trkpt><trkpt lat="42.35109" lon="13.0459068"><ele>1129.0</ele><time>2026-04-26T09:11:27.876Z</time></trkpt><trkpt lat="42.3511202" lon="13.0460356"><ele>1125.8</ele><time>2026-04-26T09:11:28.879Z</time></trkpt><trkpt lat="42.3511464" lon="13.04616"><ele>1122.6000000000001</ele><time>2026-04-26T09:11:29.879Z</time></trkpt><trkpt lat="42.351164" lon="13.0462781"><ele>1119.4</ele><time>2026-04-26T09:11:30.875Z</time></trkpt><trkpt lat="42.3511937" lon="13.0464071"><ele>1116.2</ele><time>2026-04-26T09:11:31.881Z</time></trkpt><trkpt lat="42.3512494" lon="13.0465359"><ele>1113.0</ele><time>2026-04-26T09:11:32.88Z</time></trkpt><trkpt lat="42.3513158" lon="13.046681"><ele>1117.25</ele><time>2026-04-26T09:11:33.881Z</time></trkpt><trkpt lat="42.3513935" lon="13.0468215"><ele>1121.5</ele><time>2026-04-26T09:11:34.889Z</time></trkpt><trkpt lat="42.3514668" lon="13.0469594"><ele>1125.75</ele><time>2026-04-26T09:11:35.886Z</time></trkpt><trkpt lat="42.351545" lon="13.0470956"><ele>1130.0</ele><time>2026-04-26T09:11:36.894Z</time></trkpt><trkpt lat="42.3516296" lon="13.0472312"><ele>1130.0</ele><time>2026-04-26T09:11:37.893Z</time></trkpt><trkpt lat="42.351715" lon="13.0473599"><ele>1130.0</ele><time>2026-04-26T09:11:38.892Z</time></trkpt><trkpt lat="42.3517865" lon="13.0474663"><ele>1130.0</ele><time>2026-04-26T09:11:39.878Z</time></trkpt><trkpt lat="42.3518606" lon="13.0475618"><ele>1130.0</ele><time>2026-04-26T09:11:40.869Z</time></trkpt><trkpt lat="42.3519423" lon="13.0476589"><ele>1130.0</ele><time>2026-04-26T09:11:41.892Z</time></trkpt><trkpt lat="42.3520229" lon="13.0477544"><ele>1131.4</ele><time>2026-04-26T09:11:42.885Z</time></trkpt><trkpt lat="42.3521052" lon="13.0478461"><ele>1132.8</ele><time>2026-04-26T09:11:43.874Z</time></trkpt><trkpt lat="42.3521878" lon="13.0479222"><ele>1134.2</ele><time>2026-04-26T09:11:44.898Z</time></trkpt><trkpt lat="42.3522658" lon="13.0479862"><ele>1135.6</ele><time>2026-04-26T09:11:45.877Z</time></trkpt><trkpt lat="42.3523453" lon="13.0480368"><ele>1137.0</ele><time>2026-04-26T09:11:46.885Z</time></trkpt><trkpt lat="42.3524332" lon="13.0480813"><ele>1137.0</ele><time>2026-04-26T09:11:47.874Z</time></trkpt><trkpt lat="42.3525154" lon="13.0481098"><ele>1137.0</ele><time>2026-04-26T09:11:48.875Z</time></trkpt><trkpt lat="42.3525882" lon="13.0481451"><ele>1137.0</ele><time>2026-04-26T09:11:49.877Z</time></trkpt><trkpt lat="42.3526554" lon="13.0481618"><ele>1137.0</ele><time>2026-04-26T09:11:50.892Z</time></trkpt><trkpt lat="42.3527168" lon="13.0481882"><ele>1137.0</ele><time>2026-04-26T09:11:51.875Z</time></trkpt><trkpt lat="42.3527786" lon="13.0482223"><ele>1137.0</ele><time>2026-04-26T09:11:52.886Z</time></trkpt><trkpt lat="42.3528799" lon="13.0482781"><ele>1135.3333333333333</ele><time>2026-04-26T09:11:54.887Z</time></trkpt><trkpt lat="42.3529791" lon="13.0483408"><ele>1133.6666666666667</ele><time>2026-04-26T09:11:56.88Z</time></trkpt><trkpt lat="42.3530417" lon="13.048368"><ele>1132.0</ele><time>2026-04-26T09:11:57.887Z</time></trkpt><trkpt lat="42.3531595" lon="13.0484118"><ele>1130.3333333333335</ele><time>2026-04-26T09:11:59.886Z</time></trkpt><trkpt lat="42.3532299" lon="13.0484107"><ele>1128.6666666666667</ele><time>2026-04-26T09:12:00.935Z</time></trkpt><trkpt lat="42.3532958" lon="13.0484035"><ele>1127.0</ele><time>2026-04-26T09:12:01.877Z</time></trkpt><trkpt lat="42.3534266" lon="13.0483777"><ele>1127.0</ele><time>2026-04-26T09:12:03.895Z</time></trkpt><trkpt lat="42.3535535" lon="13.0483633"><ele>1127.0</ele><time>2026-04-26T09:12:05.891Z</time></trkpt><trkpt lat="42.3536218" lon="13.0483723"><ele>1127.0</ele><time>2026-04-26T09:12:06.876Z</time></trkpt><trkpt lat="42.3536907" lon="13.0483792"><ele>1127.0</ele><time>2026-04-26T09:12:07.88Z</time></trkpt><trkpt lat="42.3537586" lon="13.0483797"><ele>1127.0</ele><time>2026-04-26T09:12:08.884Z</time></trkpt><trkpt lat="42.3538588" lon="13.0483573"><ele>1127.0</ele><time>2026-04-26T09:12:10.884Z</time></trkpt><trkpt lat="42.3539303" lon="13.0483477"><ele>1129.2</ele><time>2026-04-26T09:12:12.885Z</time></trkpt><trkpt lat="42.3540161" lon="13.0483838"><ele>1131.4</ele><time>2026-04-26T09:12:14.88Z</time></trkpt><trkpt lat="42.3541069" lon="13.0483796"><ele>1133.6</ele><time>2026-04-26T09:12:16.878Z</time></trkpt><trkpt lat="42.3542269" lon="13.0483895"><ele>1135.8</ele><time>2026-04-26T09:12:18.877Z</time></trkpt><trkpt lat="42.354338" lon="13.0483877"><ele>1138.0</ele><time>2026-04-26T09:12:20.88Z</time></trkpt><trkpt lat="42.3544577" lon="13.0483987"><ele>1138.0</ele><time>2026-04-26T09:12:22.878Z</time></trkpt><trkpt lat="42.3545633" lon="13.0484055"><ele>1138.0</ele><time>2026-04-26T09:12:24.883Z</time></trkpt><trkpt lat="42.3546583" lon="13.0484246"><ele>1138.0</ele><time>2026-04-26T09:12:26.884Z</time></trkpt><trkpt lat="42.3547905" lon="13.0484203"><ele>1138.0</ele><time>2026-04-26T09:12:28.882Z</time></trkpt><trkpt lat="42.3548693" lon="13.0484231"><ele>1138.0</ele><time>2026-04-26T09:12:29.879Z</time></trkpt><trkpt lat="42.354941" lon="13.0484296"><ele>1139.0000000000002</ele><time>2026-04-26T09:12:30.879Z</time></trkpt><trkpt lat="42.3550103" lon="13.0484388"><ele>1140.0</ele><time>2026-04-26T09:12:31.88Z</time></trkpt><trkpt lat="42.3550805" lon="13.0484302"><ele>1141.0</ele><time>2026-04-26T09:12:32.883Z</time></trkpt><trkpt lat="42.3551521" lon="13.0484298"><ele>1142.0</ele><time>2026-04-26T09:12:33.877Z</time></trkpt><trkpt lat="42.3552164" lon="13.0484418"><ele>1143.0</ele><time>2026-04-26T09:12:34.885Z</time></trkpt><trkpt lat="42.3552873" lon="13.0484607"><ele>1144.0000000000002</ele><time>2026-04-26T09:12:35.878Z</time></trkpt><trkpt lat="42.3553589" lon="13.0484899"><ele>1145.0</ele><time>2026-04-26T09:12:36.878Z</time></trkpt><trkpt lat="42.3554771" lon="13.0485412"><ele>1148.0</ele><time>2026-04-26T09:12:38.906Z</time></trkpt><trkpt lat="42.3555861" lon="13.0485933"><ele>1151.0</ele><time>2026-04-26T09:12:40.889Z</time></trkpt><trkpt lat="42.3556979" lon="13.0486664"><ele>1154.0</ele><time>2026-04-26T09:12:42.89Z</time></trkpt><trkpt lat="42.3558033" lon="13.0487032"><ele>1157.0</ele><time>2026-04-26T09:12:44.88Z</time></trkpt><trkpt lat="42.3558693" lon="13.0487226"><ele>1160.0</ele><time>2026-04-26T09:12:45.886Z</time></trkpt><trkpt lat="42.3559863" lon="13.0487618"><ele>1160.0</ele><time>2026-04-26T09:12:47.879Z</time></trkpt><trkpt lat="42.3560999" lon="13.0488319"><ele>1160.0</ele><time>2026-04-26T09:12:49.892Z</time></trkpt><trkpt lat="42.3561686" lon="13.0488697"><ele>1160.0</ele><time>2026-04-26T09:12:50.897Z</time></trkpt><trkpt lat="42.3562365" lon="13.0489014"><ele>1160.0</ele><time>2026-04-26T09:12:51.875Z</time></trkpt><trkpt lat="42.3563017" lon="13.0489279"><ele>1160.0</ele><time>2026-04-26T09:12:52.886Z</time></trkpt><trkpt lat="42.3563806" lon="13.0489602"><ele>1160.0</ele><time>2026-04-26T09:12:53.891Z</time></trkpt><trkpt lat="42.3564508" lon="13.04899"><ele>1159.4</ele><time>2026-04-26T09:12:54.884Z</time></trkpt><trkpt lat="42.3565243" lon="13.0490268"><ele>1158.8</ele><time>2026-04-26T09:12:55.887Z</time></trkpt><trkpt lat="42.3565879" lon="13.0490616"><ele>1158.2</ele><time>2026-04-26T09:12:56.888Z</time></trkpt><trkpt lat="42.3566496" lon="13.0490977"><ele>1157.6</ele><time>2026-04-26T09:12:57.895Z</time></trkpt><trkpt lat="42.3567621" lon="13.049164"><ele>1157.0</ele><time>2026-04-26T09:12:59.89Z</time></trkpt><trkpt lat="42.3568706" lon="13.0492438"><ele>1157.0</ele><time>2026-04-26T09:13:01.895Z</time></trkpt><trkpt lat="42.3569299" lon="13.0492783"><ele>1157.0</ele><time>2026-04-26T09:13:02.887Z</time></trkpt><trkpt lat="42.3569898" lon="13.0493057"><ele>1157.0</ele><time>2026-04-26T09:13:03.892Z</time></trkpt><trkpt lat="42.3570886" lon="13.0493748"><ele>1157.0</ele><time>2026-04-26T09:13:05.889Z</time></trkpt><trkpt lat="42.3571857" lon="13.0494255"><ele>1157.0</ele><time>2026-04-26T09:13:07.898Z</time></trkpt><trkpt lat="42.3572788" lon="13.0494491"><ele>1157.0</ele><time>2026-04-26T09:13:09.885Z</time></trkpt><trkpt lat="42.3573888" lon="13.049491"><ele>1159.0</ele><time>2026-04-26T09:13:11.89Z</time></trkpt><trkpt lat="42.3575121" lon="13.049529"><ele>1161.0</ele><time>2026-04-26T09:13:13.901Z</time></trkpt><trkpt lat="42.3576212" lon="13.0495794"><ele>1163.0</ele><time>2026-04-26T09:13:15.895Z</time></trkpt><trkpt lat="42.357687" lon="13.0495945"><ele>1165.0</ele><time>2026-04-26T09:13:16.889Z</time></trkpt><trkpt lat="42.3577542" lon="13.0496115"><ele>1167.0</ele><time>2026-04-26T09:13:17.892Z</time></trkpt><trkpt lat="42.3578714" lon="13.049644"><ele>1167.0</ele><time>2026-04-26T09:13:19.888Z</time></trkpt><trkpt lat="42.3579805" lon="13.049692"><ele>1167.0</ele><time>2026-04-26T09:13:21.884Z</time></trkpt><trkpt lat="42.358096" lon="13.0497167"><ele>1167.0</ele><time>2026-04-26T09:13:23.886Z</time></trkpt><trkpt lat="42.3582141" lon="13.0497495"><ele>1167.0</ele><time>2026-04-26T09:13:25.901Z</time></trkpt><trkpt lat="42.3583208" lon="13.0498019"><ele>1166.857142857143</ele><time>2026-04-26T09:13:27.899Z</time></trkpt><trkpt lat="42.3583892" lon="13.0498265"><ele>1166.7142857142858</ele><time>2026-04-26T09:13:28.905Z</time></trkpt><trkpt lat="42.3584606" lon="13.0498549"><ele>1166.5714285714287</ele><time>2026-04-26T09:13:29.89Z</time></trkpt><trkpt lat="42.3585293" lon="13.0498869"><ele>1166.4285714285716</ele><time>2026-04-26T09:13:30.881Z</time></trkpt><trkpt lat="42.3585906" lon="13.0499258"><ele>1166.2857142857142</ele><time>2026-04-26T09:13:31.942Z</time></trkpt><trkpt lat="42.3586544" lon="13.0499661"><ele>1166.1428571428573</ele><time>2026-04-26T09:13:32.901Z</time></trkpt><trkpt lat="42.3587177" lon="13.0500112"><ele>1166.0</ele><time>2026-04-26T09:13:33.875Z</time></trkpt><trkpt lat="42.3587796" lon="13.0500688"><ele>1166.0000000000002</ele><time>2026-04-26T09:13:34.893Z</time></trkpt><trkpt lat="42.3588361" lon="13.0501263"><ele>1166.0</ele><time>2026-04-26T09:13:35.884Z</time></trkpt><trkpt lat="42.3588962" lon="13.0501793"><ele>1166.0</ele><time>2026-04-26T09:13:36.881Z</time></trkpt><trkpt lat="42.3589564" lon="13.0502341"><ele>1166.0</ele><time>2026-04-26T09:13:37.893Z</time></trkpt><trkpt lat="42.3590191" lon="13.0502806"><ele>1166.0</ele><time>2026-04-26T09:13:38.884Z</time></trkpt><trkpt lat="42.3590828" lon="13.0503271"><ele>1166.0000000000002</ele><time>2026-04-26T09:13:39.879Z</time></trkpt><trkpt lat="42.3591444" lon="13.0503681"><ele>1166.0</ele><time>2026-04-26T09:13:40.882Z</time></trkpt><trkpt lat="42.3592045" lon="13.050411"><ele>1165.857142857143</ele><time>2026-04-26T09:13:41.881Z</time></trkpt><trkpt lat="42.3592587" lon="13.0504581"><ele>1165.7142857142858</ele><time>2026-04-26T09:13:42.88Z</time></trkpt><trkpt lat="42.3593148" lon="13.0505127"><ele>1165.5714285714284</ele><time>2026-04-26T09:13:43.882Z</time></trkpt><trkpt lat="42.3593776" lon="13.0505707"><ele>1165.4285714285716</ele><time>2026-04-26T09:13:44.882Z</time></trkpt><trkpt lat="42.3594405" lon="13.0506242"><ele>1165.2857142857142</ele><time>2026-04-26T09:13:45.888Z</time></trkpt><trkpt lat="42.3595032" lon="13.0506732"><ele>1165.142857142857</ele><time>2026-04-26T09:13:46.88Z</time></trkpt><trkpt lat="42.3595538" lon="13.0507274"><ele>1165.0</ele><time>2026-04-26T09:13:47.885Z</time></trkpt><trkpt lat="42.3596484" lon="13.0508344"><ele>1165.6666666666665</ele><time>2026-04-26T09:13:49.882Z</time></trkpt><trkpt lat="42.3596979" lon="13.0508916"><ele>1166.3333333333333</ele><time>2026-04-26T09:13:50.881Z</time></trkpt><trkpt lat="42.359746" lon="13.0509568"><ele>1167.0</ele><time>2026-04-26T09:13:51.88Z</time></trkpt><trkpt lat="42.3597983" lon="13.0510265"><ele>1167.6666666666667</ele><time>2026-04-26T09:13:52.877Z</time></trkpt><trkpt lat="42.359851" lon="13.0510925"><ele>1168.3333333333335</ele><time>2026-04-26T09:13:53.882Z</time></trkpt><trkpt lat="42.3598995" lon="13.0511634"><ele>1169.0</ele><time>2026-04-26T09:13:54.882Z</time></trkpt><trkpt lat="42.3599684" lon="13.0512738"><ele>1169.0</ele><time>2026-04-26T09:13:56.926Z</time></trkpt><trkpt lat="42.3600214" lon="13.0513976"><ele>1169.0</ele><time>2026-04-26T09:13:58.874Z</time></trkpt><trkpt lat="42.3600418" lon="13.0515447"><ele>1169.0</ele><time>2026-04-26T09:14:00.876Z</time></trkpt><trkpt lat="42.3600677" lon="13.0517006"><ele>1169.0</ele><time>2026-04-26T09:14:02.871Z</time></trkpt><trkpt lat="42.3600998" lon="13.051855"><ele>1170.6000000000001</ele><time>2026-04-26T09:14:04.873Z</time></trkpt><trkpt lat="42.3601608" lon="13.0519801"><ele>1172.2</ele><time>2026-04-26T09:14:06.925Z</time></trkpt><trkpt lat="42.3602011" lon="13.0521223"><ele>1173.8000000000002</ele><time>2026-04-26T09:14:08.878Z</time></trkpt><trkpt lat="42.3602102" lon="13.0522077"><ele>1175.4</ele><time>2026-04-26T09:14:09.876Z</time></trkpt><trkpt lat="42.3602017" lon="13.052333"><ele>1177.0</ele><time>2026-04-26T09:14:11.888Z</time></trkpt><trkpt lat="42.3601895" lon="13.0524825"><ele>1178.4</ele><time>2026-04-26T09:14:13.876Z</time></trkpt><trkpt lat="42.3601543" lon="13.0526274"><ele>1179.8000000000002</ele><time>2026-04-26T09:14:15.893Z</time></trkpt><trkpt lat="42.360062" lon="13.0527447"><ele>1181.2</ele><time>2026-04-26T09:14:17.885Z</time></trkpt><trkpt lat="42.3600109" lon="13.0528045"><ele>1182.6000000000001</ele><time>2026-04-26T09:14:18.883Z</time></trkpt><trkpt lat="42.3599368" lon="13.05293"><ele>1184.0</ele><time>2026-04-26T09:14:20.925Z</time></trkpt><trkpt lat="42.3598539" lon="13.0530444"><ele>1184.0</ele><time>2026-04-26T09:14:22.883Z</time></trkpt><trkpt lat="42.3597891" lon="13.0531535"><ele>1184.0</ele><time>2026-04-26T09:14:24.877Z</time></trkpt><trkpt lat="42.3597356" lon="13.0532921"><ele>1184.0</ele><time>2026-04-26T09:14:26.886Z</time></trkpt><trkpt lat="42.3597052" lon="13.0534386"><ele>1184.0</ele><time>2026-04-26T09:14:28.876Z</time></trkpt><trkpt lat="42.3597108" lon="13.0535713"><ele>1184.0</ele><time>2026-04-26T09:14:30.889Z</time></trkpt><trkpt lat="42.3597165" lon="13.0537273"><ele>1184.4</ele><time>2026-04-26T09:14:32.898Z</time></trkpt><trkpt lat="42.359728" lon="13.0538764"><ele>1184.8000000000002</ele><time>2026-04-26T09:14:34.892Z</time></trkpt><trkpt lat="42.3597569" lon="13.0539933"><ele>1185.1999999999998</ele><time>2026-04-26T09:14:36.897Z</time></trkpt><trkpt lat="42.3598151" lon="13.0540849"><ele>1185.6</ele><time>2026-04-26T09:14:38.889Z</time></trkpt><trkpt lat="42.359895" lon="13.0541734"><ele>1186.0</ele><time>2026-04-26T09:14:40.876Z</time></trkpt><trkpt lat="42.3599715" lon="13.054266"><ele>1187.0</ele><time>2026-04-26T09:14:42.877Z</time></trkpt><trkpt lat="42.3600432" lon="13.0543826"><ele>1188.0</ele><time>2026-04-26T09:14:44.879Z</time></trkpt><trkpt lat="42.3600928" lon="13.0545139"><ele>1189.0</ele><time>2026-04-26T09:14:46.943Z</time></trkpt><trkpt lat="42.3601242" lon="13.0546508"><ele>1190.0</ele><time>2026-04-26T09:14:48.926Z</time></trkpt><trkpt lat="42.3601773" lon="13.0547741"><ele>1191.0</ele><time>2026-04-26T09:14:50.89Z</time></trkpt><trkpt lat="42.3602177" lon="13.0548892"><ele>1193.0</ele><time>2026-04-26T09:14:52.881Z</time></trkpt><trkpt lat="42.3602393" lon="13.0549995"><ele>1195.0</ele><time>2026-04-26T09:14:54.883Z</time></trkpt><trkpt lat="42.3602332" lon="13.0551179"><ele>1197.0</ele><time>2026-04-26T09:14:56.878Z</time></trkpt><trkpt lat="42.3602405" lon="13.0552433"><ele>1199.0</ele><time>2026-04-26T09:14:58.882Z</time></trkpt><trkpt lat="42.360255" lon="13.0553307"><ele>1201.0</ele><time>2026-04-26T09:15:00.886Z</time></trkpt><trkpt lat="42.3602904" lon="13.0554017"><ele>1203.0</ele><time>2026-04-26T09:15:08.884Z</time></trkpt><trkpt lat="42.3603088" lon="13.0555035"><ele>1203.0</ele><time>2026-04-26T09:15:12.944Z</time></trkpt><trkpt lat="42.3603279" lon="13.0556259"><ele>1203.0</ele><time>2026-04-26T09:15:20.871Z</time></trkpt><trkpt lat="42.3603261" lon="13.0557218"><ele>1203.0</ele><time>2026-04-26T09:15:22.874Z</time></trkpt><trkpt lat="42.3603213" lon="13.055807"><ele>1203.0</ele><time>2026-04-26T09:15:24.87Z</time></trkpt><trkpt lat="42.3603476" lon="13.0559263"><ele>1203.0</ele><time>2026-04-26T09:15:27.878Z</time></trkpt><trkpt lat="42.3603829" lon="13.0560514"><ele>1203.0</ele><time>2026-04-26T09:15:29.876Z</time></trkpt><trkpt lat="42.3604117" lon="13.0561728"><ele>1202.0</ele><time>2026-04-26T09:15:31.88Z</time></trkpt><trkpt lat="42.36044" lon="13.0562894"><ele>1201.0</ele><time>2026-04-26T09:15:33.876Z</time></trkpt><trkpt lat="42.3604717" lon="13.0564088"><ele>1200.0</ele><time>2026-04-26T09:15:35.891Z</time></trkpt><trkpt lat="42.3605053" lon="13.0565328"><ele>1199.0</ele><time>2026-04-26T09:15:37.885Z</time></trkpt><trkpt lat="42.360538" lon="13.0566368"><ele>1198.0</ele><time>2026-04-26T09:15:39.878Z</time></trkpt><trkpt lat="42.3605661" lon="13.0567449"><ele>1198.0</ele><time>2026-04-26T09:15:41.889Z</time></trkpt><trkpt lat="42.3605827" lon="13.0568702"><ele>1198.0</ele><time>2026-04-26T09:15:43.884Z</time></trkpt><trkpt lat="42.3606055" lon="13.0570098"><ele>1198.0</ele><time>2026-04-26T09:15:45.882Z</time></trkpt><trkpt lat="42.3606253" lon="13.0571483"><ele>1198.0</ele><time>2026-04-26T09:15:47.879Z</time></trkpt><trkpt lat="42.3606349" lon="13.0572879"><ele>1198.0</ele><time>2026-04-26T09:15:49.873Z</time></trkpt><trkpt lat="42.3606626" lon="13.0574321"><ele>1198.2</ele><time>2026-04-26T09:15:51.872Z</time></trkpt><trkpt lat="42.3607048" lon="13.0575744"><ele>1198.4</ele><time>2026-04-26T09:15:53.875Z</time></trkpt><trkpt lat="42.3607526" lon="13.0577093"><ele>1198.6000000000001</ele><time>2026-04-26T09:15:55.875Z</time></trkpt><trkpt lat="42.3607959" lon="13.057857"><ele>1198.8</ele><time>2026-04-26T09:15:57.885Z</time></trkpt><trkpt lat="42.360845" lon="13.0579776"><ele>1199.0</ele><time>2026-04-26T09:15:59.881Z</time></trkpt><trkpt lat="42.360893" lon="13.058079"><ele>1199.0</ele><time>2026-04-26T09:16:01.878Z</time></trkpt><trkpt lat="42.3609611" lon="13.0581765"><ele>1199.0</ele><time>2026-04-26T09:16:03.881Z</time></trkpt><trkpt lat="42.3610559" lon="13.0582488"><ele>1199.0</ele><time>2026-04-26T09:16:05.873Z</time></trkpt><trkpt lat="42.3611474" lon="13.058327"><ele>1199.0</ele><time>2026-04-26T09:16:07.887Z</time></trkpt><trkpt lat="42.3612475" lon="13.0584036"><ele>1199.0</ele><time>2026-04-26T09:16:09.876Z</time></trkpt><trkpt lat="42.3613343" lon="13.0584894"><ele>1198.0</ele><time>2026-04-26T09:16:11.875Z</time></trkpt><trkpt lat="42.3614256" lon="13.0585843"><ele>1197.0</ele><time>2026-04-26T09:16:13.886Z</time></trkpt><trkpt lat="42.3615018" lon="13.0586717"><ele>1196.0</ele><time>2026-04-26T09:16:15.877Z</time></trkpt><trkpt lat="42.3615534" lon="13.0588106"><ele>1195.0</ele><time>2026-04-26T09:16:17.875Z</time></trkpt><trkpt lat="42.36162" lon="13.0589318"><ele>1194.0</ele><time>2026-04-26T09:16:19.882Z</time></trkpt><trkpt lat="42.3617163" lon="13.0590074"><ele>1194.0</ele><time>2026-04-26T09:16:21.874Z</time></trkpt><trkpt lat="42.3617749" lon="13.0590466"><ele>1194.0</ele><time>2026-04-26T09:16:22.877Z</time></trkpt><trkpt lat="42.3618714" lon="13.0591295"><ele>1194.0</ele><time>2026-04-26T09:16:24.884Z</time></trkpt><trkpt lat="42.3619783" lon="13.0591968"><ele>1194.0</ele><time>2026-04-26T09:16:26.881Z</time></trkpt><trkpt lat="42.3620795" lon="13.0592438"><ele>1194.0</ele><time>2026-04-26T09:16:28.879Z</time></trkpt><trkpt lat="42.3621844" lon="13.0592833"><ele>1195.1666666666667</ele><time>2026-04-26T09:16:30.881Z</time></trkpt><trkpt lat="42.3622703" lon="13.0593226"><ele>1196.3333333333333</ele><time>2026-04-26T09:16:32.931Z</time></trkpt><trkpt lat="42.3623538" lon="13.0593763"><ele>1197.5</ele><time>2026-04-26T09:16:34.887Z</time></trkpt><trkpt lat="42.3624318" lon="13.0594384"><ele>1198.6666666666665</ele><time>2026-04-26T09:16:36.889Z</time></trkpt><trkpt lat="42.3625063" lon="13.0594942"><ele>1199.8333333333333</ele><time>2026-04-26T09:16:38.886Z</time></trkpt><trkpt lat="42.3625807" lon="13.0595449"><ele>1201.0</ele><time>2026-04-26T09:16:40.889Z</time></trkpt><trkpt lat="42.3626477" lon="13.0596013"><ele>1201.0</ele><time>2026-04-26T09:16:42.884Z</time></trkpt><trkpt lat="42.3627111" lon="13.0596682"><ele>1201.0</ele><time>2026-04-26T09:16:44.88Z</time></trkpt><trkpt lat="42.3627687" lon="13.0597386"><ele>1201.0</ele><time>2026-04-26T09:16:46.877Z</time></trkpt><trkpt lat="42.3628404" lon="13.0598"><ele>1201.0</ele><time>2026-04-26T09:16:48.887Z</time></trkpt><trkpt lat="42.3629111" lon="13.0598765"><ele>1201.0</ele><time>2026-04-26T09:16:50.881Z</time></trkpt><trkpt lat="42.3629855" lon="13.059946"><ele>1201.0</ele><time>2026-04-26T09:16:52.879Z</time></trkpt><trkpt lat="42.3630896" lon="13.0600124"><ele>1204.3999999999999</ele><time>2026-04-26T09:16:54.884Z</time></trkpt><trkpt lat="42.363177" lon="13.0600708"><ele>1207.8</ele><time>2026-04-26T09:16:56.885Z</time></trkpt><trkpt lat="42.363259" lon="13.0601361"><ele>1211.1999999999998</ele><time>2026-04-26T09:16:58.881Z</time></trkpt><trkpt lat="42.3633361" lon="13.0602186"><ele>1214.6</ele><time>2026-04-26T09:17:00.881Z</time></trkpt><trkpt lat="42.3634144" lon="13.0602882"><ele>1218.0</ele><time>2026-04-26T09:17:02.876Z</time></trkpt><trkpt lat="42.3634937" lon="13.0603394"><ele>1218.0</ele><time>2026-04-26T09:17:04.911Z</time></trkpt><trkpt lat="42.3635646" lon="13.0604221"><ele>1218.0</ele><time>2026-04-26T09:17:06.885Z</time></trkpt><trkpt lat="42.3636239" lon="13.0605261"><ele>1218.0</ele><time>2026-04-26T09:17:08.876Z</time></trkpt><trkpt lat="42.3636758" lon="13.0606297"><ele>1218.0</ele><time>2026-04-26T09:17:10.878Z</time></trkpt><trkpt lat="42.3637256" lon="13.0607171"><ele>1218.0</ele><time>2026-04-26T09:17:12.879Z</time></trkpt><trkpt lat="42.3637817" lon="13.0608056"><ele>1219.7142857142858</ele><time>2026-04-26T09:17:14.872Z</time></trkpt><trkpt lat="42.3638464" lon="13.060799"><ele>1221.4285714285716</ele><time>2026-04-26T09:18:53.873Z</time></trkpt><trkpt lat="42.3639168" lon="13.0607784"><ele>1223.142857142857</ele><time>2026-04-26T09:32:56.874Z</time></trkpt><trkpt lat="42.3639925" lon="13.0607944"><ele>1224.857142857143</ele><time>2026-04-26T09:32:59.877Z</time></trkpt><trkpt lat="42.3640709" lon="13.0608166"><ele>1226.5714285714287</ele><time>2026-04-26T09:33:01.879Z</time></trkpt><trkpt lat="42.3641366" lon="13.0608342"><ele>1228.2857142857142</ele><time>2026-04-26T09:33:03.883Z</time></trkpt><trkpt lat="42.3642019" lon="13.0608837"><ele>1230.0</ele><time>2026-04-26T09:33:06.884Z</time></trkpt><trkpt lat="42.3642581" lon="13.0609303"><ele>1230.1666666666667</ele><time>2026-04-26T09:33:08.871Z</time></trkpt><trkpt lat="42.364316" lon="13.0609646"><ele>1230.3333333333333</ele><time>2026-04-26T09:33:11.879Z</time></trkpt><trkpt lat="42.3643803" lon="13.0610004"><ele>1230.5</ele><time>2026-04-26T09:33:22.88Z</time></trkpt><trkpt lat="42.364453" lon="13.061034"><ele>1230.6666666666665</ele><time>2026-04-26T09:33:25.879Z</time></trkpt><trkpt lat="42.3645057" lon="13.0611055"><ele>1230.8333333333333</ele><time>2026-04-26T09:33:33.874Z</time></trkpt><trkpt lat="42.3645571" lon="13.0611927"><ele>1231.0</ele><time>2026-04-26T09:33:35.881Z</time></trkpt><trkpt lat="42.3646181" lon="13.0612706"><ele>1231.0</ele><time>2026-04-26T09:33:37.88Z</time></trkpt><trkpt lat="42.3646791" lon="13.0613601"><ele>1231.0</ele><time>2026-04-26T09:33:39.875Z</time></trkpt><trkpt lat="42.3647536" lon="13.0614193"><ele>1231.0</ele><time>2026-04-26T09:33:41.872Z</time></trkpt><trkpt lat="42.3648131" lon="13.0614604"><ele>1231.0</ele><time>2026-04-26T09:33:43.876Z</time></trkpt><trkpt lat="42.3648685" lon="13.0615151"><ele>1231.0</ele><time>2026-04-26T09:33:45.876Z</time></trkpt><trkpt lat="42.364961" lon="13.0615877"><ele>1231.0</ele><time>2026-04-26T09:33:47.889Z</time></trkpt><trkpt lat="42.3650573" lon="13.0616736"><ele>1233.6</ele><time>2026-04-26T09:33:49.873Z</time></trkpt><trkpt lat="42.3651099" lon="13.0617214"><ele>1236.1999999999998</ele><time>2026-04-26T09:33:50.898Z</time></trkpt><trkpt lat="42.3652059" lon="13.0618088"><ele>1238.8000000000002</ele><time>2026-04-26T09:33:52.942Z</time></trkpt><trkpt lat="42.3652941" lon="13.0618702"><ele>1241.4</ele><time>2026-04-26T09:33:54.878Z</time></trkpt><trkpt lat="42.3653899" lon="13.0619173"><ele>1244.0</ele><time>2026-04-26T09:33:56.881Z</time></trkpt><trkpt lat="42.3654933" lon="13.0619873"><ele>1245.5</ele><time>2026-04-26T09:33:58.881Z</time></trkpt><trkpt lat="42.3655715" lon="13.0620472"><ele>1247.0</ele><time>2026-04-26T09:34:00.875Z</time></trkpt><trkpt lat="42.3656415" lon="13.0620885"><ele>1248.5</ele><time>2026-04-26T09:34:02.927Z</time></trkpt><trkpt lat="42.3657181" lon="13.0621465"><ele>1250.0</ele><time>2026-04-26T09:34:04.881Z</time></trkpt><trkpt lat="42.3657742" lon="13.0621919"><ele>1251.5</ele><time>2026-04-26T09:34:17.872Z</time></trkpt><trkpt lat="42.3658429" lon="13.0622681"><ele>1253.0</ele><time>2026-04-26T09:34:20.888Z</time></trkpt><trkpt lat="42.3659003" lon="13.0623222"><ele>1253.0</ele><time>2026-04-26T09:34:24.877Z</time></trkpt><trkpt lat="42.3659484" lon="13.0623912"><ele>1253.0</ele><time>2026-04-26T09:34:37.883Z</time></trkpt><trkpt lat="42.3660378" lon="13.0624251"><ele>1253.0</ele><time>2026-04-26T09:34:40.877Z</time></trkpt><trkpt lat="42.366115" lon="13.0624301"><ele>1253.0</ele><time>2026-04-26T09:34:43.881Z</time></trkpt><trkpt lat="42.3661927" lon="13.0624437"><ele>1253.0</ele><time>2026-04-26T09:34:45.89Z</time></trkpt><trkpt lat="42.3662928" lon="13.0624249"><ele>1253.0</ele><time>2026-04-26T09:34:47.886Z</time></trkpt><trkpt lat="42.3663759" lon="13.0624388"><ele>1254.8333333333335</ele><time>2026-04-26T09:34:49.9Z</time></trkpt><trkpt lat="42.3664471" lon="13.0624898"><ele>1256.6666666666667</ele><time>2026-04-26T09:34:51.889Z</time></trkpt><trkpt lat="42.3665155" lon="13.0625734"><ele>1258.5</ele><time>2026-04-26T09:35:00.89Z</time></trkpt><trkpt lat="42.3665814" lon="13.0626452"><ele>1260.3333333333333</ele><time>2026-04-26T09:35:02.887Z</time></trkpt><trkpt lat="42.3666513" lon="13.062728"><ele>1262.1666666666665</ele><time>2026-04-26T09:35:04.894Z</time></trkpt><trkpt lat="42.3667169" lon="13.0628102"><ele>1264.0</ele><time>2026-04-26T09:35:06.896Z</time></trkpt><trkpt lat="42.3667932" lon="13.0628834"><ele>1264.0</ele><time>2026-04-26T09:35:08.937Z</time></trkpt><trkpt lat="42.3668527" lon="13.0629452"><ele>1264.0</ele><time>2026-04-26T09:35:10.873Z</time></trkpt><trkpt lat="42.3669335" lon="13.0630264"><ele>1264.0</ele><time>2026-04-26T09:35:12.885Z</time></trkpt><trkpt lat="42.3670127" lon="13.0631141"><ele>1264.0</ele><time>2026-04-26T09:35:14.895Z</time></trkpt><trkpt lat="42.3670722" lon="13.0632117"><ele>1264.0</ele><time>2026-04-26T09:35:16.887Z</time></trkpt><trkpt lat="42.3671416" lon="13.0633132"><ele>1264.0</ele><time>2026-04-26T09:35:18.886Z</time></trkpt><trkpt lat="42.367211" lon="13.0634135"><ele>1264.0</ele><time>2026-04-26T09:35:20.893Z</time></trkpt><trkpt lat="42.3672731" lon="13.0635137"><ele>1264.0</ele><time>2026-04-26T09:35:22.882Z</time></trkpt><trkpt lat="42.3672835" lon="13.0636345"><ele>1264.0</ele><time>2026-04-26T09:35:24.87Z</time></trkpt><trkpt lat="42.3672405" lon="13.0637488"><ele>1264.0</ele><time>2026-04-26T09:35:26.873Z</time></trkpt><trkpt lat="42.3671834" lon="13.0638476"><ele>1264.0</ele><time>2026-04-26T09:35:28.881Z</time></trkpt><trkpt lat="42.3671359" lon="13.0639407"><ele>1264.0</ele><time>2026-04-26T09:35:30.884Z</time></trkpt><trkpt lat="42.3670983" lon="13.0640269"><ele>1264.0</ele><time>2026-04-26T09:35:32.872Z</time></trkpt><trkpt lat="42.3670658" lon="13.0641256"><ele>1264.0</ele><time>2026-04-26T09:35:34.922Z</time></trkpt><trkpt lat="42.3669996" lon="13.064209"><ele>1264.0</ele><time>2026-04-26T09:35:36.875Z</time></trkpt><trkpt lat="42.3669295" lon="13.0642901"><ele>1264.0</ele><time>2026-04-26T09:35:38.88Z</time></trkpt><trkpt lat="42.3668826" lon="13.0643753"><ele>1265.8</ele><time>2026-04-26T09:35:40.88Z</time></trkpt><trkpt lat="42.3668068" lon="13.0644404"><ele>1267.6000000000001</ele><time>2026-04-26T09:35:42.87Z</time></trkpt><trkpt lat="42.3667084" lon="13.0644794"><ele>1269.4</ele><time>2026-04-26T09:35:44.873Z</time></trkpt><trkpt lat="42.3666162" lon="13.0645349"><ele>1271.2</ele><time>2026-04-26T09:35:46.882Z</time></trkpt><trkpt lat="42.3665314" lon="13.0645777"><ele>1273.0</ele><time>2026-04-26T09:35:48.879Z</time></trkpt><trkpt lat="42.3664867" lon="13.0646759"><ele>1273.0</ele><time>2026-04-26T09:35:51.877Z</time></trkpt><trkpt lat="42.3665253" lon="13.0647709"><ele>1273.0</ele><time>2026-04-26T09:35:53.877Z</time></trkpt><trkpt lat="42.366557" lon="13.0649223"><ele>1273.0</ele><time>2026-04-26T09:35:55.882Z</time></trkpt><trkpt lat="42.3665757" lon="13.0650195"><ele>1273.0</ele><time>2026-04-26T09:35:56.877Z</time></trkpt><trkpt lat="42.3665851" lon="13.0651091"><ele>1273.0</ele><time>2026-04-26T09:35:57.882Z</time></trkpt><trkpt lat="42.3666025" lon="13.0651959"><ele>1273.0</ele><time>2026-04-26T09:35:58.877Z</time></trkpt><trkpt lat="42.366632" lon="13.0653299"><ele>1275.0</ele><time>2026-04-26T09:36:00.874Z</time></trkpt><trkpt lat="42.3666613" lon="13.0654336"><ele>1277.0</ele><time>2026-04-26T09:36:02.861Z</time></trkpt><trkpt lat="42.3667073" lon="13.0655494"><ele>1279.0</ele><time>2026-04-26T09:36:04.872Z</time></trkpt><trkpt lat="42.366773" lon="13.0656718"><ele>1281.0</ele><time>2026-04-26T09:36:06.884Z</time></trkpt><trkpt lat="42.366849" lon="13.0657935"><ele>1283.0</ele><time>2026-04-26T09:36:08.866Z</time></trkpt><trkpt lat="42.3668924" lon="13.0658587"><ele>1283.5</ele><time>2026-04-26T09:36:09.874Z</time></trkpt><trkpt lat="42.3669894" lon="13.0659621"><ele>1284.0</ele><time>2026-04-26T09:36:11.878Z</time></trkpt><trkpt lat="42.3670462" lon="13.0660091"><ele>1284.5</ele><time>2026-04-26T09:36:12.875Z</time></trkpt><trkpt lat="42.3670996" lon="13.0660614"><ele>1285.0</ele><time>2026-04-26T09:36:13.871Z</time></trkpt><trkpt lat="42.3671572" lon="13.0661113"><ele>1285.5</ele><time>2026-04-26T09:36:14.879Z</time></trkpt><trkpt lat="42.367217" lon="13.0661485"><ele>1286.0</ele><time>2026-04-26T09:36:15.884Z</time></trkpt><trkpt lat="42.3672841" lon="13.066177"><ele>1286.0</ele><time>2026-04-26T09:36:16.866Z</time></trkpt><trkpt lat="42.3673545" lon="13.0661986"><ele>1286.0</ele><time>2026-04-26T09:36:17.88Z</time></trkpt><trkpt lat="42.3674296" lon="13.0662146"><ele>1286.0</ele><time>2026-04-26T09:36:18.872Z</time></trkpt><trkpt lat="42.3675083" lon="13.066221"><ele>1286.0</ele><time>2026-04-26T09:36:19.87Z</time></trkpt><trkpt lat="42.3675912" lon="13.0662256"><ele>1286.0</ele><time>2026-04-26T09:36:20.868Z</time></trkpt><trkpt lat="42.3676858" lon="13.0662224"><ele>1286.0</ele><time>2026-04-26T09:36:21.875Z</time></trkpt><trkpt lat="42.3677809" lon="13.0662168"><ele>1286.0</ele><time>2026-04-26T09:36:22.875Z</time></trkpt><trkpt lat="42.3678696" lon="13.0662183"><ele>1286.0</ele><time>2026-04-26T09:36:23.871Z</time></trkpt><trkpt lat="42.3679485" lon="13.0662175"><ele>1286.0</ele><time>2026-04-26T09:36:24.878Z</time></trkpt><trkpt lat="42.3680304" lon="13.0662163"><ele>1286.0</ele><time>2026-04-26T09:36:25.878Z</time></trkpt><trkpt lat="42.3681123" lon="13.0662201"><ele>1286.0</ele><time>2026-04-26T09:36:26.876Z</time></trkpt><trkpt lat="42.368189" lon="13.0662293"><ele>1286.0</ele><time>2026-04-26T09:36:27.873Z</time></trkpt><trkpt lat="42.3682768" lon="13.0662441"><ele>1288.1999999999998</ele><time>2026-04-26T09:36:28.875Z</time></trkpt><trkpt lat="42.3683664" lon="13.0662679"><ele>1290.3999999999999</ele><time>2026-04-26T09:36:29.89Z</time></trkpt><trkpt lat="42.3684583" lon="13.066299"><ele>1292.6</ele><time>2026-04-26T09:36:30.872Z</time></trkpt><trkpt lat="42.3685483" lon="13.0663282"><ele>1294.8</ele><time>2026-04-26T09:36:31.879Z</time></trkpt><trkpt lat="42.3686408" lon="13.0663437"><ele>1297.0</ele><time>2026-04-26T09:36:32.889Z</time></trkpt><trkpt lat="42.3687355" lon="13.066363"><ele>1297.0</ele><time>2026-04-26T09:36:33.881Z</time></trkpt><trkpt lat="42.3688286" lon="13.0663838"><ele>1297.0</ele><time>2026-04-26T09:36:34.879Z</time></trkpt><trkpt lat="42.36892" lon="13.0664106"><ele>1297.0</ele><time>2026-04-26T09:36:35.877Z</time></trkpt><trkpt lat="42.3690089" lon="13.066438"><ele>1297.0</ele><time>2026-04-26T09:36:36.88Z</time></trkpt><trkpt lat="42.3690969" lon="13.0664655"><ele>1297.0</ele><time>2026-04-26T09:36:37.876Z</time></trkpt><trkpt lat="42.369178" lon="13.066499"><ele>1298.0</ele><time>2026-04-26T09:36:38.873Z</time></trkpt><trkpt lat="42.3692448" lon="13.0665347"><ele>1299.0</ele><time>2026-04-26T09:36:39.869Z</time></trkpt><trkpt lat="42.3693017" lon="13.0665746"><ele>1300.0</ele><time>2026-04-26T09:36:40.874Z</time></trkpt><trkpt lat="42.3693941" lon="13.0666798"><ele>1301.0</ele><time>2026-04-26T09:36:42.878Z</time></trkpt><trkpt lat="42.3694681" lon="13.0667993"><ele>1302.0</ele><time>2026-04-26T09:36:44.882Z</time></trkpt><trkpt lat="42.3695418" lon="13.0669395"><ele>1299.8</ele><time>2026-04-26T09:36:46.874Z</time></trkpt><trkpt lat="42.3696124" lon="13.0670695"><ele>1297.6</ele><time>2026-04-26T09:36:48.876Z</time></trkpt><trkpt lat="42.3696711" lon="13.0671639"><ele>1295.3999999999999</ele><time>2026-04-26T09:36:50.869Z</time></trkpt><trkpt lat="42.3697354" lon="13.0672227"><ele>1293.1999999999998</ele><time>2026-04-26T09:36:52.882Z</time></trkpt><trkpt lat="42.3698198" lon="13.0672712"><ele>1291.0</ele><time>2026-04-26T09:36:54.877Z</time></trkpt><trkpt lat="42.369916" lon="13.067304"><ele>1289.4</ele><time>2026-04-26T09:36:56.876Z</time></trkpt><trkpt lat="42.3700178" lon="13.0673135"><ele>1287.8</ele><time>2026-04-26T09:36:58.881Z</time></trkpt><trkpt lat="42.3701324" lon="13.0673274"><ele>1286.2</ele><time>2026-04-26T09:37:00.868Z</time></trkpt><trkpt lat="42.3702469" lon="13.0673284"><ele>1284.6000000000001</ele><time>2026-04-26T09:37:02.868Z</time></trkpt><trkpt lat="42.3703574" lon="13.0673427"><ele>1283.0</ele><time>2026-04-26T09:37:04.868Z</time></trkpt><trkpt lat="42.3704549" lon="13.0673848"><ele>1282.2</ele><time>2026-04-26T09:37:06.874Z</time></trkpt><trkpt lat="42.3705671" lon="13.0674083"><ele>1281.4</ele><time>2026-04-26T09:37:08.878Z</time></trkpt><trkpt lat="42.3706832" lon="13.0674228"><ele>1280.6000000000001</ele><time>2026-04-26T09:37:10.881Z</time></trkpt><trkpt lat="42.3707881" lon="13.0674515"><ele>1279.8000000000002</ele><time>2026-04-26T09:37:12.865Z</time></trkpt><trkpt lat="42.3708863" lon="13.0675203"><ele>1279.0</ele><time>2026-04-26T09:37:14.869Z</time></trkpt><trkpt lat="42.3709947" lon="13.0676015"><ele>1277.8333333333333</ele><time>2026-04-26T09:37:16.881Z</time></trkpt><trkpt lat="42.3710558" lon="13.067647"><ele>1276.6666666666665</ele><time>2026-04-26T09:37:17.872Z</time></trkpt><trkpt lat="42.3711149" lon="13.0676947"><ele>1275.5</ele><time>2026-04-26T09:37:19.013Z</time></trkpt><trkpt lat="42.3712264" lon="13.0677783"><ele>1274.3333333333333</ele><time>2026-04-26T09:37:20.877Z</time></trkpt><trkpt lat="42.3712862" lon="13.06782"><ele>1273.1666666666667</ele><time>2026-04-26T09:37:21.872Z</time></trkpt><trkpt lat="42.3713449" lon="13.067862"><ele>1272.0</ele><time>2026-04-26T09:37:22.877Z</time></trkpt><trkpt lat="42.3714473" lon="13.0679392"><ele>1271.2</ele><time>2026-04-26T09:37:24.87Z</time></trkpt><trkpt lat="42.3715428" lon="13.0680091"><ele>1270.4</ele><time>2026-04-26T09:37:26.876Z</time></trkpt><trkpt lat="42.3716418" lon="13.0680444"><ele>1269.6</ele><time>2026-04-26T09:37:28.871Z</time></trkpt><trkpt lat="42.3717303" lon="13.0680931"><ele>1268.8</ele><time>2026-04-26T09:37:30.874Z</time></trkpt><trkpt lat="42.3718065" lon="13.0681412"><ele>1268.0</ele><time>2026-04-26T09:37:32.919Z</time></trkpt><trkpt lat="42.3718753" lon="13.0682291"><ele>1267.8</ele><time>2026-04-26T09:37:34.88Z</time></trkpt><trkpt lat="42.3719294" lon="13.0683569"><ele>1267.6</ele><time>2026-04-26T09:37:36.877Z</time></trkpt><trkpt lat="42.3719659" lon="13.0684941"><ele>1267.4</ele><time>2026-04-26T09:37:38.88Z</time></trkpt><trkpt lat="42.3720031" lon="13.0686099"><ele>1267.2</ele><time>2026-04-26T09:37:40.884Z</time></trkpt><trkpt lat="42.3720452" lon="13.0687144"><ele>1267.0</ele><time>2026-04-26T09:37:42.879Z</time></trkpt><trkpt lat="42.3720908" lon="13.0688201"><ele>1267.0</ele><time>2026-04-26T09:37:44.913Z</time></trkpt><trkpt lat="42.3721447" lon="13.0689113"><ele>1267.0</ele><time>2026-04-26T09:37:46.876Z</time></trkpt><trkpt lat="42.3721963" lon="13.0689988"><ele>1267.0</ele><time>2026-04-26T09:37:48.87Z</time></trkpt><trkpt lat="42.3722449" lon="13.0690865"><ele>1267.0</ele><time>2026-04-26T09:37:50.869Z</time></trkpt><trkpt lat="42.3723042" lon="13.0691538"><ele>1267.0</ele><time>2026-04-26T09:37:52.872Z</time></trkpt><trkpt lat="42.3723865" lon="13.0692265"><ele>1267.0</ele><time>2026-04-26T09:37:54.87Z</time></trkpt><trkpt lat="42.3724326" lon="13.069287"><ele>1263.0</ele><time>2026-04-26T09:37:55.872Z</time></trkpt><trkpt lat="42.3725113" lon="13.0693912"><ele>1259.0</ele><time>2026-04-26T09:37:57.87Z</time></trkpt><trkpt lat="42.3725957" lon="13.0695082"><ele>1255.0</ele><time>2026-04-26T09:37:59.876Z</time></trkpt><trkpt lat="42.3726727" lon="13.0696373"><ele>1251.0</ele><time>2026-04-26T09:38:01.874Z</time></trkpt><trkpt lat="42.372759" lon="13.0697573"><ele>1251.0</ele><time>2026-04-26T09:38:03.884Z</time></trkpt><trkpt lat="42.3728432" lon="13.0698726"><ele>1251.0</ele><time>2026-04-26T09:38:05.881Z</time></trkpt><trkpt lat="42.372881" lon="13.0699428"><ele>1251.0</ele><time>2026-04-26T09:38:06.885Z</time></trkpt><trkpt lat="42.3729588" lon="13.0700644"><ele>1251.0</ele><time>2026-04-26T09:38:08.898Z</time></trkpt><trkpt lat="42.3730299" lon="13.0701822"><ele>1251.0</ele><time>2026-04-26T09:38:10.879Z</time></trkpt><trkpt lat="42.3731004" lon="13.0703136"><ele>1246.0</ele><time>2026-04-26T09:38:12.866Z</time></trkpt><trkpt lat="42.3731327" lon="13.0703958"><ele>1241.0</ele><time>2026-04-26T09:38:13.87Z</time></trkpt><trkpt lat="42.3732024" lon="13.0705298"><ele>1236.0</ele><time>2026-04-26T09:38:15.872Z</time></trkpt><trkpt lat="42.3732652" lon="13.0706439"><ele>1231.0</ele><time>2026-04-26T09:38:17.876Z</time></trkpt><trkpt lat="42.3733412" lon="13.070713"><ele>1226.0</ele><time>2026-04-26T09:38:19.873Z</time></trkpt><trkpt lat="42.3734127" lon="13.070721"><ele>1226.0</ele><time>2026-04-26T09:38:21.877Z</time></trkpt><trkpt lat="42.3734809" lon="13.0706575"><ele>1226.0</ele><time>2026-04-26T09:38:24.872Z</time></trkpt><trkpt lat="42.3734578" lon="13.0705592"><ele>1226.0</ele><time>2026-04-26T09:38:27.875Z</time></trkpt><trkpt lat="42.3734211" lon="13.0704446"><ele>1226.0</ele><time>2026-04-26T09:38:29.871Z</time></trkpt><trkpt lat="42.3733718" lon="13.0702912"><ele>1226.0</ele><time>2026-04-26T09:38:31.866Z</time></trkpt><trkpt lat="42.3733246" lon="13.0701529"><ele>1226.0</ele><time>2026-04-26T09:38:33.861Z</time></trkpt><trkpt lat="42.373266" lon="13.0700209"><ele>1226.0</ele><time>2026-04-26T09:38:35.908Z</time></trkpt><trkpt lat="42.3732163" lon="13.0698813"><ele>1226.0</ele><time>2026-04-26T09:38:37.868Z</time></trkpt><trkpt lat="42.373175" lon="13.0697688"><ele>1226.0</ele><time>2026-04-26T09:38:39.869Z</time></trkpt><trkpt lat="42.3731685" lon="13.0696743"><ele>1226.0</ele><time>2026-04-26T09:38:41.869Z</time></trkpt><trkpt lat="42.3731716" lon="13.0695407"><ele>1227.2</ele><time>2026-04-26T09:38:43.876Z</time></trkpt><trkpt lat="42.3732142" lon="13.0694083"><ele>1228.3999999999999</ele><time>2026-04-26T09:38:45.869Z</time></trkpt><trkpt lat="42.3732652" lon="13.0693211"><ele>1229.6</ele><time>2026-04-26T09:38:47.877Z</time></trkpt><trkpt lat="42.3733511" lon="13.0692782"><ele>1230.8</ele><time>2026-04-26T09:38:49.875Z</time></trkpt><trkpt lat="42.3734656" lon="13.0692784"><ele>1232.0</ele><time>2026-04-26T09:38:51.866Z</time></trkpt><trkpt lat="42.3735324" lon="13.0692765"><ele>1232.0</ele><time>2026-04-26T09:38:52.893Z</time></trkpt><trkpt lat="42.3736047" lon="13.0692715"><ele>1232.0</ele><time>2026-04-26T09:38:53.875Z</time></trkpt><trkpt lat="42.3736753" lon="13.0692715"><ele>1232.0</ele><time>2026-04-26T09:38:54.87Z</time></trkpt><trkpt lat="42.373744" lon="13.0692623"><ele>1232.0</ele><time>2026-04-26T09:38:55.868Z</time></trkpt><trkpt lat="42.3738101" lon="13.069265"><ele>1232.0</ele><time>2026-04-26T09:38:56.893Z</time></trkpt><trkpt lat="42.373889" lon="13.0692775"><ele>1232.0</ele><time>2026-04-26T09:38:57.874Z</time></trkpt><trkpt lat="42.3739617" lon="13.0692876"><ele>1232.0</ele><time>2026-04-26T09:38:58.878Z</time></trkpt><trkpt lat="42.3740311" lon="13.0692946"><ele>1230.0</ele><time>2026-04-26T09:38:59.876Z</time></trkpt><trkpt lat="42.3741026" lon="13.0693046"><ele>1228.0</ele><time>2026-04-26T09:39:00.875Z</time></trkpt><trkpt lat="42.3741675" lon="13.0693195"><ele>1226.0</ele><time>2026-04-26T09:39:01.885Z</time></trkpt><trkpt lat="42.3742921" lon="13.0693476"><ele>1224.0</ele><time>2026-04-26T09:39:03.874Z</time></trkpt><trkpt lat="42.3743575" lon="13.0693525"><ele>1222.0</ele><time>2026-04-26T09:39:04.877Z</time></trkpt><trkpt lat="42.3744284" lon="13.0693456"><ele>1220.0</ele><time>2026-04-26T09:39:05.868Z</time></trkpt><trkpt lat="42.37451" lon="13.0693253"><ele>1220.0</ele><time>2026-04-26T09:39:06.883Z</time></trkpt><trkpt lat="42.3745948" lon="13.0693023"><ele>1220.0</ele><time>2026-04-26T09:39:07.88Z</time></trkpt><trkpt lat="42.3746705" lon="13.0692763"><ele>1220.0</ele><time>2026-04-26T09:39:08.868Z</time></trkpt><trkpt lat="42.3747354" lon="13.0692559"><ele>1220.0</ele><time>2026-04-26T09:39:09.877Z</time></trkpt><trkpt lat="42.3747977" lon="13.0692395"><ele>1220.0</ele><time>2026-04-26T09:39:10.875Z</time></trkpt><trkpt lat="42.3748752" lon="13.0692431"><ele>1220.0</ele><time>2026-04-26T09:39:12.88Z</time></trkpt><trkpt lat="42.3748398" lon="13.0693179"><ele>1220.0</ele><time>2026-04-26T09:39:19.897Z</time></trkpt><trkpt lat="42.3747431" lon="13.069272"><ele>1220.0</ele><time>2026-04-26T09:40:52.898Z</time></trkpt><trkpt lat="42.3746672" lon="13.069285"><ele>1220.0</ele><time>2026-04-26T09:40:53.898Z</time></trkpt><trkpt lat="42.3745746" lon="13.0693161"><ele>1220.0</ele><time>2026-04-26T09:40:54.9Z</time></trkpt><trkpt lat="42.3744782" lon="13.0693479"><ele>1220.0</ele><time>2026-04-26T09:40:55.862Z</time></trkpt><trkpt lat="42.3743979" lon="13.0693705"><ele>1220.0</ele><time>2026-04-26T09:40:56.895Z</time></trkpt><trkpt lat="42.3743314" lon="13.0693852"><ele>1220.0</ele><time>2026-04-26T09:40:57.906Z</time></trkpt><trkpt lat="42.3742252" lon="13.0694299"><ele>1220.0</ele><time>2026-04-26T09:40:59.899Z</time></trkpt><trkpt lat="42.3741799" lon="13.0694982"><ele>1220.0</ele><time>2026-04-26T09:41:01.868Z</time></trkpt><trkpt lat="42.3741827" lon="13.0696359"><ele>1220.0</ele><time>2026-04-26T09:41:04.864Z</time></trkpt><trkpt lat="42.3742364" lon="13.0697135"><ele>1220.0</ele><time>2026-04-26T09:41:06.883Z</time></trkpt><trkpt lat="42.3743452" lon="13.069755"><ele>1220.0</ele><time>2026-04-26T09:41:08.875Z</time></trkpt><trkpt lat="42.3744411" lon="13.06978"><ele>1220.0</ele><time>2026-04-26T09:41:10.881Z</time></trkpt><trkpt lat="42.3745302" lon="13.0698003"><ele>1220.0</ele><time>2026-04-26T09:41:12.89Z</time></trkpt><trkpt lat="42.3746185" lon="13.0698606"><ele>1220.0</ele><time>2026-04-26T09:41:14.899Z</time></trkpt><trkpt lat="42.3746344" lon="13.0699949"><ele>1220.0</ele><time>2026-04-26T09:41:16.879Z</time></trkpt><trkpt lat="42.374622" lon="13.0700831"><ele>1220.0</ele><time>2026-04-26T09:41:18.988Z</time></trkpt><trkpt lat="42.3746257" lon="13.0701846"><ele>1220.0</ele><time>2026-04-26T09:41:22.902Z</time></trkpt><trkpt lat="42.3746252" lon="13.0703122"><ele>1218.2857142857144</ele><time>2026-04-26T09:41:25.902Z</time></trkpt><trkpt lat="42.3746224" lon="13.0704072"><ele>1216.5714285714284</ele><time>2026-04-26T09:41:27.891Z</time></trkpt><trkpt lat="42.3746349" lon="13.0704911"><ele>1214.857142857143</ele><time>2026-04-26T09:41:30.897Z</time></trkpt><trkpt lat="42.3746935" lon="13.0705268"><ele>1213.1428571428573</ele><time>2026-04-26T09:41:35.895Z</time></trkpt><trkpt lat="42.3746333" lon="13.0704788"><ele>1211.4285714285716</ele><time>2026-04-26T09:47:10.891Z</time></trkpt><trkpt lat="42.37465" lon="13.0703846"><ele>1209.7142857142858</ele><time>2026-04-26T09:47:17.875Z</time></trkpt><trkpt lat="42.3746535" lon="13.0705122"><ele>1208.0</ele><time>2026-04-26T09:55:31.893Z</time></trkpt><trkpt lat="42.3747029" lon="13.0704587"><ele>1208.0</ele><time>2026-04-26T09:55:36.877Z</time></trkpt><trkpt lat="42.3746484" lon="13.070416"><ele>1208.0</ele><time>2026-04-26T09:55:40.865Z</time></trkpt><trkpt lat="42.3746202" lon="13.0705134"><ele>1208.0</ele><time>2026-04-26T09:55:44.874Z</time></trkpt><trkpt lat="42.3746052" lon="13.0706198"><ele>1208.0</ele><time>2026-04-26T09:55:48.862Z</time></trkpt><trkpt lat="42.3745888" lon="13.0707375"><ele>1208.0</ele><time>2026-04-26T09:55:51.88Z</time></trkpt><trkpt lat="42.374584" lon="13.070826"><ele>1208.0</ele><time>2026-04-26T09:55:54.892Z</time></trkpt><trkpt lat="42.3745706" lon="13.0709395"><ele>1208.6666666666667</ele><time>2026-04-26T09:56:15.899Z</time></trkpt><trkpt lat="42.3745645" lon="13.0710425"><ele>1209.3333333333335</ele><time>2026-04-26T09:56:17.87Z</time></trkpt><trkpt lat="42.3745702" lon="13.0711393"><ele>1210.0</ele><time>2026-04-26T09:56:19.873Z</time></trkpt><trkpt lat="42.3745847" lon="13.0712642"><ele>1210.6666666666667</ele><time>2026-04-26T09:56:22.898Z</time></trkpt><trkpt lat="42.3745767" lon="13.0713513"><ele>1211.3333333333333</ele><time>2026-04-26T09:56:25.886Z</time></trkpt><trkpt lat="42.3745644" lon="13.071454"><ele>1212.0</ele><time>2026-04-26T09:56:27.891Z</time></trkpt><trkpt lat="42.374583" lon="13.0715904"><ele>1213.1666666666667</ele><time>2026-04-26T09:56:29.867Z</time></trkpt><trkpt lat="42.374627" lon="13.0716729"><ele>1214.3333333333333</ele><time>2026-04-26T09:56:30.875Z</time></trkpt><trkpt lat="42.3746573" lon="13.0717549"><ele>1215.5</ele><time>2026-04-26T09:56:31.875Z</time></trkpt><trkpt lat="42.3746814" lon="13.0718409"><ele>1216.6666666666665</ele><time>2026-04-26T09:56:32.875Z</time></trkpt><trkpt lat="42.374709" lon="13.0719917"><ele>1217.8333333333333</ele><time>2026-04-26T09:56:34.867Z</time></trkpt><trkpt lat="42.3747013" lon="13.0721463"><ele>1219.0</ele><time>2026-04-26T09:56:36.878Z</time></trkpt><trkpt lat="42.374676" lon="13.0723171"><ele>1219.0</ele><time>2026-04-26T09:56:38.856Z</time></trkpt><trkpt lat="42.3746594" lon="13.0724151"><ele>1219.0</ele><time>2026-04-26T09:56:39.86Z</time></trkpt><trkpt lat="42.374639" lon="13.0725723"><ele>1219.0</ele><time>2026-04-26T09:56:41.866Z</time></trkpt><trkpt lat="42.3746106" lon="13.07273"><ele>1219.0</ele><time>2026-04-26T09:56:43.861Z</time></trkpt><trkpt lat="42.3745949" lon="13.0728242"><ele>1219.0</ele><time>2026-04-26T09:56:44.865Z</time></trkpt><trkpt lat="42.3745853" lon="13.0729248"><ele>1220.0</ele><time>2026-04-26T09:56:45.861Z</time></trkpt><trkpt lat="42.3745763" lon="13.0730216"><ele>1221.0</ele><time>2026-04-26T09:56:46.862Z</time></trkpt><trkpt lat="42.3745675" lon="13.0731126"><ele>1222.0</ele><time>2026-04-26T09:56:47.864Z</time></trkpt><trkpt lat="42.3745561" lon="13.0732701"><ele>1223.0</ele><time>2026-04-26T09:56:49.863Z</time></trkpt><trkpt lat="42.3745547" lon="13.0734224"><ele>1224.0</ele><time>2026-04-26T09:56:51.852Z</time></trkpt><trkpt lat="42.3745725" lon="13.0735831"><ele>1225.5</ele><time>2026-04-26T09:56:53.916Z</time></trkpt><trkpt lat="42.374587" lon="13.0736739"><ele>1227.0</ele><time>2026-04-26T09:56:54.858Z</time></trkpt><trkpt lat="42.3746087" lon="13.0737632"><ele>1228.5</ele><time>2026-04-26T09:56:55.876Z</time></trkpt><trkpt lat="42.3746358" lon="13.0738567"><ele>1230.0</ele><time>2026-04-26T09:56:56.866Z</time></trkpt><trkpt lat="42.3746637" lon="13.073957"><ele>1231.5</ele><time>2026-04-26T09:56:57.875Z</time></trkpt><trkpt lat="42.3747022" lon="13.0740606"><ele>1233.0</ele><time>2026-04-26T09:56:58.862Z</time></trkpt><trkpt lat="42.3747435" lon="13.0741593"><ele>1228.142857142857</ele><time>2026-04-26T09:56:59.87Z</time></trkpt><trkpt lat="42.3747697" lon="13.0742497"><ele>1223.2857142857142</ele><time>2026-04-26T09:57:00.865Z</time></trkpt><trkpt lat="42.3747999" lon="13.0743268"><ele>1218.4285714285716</ele><time>2026-04-26T09:57:01.87Z</time></trkpt><trkpt lat="42.3748257" lon="13.0744117"><ele>1213.5714285714284</ele><time>2026-04-26T09:57:02.867Z</time></trkpt><trkpt lat="42.3748554" lon="13.0745042"><ele>1208.7142857142856</ele><time>2026-04-26T09:57:03.871Z</time></trkpt><trkpt lat="42.3748947" lon="13.0745965"><ele>1203.857142857143</ele><time>2026-04-26T09:57:04.865Z</time></trkpt><trkpt lat="42.3749236" lon="13.074708"><ele>1199.0</ele><time>2026-04-26T09:57:05.868Z</time></trkpt><trkpt lat="42.3749551" lon="13.0748179"><ele>1199.0</ele><time>2026-04-26T09:57:06.919Z</time></trkpt><trkpt lat="42.374985" lon="13.07493"><ele>1199.0</ele><time>2026-04-26T09:57:07.917Z</time></trkpt><trkpt lat="42.3749977" lon="13.0750458"><ele>1199.0</ele><time>2026-04-26T09:57:08.869Z</time></trkpt><trkpt lat="42.3750078" lon="13.0751659"><ele>1199.0</ele><time>2026-04-26T09:57:09.865Z</time></trkpt><trkpt lat="42.3750179" lon="13.0752778"><ele>1199.0</ele><time>2026-04-26T09:57:10.864Z</time></trkpt><trkpt lat="42.3750433" lon="13.0753949"><ele>1199.0</ele><time>2026-04-26T09:57:11.862Z</time></trkpt><trkpt lat="42.3750588" lon="13.0755187"><ele>1200.5714285714287</ele><time>2026-04-26T09:57:12.867Z</time></trkpt><trkpt lat="42.375071" lon="13.0756242"><ele>1202.142857142857</ele><time>2026-04-26T09:57:13.864Z</time></trkpt><trkpt lat="42.3750755" lon="13.0757184"><ele>1203.7142857142858</ele><time>2026-04-26T09:57:14.891Z</time></trkpt><trkpt lat="42.3750858" lon="13.0758179"><ele>1205.2857142857142</ele><time>2026-04-26T09:57:15.876Z</time></trkpt><trkpt lat="42.3750947" lon="13.0759225"><ele>1206.857142857143</ele><time>2026-04-26T09:57:16.868Z</time></trkpt><trkpt lat="42.3751077" lon="13.076014"><ele>1208.4285714285713</ele><time>2026-04-26T09:57:17.874Z</time></trkpt><trkpt lat="42.3751248" lon="13.0761005"><ele>1210.0</ele><time>2026-04-26T09:57:18.871Z</time></trkpt><trkpt lat="42.3751577" lon="13.0762295"><ele>1212.2</ele><time>2026-04-26T09:57:20.855Z</time></trkpt><trkpt lat="42.3751783" lon="13.0763636"><ele>1214.4</ele><time>2026-04-26T09:57:22.864Z</time></trkpt><trkpt lat="42.3751816" lon="13.076508"><ele>1216.6</ele><time>2026-04-26T09:57:24.863Z</time></trkpt><trkpt lat="42.3751907" lon="13.0766492"><ele>1218.8</ele><time>2026-04-26T09:57:26.865Z</time></trkpt><trkpt lat="42.3752121" lon="13.0767952"><ele>1221.0</ele><time>2026-04-26T09:57:28.869Z</time></trkpt><trkpt lat="42.3752214" lon="13.0768909"><ele>1222.3333333333333</ele><time>2026-04-26T09:57:29.915Z</time></trkpt><trkpt lat="42.3752289" lon="13.0769875"><ele>1223.6666666666667</ele><time>2026-04-26T09:57:30.864Z</time></trkpt><trkpt lat="42.3752405" lon="13.0770909"><ele>1225.0</ele><time>2026-04-26T09:57:31.869Z</time></trkpt><trkpt lat="42.3752499" lon="13.0771971"><ele>1226.3333333333335</ele><time>2026-04-26T09:57:32.925Z</time></trkpt><trkpt lat="42.3752626" lon="13.077302"><ele>1227.6666666666667</ele><time>2026-04-26T09:57:33.864Z</time></trkpt><trkpt lat="42.375268" lon="13.0774104"><ele>1229.0</ele><time>2026-04-26T09:57:34.859Z</time></trkpt><trkpt lat="42.3752797" lon="13.0775234"><ele>1229.0000000000002</ele><time>2026-04-26T09:57:35.864Z</time></trkpt><trkpt lat="42.3752913" lon="13.0776269"><ele>1229.0</ele><time>2026-04-26T09:57:36.879Z</time></trkpt><trkpt lat="42.3753045" lon="13.0777352"><ele>1229.0</ele><time>2026-04-26T09:57:37.877Z</time></trkpt><trkpt lat="42.375314" lon="13.0778324"><ele>1229.0</ele><time>2026-04-26T09:57:38.866Z</time></trkpt><trkpt lat="42.3753187" lon="13.0779307"><ele>1229.0</ele><time>2026-04-26T09:57:39.868Z</time></trkpt><trkpt lat="42.3753279" lon="13.0780299"><ele>1229.0000000000002</ele><time>2026-04-26T09:57:40.87Z</time></trkpt><trkpt lat="42.3753399" lon="13.0781237"><ele>1229.0</ele><time>2026-04-26T09:57:41.87Z</time></trkpt><trkpt lat="42.375363" lon="13.0782321"><ele>1229.5714285714287</ele><time>2026-04-26T09:57:42.871Z</time></trkpt><trkpt lat="42.3753804" lon="13.0783404"><ele>1230.142857142857</ele><time>2026-04-26T09:57:43.873Z</time></trkpt><trkpt lat="42.3754061" lon="13.0784413"><ele>1230.7142857142858</ele><time>2026-04-26T09:57:44.86Z</time></trkpt><trkpt lat="42.3754281" lon="13.078547"><ele>1231.2857142857142</ele><time>2026-04-26T09:57:45.893Z</time></trkpt><trkpt lat="42.3754404" lon="13.0786364"><ele>1231.857142857143</ele><time>2026-04-26T09:57:46.911Z</time></trkpt><trkpt lat="42.3754431" lon="13.0787267"><ele>1232.4285714285716</ele><time>2026-04-26T09:57:47.866Z</time></trkpt><trkpt lat="42.3754451" lon="13.0788154"><ele>1233.0</ele><time>2026-04-26T09:57:48.874Z</time></trkpt><trkpt lat="42.3754527" lon="13.0789098"><ele>1233.0</ele><time>2026-04-26T09:57:49.87Z</time></trkpt><trkpt lat="42.3754599" lon="13.0789999"><ele>1233.0</ele><time>2026-04-26T09:57:50.878Z</time></trkpt><trkpt lat="42.3754714" lon="13.0790896"><ele>1233.0</ele><time>2026-04-26T09:57:51.884Z</time></trkpt><trkpt lat="42.3754845" lon="13.0791822"><ele>1233.0</ele><time>2026-04-26T09:57:52.872Z</time></trkpt><trkpt lat="42.375495" lon="13.0792711"><ele>1233.0</ele><time>2026-04-26T09:57:53.874Z</time></trkpt><trkpt lat="42.3755018" lon="13.0793627"><ele>1233.0</ele><time>2026-04-26T09:57:54.866Z</time></trkpt><trkpt lat="42.3755081" lon="13.0794632"><ele>1233.0</ele><time>2026-04-26T09:57:55.872Z</time></trkpt><trkpt lat="42.375505" lon="13.0795671"><ele>1233.7142857142858</ele><time>2026-04-26T09:57:56.871Z</time></trkpt><trkpt lat="42.3754988" lon="13.0796727"><ele>1234.4285714285713</ele><time>2026-04-26T09:57:57.858Z</time></trkpt><trkpt lat="42.3755" lon="13.0797778"><ele>1235.142857142857</ele><time>2026-04-26T09:57:58.872Z</time></trkpt><trkpt lat="42.375499" lon="13.0798779"><ele>1235.857142857143</ele><time>2026-04-26T09:57:59.889Z</time></trkpt><trkpt lat="42.3754872" lon="13.0799741"><ele>1236.5714285714287</ele><time>2026-04-26T09:58:00.879Z</time></trkpt><trkpt lat="42.3754804" lon="13.08007"><ele>1237.2857142857142</ele><time>2026-04-26T09:58:01.907Z</time></trkpt><trkpt lat="42.3754695" lon="13.0801597"><ele>1238.0</ele><time>2026-04-26T09:58:02.87Z</time></trkpt><trkpt lat="42.3754611" lon="13.0802498"><ele>1238.0</ele><time>2026-04-26T09:58:03.875Z</time></trkpt><trkpt lat="42.3754497" lon="13.0803456"><ele>1238.0</ele><time>2026-04-26T09:58:04.873Z</time></trkpt><trkpt lat="42.3754429" lon="13.0805091"><ele>1238.0</ele><time>2026-04-26T09:58:06.879Z</time></trkpt><trkpt lat="42.3754503" lon="13.0806004"><ele>1238.0</ele><time>2026-04-26T09:58:07.88Z</time></trkpt><trkpt lat="42.3754695" lon="13.0806937"><ele>1238.0</ele><time>2026-04-26T09:58:08.919Z</time></trkpt><trkpt lat="42.3754913" lon="13.0807764"><ele>1238.0</ele><time>2026-04-26T09:58:09.864Z</time></trkpt><trkpt lat="42.3755635" lon="13.0809094"><ele>1232.0</ele><time>2026-04-26T09:58:11.88Z</time></trkpt><trkpt lat="42.3756388" lon="13.0810331"><ele>1226.0</ele><time>2026-04-26T09:58:13.895Z</time></trkpt><trkpt lat="42.3756829" lon="13.0811031"><ele>1220.0</ele><time>2026-04-26T09:58:14.871Z</time></trkpt><trkpt lat="42.3757302" lon="13.081179"><ele>1214.0</ele><time>2026-04-26T09:58:15.873Z</time></trkpt><trkpt lat="42.375788" lon="13.081277"><ele>1208.0</ele><time>2026-04-26T09:58:16.876Z</time></trkpt><trkpt lat="42.3758459" lon="13.0813995"><ele>1208.0</ele><time>2026-04-26T09:58:17.868Z</time></trkpt><trkpt lat="42.3758877" lon="13.0815049"><ele>1208.0</ele><time>2026-04-26T09:58:18.9Z</time></trkpt><trkpt lat="42.3759134" lon="13.0816031"><ele>1208.0</ele><time>2026-04-26T09:58:19.869Z</time></trkpt><trkpt lat="42.3759295" lon="13.0817023"><ele>1208.0</ele><time>2026-04-26T09:58:20.87Z</time></trkpt><trkpt lat="42.3759315" lon="13.0817999"><ele>1208.0</ele><time>2026-04-26T09:58:21.87Z</time></trkpt><trkpt lat="42.3759318" lon="13.0819081"><ele>1208.0</ele><time>2026-04-26T09:58:22.87Z</time></trkpt><trkpt lat="42.3759372" lon="13.0820045"><ele>1209.6</ele><time>2026-04-26T09:58:23.875Z</time></trkpt><trkpt lat="42.3759454" lon="13.0821596"><ele>1211.1999999999998</ele><time>2026-04-26T09:58:25.866Z</time></trkpt><trkpt lat="42.375995" lon="13.0822793"><ele>1212.8</ele><time>2026-04-26T09:58:27.863Z</time></trkpt><trkpt lat="42.3760592" lon="13.082334"><ele>1214.3999999999999</ele><time>2026-04-26T09:58:29.863Z</time></trkpt><trkpt lat="42.376122" lon="13.0824045"><ele>1216.0</ele><time>2026-04-26T09:58:31.879Z</time></trkpt><trkpt lat="42.376196" lon="13.08249"><ele>1214.25</ele><time>2026-04-26T09:58:33.877Z</time></trkpt><trkpt lat="42.3762786" lon="13.0825741"><ele>1212.5</ele><time>2026-04-26T09:58:35.889Z</time></trkpt><trkpt lat="42.3764088" lon="13.0826564"><ele>1210.75</ele><time>2026-04-26T09:58:38.862Z</time></trkpt><trkpt lat="42.3765145" lon="13.0827144"><ele>1209.0</ele><time>2026-04-26T09:58:40.877Z</time></trkpt><trkpt lat="42.3765988" lon="13.0827931"><ele>1209.0</ele><time>2026-04-26T09:58:42.875Z</time></trkpt><trkpt lat="42.376655" lon="13.0828924"><ele>1209.0</ele><time>2026-04-26T09:58:44.871Z</time></trkpt><trkpt lat="42.3766875" lon="13.0830583"><ele>1209.0</ele><time>2026-04-26T09:58:46.909Z</time></trkpt><trkpt lat="42.3766992" lon="13.0831548"><ele>1209.0</ele><time>2026-04-26T09:58:47.867Z</time></trkpt><trkpt lat="42.3767084" lon="13.0832542"><ele>1209.0</ele><time>2026-04-26T09:58:48.869Z</time></trkpt><trkpt lat="42.3767078" lon="13.0833465"><ele>1209.0</ele><time>2026-04-26T09:58:49.89Z</time></trkpt><trkpt lat="42.3766993" lon="13.0834418"><ele>1211.0</ele><time>2026-04-26T09:58:50.871Z</time></trkpt><trkpt lat="42.3766902" lon="13.083528"><ele>1213.0</ele><time>2026-04-26T09:58:51.895Z</time></trkpt><trkpt lat="42.3766874" lon="13.083667"><ele>1215.0</ele><time>2026-04-26T09:58:53.874Z</time></trkpt><trkpt lat="42.3766938" lon="13.0838138"><ele>1217.0</ele><time>2026-04-26T09:58:55.867Z</time></trkpt><trkpt lat="42.3767069" lon="13.0839088"><ele>1219.0</ele><time>2026-04-26T09:58:56.853Z</time></trkpt><trkpt lat="42.3767252" lon="13.0839958"><ele>1221.0</ele><time>2026-04-26T09:58:57.863Z</time></trkpt><trkpt lat="42.3767569" lon="13.0840769"><ele>1223.3333333333333</ele><time>2026-04-26T09:58:58.868Z</time></trkpt><trkpt lat="42.3767966" lon="13.0841703"><ele>1225.6666666666667</ele><time>2026-04-26T09:58:59.859Z</time></trkpt><trkpt lat="42.3768405" lon="13.0842596"><ele>1228.0</ele><time>2026-04-26T09:59:00.867Z</time></trkpt><trkpt lat="42.376885" lon="13.0843444"><ele>1230.3333333333335</ele><time>2026-04-26T09:59:01.877Z</time></trkpt><trkpt lat="42.3769225" lon="13.0844345"><ele>1232.6666666666667</ele><time>2026-04-26T09:59:02.866Z</time></trkpt><trkpt lat="42.3769585" lon="13.0845184"><ele>1235.0</ele><time>2026-04-26T09:59:03.881Z</time></trkpt><trkpt lat="42.3769881" lon="13.0846043"><ele>1235.0</ele><time>2026-04-26T09:59:04.883Z</time></trkpt><trkpt lat="42.377019" lon="13.0846953"><ele>1235.0</ele><time>2026-04-26T09:59:05.866Z</time></trkpt><trkpt lat="42.3770621" lon="13.0848545"><ele>1235.0</ele><time>2026-04-26T09:59:07.865Z</time></trkpt><trkpt lat="42.3770578" lon="13.0849448"><ele>1235.0</ele><time>2026-04-26T09:59:08.901Z</time></trkpt><trkpt lat="42.3770627" lon="13.0850443"><ele>1235.0</ele><time>2026-04-26T09:59:09.861Z</time></trkpt><trkpt lat="42.3770612" lon="13.0851498"><ele>1235.0</ele><time>2026-04-26T09:59:10.875Z</time></trkpt><trkpt lat="42.3770575" lon="13.0852565"><ele>1237.0</ele><time>2026-04-26T09:59:11.88Z</time></trkpt><trkpt lat="42.377045" lon="13.0853503"><ele>1239.0</ele><time>2026-04-26T09:59:12.908Z</time></trkpt><trkpt lat="42.3770434" lon="13.0854502"><ele>1241.0</ele><time>2026-04-26T09:59:13.864Z</time></trkpt><trkpt lat="42.3770691" lon="13.0855431"><ele>1243.0</ele><time>2026-04-26T09:59:14.866Z</time></trkpt><trkpt lat="42.3770844" lon="13.0856413"><ele>1245.0</ele><time>2026-04-26T09:59:15.866Z</time></trkpt><trkpt lat="42.3770905" lon="13.0857303"><ele>1247.0</ele><time>2026-04-26T09:59:16.87Z</time></trkpt><trkpt lat="42.3771117" lon="13.0859119"><ele>1248.857142857143</ele><time>2026-04-26T09:59:18.866Z</time></trkpt><trkpt lat="42.3771174" lon="13.0860053"><ele>1250.7142857142858</ele><time>2026-04-26T09:59:19.872Z</time></trkpt><trkpt lat="42.377128" lon="13.0860915"><ele>1252.5714285714284</ele><time>2026-04-26T09:59:20.86Z</time></trkpt><trkpt lat="42.3771328" lon="13.0861783"><ele>1254.4285714285716</ele><time>2026-04-26T09:59:21.868Z</time></trkpt><trkpt lat="42.3771431" lon="13.0862686"><ele>1256.2857142857142</ele><time>2026-04-26T09:59:22.877Z</time></trkpt><trkpt lat="42.3771552" lon="13.0863655"><ele>1258.142857142857</ele><time>2026-04-26T09:59:23.871Z</time></trkpt><trkpt lat="42.3771665" lon="13.0864603"><ele>1260.0</ele><time>2026-04-26T09:59:24.877Z</time></trkpt><trkpt lat="42.3771922" lon="13.086549"><ele>1254.1666666666667</ele><time>2026-04-26T09:59:25.872Z</time></trkpt><trkpt lat="42.3772191" lon="13.0866398"><ele>1248.3333333333333</ele><time>2026-04-26T09:59:26.899Z</time></trkpt><trkpt lat="42.3772431" lon="13.0867259"><ele>1242.5</ele><time>2026-04-26T09:59:27.898Z</time></trkpt><trkpt lat="42.3772818" lon="13.0868779"><ele>1236.6666666666665</ele><time>2026-04-26T09:59:29.871Z</time></trkpt><trkpt lat="42.37731" lon="13.0869558"><ele>1230.8333333333333</ele><time>2026-04-26T09:59:30.872Z</time></trkpt><trkpt lat="42.3773338" lon="13.0871186"><ele>1225.0</ele><time>2026-04-26T09:59:32.902Z</time></trkpt><trkpt lat="42.3773505" lon="13.0872066"><ele>1225.0</ele><time>2026-04-26T09:59:33.867Z</time></trkpt><trkpt lat="42.3773657" lon="13.0872962"><ele>1225.0</ele><time>2026-04-26T09:59:34.872Z</time></trkpt><trkpt lat="42.3774224" lon="13.0874576"><ele>1225.0</ele><time>2026-04-26T09:59:36.874Z</time></trkpt><trkpt lat="42.377497" lon="13.0875487"><ele>1225.0</ele><time>2026-04-26T09:59:37.869Z</time></trkpt><trkpt lat="42.3775656" lon="13.0876257"><ele>1225.0</ele><time>2026-04-26T09:59:38.862Z</time></trkpt><trkpt lat="42.3776378" lon="13.0876826"><ele>1227.8</ele><time>2026-04-26T09:59:39.881Z</time></trkpt><trkpt lat="42.3777163" lon="13.0877396"><ele>1230.6</ele><time>2026-04-26T09:59:40.866Z</time></trkpt><trkpt lat="42.3777782" lon="13.0877923"><ele>1233.4</ele><time>2026-04-26T09:59:41.874Z</time></trkpt><trkpt lat="42.3778448" lon="13.0878368"><ele>1236.2</ele><time>2026-04-26T09:59:42.865Z</time></trkpt><trkpt lat="42.3779435" lon="13.0879109"><ele>1239.0</ele><time>2026-04-26T09:59:44.866Z</time></trkpt><trkpt lat="42.3780307" lon="13.0880127"><ele>1234.5</ele><time>2026-04-26T09:59:46.883Z</time></trkpt><trkpt lat="42.3780961" lon="13.088118"><ele>1230.0</ele><time>2026-04-26T09:59:48.88Z</time></trkpt><trkpt lat="42.3781321" lon="13.0882396"><ele>1225.5</ele><time>2026-04-26T09:59:50.882Z</time></trkpt><trkpt lat="42.3781567" lon="13.0884879"><ele>1221.0</ele><time>2026-04-26T09:59:53.87Z</time></trkpt><trkpt lat="42.3781612" lon="13.0885786"><ele>1220.9999999999998</ele><time>2026-04-26T09:59:54.918Z</time></trkpt><trkpt lat="42.3781649" lon="13.0886679"><ele>1221.0</ele><time>2026-04-26T09:59:55.871Z</time></trkpt><trkpt lat="42.3781674" lon="13.0887565"><ele>1221.0</ele><time>2026-04-26T09:59:56.867Z</time></trkpt><trkpt lat="42.3781792" lon="13.0888514"><ele>1221.0</ele><time>2026-04-26T09:59:57.871Z</time></trkpt><trkpt lat="42.3781955" lon="13.0889513"><ele>1221.0</ele><time>2026-04-26T09:59:58.867Z</time></trkpt><trkpt lat="42.378209" lon="13.0890466"><ele>1220.9999999999998</ele><time>2026-04-26T09:59:59.869Z</time></trkpt><trkpt lat="42.3782277" lon="13.0891345"><ele>1221.0</ele><time>2026-04-26T10:00:00.864Z</time></trkpt><trkpt lat="42.3782486" lon="13.0892196"><ele>1222.142857142857</ele><time>2026-04-26T10:00:01.87Z</time></trkpt><trkpt lat="42.3782778" lon="13.0892958"><ele>1223.2857142857142</ele><time>2026-04-26T10:00:02.867Z</time></trkpt><trkpt lat="42.3783171" lon="13.0893741"><ele>1224.4285714285716</ele><time>2026-04-26T10:00:03.9Z</time></trkpt><trkpt lat="42.378359" lon="13.0894429"><ele>1225.5714285714284</ele><time>2026-04-26T10:00:04.919Z</time></trkpt><trkpt lat="42.3783984" lon="13.0895247"><ele>1226.7142857142858</ele><time>2026-04-26T10:00:05.877Z</time></trkpt><trkpt lat="42.37843" lon="13.0896115"><ele>1227.857142857143</ele><time>2026-04-26T10:00:06.873Z</time></trkpt><trkpt lat="42.3784539" lon="13.0897153"><ele>1229.0</ele><time>2026-04-26T10:00:07.924Z</time></trkpt><trkpt lat="42.3784795" lon="13.0898349"><ele>1229.6666666666667</ele><time>2026-04-26T10:00:08.874Z</time></trkpt><trkpt lat="42.378509" lon="13.0899556"><ele>1230.3333333333335</ele><time>2026-04-26T10:00:09.874Z</time></trkpt><trkpt lat="42.378544" lon="13.0900664"><ele>1231.0</ele><time>2026-04-26T10:00:10.867Z</time></trkpt><trkpt lat="42.378577" lon="13.0901562"><ele>1231.6666666666667</ele><time>2026-04-26T10:00:11.88Z</time></trkpt><trkpt lat="42.3786123" lon="13.0902811"><ele>1232.3333333333333</ele><time>2026-04-26T10:00:13.894Z</time></trkpt><trkpt lat="42.3786205" lon="13.0903822"><ele>1233.0</ele><time>2026-04-26T10:00:15.872Z</time></trkpt><trkpt lat="42.3786138" lon="13.0904832"><ele>1233.0</ele><time>2026-04-26T10:00:18.877Z</time></trkpt><trkpt lat="42.3786245" lon="13.0906149"><ele>1233.0</ele><time>2026-04-26T10:00:21.871Z</time></trkpt><trkpt lat="42.3786425" lon="13.0907106"><ele>1233.0</ele><time>2026-04-26T10:00:23.877Z</time></trkpt><trkpt lat="42.3786561" lon="13.0908042"><ele>1233.0</ele><time>2026-04-26T10:00:25.871Z</time></trkpt><trkpt lat="42.3786739" lon="13.090911"><ele>1233.0</ele><time>2026-04-26T10:00:27.868Z</time></trkpt><trkpt lat="42.3787025" lon="13.0910165"><ele>1233.0</ele><time>2026-04-26T10:00:29.869Z</time></trkpt><trkpt lat="42.3787234" lon="13.091132"><ele>1232.4</ele><time>2026-04-26T10:00:31.867Z</time></trkpt><trkpt lat="42.3787486" lon="13.0912522"><ele>1231.8</ele><time>2026-04-26T10:00:33.869Z</time></trkpt><trkpt lat="42.3787747" lon="13.0913695"><ele>1231.2</ele><time>2026-04-26T10:00:35.872Z</time></trkpt><trkpt lat="42.3788081" lon="13.0914877"><ele>1230.6</ele><time>2026-04-26T10:00:37.877Z</time></trkpt><trkpt lat="42.3788337" lon="13.0916187"><ele>1230.0</ele><time>2026-04-26T10:00:39.876Z</time></trkpt><trkpt lat="42.3788513" lon="13.0917621"><ele>1230.0</ele><time>2026-04-26T10:00:41.868Z</time></trkpt><trkpt lat="42.3788658" lon="13.0919268"><ele>1230.0</ele><time>2026-04-26T10:00:43.863Z</time></trkpt><trkpt lat="42.3788856" lon="13.092104"><ele>1230.0</ele><time>2026-04-26T10:00:45.869Z</time></trkpt><trkpt lat="42.3789015" lon="13.0921928"><ele>1230.0</ele><time>2026-04-26T10:00:46.874Z</time></trkpt><trkpt lat="42.3789078" lon="13.0922789"><ele>1230.0</ele><time>2026-04-26T10:00:47.877Z</time></trkpt><trkpt lat="42.3789135" lon="13.0924281"><ele>1228.1666666666667</ele><time>2026-04-26T10:00:49.877Z</time></trkpt><trkpt lat="42.3789092" lon="13.0925936"><ele>1226.3333333333333</ele><time>2026-04-26T10:00:51.876Z</time></trkpt><trkpt lat="42.3789119" lon="13.0926886"><ele>1224.5</ele><time>2026-04-26T10:00:52.87Z</time></trkpt><trkpt lat="42.3789171" lon="13.0927809"><ele>1222.6666666666665</ele><time>2026-04-26T10:00:53.873Z</time></trkpt><trkpt lat="42.3789366" lon="13.0929171"><ele>1220.8333333333333</ele><time>2026-04-26T10:00:55.874Z</time></trkpt><trkpt lat="42.3789772" lon="13.092993"><ele>1219.0</ele><time>2026-04-26T10:00:57.865Z</time></trkpt><trkpt lat="42.3790436" lon="13.0930358"><ele>1219.0</ele><time>2026-04-26T10:01:00.873Z</time></trkpt><trkpt lat="42.3791271" lon="13.0930284"><ele>1219.0</ele><time>2026-04-26T10:01:03.874Z</time></trkpt><trkpt lat="42.3791865" lon="13.092999"><ele>1219.0</ele><time>2026-04-26T10:01:05.873Z</time></trkpt><trkpt lat="42.3792663" lon="13.0929642"><ele>1219.0</ele><time>2026-04-26T10:01:07.873Z</time></trkpt><trkpt lat="42.3793521" lon="13.092923"><ele>1219.0</ele><time>2026-04-26T10:01:09.868Z</time></trkpt><trkpt lat="42.3794302" lon="13.092899"><ele>1219.0</ele><time>2026-04-26T10:01:11.869Z</time></trkpt><trkpt lat="42.3795118" lon="13.0929145"><ele>1219.0</ele><time>2026-04-26T10:01:13.877Z</time></trkpt><trkpt lat="42.3795701" lon="13.0929892"><ele>1219.0</ele><time>2026-04-26T10:01:15.874Z</time></trkpt><trkpt lat="42.3795944" lon="13.0930946"><ele>1219.0</ele><time>2026-04-26T10:01:17.881Z</time></trkpt><trkpt lat="42.3795812" lon="13.093199"><ele>1219.0</ele><time>2026-04-26T10:01:19.877Z</time></trkpt><trkpt lat="42.3795623" lon="13.0933067"><ele>1219.0</ele><time>2026-04-26T10:01:21.878Z</time></trkpt><trkpt lat="42.3795291" lon="13.0934206"><ele>1219.0</ele><time>2026-04-26T10:01:23.884Z</time></trkpt><trkpt lat="42.3794631" lon="13.0935194"><ele>1217.2</ele><time>2026-04-26T10:01:25.878Z</time></trkpt><trkpt lat="42.3793958" lon="13.0936335"><ele>1215.4</ele><time>2026-04-26T10:01:27.866Z</time></trkpt><trkpt lat="42.3793586" lon="13.0937251"><ele>1213.6</ele><time>2026-04-26T10:01:29.861Z</time></trkpt><trkpt lat="42.3793249" lon="13.0938174"><ele>1211.8</ele><time>2026-04-26T10:01:31.879Z</time></trkpt><trkpt lat="42.3793025" lon="13.0939404"><ele>1210.0</ele><time>2026-04-26T10:01:33.868Z</time></trkpt><trkpt lat="42.3793038" lon="13.0940697"><ele>1209.0</ele><time>2026-04-26T10:01:35.885Z</time></trkpt><trkpt lat="42.3793066" lon="13.0941915"><ele>1208.0</ele><time>2026-04-26T10:01:37.885Z</time></trkpt><trkpt lat="42.3792806" lon="13.0942918"><ele>1207.0</ele><time>2026-04-26T10:01:39.874Z</time></trkpt><trkpt lat="42.3792051" lon="13.0943625"><ele>1206.0</ele><time>2026-04-26T10:01:41.86Z</time></trkpt><trkpt lat="42.3791123" lon="13.0944472"><ele>1205.0</ele><time>2026-04-26T10:01:43.862Z</time></trkpt><trkpt lat="42.379047" lon="13.0945273"><ele>1205.0</ele><time>2026-04-26T10:01:45.878Z</time></trkpt><trkpt lat="42.3789902" lon="13.0946146"><ele>1205.0</ele><time>2026-04-26T10:01:47.883Z</time></trkpt><trkpt lat="42.3789447" lon="13.0947152"><ele>1205.0</ele><time>2026-04-26T10:01:49.87Z</time></trkpt><trkpt lat="42.3789156" lon="13.0948444"><ele>1205.0</ele><time>2026-04-26T10:01:51.872Z</time></trkpt><trkpt lat="42.3788994" lon="13.0949622"><ele>1205.0</ele><time>2026-04-26T10:01:53.863Z</time></trkpt><trkpt lat="42.3788957" lon="13.0950925"><ele>1205.6666666666667</ele><time>2026-04-26T10:01:55.87Z</time></trkpt><trkpt lat="42.3788761" lon="13.0952109"><ele>1206.3333333333335</ele><time>2026-04-26T10:01:57.874Z</time></trkpt><trkpt lat="42.3788255" lon="13.0953111"><ele>1207.0</ele><time>2026-04-26T10:01:59.89Z</time></trkpt><trkpt lat="42.378742" lon="13.0953592"><ele>1207.6666666666667</ele><time>2026-04-26T10:02:01.867Z</time></trkpt><trkpt lat="42.3786687" lon="13.0954129"><ele>1208.3333333333333</ele><time>2026-04-26T10:02:03.86Z</time></trkpt><trkpt lat="42.3786389" lon="13.0955144"><ele>1209.0</ele><time>2026-04-26T10:02:05.88Z</time></trkpt><trkpt lat="42.37864" lon="13.0956331"><ele>1205.6666666666667</ele><time>2026-04-26T10:02:07.897Z</time></trkpt><trkpt lat="42.3786731" lon="13.0957589"><ele>1202.3333333333333</ele><time>2026-04-26T10:02:09.874Z</time></trkpt><trkpt lat="42.3787144" lon="13.0958815"><ele>1199.0</ele><time>2026-04-26T10:02:11.872Z</time></trkpt><trkpt lat="42.3787311" lon="13.0959982"><ele>1195.6666666666665</ele><time>2026-04-26T10:02:13.922Z</time></trkpt><trkpt lat="42.3787325" lon="13.0961029"><ele>1192.3333333333333</ele><time>2026-04-26T10:02:15.872Z</time></trkpt><trkpt lat="42.3786968" lon="13.0962008"><ele>1189.0</ele><time>2026-04-26T10:02:17.917Z</time></trkpt><trkpt lat="42.3786478" lon="13.0963032"><ele>1189.0</ele><time>2026-04-26T10:02:19.879Z</time></trkpt><trkpt lat="42.378602" lon="13.0964095"><ele>1189.0</ele><time>2026-04-26T10:02:21.882Z</time></trkpt><trkpt lat="42.3785591" lon="13.0965258"><ele>1189.0</ele><time>2026-04-26T10:02:23.875Z</time></trkpt><trkpt lat="42.3784975" lon="13.0966352"><ele>1189.0</ele><time>2026-04-26T10:02:25.868Z</time></trkpt><trkpt lat="42.3784271" lon="13.0967245"><ele>1189.0</ele><time>2026-04-26T10:02:27.882Z</time></trkpt><trkpt lat="42.3783601" lon="13.0968257"><ele>1189.0</ele><time>2026-04-26T10:02:29.869Z</time></trkpt><trkpt lat="42.3783022" lon="13.0969316"><ele>1189.0</ele><time>2026-04-26T10:02:31.876Z</time></trkpt><trkpt lat="42.3782629" lon="13.0970395"><ele>1189.0</ele><time>2026-04-26T10:02:33.871Z</time></trkpt><trkpt lat="42.3782571" lon="13.0971819"><ele>1189.0</ele><time>2026-04-26T10:02:35.874Z</time></trkpt><trkpt lat="42.3782792" lon="13.097329"><ele>1189.0</ele><time>2026-04-26T10:02:37.868Z</time></trkpt><trkpt lat="42.3783204" lon="13.097462"><ele>1189.0</ele><time>2026-04-26T10:02:39.912Z</time></trkpt><trkpt lat="42.3783517" lon="13.097574"><ele>1189.0</ele><time>2026-04-26T10:02:41.857Z</time></trkpt><trkpt lat="42.3783495" lon="13.0976861"><ele>1189.0</ele><time>2026-04-26T10:02:43.878Z</time></trkpt><trkpt lat="42.3783146" lon="13.0977963"><ele>1189.0</ele><time>2026-04-26T10:02:45.863Z</time></trkpt><trkpt lat="42.3782659" lon="13.0978997"><ele>1189.0</ele><time>2026-04-26T10:02:47.862Z</time></trkpt><trkpt lat="42.3782041" lon="13.0980153"><ele>1189.0</ele><time>2026-04-26T10:02:49.862Z</time></trkpt><trkpt lat="42.3781282" lon="13.0981252"><ele>1189.0</ele><time>2026-04-26T10:02:51.867Z</time></trkpt><trkpt lat="42.3780393" lon="13.0982312"><ele>1189.0</ele><time>2026-04-26T10:02:53.859Z</time></trkpt><trkpt lat="42.3779552" lon="13.0983374"><ele>1189.0</ele><time>2026-04-26T10:02:55.864Z</time></trkpt><trkpt lat="42.3778899" lon="13.0984537"><ele>1188.1666666666665</ele><time>2026-04-26T10:02:57.87Z</time></trkpt><trkpt lat="42.3778423" lon="13.0986039"><ele>1187.3333333333333</ele><time>2026-04-26T10:02:59.87Z</time></trkpt><trkpt lat="42.3778239" lon="13.0986888"><ele>1186.5</ele><time>2026-04-26T10:03:00.878Z</time></trkpt><trkpt lat="42.3778036" lon="13.0987749"><ele>1185.6666666666667</ele><time>2026-04-26T10:03:01.869Z</time></trkpt><trkpt lat="42.37779" lon="13.0988612"><ele>1184.8333333333335</ele><time>2026-04-26T10:03:02.875Z</time></trkpt><trkpt lat="42.3777553" lon="13.0990272"><ele>1184.0</ele><time>2026-04-26T10:03:04.876Z</time></trkpt><trkpt lat="42.3777308" lon="13.0991132"><ele>1184.0</ele><time>2026-04-26T10:03:05.883Z</time></trkpt><trkpt lat="42.3777145" lon="13.0992173"><ele>1184.0</ele><time>2026-04-26T10:03:06.875Z</time></trkpt><trkpt lat="42.3777001" lon="13.0993394"><ele>1184.0</ele><time>2026-04-26T10:03:07.923Z</time></trkpt><trkpt lat="42.3776827" lon="13.099457"><ele>1184.0</ele><time>2026-04-26T10:03:08.872Z</time></trkpt><trkpt lat="42.3776575" lon="13.0995718"><ele>1184.0</ele><time>2026-04-26T10:03:09.871Z</time></trkpt><trkpt lat="42.377633" lon="13.0996838"><ele>1184.0</ele><time>2026-04-26T10:03:10.869Z</time></trkpt><trkpt lat="42.3776109" lon="13.0997955"><ele>1184.0</ele><time>2026-04-26T10:03:11.875Z</time></trkpt><trkpt lat="42.3775872" lon="13.099909"><ele>1184.0</ele><time>2026-04-26T10:03:12.873Z</time></trkpt><trkpt lat="42.3775646" lon="13.1000101"><ele>1184.0</ele><time>2026-04-26T10:03:13.87Z</time></trkpt><trkpt lat="42.3775428" lon="13.1001043"><ele>1184.0</ele><time>2026-04-26T10:03:14.878Z</time></trkpt><trkpt lat="42.3775252" lon="13.1001869"><ele>1184.0</ele><time>2026-04-26T10:03:15.872Z</time></trkpt><trkpt lat="42.3775068" lon="13.100343"><ele>1184.0</ele><time>2026-04-26T10:03:17.868Z</time></trkpt><trkpt lat="42.3774798" lon="13.1004929"><ele>1184.1666666666667</ele><time>2026-04-26T10:03:19.875Z</time></trkpt><trkpt lat="42.3774288" lon="13.1006169"><ele>1184.3333333333335</ele><time>2026-04-26T10:03:21.91Z</time></trkpt><trkpt lat="42.3774034" lon="13.1007023"><ele>1184.5</ele><time>2026-04-26T10:03:22.868Z</time></trkpt><trkpt lat="42.3773843" lon="13.1007878"><ele>1184.6666666666667</ele><time>2026-04-26T10:03:23.874Z</time></trkpt><trkpt lat="42.3773675" lon="13.1008728"><ele>1184.8333333333333</ele><time>2026-04-26T10:03:24.868Z</time></trkpt><trkpt lat="42.3773501" lon="13.1009558"><ele>1185.0</ele><time>2026-04-26T10:03:25.873Z</time></trkpt><trkpt lat="42.3773229" lon="13.1011058"><ele>1185.0</ele><time>2026-04-26T10:03:27.877Z</time></trkpt><trkpt lat="42.377318" lon="13.1012483"><ele>1185.0</ele><time>2026-04-26T10:03:29.882Z</time></trkpt><trkpt lat="42.3773084" lon="13.1014054"><ele>1185.0</ele><time>2026-04-26T10:03:31.868Z</time></trkpt><trkpt lat="42.3772823" lon="13.1015549"><ele>1185.0</ele><time>2026-04-26T10:03:33.876Z</time></trkpt><trkpt lat="42.3772631" lon="13.1017063"><ele>1185.0</ele><time>2026-04-26T10:03:35.869Z</time></trkpt><trkpt lat="42.3772481" lon="13.1017926"><ele>1185.0</ele><time>2026-04-26T10:03:36.877Z</time></trkpt><trkpt lat="42.3772367" lon="13.1018887"><ele>1185.0</ele><time>2026-04-26T10:03:37.868Z</time></trkpt><trkpt lat="42.3772228" lon="13.1019806"><ele>1185.0</ele><time>2026-04-26T10:03:38.876Z</time></trkpt><trkpt lat="42.3772004" lon="13.1021447"><ele>1185.0</ele><time>2026-04-26T10:03:40.859Z</time></trkpt><trkpt lat="42.377169" lon="13.1022881"><ele>1185.0</ele><time>2026-04-26T10:03:42.867Z</time></trkpt><trkpt lat="42.3771506" lon="13.1024444"><ele>1181.8</ele><time>2026-04-26T10:03:44.865Z</time></trkpt><trkpt lat="42.3771476" lon="13.1025884"><ele>1178.6</ele><time>2026-04-26T10:03:46.873Z</time></trkpt><trkpt lat="42.377139" lon="13.1027241"><ele>1175.4</ele><time>2026-04-26T10:03:48.871Z</time></trkpt><trkpt lat="42.3771233" lon="13.1028686"><ele>1172.2</ele><time>2026-04-26T10:03:50.872Z</time></trkpt><trkpt lat="42.3771104" lon="13.1030202"><ele>1169.0</ele><time>2026-04-26T10:03:52.87Z</time></trkpt><trkpt lat="42.3770958" lon="13.1031739"><ele>1168.3333333333335</ele><time>2026-04-26T10:03:54.887Z</time></trkpt><trkpt lat="42.3770779" lon="13.1033293"><ele>1167.6666666666667</ele><time>2026-04-26T10:03:56.876Z</time></trkpt><trkpt lat="42.3770764" lon="13.1034944"><ele>1167.0</ele><time>2026-04-26T10:03:58.91Z</time></trkpt><trkpt lat="42.3770808" lon="13.1035804"><ele>1166.3333333333333</ele><time>2026-04-26T10:03:59.917Z</time></trkpt><trkpt lat="42.3770864" lon="13.1036754"><ele>1165.6666666666665</ele><time>2026-04-26T10:04:00.875Z</time></trkpt><trkpt lat="42.377095" lon="13.1037744"><ele>1165.0</ele><time>2026-04-26T10:04:01.873Z</time></trkpt><trkpt lat="42.3771155" lon="13.1038721"><ele>1165.0</ele><time>2026-04-26T10:04:02.864Z</time></trkpt><trkpt lat="42.3771353" lon="13.1039591"><ele>1165.0</ele><time>2026-04-26T10:04:03.893Z</time></trkpt><trkpt lat="42.3771686" lon="13.1041124"><ele>1165.0</ele><time>2026-04-26T10:04:05.878Z</time></trkpt><trkpt lat="42.3771647" lon="13.1042683"><ele>1165.0</ele><time>2026-04-26T10:04:07.875Z</time></trkpt><trkpt lat="42.3771435" lon="13.1044139"><ele>1165.0</ele><time>2026-04-26T10:04:09.859Z</time></trkpt><trkpt lat="42.3771168" lon="13.1045784"><ele>1163.0</ele><time>2026-04-26T10:04:11.869Z</time></trkpt><trkpt lat="42.3771063" lon="13.1047322"><ele>1161.0</ele><time>2026-04-26T10:04:13.863Z</time></trkpt><trkpt lat="42.3770943" lon="13.1048904"><ele>1159.0</ele><time>2026-04-26T10:04:15.868Z</time></trkpt><trkpt lat="42.377078" lon="13.1050486"><ele>1157.0</ele><time>2026-04-26T10:04:17.871Z</time></trkpt><trkpt lat="42.3770507" lon="13.1052074"><ele>1156.6</ele><time>2026-04-26T10:04:19.862Z</time></trkpt><trkpt lat="42.3770273" lon="13.1053582"><ele>1156.2</ele><time>2026-04-26T10:04:21.87Z</time></trkpt><trkpt lat="42.3769898" lon="13.1055145"><ele>1155.8</ele><time>2026-04-26T10:04:23.869Z</time></trkpt><trkpt lat="42.3769561" lon="13.1056703"><ele>1155.4</ele><time>2026-04-26T10:04:25.904Z</time></trkpt><trkpt lat="42.3769347" lon="13.1057538"><ele>1155.0</ele><time>2026-04-26T10:04:26.867Z</time></trkpt><trkpt lat="42.3769163" lon="13.1058379"><ele>1154.4285714285713</ele><time>2026-04-26T10:04:27.859Z</time></trkpt><trkpt lat="42.376894" lon="13.1059224"><ele>1153.857142857143</ele><time>2026-04-26T10:04:28.867Z</time></trkpt><trkpt lat="42.3768765" lon="13.1060263"><ele>1153.2857142857142</ele><time>2026-04-26T10:04:29.867Z</time></trkpt><trkpt lat="42.3768653" lon="13.1061355"><ele>1152.7142857142858</ele><time>2026-04-26T10:04:30.869Z</time></trkpt><trkpt lat="42.3768606" lon="13.106246"><ele>1152.142857142857</ele><time>2026-04-26T10:04:31.862Z</time></trkpt><trkpt lat="42.3768529" lon="13.1063402"><ele>1151.5714285714284</ele><time>2026-04-26T10:04:32.868Z</time></trkpt><trkpt lat="42.3768547" lon="13.1064345"><ele>1151.0</ele><time>2026-04-26T10:04:33.862Z</time></trkpt><trkpt lat="42.3768573" lon="13.1065304"><ele>1150.1666666666667</ele><time>2026-04-26T10:04:34.873Z</time></trkpt><trkpt lat="42.3768523" lon="13.1066161"><ele>1149.3333333333335</ele><time>2026-04-26T10:04:35.875Z</time></trkpt><trkpt lat="42.3768379" lon="13.10679"><ele>1148.5</ele><time>2026-04-26T10:04:37.957Z</time></trkpt><trkpt lat="42.3768337" lon="13.1068914"><ele>1147.6666666666667</ele><time>2026-04-26T10:04:38.878Z</time></trkpt><trkpt lat="42.3768276" lon="13.1070104"><ele>1146.8333333333333</ele><time>2026-04-26T10:04:39.914Z</time></trkpt><trkpt lat="42.3768218" lon="13.1071239"><ele>1146.0</ele><time>2026-04-26T10:04:40.865Z</time></trkpt><trkpt lat="42.3768135" lon="13.1072272"><ele>1146.0</ele><time>2026-04-26T10:04:41.866Z</time></trkpt><trkpt lat="42.3768" lon="13.1073173"><ele>1146.0</ele><time>2026-04-26T10:04:42.863Z</time></trkpt><trkpt lat="42.3767876" lon="13.1074819"><ele>1146.0</ele><time>2026-04-26T10:04:44.872Z</time></trkpt><trkpt lat="42.3767736" lon="13.1076269"><ele>1146.0</ele><time>2026-04-26T10:04:46.866Z</time></trkpt><trkpt lat="42.376738" lon="13.1077686"><ele>1146.0</ele><time>2026-04-26T10:04:48.864Z</time></trkpt><trkpt lat="42.3767108" lon="13.1078506"><ele>1145.1666666666667</ele><time>2026-04-26T10:04:49.858Z</time></trkpt><trkpt lat="42.3766809" lon="13.1079335"><ele>1144.3333333333333</ele><time>2026-04-26T10:04:50.861Z</time></trkpt><trkpt lat="42.3766554" lon="13.1080159"><ele>1143.5</ele><time>2026-04-26T10:04:51.868Z</time></trkpt><trkpt lat="42.3766294" lon="13.1081531"><ele>1142.6666666666665</ele><time>2026-04-26T10:04:53.875Z</time></trkpt><trkpt lat="42.3766078" lon="13.10828"><ele>1141.8333333333333</ele><time>2026-04-26T10:04:55.87Z</time></trkpt><trkpt lat="42.3766155" lon="13.108424"><ele>1141.0</ele><time>2026-04-26T10:04:57.882Z</time></trkpt><trkpt lat="42.3766275" lon="13.1085744"><ele>1140.2</ele><time>2026-04-26T10:04:59.874Z</time></trkpt><trkpt lat="42.3766374" lon="13.1087187"><ele>1139.3999999999999</ele><time>2026-04-26T10:05:01.87Z</time></trkpt><trkpt lat="42.3766446" lon="13.1088777"><ele>1138.6</ele><time>2026-04-26T10:05:03.913Z</time></trkpt><trkpt lat="42.3766338" lon="13.1090273"><ele>1137.8</ele><time>2026-04-26T10:05:05.864Z</time></trkpt><trkpt lat="42.3766222" lon="13.1091643"><ele>1137.0</ele><time>2026-04-26T10:05:07.865Z</time></trkpt><trkpt lat="42.3766042" lon="13.1093274"><ele>1136.4</ele><time>2026-04-26T10:05:09.871Z</time></trkpt><trkpt lat="42.3765855" lon="13.1094102"><ele>1135.8000000000002</ele><time>2026-04-26T10:05:10.873Z</time></trkpt><trkpt lat="42.376556" lon="13.1094864"><ele>1135.2</ele><time>2026-04-26T10:05:11.878Z</time></trkpt><trkpt lat="42.3765084" lon="13.1096387"><ele>1134.6000000000001</ele><time>2026-04-26T10:05:13.88Z</time></trkpt><trkpt lat="42.3764845" lon="13.1097889"><ele>1134.0</ele><time>2026-04-26T10:05:15.869Z</time></trkpt><trkpt lat="42.3764751" lon="13.1099504"><ele>1133.2</ele><time>2026-04-26T10:05:17.873Z</time></trkpt><trkpt lat="42.3764826" lon="13.1101067"><ele>1132.4</ele><time>2026-04-26T10:05:19.871Z</time></trkpt><trkpt lat="42.376525" lon="13.1102592"><ele>1131.6</ele><time>2026-04-26T10:05:21.872Z</time></trkpt><trkpt lat="42.3765679" lon="13.1103912"><ele>1130.8</ele><time>2026-04-26T10:05:23.872Z</time></trkpt><trkpt lat="42.3766178" lon="13.1105083"><ele>1130.0</ele><time>2026-04-26T10:05:25.876Z</time></trkpt><trkpt lat="42.3767062" lon="13.1105739"><ele>1130.0</ele><time>2026-04-26T10:05:27.887Z</time></trkpt><trkpt lat="42.3768083" lon="13.1106111"><ele>1130.0</ele><time>2026-04-26T10:05:29.898Z</time></trkpt><trkpt lat="42.3769072" lon="13.1106203"><ele>1130.0</ele><time>2026-04-26T10:05:31.87Z</time></trkpt><trkpt lat="42.3769712" lon="13.1106033"><ele>1130.0</ele><time>2026-04-26T10:05:32.865Z</time></trkpt><trkpt lat="42.3770849" lon="13.1106313"><ele>1130.0</ele><time>2026-04-26T10:05:34.892Z</time></trkpt><trkpt lat="42.3771856" lon="13.1106694"><ele>1129.4</ele><time>2026-04-26T10:05:36.898Z</time></trkpt><trkpt lat="42.377304" lon="13.1106903"><ele>1128.8</ele><time>2026-04-26T10:05:38.868Z</time></trkpt><trkpt lat="42.3774276" lon="13.1107285"><ele>1128.2</ele><time>2026-04-26T10:05:40.874Z</time></trkpt><trkpt lat="42.3774867" lon="13.1107736"><ele>1127.6</ele><time>2026-04-26T10:05:41.872Z</time></trkpt><trkpt lat="42.3775403" lon="13.1108318"><ele>1127.0</ele><time>2026-04-26T10:05:42.921Z</time></trkpt><trkpt lat="42.3775971" lon="13.1108883"><ele>1127.0</ele><time>2026-04-26T10:05:43.871Z</time></trkpt><trkpt lat="42.377655" lon="13.1109397"><ele>1127.0</ele><time>2026-04-26T10:05:44.871Z</time></trkpt><trkpt lat="42.3777127" lon="13.1109926"><ele>1127.0</ele><time>2026-04-26T10:05:45.871Z</time></trkpt><trkpt lat="42.3777602" lon="13.1110504"><ele>1127.0</ele><time>2026-04-26T10:05:46.875Z</time></trkpt><trkpt lat="42.3777964" lon="13.1111327"><ele>1127.0</ele><time>2026-04-26T10:05:47.896Z</time></trkpt><trkpt lat="42.37784" lon="13.1112263"><ele>1127.0</ele><time>2026-04-26T10:05:48.874Z</time></trkpt><trkpt lat="42.3778919" lon="13.1113229"><ele>1127.0</ele><time>2026-04-26T10:05:49.875Z</time></trkpt><trkpt lat="42.3779383" lon="13.11142"><ele>1127.0</ele><time>2026-04-26T10:05:50.878Z</time></trkpt><trkpt lat="42.3779896" lon="13.1115158"><ele>1127.0</ele><time>2026-04-26T10:05:51.878Z</time></trkpt><trkpt lat="42.3780423" lon="13.1116065"><ele>1127.0</ele><time>2026-04-26T10:05:52.875Z</time></trkpt><trkpt lat="42.3781045" lon="13.1116938"><ele>1127.0</ele><time>2026-04-26T10:05:53.871Z</time></trkpt><trkpt lat="42.3781572" lon="13.1117764"><ele>1127.0</ele><time>2026-04-26T10:05:54.875Z</time></trkpt><trkpt lat="42.3782078" lon="13.1118629"><ele>1127.0</ele><time>2026-04-26T10:05:55.875Z</time></trkpt><trkpt lat="42.3782441" lon="13.1119613"><ele>1127.8333333333335</ele><time>2026-04-26T10:05:56.866Z</time></trkpt><trkpt lat="42.3782892" lon="13.1120545"><ele>1128.6666666666667</ele><time>2026-04-26T10:05:57.88Z</time></trkpt><trkpt lat="42.3783287" lon="13.1121483"><ele>1129.5</ele><time>2026-04-26T10:05:58.87Z</time></trkpt><trkpt lat="42.3783675" lon="13.1122524"><ele>1130.3333333333333</ele><time>2026-04-26T10:05:59.9Z</time></trkpt><trkpt lat="42.3784033" lon="13.1123487"><ele>1131.1666666666665</ele><time>2026-04-26T10:06:00.857Z</time></trkpt><trkpt lat="42.3784372" lon="13.112442"><ele>1132.0</ele><time>2026-04-26T10:06:01.871Z</time></trkpt><trkpt lat="42.3784734" lon="13.1125262"><ele>1129.8333333333333</ele><time>2026-04-26T10:06:02.864Z</time></trkpt><trkpt lat="42.3785093" lon="13.1126051"><ele>1127.6666666666665</ele><time>2026-04-26T10:06:03.877Z</time></trkpt><trkpt lat="42.3785422" lon="13.1126922"><ele>1125.5</ele><time>2026-04-26T10:06:04.863Z</time></trkpt><trkpt lat="42.3785753" lon="13.1127716"><ele>1123.3333333333333</ele><time>2026-04-26T10:06:05.878Z</time></trkpt><trkpt lat="42.378625" lon="13.1129078"><ele>1121.1666666666667</ele><time>2026-04-26T10:06:07.868Z</time></trkpt><trkpt lat="42.3786516" lon="13.1130152"><ele>1119.0</ele><time>2026-04-26T10:06:09.874Z</time></trkpt><trkpt lat="42.3786682" lon="13.1131102"><ele>1119.0</ele><time>2026-04-26T10:06:50.872Z</time></trkpt><trkpt lat="42.3786862" lon="13.1131991"><ele>1119.0</ele><time>2026-04-26T10:06:52.866Z</time></trkpt><trkpt lat="42.3786953" lon="13.1133461"><ele>1119.0</ele><time>2026-04-26T10:06:54.873Z</time></trkpt><trkpt lat="42.3787078" lon="13.1134713"><ele>1119.0</ele><time>2026-04-26T10:06:56.906Z</time></trkpt><trkpt lat="42.3787346" lon="13.1136189"><ele>1119.0</ele><time>2026-04-26T10:06:58.876Z</time></trkpt><trkpt lat="42.378762" lon="13.1137686"><ele>1119.4</ele><time>2026-04-26T10:07:00.87Z</time></trkpt><trkpt lat="42.3788063" lon="13.1138981"><ele>1119.8000000000002</ele><time>2026-04-26T10:07:02.883Z</time></trkpt><trkpt lat="42.3788485" lon="13.1140526"><ele>1120.1999999999998</ele><time>2026-04-26T10:07:04.901Z</time></trkpt><trkpt lat="42.3788734" lon="13.1141553"><ele>1120.6</ele><time>2026-04-26T10:07:05.867Z</time></trkpt><trkpt lat="42.378907" lon="13.1142723"><ele>1121.0</ele><time>2026-04-26T10:07:06.872Z</time></trkpt><trkpt lat="42.3789402" lon="13.114384"><ele>1121.0</ele><time>2026-04-26T10:07:07.863Z</time></trkpt><trkpt lat="42.3789726" lon="13.1144836"><ele>1121.0</ele><time>2026-04-26T10:07:08.867Z</time></trkpt><trkpt lat="42.3789896" lon="13.1145889"><ele>1121.0</ele><time>2026-04-26T10:07:09.869Z</time></trkpt><trkpt lat="42.3789936" lon="13.1146878"><ele>1121.0</ele><time>2026-04-26T10:07:10.867Z</time></trkpt><trkpt lat="42.3789823" lon="13.1148"><ele>1121.0</ele><time>2026-04-26T10:07:11.87Z</time></trkpt><trkpt lat="42.3789678" lon="13.1149053"><ele>1121.0</ele><time>2026-04-26T10:07:12.92Z</time></trkpt><trkpt lat="42.3789508" lon="13.1150093"><ele>1120.8333333333335</ele><time>2026-04-26T10:07:13.878Z</time></trkpt><trkpt lat="42.3789407" lon="13.1151191"><ele>1120.6666666666667</ele><time>2026-04-26T10:07:14.864Z</time></trkpt><trkpt lat="42.378935" lon="13.1152334"><ele>1120.5</ele><time>2026-04-26T10:07:15.863Z</time></trkpt><trkpt lat="42.3789295" lon="13.1153543"><ele>1120.3333333333333</ele><time>2026-04-26T10:07:16.864Z</time></trkpt><trkpt lat="42.3789314" lon="13.1154736"><ele>1120.1666666666665</ele><time>2026-04-26T10:07:17.88Z</time></trkpt><trkpt lat="42.3789441" lon="13.1155786"><ele>1120.0</ele><time>2026-04-26T10:07:18.866Z</time></trkpt><trkpt lat="42.3789659" lon="13.1156695"><ele>1119.3333333333333</ele><time>2026-04-26T10:07:19.856Z</time></trkpt><trkpt lat="42.379001" lon="13.1157542"><ele>1118.6666666666665</ele><time>2026-04-26T10:07:20.862Z</time></trkpt><trkpt lat="42.3790945" lon="13.1158688"><ele>1118.0</ele><time>2026-04-26T10:07:22.913Z</time></trkpt><trkpt lat="42.3791546" lon="13.1159121"><ele>1117.3333333333333</ele><time>2026-04-26T10:07:23.879Z</time></trkpt><trkpt lat="42.379217" lon="13.1159523"><ele>1116.6666666666667</ele><time>2026-04-26T10:07:24.869Z</time></trkpt><trkpt lat="42.3792754" lon="13.1160059"><ele>1116.0</ele><time>2026-04-26T10:07:25.872Z</time></trkpt><trkpt lat="42.3793344" lon="13.1160642"><ele>1116.0</ele><time>2026-04-26T10:07:26.868Z</time></trkpt><trkpt lat="42.3793923" lon="13.1161312"><ele>1116.0</ele><time>2026-04-26T10:07:27.875Z</time></trkpt><trkpt lat="42.3794501" lon="13.1162039"><ele>1116.0</ele><time>2026-04-26T10:07:28.883Z</time></trkpt><trkpt lat="42.3795057" lon="13.1162889"><ele>1116.0</ele><time>2026-04-26T10:07:29.871Z</time></trkpt><trkpt lat="42.3795571" lon="13.1163797"><ele>1116.0</ele><time>2026-04-26T10:07:30.879Z</time></trkpt><trkpt lat="42.3796074" lon="13.1164709"><ele>1116.0</ele><time>2026-04-26T10:07:31.863Z</time></trkpt><trkpt lat="42.3796461" lon="13.1165511"><ele>1115.5</ele><time>2026-04-26T10:07:32.88Z</time></trkpt><trkpt lat="42.3796763" lon="13.1166382"><ele>1115.0</ele><time>2026-04-26T10:07:33.864Z</time></trkpt><trkpt lat="42.3796986" lon="13.1167259"><ele>1114.5</ele><time>2026-04-26T10:07:34.868Z</time></trkpt><trkpt lat="42.3796937" lon="13.1168546"><ele>1114.0</ele><time>2026-04-26T10:07:36.866Z</time></trkpt><trkpt lat="42.3796632" lon="13.1169428"><ele>1113.5</ele><time>2026-04-26T10:07:52.861Z</time></trkpt><trkpt lat="42.3796147" lon="13.1170489"><ele>1113.0</ele><time>2026-04-26T10:07:54.864Z</time></trkpt><trkpt lat="42.3795806" lon="13.1171223"><ele>1113.0</ele><time>2026-04-26T10:07:55.871Z</time></trkpt><trkpt lat="42.3795263" lon="13.117271"><ele>1113.0</ele><time>2026-04-26T10:07:57.866Z</time></trkpt><trkpt lat="42.3794829" lon="13.117352"><ele>1113.0</ele><time>2026-04-26T10:07:58.867Z</time></trkpt><trkpt lat="42.3794331" lon="13.117447"><ele>1113.0</ele><time>2026-04-26T10:07:59.858Z</time></trkpt><trkpt lat="42.3793725" lon="13.1175439"><ele>1113.0</ele><time>2026-04-26T10:08:00.867Z</time></trkpt><trkpt lat="42.3793243" lon="13.1176361"><ele>1114.3333333333333</ele><time>2026-04-26T10:08:01.861Z</time></trkpt><trkpt lat="42.3792769" lon="13.1177212"><ele>1115.6666666666667</ele><time>2026-04-26T10:08:02.868Z</time></trkpt><trkpt lat="42.3792217" lon="13.1178075"><ele>1117.0</ele><time>2026-04-26T10:08:03.86Z</time></trkpt><trkpt lat="42.3791565" lon="13.1178769"><ele>1118.3333333333335</ele><time>2026-04-26T10:08:04.864Z</time></trkpt><trkpt lat="42.3790902" lon="13.117946"><ele>1119.6666666666667</ele><time>2026-04-26T10:08:05.865Z</time></trkpt><trkpt lat="42.3790386" lon="13.1180193"><ele>1121.0</ele><time>2026-04-26T10:08:06.867Z</time></trkpt><trkpt lat="42.3789998" lon="13.1181091"><ele>1121.0</ele><time>2026-04-26T10:08:07.868Z</time></trkpt><trkpt lat="42.3789669" lon="13.1182092"><ele>1121.0</ele><time>2026-04-26T10:08:08.894Z</time></trkpt><trkpt lat="42.3789376" lon="13.1183298"><ele>1121.0</ele><time>2026-04-26T10:08:09.867Z</time></trkpt><trkpt lat="42.3789054" lon="13.1184686"><ele>1121.0</ele><time>2026-04-26T10:08:10.872Z</time></trkpt><trkpt lat="42.3788876" lon="13.1186198"><ele>1121.0</ele><time>2026-04-26T10:08:11.865Z</time></trkpt><trkpt lat="42.378865" lon="13.1187738"><ele>1120.0</ele><time>2026-04-26T10:08:12.866Z</time></trkpt><trkpt lat="42.3788371" lon="13.1189457"><ele>1119.0</ele><time>2026-04-26T10:08:13.866Z</time></trkpt><trkpt lat="42.3788084" lon="13.1191222"><ele>1118.0</ele><time>2026-04-26T10:08:14.859Z</time></trkpt><trkpt lat="42.3787835" lon="13.1192878"><ele>1117.0</ele><time>2026-04-26T10:08:15.869Z</time></trkpt><trkpt lat="42.3787607" lon="13.1194491"><ele>1117.0</ele><time>2026-04-26T10:08:16.855Z</time></trkpt><trkpt lat="42.3787397" lon="13.1196024"><ele>1117.0</ele><time>2026-04-26T10:08:17.89Z</time></trkpt><trkpt lat="42.378721" lon="13.1197521"><ele>1117.0</ele><time>2026-04-26T10:08:18.858Z</time></trkpt><trkpt lat="42.3787065" lon="13.1198993"><ele>1117.0</ele><time>2026-04-26T10:08:19.863Z</time></trkpt><trkpt lat="42.3786887" lon="13.120044"><ele>1117.0</ele><time>2026-04-26T10:08:20.867Z</time></trkpt><trkpt lat="42.3786703" lon="13.1201795"><ele>1116.0</ele><time>2026-04-26T10:08:21.875Z</time></trkpt><trkpt lat="42.37865" lon="13.120306"><ele>1115.0</ele><time>2026-04-26T10:08:22.87Z</time></trkpt><trkpt lat="42.3786349" lon="13.1204343"><ele>1114.0</ele><time>2026-04-26T10:08:23.887Z</time></trkpt><trkpt lat="42.3786187" lon="13.1205727"><ele>1113.0</ele><time>2026-04-26T10:08:24.866Z</time></trkpt><trkpt lat="42.3786063" lon="13.1207094"><ele>1112.0</ele><time>2026-04-26T10:08:25.865Z</time></trkpt><trkpt lat="42.3785928" lon="13.1208455"><ele>1111.2</ele><time>2026-04-26T10:08:26.867Z</time></trkpt><trkpt lat="42.3785804" lon="13.1209845"><ele>1110.4</ele><time>2026-04-26T10:08:27.882Z</time></trkpt><trkpt lat="42.3785719" lon="13.121114"><ele>1109.6</ele><time>2026-04-26T10:08:28.869Z</time></trkpt><trkpt lat="42.3785583" lon="13.1212375"><ele>1108.8</ele><time>2026-04-26T10:08:29.897Z</time></trkpt><trkpt lat="42.3785486" lon="13.1213549"><ele>1108.0</ele><time>2026-04-26T10:08:30.865Z</time></trkpt><trkpt lat="42.378542" lon="13.1214724"><ele>1107.4</ele><time>2026-04-26T10:08:31.865Z</time></trkpt><trkpt lat="42.3785332" lon="13.1215888"><ele>1106.8</ele><time>2026-04-26T10:08:32.871Z</time></trkpt><trkpt lat="42.3785194" lon="13.1217234"><ele>1106.2</ele><time>2026-04-26T10:08:33.868Z</time></trkpt><trkpt lat="42.378506" lon="13.1218796"><ele>1105.6</ele><time>2026-04-26T10:08:34.867Z</time></trkpt><trkpt lat="42.3784734" lon="13.1220507"><ele>1105.0</ele><time>2026-04-26T10:08:35.887Z</time></trkpt><trkpt lat="42.3784421" lon="13.1222211"><ele>1105.0</ele><time>2026-04-26T10:08:36.861Z</time></trkpt><trkpt lat="42.3784106" lon="13.1223908"><ele>1105.0</ele><time>2026-04-26T10:08:37.869Z</time></trkpt><trkpt lat="42.3783792" lon="13.1225461"><ele>1105.0</ele><time>2026-04-26T10:08:38.871Z</time></trkpt><trkpt lat="42.3783476" lon="13.1226796"><ele>1105.0</ele><time>2026-04-26T10:08:39.866Z</time></trkpt><trkpt lat="42.3783219" lon="13.1227792"><ele>1105.0</ele><time>2026-04-26T10:08:40.886Z</time></trkpt><trkpt lat="42.3783011" lon="13.1228691"><ele>1105.6</ele><time>2026-04-26T10:08:41.87Z</time></trkpt><trkpt lat="42.3782859" lon="13.1229772"><ele>1106.2</ele><time>2026-04-26T10:08:42.87Z</time></trkpt><trkpt lat="42.378267" lon="13.1231166"><ele>1106.8</ele><time>2026-04-26T10:08:43.861Z</time></trkpt><trkpt lat="42.3782407" lon="13.1232601"><ele>1107.4</ele><time>2026-04-26T10:08:44.872Z</time></trkpt><trkpt lat="42.3782082" lon="13.1233951"><ele>1108.0</ele><time>2026-04-26T10:08:45.866Z</time></trkpt><trkpt lat="42.3781667" lon="13.1235472"><ele>1107.25</ele><time>2026-04-26T10:08:46.876Z</time></trkpt><trkpt lat="42.3781339" lon="13.123701"><ele>1106.5</ele><time>2026-04-26T10:08:47.892Z</time></trkpt><trkpt lat="42.3780924" lon="13.1238541"><ele>1105.75</ele><time>2026-04-26T10:08:48.865Z</time></trkpt><trkpt lat="42.3780425" lon="13.1240005"><ele>1105.0</ele><time>2026-04-26T10:08:49.865Z</time></trkpt><trkpt lat="42.3779996" lon="13.1241275"><ele>1105.0</ele><time>2026-04-26T10:08:50.863Z</time></trkpt><trkpt lat="42.3779577" lon="13.124241"><ele>1105.0</ele><time>2026-04-26T10:08:51.871Z</time></trkpt><trkpt lat="42.3779201" lon="13.1243487"><ele>1105.0</ele><time>2026-04-26T10:08:52.871Z</time></trkpt><trkpt lat="42.3778837" lon="13.1244481"><ele>1105.0</ele><time>2026-04-26T10:08:53.905Z</time></trkpt><trkpt lat="42.3778412" lon="13.1245635"><ele>1105.0</ele><time>2026-04-26T10:08:54.87Z</time></trkpt><trkpt lat="42.3777936" lon="13.1246973"><ele>1105.0</ele><time>2026-04-26T10:08:55.897Z</time></trkpt><trkpt lat="42.3777428" lon="13.1248374"><ele>1105.0</ele><time>2026-04-26T10:08:56.909Z</time></trkpt><trkpt lat="42.3776921" lon="13.1249755"><ele>1105.0</ele><time>2026-04-26T10:08:57.858Z</time></trkpt><trkpt lat="42.3776422" lon="13.125101"><ele>1105.0</ele><time>2026-04-26T10:08:58.876Z</time></trkpt><trkpt lat="42.3775993" lon="13.125216"><ele>1105.0</ele><time>2026-04-26T10:08:59.878Z</time></trkpt><trkpt lat="42.3775569" lon="13.1253347"><ele>1105.0</ele><time>2026-04-26T10:09:00.87Z</time></trkpt><trkpt lat="42.3775214" lon="13.1254512"><ele>1105.0</ele><time>2026-04-26T10:09:01.88Z</time></trkpt><trkpt lat="42.3774874" lon="13.1255595"><ele>1105.0</ele><time>2026-04-26T10:09:02.859Z</time></trkpt><trkpt lat="42.3774584" lon="13.1256678"><ele>1105.0</ele><time>2026-04-26T10:09:03.871Z</time></trkpt><trkpt lat="42.3774415" lon="13.1257803"><ele>1105.0</ele><time>2026-04-26T10:09:04.862Z</time></trkpt><trkpt lat="42.3774322" lon="13.1258916"><ele>1105.0</ele><time>2026-04-26T10:09:05.866Z</time></trkpt><trkpt lat="42.3774285" lon="13.1260035"><ele>1105.0</ele><time>2026-04-26T10:09:06.861Z</time></trkpt><trkpt lat="42.3774352" lon="13.1261237"><ele>1105.0</ele><time>2026-04-26T10:09:07.862Z</time></trkpt><trkpt lat="42.3774455" lon="13.1262552"><ele>1105.0</ele><time>2026-04-26T10:09:08.87Z</time></trkpt><trkpt lat="42.3774559" lon="13.1263793"><ele>1105.0</ele><time>2026-04-26T10:09:09.867Z</time></trkpt><trkpt lat="42.3774587" lon="13.126497"><ele>1105.0</ele><time>2026-04-26T10:09:10.915Z</time></trkpt><trkpt lat="42.3774595" lon="13.1266014"><ele>1105.0</ele><time>2026-04-26T10:09:11.872Z</time></trkpt><trkpt lat="42.3774603" lon="13.1267042"><ele>1104.8</ele><time>2026-04-26T10:09:12.872Z</time></trkpt><trkpt lat="42.377454" lon="13.1268287"><ele>1104.6</ele><time>2026-04-26T10:09:13.871Z</time></trkpt><trkpt lat="42.3774293" lon="13.1269776"><ele>1104.4</ele><time>2026-04-26T10:09:14.869Z</time></trkpt><trkpt lat="42.3774003" lon="13.1271296"><ele>1104.2</ele><time>2026-04-26T10:09:15.865Z</time></trkpt><trkpt lat="42.3773697" lon="13.1272835"><ele>1104.0</ele><time>2026-04-26T10:09:16.878Z</time></trkpt><trkpt lat="42.377343" lon="13.1274373"><ele>1104.4</ele><time>2026-04-26T10:09:17.863Z</time></trkpt><trkpt lat="42.3773268" lon="13.1275948"><ele>1104.8000000000002</ele><time>2026-04-26T10:09:18.866Z</time></trkpt><trkpt lat="42.3773058" lon="13.127743"><ele>1105.1999999999998</ele><time>2026-04-26T10:09:19.869Z</time></trkpt><trkpt lat="42.3772869" lon="13.127885"><ele>1105.6</ele><time>2026-04-26T10:09:20.862Z</time></trkpt><trkpt lat="42.3772694" lon="13.1280152"><ele>1106.0</ele><time>2026-04-26T10:09:21.998Z</time></trkpt><trkpt lat="42.3772641" lon="13.1282339"><ele>1106.0</ele><time>2026-04-26T10:09:23.859Z</time></trkpt><trkpt lat="42.3772781" lon="13.1283334"><ele>1106.0</ele><time>2026-04-26T10:09:24.872Z</time></trkpt><trkpt lat="42.3773056" lon="13.1284392"><ele>1106.0</ele><time>2026-04-26T10:09:25.872Z</time></trkpt><trkpt lat="42.3773402" lon="13.1285387"><ele>1106.0</ele><time>2026-04-26T10:09:26.861Z</time></trkpt><trkpt lat="42.377384" lon="13.1286403"><ele>1106.0</ele><time>2026-04-26T10:09:27.866Z</time></trkpt><trkpt lat="42.3774284" lon="13.1287511"><ele>1106.0</ele><time>2026-04-26T10:09:28.872Z</time></trkpt><trkpt lat="42.3774601" lon="13.1288532"><ele>1106.0</ele><time>2026-04-26T10:09:29.864Z</time></trkpt><trkpt lat="42.3774874" lon="13.1289477"><ele>1106.0</ele><time>2026-04-26T10:09:30.873Z</time></trkpt><trkpt lat="42.3774958" lon="13.1290344"><ele>1106.0</ele><time>2026-04-26T10:09:31.876Z</time></trkpt><trkpt lat="42.3774825" lon="13.1291773"><ele>1106.0</ele><time>2026-04-26T10:09:33.861Z</time></trkpt><trkpt lat="42.3774586" lon="13.129258"><ele>1106.0</ele><time>2026-04-26T10:09:34.862Z</time></trkpt><trkpt lat="42.3774232" lon="13.1293379"><ele>1106.0</ele><time>2026-04-26T10:09:35.873Z</time></trkpt><trkpt lat="42.3773834" lon="13.1294107"><ele>1106.0</ele><time>2026-04-26T10:09:36.873Z</time></trkpt><trkpt lat="42.3773381" lon="13.1294743"><ele>1105.1666666666667</ele><time>2026-04-26T10:09:37.868Z</time></trkpt><trkpt lat="42.3772911" lon="13.1295327"><ele>1104.3333333333335</ele><time>2026-04-26T10:09:38.864Z</time></trkpt><trkpt lat="42.3772383" lon="13.129585"><ele>1103.5</ele><time>2026-04-26T10:09:39.868Z</time></trkpt><trkpt lat="42.3771709" lon="13.1296334"><ele>1102.6666666666667</ele><time>2026-04-26T10:09:40.868Z</time></trkpt><trkpt lat="42.37711" lon="13.1296962"><ele>1101.8333333333333</ele><time>2026-04-26T10:09:41.866Z</time></trkpt><trkpt lat="42.3770466" lon="13.1297773"><ele>1101.0</ele><time>2026-04-26T10:09:42.872Z</time></trkpt><trkpt lat="42.3769804" lon="13.12987"><ele>1103.3333333333333</ele><time>2026-04-26T10:09:43.896Z</time></trkpt><trkpt lat="42.3769153" lon="13.1299638"><ele>1105.6666666666667</ele><time>2026-04-26T10:09:44.866Z</time></trkpt><trkpt lat="42.3768511" lon="13.1300577"><ele>1108.0</ele><time>2026-04-26T10:09:45.859Z</time></trkpt><trkpt lat="42.3767896" lon="13.1301598"><ele>1110.3333333333335</ele><time>2026-04-26T10:09:46.872Z</time></trkpt><trkpt lat="42.3767501" lon="13.1302553"><ele>1112.6666666666667</ele><time>2026-04-26T10:09:47.872Z</time></trkpt><trkpt lat="42.3767221" lon="13.1303525"><ele>1115.0</ele><time>2026-04-26T10:09:48.891Z</time></trkpt><trkpt lat="42.3767027" lon="13.1304698"><ele>1115.0</ele><time>2026-04-26T10:09:49.878Z</time></trkpt><trkpt lat="42.3766944" lon="13.1305963"><ele>1115.0</ele><time>2026-04-26T10:09:50.865Z</time></trkpt><trkpt lat="42.3766828" lon="13.1307374"><ele>1115.0</ele><time>2026-04-26T10:09:51.871Z</time></trkpt><trkpt lat="42.3766718" lon="13.1308836"><ele>1115.0</ele><time>2026-04-26T10:09:52.88Z</time></trkpt><trkpt lat="42.3766588" lon="13.1310278"><ele>1115.0</ele><time>2026-04-26T10:09:53.883Z</time></trkpt><trkpt lat="42.3766446" lon="13.1311601"><ele>1116.4</ele><time>2026-04-26T10:09:54.878Z</time></trkpt><trkpt lat="42.3766233" lon="13.1312905"><ele>1117.8</ele><time>2026-04-26T10:09:55.865Z</time></trkpt><trkpt lat="42.3766052" lon="13.1314286"><ele>1119.2</ele><time>2026-04-26T10:09:56.868Z</time></trkpt><trkpt lat="42.3765789" lon="13.1315646"><ele>1120.6</ele><time>2026-04-26T10:09:57.878Z</time></trkpt><trkpt lat="42.376556" lon="13.1317011"><ele>1122.0</ele><time>2026-04-26T10:09:58.903Z</time></trkpt><trkpt lat="42.3765279" lon="13.1318466"><ele>1123.6</ele><time>2026-04-26T10:09:59.899Z</time></trkpt><trkpt lat="42.3764931" lon="13.1319774"><ele>1125.2</ele><time>2026-04-26T10:10:00.89Z</time></trkpt><trkpt lat="42.3764618" lon="13.1320951"><ele>1126.8</ele><time>2026-04-26T10:10:01.866Z</time></trkpt><trkpt lat="42.3764365" lon="13.1322171"><ele>1128.4</ele><time>2026-04-26T10:10:02.875Z</time></trkpt><trkpt lat="42.3764101" lon="13.1323293"><ele>1130.0</ele><time>2026-04-26T10:10:03.871Z</time></trkpt><trkpt lat="42.3763776" lon="13.1324366"><ele>1131.0</ele><time>2026-04-26T10:10:04.866Z</time></trkpt><trkpt lat="42.3763309" lon="13.1325414"><ele>1132.0</ele><time>2026-04-26T10:10:05.868Z</time></trkpt><trkpt lat="42.3762841" lon="13.1326408"><ele>1133.0</ele><time>2026-04-26T10:10:06.864Z</time></trkpt><trkpt lat="42.3762369" lon="13.1327422"><ele>1134.0</ele><time>2026-04-26T10:10:07.891Z</time></trkpt><trkpt lat="42.3761914" lon="13.1328388"><ele>1135.0</ele><time>2026-04-26T10:10:08.859Z</time></trkpt><trkpt lat="42.3761438" lon="13.1329293"><ele>1136.0</ele><time>2026-04-26T10:10:09.871Z</time></trkpt><trkpt lat="42.3760969" lon="13.1330176"><ele>1136.0</ele><time>2026-04-26T10:10:10.863Z</time></trkpt><trkpt lat="42.3760447" lon="13.1331085"><ele>1136.0</ele><time>2026-04-26T10:10:11.903Z</time></trkpt><trkpt lat="42.3760083" lon="13.1331998"><ele>1136.0</ele><time>2026-04-26T10:10:12.868Z</time></trkpt><trkpt lat="42.3759561" lon="13.1332851"><ele>1136.0</ele><time>2026-04-26T10:10:13.863Z</time></trkpt><trkpt lat="42.3759041" lon="13.1333711"><ele>1136.0</ele><time>2026-04-26T10:10:14.864Z</time></trkpt><trkpt lat="42.3758544" lon="13.1334601"><ele>1136.0</ele><time>2026-04-26T10:10:15.873Z</time></trkpt><trkpt lat="42.3758104" lon="13.1335368"><ele>1136.5</ele><time>2026-04-26T10:10:16.873Z</time></trkpt><trkpt lat="42.3757705" lon="13.1336169"><ele>1137.0</ele><time>2026-04-26T10:10:17.875Z</time></trkpt><trkpt lat="42.3757303" lon="13.1337161"><ele>1137.5</ele><time>2026-04-26T10:10:18.862Z</time></trkpt><trkpt lat="42.3756915" lon="13.1338182"><ele>1138.0</ele><time>2026-04-26T10:10:19.88Z</time></trkpt><trkpt lat="42.3756728" lon="13.1339231"><ele>1138.5</ele><time>2026-04-26T10:10:20.87Z</time></trkpt><trkpt lat="42.3756511" lon="13.1340397"><ele>1139.0</ele><time>2026-04-26T10:10:21.859Z</time></trkpt><trkpt lat="42.3756345" lon="13.1341435"><ele>1141.1666666666667</ele><time>2026-04-26T10:10:22.88Z</time></trkpt><trkpt lat="42.3756237" lon="13.1342452"><ele>1143.3333333333335</ele><time>2026-04-26T10:10:23.873Z</time></trkpt><trkpt lat="42.3756073" lon="13.1343663"><ele>1145.5</ele><time>2026-04-26T10:10:24.869Z</time></trkpt><trkpt lat="42.3755939" lon="13.1344954"><ele>1147.6666666666667</ele><time>2026-04-26T10:10:25.867Z</time></trkpt><trkpt lat="42.3755957" lon="13.1346152"><ele>1149.8333333333333</ele><time>2026-04-26T10:10:26.866Z</time></trkpt><trkpt lat="42.3756134" lon="13.1347217"><ele>1152.0</ele><time>2026-04-26T10:10:27.874Z</time></trkpt><trkpt lat="42.3756285" lon="13.1348397"><ele>1153.6666666666667</ele><time>2026-04-26T10:10:28.866Z</time></trkpt><trkpt lat="42.3756391" lon="13.1349548"><ele>1155.3333333333333</ele><time>2026-04-26T10:10:29.883Z</time></trkpt><trkpt lat="42.375645" lon="13.1350637"><ele>1157.0</ele><time>2026-04-26T10:10:30.866Z</time></trkpt><trkpt lat="42.3756506" lon="13.1351526"><ele>1158.6666666666665</ele><time>2026-04-26T10:10:31.868Z</time></trkpt><trkpt lat="42.3756648" lon="13.1353266"><ele>1160.3333333333333</ele><time>2026-04-26T10:10:33.859Z</time></trkpt><trkpt lat="42.3756698" lon="13.1354224"><ele>1162.0</ele><time>2026-04-26T10:10:34.871Z</time></trkpt><trkpt lat="42.3756746" lon="13.1355143"><ele>1162.0</ele><time>2026-04-26T10:10:35.87Z</time></trkpt><trkpt lat="42.3756769" lon="13.1356161"><ele>1162.0</ele><time>2026-04-26T10:10:36.887Z</time></trkpt><trkpt lat="42.3756814" lon="13.1357186"><ele>1162.0</ele><time>2026-04-26T10:10:37.867Z</time></trkpt><trkpt lat="42.3756871" lon="13.1358181"><ele>1162.0</ele><time>2026-04-26T10:10:38.861Z</time></trkpt><trkpt lat="42.3756876" lon="13.1359146"><ele>1162.0</ele><time>2026-04-26T10:10:39.871Z</time></trkpt><trkpt lat="42.3756906" lon="13.1360208"><ele>1162.0</ele><time>2026-04-26T10:10:40.912Z</time></trkpt><trkpt lat="42.3756933" lon="13.1361165"><ele>1162.0</ele><time>2026-04-26T10:10:41.868Z</time></trkpt><trkpt lat="42.3757114" lon="13.1362005"><ele>1162.3333333333333</ele><time>2026-04-26T10:10:42.877Z</time></trkpt><trkpt lat="42.3757454" lon="13.136284"><ele>1162.6666666666665</ele><time>2026-04-26T10:10:43.867Z</time></trkpt><trkpt lat="42.3757921" lon="13.1363636"><ele>1163.0</ele><time>2026-04-26T10:10:44.856Z</time></trkpt><trkpt lat="42.3758522" lon="13.1364465"><ele>1163.3333333333333</ele><time>2026-04-26T10:10:45.871Z</time></trkpt><trkpt lat="42.3759217" lon="13.1365154"><ele>1163.6666666666667</ele><time>2026-04-26T10:10:46.872Z</time></trkpt><trkpt lat="42.376" lon="13.1365857"><ele>1164.0</ele><time>2026-04-26T10:10:47.875Z</time></trkpt><trkpt lat="42.3760774" lon="13.1366475"><ele>1164.0</ele><time>2026-04-26T10:10:48.871Z</time></trkpt><trkpt lat="42.376153" lon="13.1367009"><ele>1164.0</ele><time>2026-04-26T10:10:49.887Z</time></trkpt><trkpt lat="42.376226" lon="13.1367388"><ele>1164.0</ele><time>2026-04-26T10:10:50.907Z</time></trkpt><trkpt lat="42.3762992" lon="13.1367678"><ele>1164.0</ele><time>2026-04-26T10:10:51.869Z</time></trkpt><trkpt lat="42.3763659" lon="13.1367902"><ele>1164.0</ele><time>2026-04-26T10:10:52.89Z</time></trkpt><trkpt lat="42.3764427" lon="13.1368637"><ele>1164.0</ele><time>2026-04-26T10:10:54.866Z</time></trkpt><trkpt lat="42.3764796" lon="13.1369796"><ele>1164.0</ele><time>2026-04-26T10:10:56.866Z</time></trkpt><trkpt lat="42.3764824" lon="13.1371034"><ele>1164.0</ele><time>2026-04-26T10:10:58.864Z</time></trkpt><trkpt lat="42.3764839" lon="13.1372606"><ele>1164.0</ele><time>2026-04-26T10:11:00.889Z</time></trkpt><trkpt lat="42.3765219" lon="13.1374023"><ele>1164.0</ele><time>2026-04-26T10:11:02.878Z</time></trkpt><trkpt lat="42.376564" lon="13.1374789"><ele>1164.0</ele><time>2026-04-26T10:11:03.92Z</time></trkpt><trkpt lat="42.3766029" lon="13.1375648"><ele>1164.0</ele><time>2026-04-26T10:11:04.866Z</time></trkpt><trkpt lat="42.3766584" lon="13.1376455"><ele>1164.0</ele><time>2026-04-26T10:11:05.874Z</time></trkpt><trkpt lat="42.3767366" lon="13.1377065"><ele>1164.0</ele><time>2026-04-26T10:11:06.873Z</time></trkpt><trkpt lat="42.3768143" lon="13.1377509"><ele>1164.0</ele><time>2026-04-26T10:11:07.873Z</time></trkpt><trkpt lat="42.3768819" lon="13.1377685"><ele>1164.0</ele><time>2026-04-26T10:11:08.862Z</time></trkpt><trkpt lat="42.3769582" lon="13.1377838"><ele>1164.0</ele><time>2026-04-26T10:11:09.882Z</time></trkpt><trkpt lat="42.3770277" lon="13.1377967"><ele>1164.0</ele><time>2026-04-26T10:11:10.876Z</time></trkpt><trkpt lat="42.3771202" lon="13.1378352"><ele>1164.0</ele><time>2026-04-26T10:11:12.873Z</time></trkpt><trkpt lat="42.3772033" lon="13.137945"><ele>1164.0</ele><time>2026-04-26T10:11:14.875Z</time></trkpt><trkpt lat="42.3772468" lon="13.1380189"><ele>1164.0</ele><time>2026-04-26T10:11:15.872Z</time></trkpt><trkpt lat="42.3772907" lon="13.1380973"><ele>1164.0</ele><time>2026-04-26T10:11:16.928Z</time></trkpt><trkpt lat="42.3773338" lon="13.1381648"><ele>1164.0</ele><time>2026-04-26T10:11:17.872Z</time></trkpt><trkpt lat="42.3774021" lon="13.1382622"><ele>1164.4</ele><time>2026-04-26T10:11:19.88Z</time></trkpt><trkpt lat="42.3774581" lon="13.1383369"><ele>1164.8000000000002</ele><time>2026-04-26T10:11:22.865Z</time></trkpt><trkpt lat="42.3775082" lon="13.1384023"><ele>1165.1999999999998</ele><time>2026-04-26T10:11:25.872Z</time></trkpt><trkpt lat="42.3775765" lon="13.1384919"><ele>1165.6</ele><time>2026-04-26T10:11:27.87Z</time></trkpt><trkpt lat="42.3776586" lon="13.1386043"><ele>1166.0</ele><time>2026-04-26T10:11:29.902Z</time></trkpt><trkpt lat="42.3777785" lon="13.1386947"><ele>1166.0</ele><time>2026-04-26T10:11:31.871Z</time></trkpt><trkpt lat="42.3778487" lon="13.1387422"><ele>1166.0</ele><time>2026-04-26T10:11:32.879Z</time></trkpt><trkpt lat="42.3779273" lon="13.138776"><ele>1166.0</ele><time>2026-04-26T10:11:33.9Z</time></trkpt><trkpt lat="42.3780074" lon="13.1388011"><ele>1166.0</ele><time>2026-04-26T10:11:34.864Z</time></trkpt><trkpt lat="42.3780771" lon="13.1388369"><ele>1166.0</ele><time>2026-04-26T10:11:35.866Z</time></trkpt><trkpt lat="42.3781414" lon="13.1388763"><ele>1166.0</ele><time>2026-04-26T10:11:36.87Z</time></trkpt><trkpt lat="42.3782508" lon="13.1389313"><ele>1165.3999999999999</ele><time>2026-04-26T10:11:38.874Z</time></trkpt><trkpt lat="42.3783178" lon="13.138943"><ele>1164.8</ele><time>2026-04-26T10:11:39.885Z</time></trkpt><trkpt lat="42.3784023" lon="13.1389415"><ele>1164.1999999999998</ele><time>2026-04-26T10:11:40.876Z</time></trkpt><trkpt lat="42.3785052" lon="13.1389459"><ele>1163.6</ele><time>2026-04-26T10:11:41.883Z</time></trkpt><trkpt lat="42.3786139" lon="13.1389501"><ele>1163.0</ele><time>2026-04-26T10:11:42.871Z</time></trkpt><trkpt lat="42.3787027" lon="13.1389595"><ele>1163.0</ele><time>2026-04-26T10:11:43.877Z</time></trkpt><trkpt lat="42.3787703" lon="13.1389739"><ele>1163.0</ele><time>2026-04-26T10:11:44.868Z</time></trkpt><trkpt lat="42.3788381" lon="13.1389995"><ele>1163.0</ele><time>2026-04-26T10:11:45.871Z</time></trkpt><trkpt lat="42.3789447" lon="13.1390655"><ele>1163.0</ele><time>2026-04-26T10:11:47.885Z</time></trkpt><trkpt lat="42.3789966" lon="13.1392002"><ele>1163.0</ele><time>2026-04-26T10:11:49.876Z</time></trkpt><trkpt lat="42.3790094" lon="13.1393013"><ele>1163.0</ele><time>2026-04-26T10:11:50.871Z</time></trkpt><trkpt lat="42.3790149" lon="13.1394132"><ele>1163.2</ele><time>2026-04-26T10:11:51.874Z</time></trkpt><trkpt lat="42.3790229" lon="13.1395256"><ele>1163.4</ele><time>2026-04-26T10:11:52.881Z</time></trkpt><trkpt lat="42.3790386" lon="13.1396124"><ele>1163.6000000000001</ele><time>2026-04-26T10:11:53.865Z</time></trkpt><trkpt lat="42.3791017" lon="13.1397478"><ele>1163.8</ele><time>2026-04-26T10:11:55.875Z</time></trkpt><trkpt lat="42.3791526" lon="13.1397988"><ele>1164.0</ele><time>2026-04-26T10:11:56.886Z</time></trkpt><trkpt lat="42.3792558" lon="13.1399026"><ele>1164.8</ele><time>2026-04-26T10:11:58.928Z</time></trkpt><trkpt lat="42.379302" lon="13.139965"><ele>1165.6000000000001</ele><time>2026-04-26T10:11:59.881Z</time></trkpt><trkpt lat="42.3793423" lon="13.1400374"><ele>1166.4</ele><time>2026-04-26T10:12:00.868Z</time></trkpt><trkpt lat="42.3794113" lon="13.1401866"><ele>1167.2</ele><time>2026-04-26T10:12:02.88Z</time></trkpt><trkpt lat="42.3795123" lon="13.1402682"><ele>1168.0</ele><time>2026-04-26T10:12:04.882Z</time></trkpt><trkpt lat="42.3795857" lon="13.1402788"><ele>1168.0</ele><time>2026-04-26T10:12:05.87Z</time></trkpt><trkpt lat="42.3796664" lon="13.140279"><ele>1168.0</ele><time>2026-04-26T10:12:06.886Z</time></trkpt><trkpt lat="42.3797353" lon="13.1402721"><ele>1168.0</ele><time>2026-04-26T10:12:07.881Z</time></trkpt><trkpt lat="42.3798603" lon="13.1402774"><ele>1168.0</ele><time>2026-04-26T10:12:09.874Z</time></trkpt><trkpt lat="42.3799716" lon="13.1402898"><ele>1168.0</ele><time>2026-04-26T10:12:11.873Z</time></trkpt><trkpt lat="42.3800849" lon="13.1403021"><ele>1165.8</ele><time>2026-04-26T10:12:13.879Z</time></trkpt><trkpt lat="42.3801938" lon="13.1402976"><ele>1163.6</ele><time>2026-04-26T10:12:15.866Z</time></trkpt><trkpt lat="42.3802999" lon="13.1402417"><ele>1161.4</ele><time>2026-04-26T10:12:17.861Z</time></trkpt><trkpt lat="42.3803804" lon="13.1401901"><ele>1159.2</ele><time>2026-04-26T10:12:19.875Z</time></trkpt><trkpt lat="42.3804744" lon="13.1401483"><ele>1157.0</ele><time>2026-04-26T10:12:21.876Z</time></trkpt><trkpt lat="42.3805406" lon="13.1401677"><ele>1155.6666666666667</ele><time>2026-04-26T10:12:23.918Z</time></trkpt><trkpt lat="42.380587" lon="13.140228"><ele>1154.3333333333335</ele><time>2026-04-26T10:12:25.88Z</time></trkpt><trkpt lat="42.3805979" lon="13.1403245"><ele>1153.0</ele><time>2026-04-26T10:12:27.875Z</time></trkpt><trkpt lat="42.3806705" lon="13.1403891"><ele>1151.6666666666667</ele><time>2026-04-26T10:12:30.874Z</time></trkpt><trkpt lat="42.3807359" lon="13.1403805"><ele>1150.3333333333333</ele><time>2026-04-26T10:12:32.896Z</time></trkpt><trkpt lat="42.3808388" lon="13.140339"><ele>1149.0</ele><time>2026-04-26T10:12:34.866Z</time></trkpt><trkpt lat="42.3808985" lon="13.1403109"><ele>1149.0</ele><time>2026-04-26T10:12:35.876Z</time></trkpt><trkpt lat="42.3810185" lon="13.1402541"><ele>1149.0</ele><time>2026-04-26T10:12:37.875Z</time></trkpt><trkpt lat="42.3811223" lon="13.1402473"><ele>1149.0</ele><time>2026-04-26T10:12:39.866Z</time></trkpt><trkpt lat="42.3812502" lon="13.1402811"><ele>1149.0</ele><time>2026-04-26T10:12:41.871Z</time></trkpt><trkpt lat="42.3813164" lon="13.1402929"><ele>1149.0</ele><time>2026-04-26T10:12:42.871Z</time></trkpt><trkpt lat="42.3814438" lon="13.1403204"><ele>1147.3333333333333</ele><time>2026-04-26T10:12:44.865Z</time></trkpt><trkpt lat="42.3815437" lon="13.1403162"><ele>1145.6666666666667</ele><time>2026-04-26T10:12:46.875Z</time></trkpt><trkpt lat="42.3816238" lon="13.1402774"><ele>1144.0</ele><time>2026-04-26T10:12:48.874Z</time></trkpt><trkpt lat="42.3816813" lon="13.140241"><ele>1142.3333333333335</ele><time>2026-04-26T10:12:50.87Z</time></trkpt><trkpt lat="42.3817545" lon="13.1401961"><ele>1140.6666666666667</ele><time>2026-04-26T10:12:53.875Z</time></trkpt><trkpt lat="42.3818166" lon="13.1402423"><ele>1139.0</ele><time>2026-04-26T10:12:58.872Z</time></trkpt><trkpt lat="42.3818652" lon="13.1403268"><ele>1139.0</ele><time>2026-04-26T10:13:03.874Z</time></trkpt><trkpt lat="42.3818326" lon="13.1404112"><ele>1139.0</ele><time>2026-04-26T10:13:07.879Z</time></trkpt><trkpt lat="42.3817825" lon="13.1404811"><ele>1139.0</ele><time>2026-04-26T10:13:10.871Z</time></trkpt><trkpt lat="42.3817005" lon="13.1405333"><ele>1139.0</ele><time>2026-04-26T10:13:13.883Z</time></trkpt><trkpt lat="42.3816245" lon="13.1405755"><ele>1139.0</ele><time>2026-04-26T10:13:16.865Z</time></trkpt><trkpt lat="42.3815616" lon="13.1406096"><ele>1139.0</ele><time>2026-04-26T10:13:18.87Z</time></trkpt><trkpt lat="42.3815054" lon="13.1406575"><ele>1139.0</ele><time>2026-04-26T10:13:20.886Z</time></trkpt><trkpt lat="42.3814121" lon="13.1407148"><ele>1139.6000000000001</ele><time>2026-04-26T10:13:23.876Z</time></trkpt><trkpt lat="42.3813233" lon="13.1407558"><ele>1140.2</ele><time>2026-04-26T10:13:25.872Z</time></trkpt><trkpt lat="42.38124" lon="13.1407768"><ele>1140.8000000000002</ele><time>2026-04-26T10:13:27.866Z</time></trkpt><trkpt lat="42.38116" lon="13.1408289"><ele>1141.4</ele><time>2026-04-26T10:13:29.878Z</time></trkpt><trkpt lat="42.3810795" lon="13.1409206"><ele>1142.0</ele><time>2026-04-26T10:13:31.867Z</time></trkpt><trkpt lat="42.3810211" lon="13.1410284"><ele>1142.0</ele><time>2026-04-26T10:13:33.877Z</time></trkpt><trkpt lat="42.3809988" lon="13.1411493"><ele>1142.0</ele><time>2026-04-26T10:13:35.875Z</time></trkpt><trkpt lat="42.3810058" lon="13.1412899"><ele>1142.0</ele><time>2026-04-26T10:13:37.872Z</time></trkpt><trkpt lat="42.3810283" lon="13.1414404"><ele>1142.0</ele><time>2026-04-26T10:13:39.87Z</time></trkpt><trkpt lat="42.38105" lon="13.1415586"><ele>1142.0</ele><time>2026-04-26T10:13:41.868Z</time></trkpt><trkpt lat="42.3810705" lon="13.1416537"><ele>1139.3333333333335</ele><time>2026-04-26T10:13:43.871Z</time></trkpt><trkpt lat="42.381106" lon="13.1417326"><ele>1136.6666666666667</ele><time>2026-04-26T10:13:46.865Z</time></trkpt><trkpt lat="42.3811306" lon="13.1418231"><ele>1134.0</ele><time>2026-04-26T10:13:49.863Z</time></trkpt><trkpt lat="42.3810756" lon="13.1419112"><ele>1131.3333333333333</ele><time>2026-04-26T10:13:52.867Z</time></trkpt><trkpt lat="42.3809937" lon="13.1419442"><ele>1128.6666666666665</ele><time>2026-04-26T10:13:54.858Z</time></trkpt><trkpt lat="42.3809277" lon="13.1419584"><ele>1126.0</ele><time>2026-04-26T10:13:56.867Z</time></trkpt><trkpt lat="42.3808411" lon="13.1420007"><ele>1126.0</ele><time>2026-04-26T10:13:58.873Z</time></trkpt><trkpt lat="42.3807528" lon="13.1420594"><ele>1126.0</ele><time>2026-04-26T10:14:00.867Z</time></trkpt><trkpt lat="42.3807013" lon="13.1421737"><ele>1126.0</ele><time>2026-04-26T10:14:02.873Z</time></trkpt><trkpt lat="42.3806842" lon="13.1422992"><ele>1126.0</ele><time>2026-04-26T10:14:04.864Z</time></trkpt><trkpt lat="42.3806912" lon="13.1424325"><ele>1126.0</ele><time>2026-04-26T10:14:06.869Z</time></trkpt><trkpt lat="42.3807125" lon="13.1425558"><ele>1123.3999999999999</ele><time>2026-04-26T10:14:08.868Z</time></trkpt><trkpt lat="42.380738" lon="13.1426959"><ele>1120.8</ele><time>2026-04-26T10:14:10.865Z</time></trkpt><trkpt lat="42.3807493" lon="13.1428196"><ele>1118.1999999999998</ele><time>2026-04-26T10:14:12.861Z</time></trkpt><trkpt lat="42.3807456" lon="13.1429433"><ele>1115.6</ele><time>2026-04-26T10:14:14.88Z</time></trkpt><trkpt lat="42.3807061" lon="13.1430422"><ele>1113.0</ele><time>2026-04-26T10:14:17.005Z</time></trkpt><trkpt lat="42.3806543" lon="13.1431307"><ele>1110.6666666666667</ele><time>2026-04-26T10:14:18.87Z</time></trkpt><trkpt lat="42.3805855" lon="13.1432223"><ele>1108.3333333333333</ele><time>2026-04-26T10:14:20.866Z</time></trkpt><trkpt lat="42.3805188" lon="13.1433138"><ele>1106.0</ele><time>2026-04-26T10:14:22.867Z</time></trkpt><trkpt lat="42.3804872" lon="13.1434002"><ele>1103.6666666666665</ele><time>2026-04-26T10:14:24.862Z</time></trkpt><trkpt lat="42.3805319" lon="13.143486"><ele>1101.3333333333333</ele><time>2026-04-26T10:14:27.869Z</time></trkpt><trkpt lat="42.3805972" lon="13.1434625"><ele>1099.0</ele><time>2026-04-26T10:14:30.879Z</time></trkpt><trkpt lat="42.3806754" lon="13.1433604"><ele>1099.0</ele><time>2026-04-26T10:14:33.87Z</time></trkpt><trkpt lat="42.3807421" lon="13.1432525"><ele>1099.0</ele><time>2026-04-26T10:14:35.874Z</time></trkpt><trkpt lat="42.3808146" lon="13.1431563"><ele>1099.0</ele><time>2026-04-26T10:14:37.864Z</time></trkpt><trkpt lat="42.3809045" lon="13.1430739"><ele>1099.0</ele><time>2026-04-26T10:14:39.884Z</time></trkpt><trkpt lat="42.3809833" lon="13.1429881"><ele>1099.0</ele><time>2026-04-26T10:14:41.881Z</time></trkpt><trkpt lat="42.3810352" lon="13.1428954"><ele>1099.6000000000001</ele><time>2026-04-26T10:14:43.871Z</time></trkpt><trkpt lat="42.381079" lon="13.1427782"><ele>1100.2</ele><time>2026-04-26T10:14:45.88Z</time></trkpt><trkpt lat="42.3811316" lon="13.1426736"><ele>1100.8000000000002</ele><time>2026-04-26T10:14:47.858Z</time></trkpt><trkpt lat="42.3812003" lon="13.1426287"><ele>1101.4</ele><time>2026-04-26T10:14:49.878Z</time></trkpt><trkpt lat="42.3813034" lon="13.1426612"><ele>1102.0</ele><time>2026-04-26T10:14:51.862Z</time></trkpt><trkpt lat="42.3814209" lon="13.1427308"><ele>1102.0</ele><time>2026-04-26T10:14:53.867Z</time></trkpt><trkpt lat="42.3814767" lon="13.1427706"><ele>1102.0</ele><time>2026-04-26T10:14:54.874Z</time></trkpt><trkpt lat="42.3815612" lon="13.14288"><ele>1102.0</ele><time>2026-04-26T10:14:56.867Z</time></trkpt><trkpt lat="42.3816153" lon="13.1430042"><ele>1102.0</ele><time>2026-04-26T10:14:58.866Z</time></trkpt><trkpt lat="42.3816576" lon="13.1431302"><ele>1102.0</ele><time>2026-04-26T10:15:00.861Z</time></trkpt><trkpt lat="42.3817263" lon="13.1432478"><ele>1098.6</ele><time>2026-04-26T10:15:02.866Z</time></trkpt><trkpt lat="42.381823" lon="13.143335"><ele>1095.2</ele><time>2026-04-26T10:15:04.865Z</time></trkpt><trkpt lat="42.3819176" lon="13.1433946"><ele>1091.8</ele><time>2026-04-26T10:15:06.869Z</time></trkpt><trkpt lat="42.3820037" lon="13.1434523"><ele>1088.4</ele><time>2026-04-26T10:15:08.913Z</time></trkpt><trkpt lat="42.3820841" lon="13.1435258"><ele>1085.0</ele><time>2026-04-26T10:15:10.86Z</time></trkpt><trkpt lat="42.3821516" lon="13.1435717"><ele>1086.0</ele><time>2026-04-26T10:15:12.874Z</time></trkpt><trkpt lat="42.3822324" lon="13.1435243"><ele>1087.0</ele><time>2026-04-26T10:15:15.869Z</time></trkpt><trkpt lat="42.3822708" lon="13.1434415"><ele>1088.0</ele><time>2026-04-26T10:15:17.867Z</time></trkpt><trkpt lat="42.3823083" lon="13.1433431"><ele>1089.0</ele><time>2026-04-26T10:15:19.894Z</time></trkpt><trkpt lat="42.382369" lon="13.1432149"><ele>1090.0</ele><time>2026-04-26T10:15:21.907Z</time></trkpt><trkpt lat="42.3824495" lon="13.1430984"><ele>1090.0</ele><time>2026-04-26T10:15:23.881Z</time></trkpt><trkpt lat="42.3825373" lon="13.143004"><ele>1090.0</ele><time>2026-04-26T10:15:25.875Z</time></trkpt><trkpt lat="42.3825942" lon="13.1429563"><ele>1090.0</ele><time>2026-04-26T10:15:26.877Z</time></trkpt><trkpt lat="42.3826515" lon="13.1429082"><ele>1090.0</ele><time>2026-04-26T10:15:27.874Z</time></trkpt><trkpt lat="42.3827091" lon="13.1428553"><ele>1090.0</ele><time>2026-04-26T10:15:28.869Z</time></trkpt><trkpt lat="42.3827647" lon="13.1427987"><ele>1090.0</ele><time>2026-04-26T10:15:29.866Z</time></trkpt><trkpt lat="42.3828215" lon="13.1427384"><ele>1090.0</ele><time>2026-04-26T10:15:30.884Z</time></trkpt><trkpt lat="42.3828751" lon="13.1426769"><ele>1090.0</ele><time>2026-04-26T10:15:31.868Z</time></trkpt><trkpt lat="42.3829256" lon="13.1426192"><ele>1090.0</ele><time>2026-04-26T10:15:32.876Z</time></trkpt><trkpt lat="42.3829764" lon="13.1425586"><ele>1090.0</ele><time>2026-04-26T10:15:33.881Z</time></trkpt><trkpt lat="42.3830286" lon="13.1424936"><ele>1090.0</ele><time>2026-04-26T10:15:34.869Z</time></trkpt><trkpt lat="42.3830794" lon="13.1424321"><ele>1090.0</ele><time>2026-04-26T10:15:35.87Z</time></trkpt><trkpt lat="42.3831319" lon="13.1423712"><ele>1090.0</ele><time>2026-04-26T10:15:36.92Z</time></trkpt><trkpt lat="42.3832284" lon="13.1422714"><ele>1087.4</ele><time>2026-04-26T10:15:38.876Z</time></trkpt><trkpt lat="42.3833267" lon="13.1421836"><ele>1084.8</ele><time>2026-04-26T10:15:40.869Z</time></trkpt><trkpt lat="42.3834177" lon="13.142105"><ele>1082.2</ele><time>2026-04-26T10:15:42.877Z</time></trkpt><trkpt lat="42.3835072" lon="13.142055"><ele>1079.6</ele><time>2026-04-26T10:15:44.863Z</time></trkpt><trkpt lat="42.3836054" lon="13.14201"><ele>1077.0</ele><time>2026-04-26T10:15:46.866Z</time></trkpt><trkpt lat="42.3837291" lon="13.1419834"><ele>1077.0</ele><time>2026-04-26T10:15:48.862Z</time></trkpt><trkpt lat="42.3837962" lon="13.1419705"><ele>1077.0</ele><time>2026-04-26T10:15:49.858Z</time></trkpt><trkpt lat="42.3838677" lon="13.1419511"><ele>1077.0</ele><time>2026-04-26T10:15:50.868Z</time></trkpt><trkpt lat="42.3839438" lon="13.1419388"><ele>1077.0</ele><time>2026-04-26T10:15:51.861Z</time></trkpt><trkpt lat="42.3840291" lon="13.1419272"><ele>1077.0</ele><time>2026-04-26T10:15:52.86Z</time></trkpt><trkpt lat="42.3840956" lon="13.1419106"><ele>1077.0</ele><time>2026-04-26T10:15:53.863Z</time></trkpt><trkpt lat="42.3841617" lon="13.1418941"><ele>1077.0</ele><time>2026-04-26T10:15:54.874Z</time></trkpt><trkpt lat="42.3842738" lon="13.1418669"><ele>1071.0</ele><time>2026-04-26T10:15:56.87Z</time></trkpt><trkpt lat="42.3843856" lon="13.1418373"><ele>1065.0</ele><time>2026-04-26T10:15:58.858Z</time></trkpt><trkpt lat="42.3845011" lon="13.1418155"><ele>1059.0</ele><time>2026-04-26T10:16:00.857Z</time></trkpt><trkpt lat="42.3846163" lon="13.1417885"><ele>1053.0</ele><time>2026-04-26T10:16:02.905Z</time></trkpt><trkpt lat="42.384718" lon="13.1417573"><ele>1051.0</ele><time>2026-04-26T10:16:04.861Z</time></trkpt><trkpt lat="42.3848181" lon="13.1417229"><ele>1049.0</ele><time>2026-04-26T10:16:06.868Z</time></trkpt><trkpt lat="42.3849131" lon="13.1416533"><ele>1047.0</ele><time>2026-04-26T10:16:08.871Z</time></trkpt><trkpt lat="42.385004" lon="13.1415525"><ele>1045.0</ele><time>2026-04-26T10:16:10.875Z</time></trkpt><trkpt lat="42.3850667" lon="13.1414332"><ele>1043.0</ele><time>2026-04-26T10:16:12.872Z</time></trkpt><trkpt lat="42.385102" lon="13.1412827"><ele>1043.0</ele><time>2026-04-26T10:16:14.927Z</time></trkpt><trkpt lat="42.3851273" lon="13.1411495"><ele>1043.0</ele><time>2026-04-26T10:16:16.872Z</time></trkpt><trkpt lat="42.3851383" lon="13.141029"><ele>1043.0</ele><time>2026-04-26T10:16:18.872Z</time></trkpt><trkpt lat="42.3851351" lon="13.1409394"><ele>1043.0</ele><time>2026-04-26T10:16:20.862Z</time></trkpt><trkpt lat="42.385117" lon="13.1408396"><ele>1043.0</ele><time>2026-04-26T10:16:23.876Z</time></trkpt><trkpt lat="42.3851547" lon="13.1407688"><ele>1043.0</ele><time>2026-04-26T10:16:26.876Z</time></trkpt><trkpt lat="42.3852066" lon="13.1408239"><ele>1043.0</ele><time>2026-04-26T10:16:32.871Z</time></trkpt><trkpt lat="42.3852179" lon="13.1409399"><ele>1043.0</ele><time>2026-04-26T10:16:35.884Z</time></trkpt><trkpt lat="42.3852101" lon="13.1410359"><ele>1043.0</ele><time>2026-04-26T10:16:37.867Z</time></trkpt><trkpt lat="42.3851886" lon="13.1411714"><ele>1043.0</ele><time>2026-04-26T10:16:39.873Z</time></trkpt><trkpt lat="42.3851887" lon="13.1412791"><ele>1043.0</ele><time>2026-04-26T10:16:41.862Z</time></trkpt><trkpt lat="42.3851938" lon="13.1413952"><ele>1043.0</ele><time>2026-04-26T10:16:43.864Z</time></trkpt><trkpt lat="42.3851814" lon="13.1415132"><ele>1040.0</ele><time>2026-04-26T10:16:45.862Z</time></trkpt><trkpt lat="42.3851258" lon="13.1416246"><ele>1037.0</ele><time>2026-04-26T10:16:47.876Z</time></trkpt><trkpt lat="42.385064" lon="13.1417121"><ele>1034.0</ele><time>2026-04-26T10:16:49.875Z</time></trkpt><trkpt lat="42.3849816" lon="13.1417944"><ele>1031.0</ele><time>2026-04-26T10:16:51.875Z</time></trkpt><trkpt lat="42.3848996" lon="13.1418978"><ele>1028.0</ele><time>2026-04-26T10:16:53.87Z</time></trkpt><trkpt lat="42.3848015" lon="13.1420063"><ele>1028.0</ele><time>2026-04-26T10:16:55.874Z</time></trkpt><trkpt lat="42.3847494" lon="13.1420606"><ele>1028.0</ele><time>2026-04-26T10:16:56.878Z</time></trkpt><trkpt lat="42.3846445" lon="13.1421597"><ele>1028.0</ele><time>2026-04-26T10:16:58.876Z</time></trkpt><trkpt lat="42.3845858" lon="13.1422096"><ele>1028.0</ele><time>2026-04-26T10:16:59.884Z</time></trkpt><trkpt lat="42.3845206" lon="13.1422508"><ele>1028.0</ele><time>2026-04-26T10:17:00.868Z</time></trkpt><trkpt lat="42.3844478" lon="13.1422937"><ele>1028.0</ele><time>2026-04-26T10:17:01.87Z</time></trkpt><trkpt lat="42.3843781" lon="13.1423382"><ele>1026.857142857143</ele><time>2026-04-26T10:17:02.873Z</time></trkpt><trkpt lat="42.3843119" lon="13.1423804"><ele>1025.7142857142858</ele><time>2026-04-26T10:17:03.877Z</time></trkpt><trkpt lat="42.3842523" lon="13.1424194"><ele>1024.5714285714287</ele><time>2026-04-26T10:17:04.87Z</time></trkpt><trkpt lat="42.3841883" lon="13.142469"><ele>1023.4285714285714</ele><time>2026-04-26T10:17:05.877Z</time></trkpt><trkpt lat="42.3841192" lon="13.1425194"><ele>1022.2857142857144</ele><time>2026-04-26T10:17:06.862Z</time></trkpt><trkpt lat="42.384055" lon="13.1425691"><ele>1021.1428571428572</ele><time>2026-04-26T10:17:07.88Z</time></trkpt><trkpt lat="42.3839937" lon="13.1426132"><ele>1020.0</ele><time>2026-04-26T10:17:08.87Z</time></trkpt><trkpt lat="42.3839298" lon="13.14265"><ele>1020.0</ele><time>2026-04-26T10:17:09.864Z</time></trkpt><trkpt lat="42.383867" lon="13.1426886"><ele>1020.0000000000001</ele><time>2026-04-26T10:17:10.873Z</time></trkpt><trkpt lat="42.3838064" lon="13.1427282"><ele>1020.0</ele><time>2026-04-26T10:17:11.866Z</time></trkpt><trkpt lat="42.3837539" lon="13.1427793"><ele>1020.0</ele><time>2026-04-26T10:17:12.874Z</time></trkpt><trkpt lat="42.3837117" lon="13.1428458"><ele>1020.0000000000001</ele><time>2026-04-26T10:17:13.869Z</time></trkpt><trkpt lat="42.3836658" lon="13.142923"><ele>1020.0</ele><time>2026-04-26T10:17:14.88Z</time></trkpt><trkpt lat="42.3836164" lon="13.143014"><ele>1020.0</ele><time>2026-04-26T10:17:15.865Z</time></trkpt><trkpt lat="42.3835714" lon="13.1431075"><ele>1021.3333333333334</ele><time>2026-04-26T10:17:16.874Z</time></trkpt><trkpt lat="42.3835291" lon="13.1432071"><ele>1022.6666666666667</ele><time>2026-04-26T10:17:17.87Z</time></trkpt><trkpt lat="42.3834851" lon="13.1432988"><ele>1024.0</ele><time>2026-04-26T10:17:18.875Z</time></trkpt><trkpt lat="42.3834418" lon="13.1433782"><ele>1025.3333333333335</ele><time>2026-04-26T10:17:19.875Z</time></trkpt><trkpt lat="42.3834104" lon="13.1434609"><ele>1026.6666666666667</ele><time>2026-04-26T10:17:20.857Z</time></trkpt><trkpt lat="42.3833878" lon="13.1435559"><ele>1028.0</ele><time>2026-04-26T10:17:21.871Z</time></trkpt><trkpt lat="42.3833747" lon="13.1436602"><ele>1028.0</ele><time>2026-04-26T10:17:22.868Z</time></trkpt><trkpt lat="42.3833704" lon="13.1437569"><ele>1028.0</ele><time>2026-04-26T10:17:23.875Z</time></trkpt><trkpt lat="42.3833714" lon="13.1438456"><ele>1028.0</ele><time>2026-04-26T10:17:24.87Z</time></trkpt><trkpt lat="42.3833703" lon="13.1439362"><ele>1028.0</ele><time>2026-04-26T10:17:25.87Z</time></trkpt><trkpt lat="42.3833707" lon="13.1440217"><ele>1028.0</ele><time>2026-04-26T10:17:26.869Z</time></trkpt><trkpt lat="42.3833619" lon="13.1441072"><ele>1028.0</ele><time>2026-04-26T10:17:27.883Z</time></trkpt><trkpt lat="42.3833378" lon="13.1442754"><ele>1024.857142857143</ele><time>2026-04-26T10:17:29.874Z</time></trkpt><trkpt lat="42.3833076" lon="13.1443545"><ele>1021.7142857142858</ele><time>2026-04-26T10:17:30.864Z</time></trkpt><trkpt lat="42.3832683" lon="13.1444335"><ele>1018.5714285714287</ele><time>2026-04-26T10:17:31.871Z</time></trkpt><trkpt lat="42.3832253" lon="13.1445064"><ele>1015.4285714285714</ele><time>2026-04-26T10:17:32.875Z</time></trkpt><trkpt lat="42.3831789" lon="13.1445796"><ele>1012.2857142857144</ele><time>2026-04-26T10:17:33.894Z</time></trkpt><trkpt lat="42.3831332" lon="13.1446523"><ele>1009.1428571428572</ele><time>2026-04-26T10:17:34.868Z</time></trkpt><trkpt lat="42.3830866" lon="13.1447303"><ele>1006.0</ele><time>2026-04-26T10:17:35.874Z</time></trkpt><trkpt lat="42.3830259" lon="13.1448604"><ele>1012.1999999999999</ele><time>2026-04-26T10:17:37.865Z</time></trkpt><trkpt lat="42.3829804" lon="13.1450067"><ele>1018.3999999999999</ele><time>2026-04-26T10:17:39.875Z</time></trkpt><trkpt lat="42.3829501" lon="13.1450923"><ele>1024.6</ele><time>2026-04-26T10:17:40.883Z</time></trkpt><trkpt lat="42.3829214" lon="13.1451993"><ele>1030.8</ele><time>2026-04-26T10:17:41.874Z</time></trkpt><trkpt lat="42.3828936" lon="13.1453218"><ele>1037.0</ele><time>2026-04-26T10:17:42.864Z</time></trkpt><trkpt lat="42.382868" lon="13.1454323"><ele>1037.0</ele><time>2026-04-26T10:17:43.879Z</time></trkpt><trkpt lat="42.3828469" lon="13.1455449"><ele>1037.0</ele><time>2026-04-26T10:17:44.871Z</time></trkpt><trkpt lat="42.382832" lon="13.1456475"><ele>1037.0</ele><time>2026-04-26T10:17:45.864Z</time></trkpt><trkpt lat="42.3828197" lon="13.1457419"><ele>1037.0</ele><time>2026-04-26T10:17:46.862Z</time></trkpt><trkpt lat="42.3828036" lon="13.145843"><ele>1037.0</ele><time>2026-04-26T10:17:47.869Z</time></trkpt><trkpt lat="42.3827849" lon="13.1459494"><ele>1037.0</ele><time>2026-04-26T10:17:48.866Z</time></trkpt><trkpt lat="42.3827671" lon="13.1460485"><ele>1033.6666666666667</ele><time>2026-04-26T10:17:49.865Z</time></trkpt><trkpt lat="42.3827514" lon="13.1461505"><ele>1030.3333333333335</ele><time>2026-04-26T10:17:50.874Z</time></trkpt><trkpt lat="42.3827296" lon="13.1462491"><ele>1027.0</ele><time>2026-04-26T10:17:51.864Z</time></trkpt><trkpt lat="42.3827015" lon="13.1463515"><ele>1023.6666666666667</ele><time>2026-04-26T10:17:52.866Z</time></trkpt><trkpt lat="42.3826666" lon="13.1464574"><ele>1020.3333333333334</ele><time>2026-04-26T10:17:53.872Z</time></trkpt><trkpt lat="42.3826379" lon="13.146561"><ele>1017.0</ele><time>2026-04-26T10:17:54.903Z</time></trkpt><trkpt lat="42.3826168" lon="13.1466578"><ele>1013.5</ele><time>2026-04-26T10:17:55.873Z</time></trkpt><trkpt lat="42.3826005" lon="13.1467516"><ele>1010.0</ele><time>2026-04-26T10:17:56.87Z</time></trkpt><trkpt lat="42.3825885" lon="13.1468463"><ele>1006.5</ele><time>2026-04-26T10:17:57.872Z</time></trkpt><trkpt lat="42.3825749" lon="13.1469301"><ele>1003.0</ele><time>2026-04-26T10:17:58.851Z</time></trkpt><trkpt lat="42.3825144" lon="13.1470564"><ele>999.5</ele><time>2026-04-26T10:18:00.865Z</time></trkpt><trkpt lat="42.3824079" lon="13.147149"><ele>996.0</ele><time>2026-04-26T10:18:02.875Z</time></trkpt><trkpt lat="42.3823381" lon="13.1472018"><ele>996.0</ele><time>2026-04-26T10:18:03.872Z</time></trkpt><trkpt lat="42.3822632" lon="13.1472469"><ele>996.0</ele><time>2026-04-26T10:18:04.875Z</time></trkpt><trkpt lat="42.3821897" lon="13.1472927"><ele>996.0</ele><time>2026-04-26T10:18:05.869Z</time></trkpt><trkpt lat="42.382111" lon="13.1473502"><ele>996.0</ele><time>2026-04-26T10:18:06.875Z</time></trkpt><trkpt lat="42.3820343" lon="13.147409"><ele>996.0</ele><time>2026-04-26T10:18:07.874Z</time></trkpt><trkpt lat="42.3819527" lon="13.1474742"><ele>996.0</ele><time>2026-04-26T10:18:08.98Z</time></trkpt><trkpt lat="42.3818126" lon="13.1475739"><ele>995.2857142857142</ele><time>2026-04-26T10:18:10.876Z</time></trkpt><trkpt lat="42.3817455" lon="13.1476157"><ele>994.5714285714284</ele><time>2026-04-26T10:18:11.879Z</time></trkpt><trkpt lat="42.3816729" lon="13.1476616"><ele>993.8571428571429</ele><time>2026-04-26T10:18:12.884Z</time></trkpt><trkpt lat="42.3815986" lon="13.1477071"><ele>993.1428571428571</ele><time>2026-04-26T10:18:13.878Z</time></trkpt><trkpt lat="42.3815254" lon="13.1477481"><ele>992.4285714285714</ele><time>2026-04-26T10:18:14.865Z</time></trkpt><trkpt lat="42.3814588" lon="13.1477844"><ele>991.7142857142858</ele><time>2026-04-26T10:18:15.871Z</time></trkpt><trkpt lat="42.3814001" lon="13.1478152"><ele>991.0000000000001</ele><time>2026-04-26T10:18:16.884Z</time></trkpt><trkpt lat="42.3812851" lon="13.1478608"><ele>989.5999999999999</ele><time>2026-04-26T10:18:18.903Z</time></trkpt><trkpt lat="42.3811693" lon="13.1478916"><ele>988.1999999999999</ele><time>2026-04-26T10:18:20.877Z</time></trkpt><trkpt lat="42.3811051" lon="13.1479023"><ele>986.8000000000001</ele><time>2026-04-26T10:18:21.908Z</time></trkpt><trkpt lat="42.3810397" lon="13.1479121"><ele>985.4000000000001</ele><time>2026-04-26T10:18:22.874Z</time></trkpt><trkpt lat="42.3809272" lon="13.14792"><ele>984.0</ele><time>2026-04-26T10:18:24.863Z</time></trkpt><trkpt lat="42.3808196" lon="13.147879"><ele>984.0</ele><time>2026-04-26T10:18:26.86Z</time></trkpt><trkpt lat="42.3807283" lon="13.1478082"><ele>984.0000000000001</ele><time>2026-04-26T10:18:28.865Z</time></trkpt><trkpt lat="42.3806459" lon="13.1477262"><ele>984.0000000000001</ele><time>2026-04-26T10:18:30.882Z</time></trkpt><trkpt lat="42.38056" lon="13.1476543"><ele>984.0</ele><time>2026-04-26T10:18:32.872Z</time></trkpt><trkpt lat="42.3804711" lon="13.1476304"><ele>984.0</ele><time>2026-04-26T10:18:34.908Z</time></trkpt><trkpt lat="42.3803811" lon="13.1476848"><ele>982.0</ele><time>2026-04-26T10:18:36.869Z</time></trkpt><trkpt lat="42.3803189" lon="13.1478192"><ele>980.0</ele><time>2026-04-26T10:18:38.858Z</time></trkpt><trkpt lat="42.3802868" lon="13.1479012"><ele>978.0</ele><time>2026-04-26T10:18:39.865Z</time></trkpt><trkpt lat="42.3802507" lon="13.1479835"><ele>976.0</ele><time>2026-04-26T10:18:40.864Z</time></trkpt><trkpt lat="42.3802172" lon="13.1480667"><ele>974.0</ele><time>2026-04-26T10:18:41.882Z</time></trkpt><trkpt lat="42.3801951" lon="13.1481527"><ele>972.0</ele><time>2026-04-26T10:18:42.865Z</time></trkpt><trkpt lat="42.3801749" lon="13.1482439"><ele>972.0</ele><time>2026-04-26T10:18:43.854Z</time></trkpt><trkpt lat="42.3801562" lon="13.1483344"><ele>972.0</ele><time>2026-04-26T10:18:44.858Z</time></trkpt><trkpt lat="42.3801326" lon="13.1484268"><ele>972.0</ele><time>2026-04-26T10:18:45.861Z</time></trkpt><trkpt lat="42.3801039" lon="13.1485093"><ele>972.0</ele><time>2026-04-26T10:18:46.858Z</time></trkpt><trkpt lat="42.3800566" lon="13.1486677"><ele>972.0</ele><time>2026-04-26T10:18:48.862Z</time></trkpt><trkpt lat="42.3800252" lon="13.1487504"><ele>972.0</ele><time>2026-04-26T10:18:49.858Z</time></trkpt><trkpt lat="42.3799848" lon="13.1488299"><ele>972.0</ele><time>2026-04-26T10:18:50.868Z</time></trkpt><trkpt lat="42.3799472" lon="13.1489117"><ele>972.0</ele><time>2026-04-26T10:18:51.861Z</time></trkpt><trkpt lat="42.3799094" lon="13.1489887"><ele>972.0</ele><time>2026-04-26T10:18:52.856Z</time></trkpt><trkpt lat="42.3798675" lon="13.1490562"><ele>972.0</ele><time>2026-04-26T10:18:53.876Z</time></trkpt><trkpt lat="42.3798174" lon="13.1491115"><ele>972.0</ele><time>2026-04-26T10:18:54.858Z</time></trkpt><trkpt lat="42.3797156" lon="13.1492216"><ele>972.0</ele><time>2026-04-26T10:18:56.86Z</time></trkpt><trkpt lat="42.3796588" lon="13.1492692"><ele>971.5714285714286</ele><time>2026-04-26T10:18:57.862Z</time></trkpt><trkpt lat="42.3795995" lon="13.1493137"><ele>971.1428571428571</ele><time>2026-04-26T10:18:58.86Z</time></trkpt><trkpt lat="42.3795347" lon="13.1493515"><ele>970.7142857142857</ele><time>2026-04-26T10:18:59.858Z</time></trkpt><trkpt lat="42.3794691" lon="13.1493893"><ele>970.2857142857142</ele><time>2026-04-26T10:19:00.864Z</time></trkpt><trkpt lat="42.379405" lon="13.1494251"><ele>969.8571428571429</ele><time>2026-04-26T10:19:01.863Z</time></trkpt><trkpt lat="42.379343" lon="13.1494532"><ele>969.4285714285713</ele><time>2026-04-26T10:19:02.864Z</time></trkpt><trkpt lat="42.3792804" lon="13.1494786"><ele>968.9999999999999</ele><time>2026-04-26T10:19:03.891Z</time></trkpt><trkpt lat="42.3792092" lon="13.1495062"><ele>969.0</ele><time>2026-04-26T10:19:04.873Z</time></trkpt><trkpt lat="42.379126" lon="13.1495446"><ele>969.0</ele><time>2026-04-26T10:19:05.893Z</time></trkpt><trkpt lat="42.3790432" lon="13.1495828"><ele>969.0</ele><time>2026-04-26T10:19:06.864Z</time></trkpt><trkpt lat="42.3789624" lon="13.1496267"><ele>969.0</ele><time>2026-04-26T10:19:07.864Z</time></trkpt><trkpt lat="42.3788862" lon="13.1496608"><ele>969.0</ele><time>2026-04-26T10:19:08.862Z</time></trkpt><trkpt lat="42.3788122" lon="13.1496941"><ele>969.0</ele><time>2026-04-26T10:19:09.867Z</time></trkpt><trkpt lat="42.3787464" lon="13.1497267"><ele>970.4285714285713</ele><time>2026-04-26T10:19:10.861Z</time></trkpt><trkpt lat="42.3786816" lon="13.1497651"><ele>971.8571428571429</ele><time>2026-04-26T10:19:11.871Z</time></trkpt><trkpt lat="42.378615" lon="13.1498088"><ele>973.2857142857142</ele><time>2026-04-26T10:19:12.865Z</time></trkpt><trkpt lat="42.3785465" lon="13.1498606"><ele>974.7142857142857</ele><time>2026-04-26T10:19:13.872Z</time></trkpt><trkpt lat="42.3784803" lon="13.1499085"><ele>976.1428571428571</ele><time>2026-04-26T10:19:14.874Z</time></trkpt><trkpt lat="42.3784165" lon="13.1499548"><ele>977.5714285714286</ele><time>2026-04-26T10:19:15.868Z</time></trkpt><trkpt lat="42.3783544" lon="13.1499921"><ele>979.0</ele><time>2026-04-26T10:19:16.865Z</time></trkpt><trkpt lat="42.3782915" lon="13.1500128"><ele>972.6666666666666</ele><time>2026-04-26T10:19:17.868Z</time></trkpt><trkpt lat="42.3781768" lon="13.1500369"><ele>966.3333333333333</ele><time>2026-04-26T10:19:19.86Z</time></trkpt><trkpt lat="42.3780533" lon="13.1500557"><ele>960.0</ele><time>2026-04-26T10:19:21.865Z</time></trkpt><trkpt lat="42.3779901" lon="13.1500585"><ele>953.6666666666667</ele><time>2026-04-26T10:19:22.863Z</time></trkpt><trkpt lat="42.3779245" lon="13.1500513"><ele>947.3333333333334</ele><time>2026-04-26T10:19:23.857Z</time></trkpt><trkpt lat="42.3778578" lon="13.1500353"><ele>941.0</ele><time>2026-04-26T10:19:24.868Z</time></trkpt><trkpt lat="42.3777929" lon="13.1500276"><ele>941.0</ele><time>2026-04-26T10:19:25.866Z</time></trkpt><trkpt lat="42.3776705" lon="13.1500336"><ele>941.0</ele><time>2026-04-26T10:19:27.865Z</time></trkpt><trkpt lat="42.377556" lon="13.150042"><ele>941.0</ele><time>2026-04-26T10:19:29.864Z</time></trkpt><trkpt lat="42.3774434" lon="13.1500378"><ele>941.0</ele><time>2026-04-26T10:19:31.889Z</time></trkpt><trkpt lat="42.3773366" lon="13.1500104"><ele>941.0</ele><time>2026-04-26T10:19:33.862Z</time></trkpt><trkpt lat="42.3772466" lon="13.1499932"><ele>940.9999999999999</ele><time>2026-04-26T10:19:35.873Z</time></trkpt><trkpt lat="42.3771888" lon="13.1500505"><ele>940.9999999999999</ele><time>2026-04-26T10:19:38.854Z</time></trkpt><trkpt lat="42.3771751" lon="13.1501596"><ele>941.0</ele><time>2026-04-26T10:19:40.862Z</time></trkpt><trkpt lat="42.3771955" lon="13.1503214"><ele>941.0</ele><time>2026-04-26T10:19:42.874Z</time></trkpt><trkpt lat="42.3772273" lon="13.1504648"><ele>941.0</ele><time>2026-04-26T10:19:44.868Z</time></trkpt><trkpt lat="42.377244" lon="13.1506073"><ele>941.0</ele><time>2026-04-26T10:19:46.862Z</time></trkpt><trkpt lat="42.3772495" lon="13.1507616"><ele>941.0</ele><time>2026-04-26T10:19:48.864Z</time></trkpt><trkpt lat="42.3772365" lon="13.1509266"><ele>941.0</ele><time>2026-04-26T10:19:50.858Z</time></trkpt><trkpt lat="42.377192" lon="13.1510583"><ele>940.8333333333334</ele><time>2026-04-26T10:19:52.859Z</time></trkpt><trkpt lat="42.3771344" lon="13.151194"><ele>940.6666666666667</ele><time>2026-04-26T10:19:54.855Z</time></trkpt><trkpt lat="42.3771023" lon="13.1512757"><ele>940.5</ele><time>2026-04-26T10:19:55.862Z</time></trkpt><trkpt lat="42.3770734" lon="13.1513614"><ele>940.3333333333333</ele><time>2026-04-26T10:19:56.875Z</time></trkpt><trkpt lat="42.3770462" lon="13.1514527"><ele>940.1666666666666</ele><time>2026-04-26T10:19:57.869Z</time></trkpt><trkpt lat="42.3770155" lon="13.151555"><ele>940.0</ele><time>2026-04-26T10:19:58.862Z</time></trkpt><trkpt lat="42.376984" lon="13.1516643"><ele>939.9999999999999</ele><time>2026-04-26T10:19:59.883Z</time></trkpt><trkpt lat="42.3769504" lon="13.1517699"><ele>940.0</ele><time>2026-04-26T10:20:00.859Z</time></trkpt><trkpt lat="42.3769142" lon="13.1518664"><ele>940.0</ele><time>2026-04-26T10:20:01.864Z</time></trkpt><trkpt lat="42.3768813" lon="13.1519528"><ele>940.0</ele><time>2026-04-26T10:20:02.877Z</time></trkpt><trkpt lat="42.3768566" lon="13.152034"><ele>939.9999999999999</ele><time>2026-04-26T10:20:03.858Z</time></trkpt><trkpt lat="42.3768491" lon="13.1521903"><ele>940.0</ele><time>2026-04-26T10:20:05.857Z</time></trkpt><trkpt lat="42.3768792" lon="13.1523185"><ele>937.4285714285713</ele><time>2026-04-26T10:20:07.862Z</time></trkpt><trkpt lat="42.3769145" lon="13.1524037"><ele>934.8571428571428</ele><time>2026-04-26T10:20:09.87Z</time></trkpt><trkpt lat="42.3769783" lon="13.1524539"><ele>932.2857142857142</ele><time>2026-04-26T10:20:22.867Z</time></trkpt><trkpt lat="42.3770046" lon="13.1525417"><ele>929.7142857142858</ele><time>2026-04-26T10:21:52.873Z</time></trkpt><trkpt lat="42.3769684" lon="13.1524617"><ele>927.1428571428572</ele><time>2026-04-26T10:22:36.848Z</time></trkpt><trkpt lat="42.3770141" lon="13.1525219"><ele>924.5714285714287</ele><time>2026-04-26T10:34:16.904Z</time></trkpt><trkpt lat="42.3770616" lon="13.1525957"><ele>922.0</ele><time>2026-04-26T10:36:34.883Z</time></trkpt><trkpt lat="42.3771165" lon="13.1526679"><ele>922.0</ele><time>2026-04-26T10:36:36.858Z</time></trkpt><trkpt lat="42.377171" lon="13.1527816"><ele>922.0000000000001</ele><time>2026-04-26T10:36:38.86Z</time></trkpt><trkpt lat="42.3772057" lon="13.152855"><ele>922.0</ele><time>2026-04-26T10:36:39.866Z</time></trkpt><trkpt lat="42.3772431" lon="13.1529298"><ele>922.0</ele><time>2026-04-26T10:36:40.863Z</time></trkpt><trkpt lat="42.3772805" lon="13.1530005"><ele>922.0000000000001</ele><time>2026-04-26T10:36:41.869Z</time></trkpt><trkpt lat="42.377316" lon="13.1530736"><ele>922.0</ele><time>2026-04-26T10:36:42.907Z</time></trkpt><trkpt lat="42.3773594" lon="13.1531548"><ele>922.0</ele><time>2026-04-26T10:36:43.915Z</time></trkpt><trkpt lat="42.3774065" lon="13.1532399"><ele>921.4000000000001</ele><time>2026-04-26T10:36:44.875Z</time></trkpt><trkpt lat="42.3774698" lon="13.1533286"><ele>920.8000000000001</ele><time>2026-04-26T10:36:45.87Z</time></trkpt><trkpt lat="42.3775458" lon="13.1534224"><ele>920.2</ele><time>2026-04-26T10:36:46.874Z</time></trkpt><trkpt lat="42.3776233" lon="13.1535021"><ele>919.6</ele><time>2026-04-26T10:36:47.867Z</time></trkpt><trkpt lat="42.3777023" lon="13.1535778"><ele>919.0</ele><time>2026-04-26T10:36:48.901Z</time></trkpt><trkpt lat="42.3777789" lon="13.1536594"><ele>919.0</ele><time>2026-04-26T10:36:49.867Z</time></trkpt><trkpt lat="42.3778584" lon="13.1537512"><ele>919.0000000000001</ele><time>2026-04-26T10:36:50.863Z</time></trkpt><trkpt lat="42.3779443" lon="13.1538672"><ele>919.0000000000001</ele><time>2026-04-26T10:36:51.866Z</time></trkpt><trkpt lat="42.378026" lon="13.1539697"><ele>919.0</ele><time>2026-04-26T10:36:52.864Z</time></trkpt><trkpt lat="42.3780995" lon="13.1540722"><ele>919.0</ele><time>2026-04-26T10:36:53.863Z</time></trkpt><trkpt lat="42.3781663" lon="13.1541701"><ele>920.8333333333333</ele><time>2026-04-26T10:36:54.863Z</time></trkpt><trkpt lat="42.3782238" lon="13.1542645"><ele>922.6666666666666</ele><time>2026-04-26T10:36:55.871Z</time></trkpt><trkpt lat="42.3782687" lon="13.1543417"><ele>924.5</ele><time>2026-04-26T10:36:56.858Z</time></trkpt><trkpt lat="42.3783025" lon="13.1544285"><ele>926.3333333333333</ele><time>2026-04-26T10:36:58.931Z</time></trkpt><trkpt lat="42.3783763" lon="13.1544797"><ele>928.1666666666666</ele><time>2026-04-26T10:37:02.871Z</time></trkpt><trkpt lat="42.3784704" lon="13.1543893"><ele>930.0</ele><time>2026-04-26T10:37:04.869Z</time></trkpt><trkpt lat="42.3785367" lon="13.1543238"><ele>930.0</ele><time>2026-04-26T10:37:05.867Z</time></trkpt><trkpt lat="42.3786156" lon="13.1542476"><ele>930.0</ele><time>2026-04-26T10:37:06.871Z</time></trkpt><trkpt lat="42.3787123" lon="13.1541517"><ele>930.0</ele><time>2026-04-26T10:37:07.868Z</time></trkpt><trkpt lat="42.3788157" lon="13.1540679"><ele>930.0</ele><time>2026-04-26T10:37:08.878Z</time></trkpt><trkpt lat="42.3789128" lon="13.1539724"><ele>929.0</ele><time>2026-04-26T10:37:09.875Z</time></trkpt><trkpt lat="42.3790283" lon="13.1538634"><ele>928.0</ele><time>2026-04-26T10:37:10.877Z</time></trkpt><trkpt lat="42.3791424" lon="13.1537501"><ele>927.0</ele><time>2026-04-26T10:37:11.932Z</time></trkpt><trkpt lat="42.3792531" lon="13.1536381"><ele>926.0</ele><time>2026-04-26T10:37:12.88Z</time></trkpt><trkpt lat="42.3793652" lon="13.1535284"><ele>926.0</ele><time>2026-04-26T10:37:13.896Z</time></trkpt><trkpt lat="42.3794818" lon="13.1534174"><ele>926.0</ele><time>2026-04-26T10:37:14.871Z</time></trkpt><trkpt lat="42.3795903" lon="13.1533034"><ele>926.0</ele><time>2026-04-26T10:37:15.877Z</time></trkpt><trkpt lat="42.3796971" lon="13.1532005"><ele>926.0</ele><time>2026-04-26T10:37:16.867Z</time></trkpt><trkpt lat="42.3798123" lon="13.1531291"><ele>924.5</ele><time>2026-04-26T10:37:17.876Z</time></trkpt><trkpt lat="42.37994" lon="13.1530684"><ele>923.0</ele><time>2026-04-26T10:37:18.873Z</time></trkpt><trkpt lat="42.3800823" lon="13.1530238"><ele>921.5</ele><time>2026-04-26T10:37:19.871Z</time></trkpt><trkpt lat="42.3802402" lon="13.1529785"><ele>920.0</ele><time>2026-04-26T10:37:20.872Z</time></trkpt><trkpt lat="42.3804013" lon="13.1529372"><ele>920.5</ele><time>2026-04-26T10:37:21.874Z</time></trkpt><trkpt lat="42.3805529" lon="13.1529022"><ele>921.0</ele><time>2026-04-26T10:37:22.87Z</time></trkpt><trkpt lat="42.3806982" lon="13.1528623"><ele>921.5</ele><time>2026-04-26T10:37:23.871Z</time></trkpt><trkpt lat="42.3808416" lon="13.1528197"><ele>922.0</ele><time>2026-04-26T10:37:24.877Z</time></trkpt><trkpt lat="42.3809738" lon="13.1527768"><ele>922.0</ele><time>2026-04-26T10:37:25.889Z</time></trkpt><trkpt lat="42.3810904" lon="13.1527378"><ele>922.0</ele><time>2026-04-26T10:37:26.873Z</time></trkpt><trkpt lat="42.3811955" lon="13.1526953"><ele>922.0</ele><time>2026-04-26T10:37:27.869Z</time></trkpt><trkpt lat="42.3812907" lon="13.1526443"><ele>922.0</ele><time>2026-04-26T10:37:28.872Z</time></trkpt><trkpt lat="42.3813705" lon="13.1525787"><ele>922.0</ele><time>2026-04-26T10:37:29.868Z</time></trkpt><trkpt lat="42.3814263" lon="13.1525054"><ele>922.0</ele><time>2026-04-26T10:37:30.863Z</time></trkpt><trkpt lat="42.3815086" lon="13.15241"><ele>922.0</ele><time>2026-04-26T10:37:32.871Z</time></trkpt><trkpt lat="42.3816092" lon="13.1523766"><ele>922.0</ele><time>2026-04-26T10:37:34.887Z</time></trkpt><trkpt lat="42.3817096" lon="13.1522973"><ele>922.0</ele><time>2026-04-26T10:37:36.9Z</time></trkpt><trkpt lat="42.3817547" lon="13.1522054"><ele>922.0</ele><time>2026-04-26T10:37:37.882Z</time></trkpt><trkpt lat="42.3818026" lon="13.1520873"><ele>921.9999999999999</ele><time>2026-04-26T10:37:38.863Z</time></trkpt><trkpt lat="42.3818371" lon="13.151964"><ele>922.0</ele><time>2026-04-26T10:37:39.866Z</time></trkpt><trkpt lat="42.3818721" lon="13.151858"><ele>922.0</ele><time>2026-04-26T10:37:40.866Z</time></trkpt><trkpt lat="42.3819236" lon="13.1517752"><ele>922.0</ele><time>2026-04-26T10:37:41.877Z</time></trkpt><trkpt lat="42.3819883" lon="13.1517174"><ele>921.9999999999999</ele><time>2026-04-26T10:37:42.862Z</time></trkpt><trkpt lat="42.3820656" lon="13.1516905"><ele>922.0</ele><time>2026-04-26T10:37:43.88Z</time></trkpt><trkpt lat="42.382161" lon="13.1516749"><ele>923.8</ele><time>2026-04-26T10:37:44.87Z</time></trkpt><trkpt lat="42.3822607" lon="13.1516702"><ele>925.6</ele><time>2026-04-26T10:37:45.871Z</time></trkpt><trkpt lat="42.382364" lon="13.1516756"><ele>927.3999999999999</ele><time>2026-04-26T10:37:46.874Z</time></trkpt><trkpt lat="42.3824709" lon="13.1516766"><ele>929.1999999999999</ele><time>2026-04-26T10:37:47.872Z</time></trkpt><trkpt lat="42.3825798" lon="13.1516772"><ele>931.0</ele><time>2026-04-26T10:37:48.866Z</time></trkpt><trkpt lat="42.3826917" lon="13.1516672"><ele>931.0</ele><time>2026-04-26T10:37:49.87Z</time></trkpt><trkpt lat="42.3828084" lon="13.1516613"><ele>930.9999999999999</ele><time>2026-04-26T10:37:50.865Z</time></trkpt><trkpt lat="42.382919" lon="13.1516615"><ele>930.9999999999999</ele><time>2026-04-26T10:37:51.883Z</time></trkpt><trkpt lat="42.3830293" lon="13.1516691"><ele>931.0</ele><time>2026-04-26T10:37:52.867Z</time></trkpt><trkpt lat="42.383139" lon="13.1516899"><ele>931.0</ele><time>2026-04-26T10:37:53.852Z</time></trkpt><trkpt lat="42.3832444" lon="13.151726"><ele>930.75</ele><time>2026-04-26T10:37:54.858Z</time></trkpt><trkpt lat="42.3833489" lon="13.1517651"><ele>930.5</ele><time>2026-04-26T10:37:55.868Z</time></trkpt><trkpt lat="42.3834613" lon="13.1518081"><ele>930.25</ele><time>2026-04-26T10:37:56.868Z</time></trkpt><trkpt lat="42.3835788" lon="13.1518475"><ele>930.0</ele><time>2026-04-26T10:37:57.878Z</time></trkpt><trkpt lat="42.3836937" lon="13.1518931"><ele>930.0</ele><time>2026-04-26T10:37:58.873Z</time></trkpt><trkpt lat="42.383797" lon="13.1519367"><ele>930.0</ele><time>2026-04-26T10:37:59.874Z</time></trkpt><trkpt lat="42.3838991" lon="13.1519791"><ele>930.0</ele><time>2026-04-26T10:38:00.876Z</time></trkpt><trkpt lat="42.3840073" lon="13.1520166"><ele>930.0</ele><time>2026-04-26T10:38:01.936Z</time></trkpt><trkpt lat="42.3841148" lon="13.1520415"><ele>930.0</ele><time>2026-04-26T10:38:02.92Z</time></trkpt><trkpt lat="42.3842208" lon="13.1520509"><ele>930.5</ele><time>2026-04-26T10:38:03.875Z</time></trkpt><trkpt lat="42.3843293" lon="13.1520629"><ele>931.0</ele><time>2026-04-26T10:38:04.865Z</time></trkpt><trkpt lat="42.3844486" lon="13.1520602"><ele>931.5</ele><time>2026-04-26T10:38:05.877Z</time></trkpt><trkpt lat="42.3845647" lon="13.1520547"><ele>932.0</ele><time>2026-04-26T10:38:06.864Z</time></trkpt><trkpt lat="42.3846738" lon="13.1520512"><ele>933.4000000000001</ele><time>2026-04-26T10:38:07.872Z</time></trkpt><trkpt lat="42.3847761" lon="13.152039"><ele>934.8000000000001</ele><time>2026-04-26T10:38:08.864Z</time></trkpt><trkpt lat="42.3848825" lon="13.1520126"><ele>936.2</ele><time>2026-04-26T10:38:09.869Z</time></trkpt><trkpt lat="42.3849852" lon="13.1519969"><ele>937.6</ele><time>2026-04-26T10:38:10.867Z</time></trkpt><trkpt lat="42.3850864" lon="13.15201"><ele>939.0</ele><time>2026-04-26T10:38:11.876Z</time></trkpt><trkpt lat="42.3851809" lon="13.1520424"><ele>939.0</ele><time>2026-04-26T10:38:12.864Z</time></trkpt><trkpt lat="42.3852802" lon="13.152098"><ele>939.0</ele><time>2026-04-26T10:38:13.866Z</time></trkpt><trkpt lat="42.3853757" lon="13.1521645"><ele>939.0</ele><time>2026-04-26T10:38:14.863Z</time></trkpt><trkpt lat="42.3854824" lon="13.1522377"><ele>939.0</ele><time>2026-04-26T10:38:15.914Z</time></trkpt><trkpt lat="42.3855875" lon="13.1523182"><ele>941.8000000000001</ele><time>2026-04-26T10:38:16.86Z</time></trkpt><trkpt lat="42.3856846" lon="13.1523867"><ele>944.6000000000001</ele><time>2026-04-26T10:38:17.867Z</time></trkpt><trkpt lat="42.385764" lon="13.152446"><ele>947.4</ele><time>2026-04-26T10:38:18.863Z</time></trkpt><trkpt lat="42.3858411" lon="13.1524818"><ele>950.2</ele><time>2026-04-26T10:38:19.869Z</time></trkpt><trkpt lat="42.3859354" lon="13.1525031"><ele>953.0</ele><time>2026-04-26T10:38:20.868Z</time></trkpt><trkpt lat="42.3860336" lon="13.1525148"><ele>953.0000000000001</ele><time>2026-04-26T10:38:21.887Z</time></trkpt><trkpt lat="42.386141" lon="13.1525248"><ele>953.0</ele><time>2026-04-26T10:38:22.865Z</time></trkpt><trkpt lat="42.38624" lon="13.152557"><ele>953.0</ele><time>2026-04-26T10:38:23.885Z</time></trkpt><trkpt lat="42.3863181" lon="13.1526136"><ele>953.0</ele><time>2026-04-26T10:38:24.866Z</time></trkpt><trkpt lat="42.3863869" lon="13.152657"><ele>953.0000000000001</ele><time>2026-04-26T10:38:25.867Z</time></trkpt><trkpt lat="42.3864513" lon="13.1526722"><ele>953.0</ele><time>2026-04-26T10:38:26.864Z</time></trkpt><trkpt lat="42.3865123" lon="13.1526511"><ele>953.0000000000001</ele><time>2026-04-26T10:38:27.868Z</time></trkpt><trkpt lat="42.3865692" lon="13.1526028"><ele>953.0</ele><time>2026-04-26T10:38:28.872Z</time></trkpt><trkpt lat="42.3866232" lon="13.1525415"><ele>953.0</ele><time>2026-04-26T10:38:29.875Z</time></trkpt><trkpt lat="42.3866828" lon="13.1524836"><ele>953.0</ele><time>2026-04-26T10:38:30.86Z</time></trkpt><trkpt lat="42.3867601" lon="13.1524769"><ele>953.0000000000001</ele><time>2026-04-26T10:38:31.9Z</time></trkpt><trkpt lat="42.3868323" lon="13.152511"><ele>953.0</ele><time>2026-04-26T10:38:32.867Z</time></trkpt><trkpt lat="42.3869085" lon="13.1525663"><ele>953.0000000000001</ele><time>2026-04-26T10:38:33.872Z</time></trkpt><trkpt lat="42.3869706" lon="13.1526327"><ele>953.0</ele><time>2026-04-26T10:38:34.866Z</time></trkpt><trkpt lat="42.3870364" lon="13.1527"><ele>953.0</ele><time>2026-04-26T10:38:35.866Z</time></trkpt><trkpt lat="42.3871076" lon="13.1527582"><ele>953.0</ele><time>2026-04-26T10:38:36.869Z</time></trkpt><trkpt lat="42.387185" lon="13.152814"><ele>953.0000000000001</ele><time>2026-04-26T10:38:37.867Z</time></trkpt><trkpt lat="42.3872688" lon="13.1528554"><ele>953.0</ele><time>2026-04-26T10:38:38.895Z</time></trkpt><trkpt lat="42.3873638" lon="13.1528809"><ele>954.5999999999999</ele><time>2026-04-26T10:38:39.873Z</time></trkpt><trkpt lat="42.3874516" lon="13.1528729"><ele>956.1999999999999</ele><time>2026-04-26T10:38:40.867Z</time></trkpt><trkpt lat="42.3875299" lon="13.1528392"><ele>957.8</ele><time>2026-04-26T10:38:41.928Z</time></trkpt><trkpt lat="42.387605" lon="13.152783"><ele>959.4</ele><time>2026-04-26T10:38:42.865Z</time></trkpt><trkpt lat="42.3876851" lon="13.1527022"><ele>961.0</ele><time>2026-04-26T10:38:43.894Z</time></trkpt><trkpt lat="42.3877646" lon="13.1525945"><ele>961.0</ele><time>2026-04-26T10:38:44.866Z</time></trkpt><trkpt lat="42.3878349" lon="13.1524915"><ele>960.9999999999999</ele><time>2026-04-26T10:38:45.865Z</time></trkpt><trkpt lat="42.3879036" lon="13.1523909"><ele>960.9999999999999</ele><time>2026-04-26T10:38:46.868Z</time></trkpt><trkpt lat="42.3879735" lon="13.1522956"><ele>961.0</ele><time>2026-04-26T10:38:47.867Z</time></trkpt><trkpt lat="42.3880338" lon="13.1521945"><ele>961.0</ele><time>2026-04-26T10:38:48.865Z</time></trkpt><trkpt lat="42.3880997" lon="13.152093"><ele>962.8</ele><time>2026-04-26T10:38:49.87Z</time></trkpt><trkpt lat="42.388162" lon="13.151994"><ele>964.5999999999999</ele><time>2026-04-26T10:38:50.88Z</time></trkpt><trkpt lat="42.3882176" lon="13.1519003"><ele>966.4</ele><time>2026-04-26T10:38:51.871Z</time></trkpt><trkpt lat="42.3882751" lon="13.1518059"><ele>968.2</ele><time>2026-04-26T10:38:52.893Z</time></trkpt><trkpt lat="42.3883424" lon="13.1517203"><ele>970.0</ele><time>2026-04-26T10:38:53.868Z</time></trkpt><trkpt lat="42.38841" lon="13.151637"><ele>970.0</ele><time>2026-04-26T10:38:54.935Z</time></trkpt><trkpt lat="42.388481" lon="13.1515525"><ele>970.0</ele><time>2026-04-26T10:38:55.87Z</time></trkpt><trkpt lat="42.3885488" lon="13.1514647"><ele>970.0</ele><time>2026-04-26T10:38:56.868Z</time></trkpt><trkpt lat="42.3886195" lon="13.1513696"><ele>970.0</ele><time>2026-04-26T10:38:57.876Z</time></trkpt><trkpt lat="42.388697" lon="13.1512714"><ele>970.0</ele><time>2026-04-26T10:38:58.863Z</time></trkpt><trkpt lat="42.3887679" lon="13.1511689"><ele>972.0</ele><time>2026-04-26T10:38:59.886Z</time></trkpt><trkpt lat="42.3888308" lon="13.1510666"><ele>974.0</ele><time>2026-04-26T10:39:00.872Z</time></trkpt><trkpt lat="42.3888954" lon="13.1509522"><ele>976.0</ele><time>2026-04-26T10:39:01.861Z</time></trkpt><trkpt lat="42.3889623" lon="13.1508365"><ele>978.0</ele><time>2026-04-26T10:39:02.859Z</time></trkpt><trkpt lat="42.3890261" lon="13.1506918"><ele>980.0</ele><time>2026-04-26T10:39:03.874Z</time></trkpt><trkpt lat="42.3890874" lon="13.1505369"><ele>980.0</ele><time>2026-04-26T10:39:04.871Z</time></trkpt><trkpt lat="42.3891375" lon="13.1503903"><ele>980.0</ele><time>2026-04-26T10:39:05.867Z</time></trkpt><trkpt lat="42.38918" lon="13.1502515"><ele>980.0</ele><time>2026-04-26T10:39:06.878Z</time></trkpt><trkpt lat="42.389224" lon="13.1501133"><ele>980.0</ele><time>2026-04-26T10:39:07.873Z</time></trkpt><trkpt lat="42.389276" lon="13.1499681"><ele>977.6</ele><time>2026-04-26T10:39:08.887Z</time></trkpt><trkpt lat="42.3893195" lon="13.1498278"><ele>975.2</ele><time>2026-04-26T10:39:09.873Z</time></trkpt><trkpt lat="42.3893622" lon="13.1496914"><ele>972.8</ele><time>2026-04-26T10:39:10.877Z</time></trkpt><trkpt lat="42.3894037" lon="13.1495712"><ele>970.4</ele><time>2026-04-26T10:39:11.876Z</time></trkpt><trkpt lat="42.3894338" lon="13.1494637"><ele>968.0</ele><time>2026-04-26T10:39:12.866Z</time></trkpt><trkpt lat="42.3894688" lon="13.1493535"><ele>968.0</ele><time>2026-04-26T10:39:13.858Z</time></trkpt><trkpt lat="42.3895044" lon="13.1492384"><ele>968.0</ele><time>2026-04-26T10:39:14.872Z</time></trkpt><trkpt lat="42.3895274" lon="13.1491064"><ele>968.0</ele><time>2026-04-26T10:39:15.875Z</time></trkpt><trkpt lat="42.3895498" lon="13.1489674"><ele>968.0</ele><time>2026-04-26T10:39:16.901Z</time></trkpt><trkpt lat="42.3895667" lon="13.1488381"><ele>968.0</ele><time>2026-04-26T10:39:17.872Z</time></trkpt><trkpt lat="42.3895847" lon="13.1487173"><ele>967.3333333333334</ele><time>2026-04-26T10:39:18.867Z</time></trkpt><trkpt lat="42.3896009" lon="13.1486231"><ele>966.6666666666667</ele><time>2026-04-26T10:39:19.87Z</time></trkpt><trkpt lat="42.3896231" lon="13.1485214"><ele>966.0</ele><time>2026-04-26T10:39:20.93Z</time></trkpt><trkpt lat="42.3896538" lon="13.1484205"><ele>965.3333333333333</ele><time>2026-04-26T10:39:21.869Z</time></trkpt><trkpt lat="42.3896929" lon="13.1483238"><ele>964.6666666666666</ele><time>2026-04-26T10:39:22.889Z</time></trkpt><trkpt lat="42.3897322" lon="13.1482225"><ele>964.0</ele><time>2026-04-26T10:39:23.873Z</time></trkpt><trkpt lat="42.389783" lon="13.1481331"><ele>967.1428571428572</ele><time>2026-04-26T10:39:24.867Z</time></trkpt><trkpt lat="42.3898293" lon="13.1480485"><ele>970.2857142857144</ele><time>2026-04-26T10:39:25.862Z</time></trkpt><trkpt lat="42.3898748" lon="13.1479736"><ele>973.4285714285714</ele><time>2026-04-26T10:39:26.873Z</time></trkpt><trkpt lat="42.389922" lon="13.1479049"><ele>976.5714285714287</ele><time>2026-04-26T10:39:27.889Z</time></trkpt><trkpt lat="42.3899777" lon="13.1478509"><ele>979.7142857142858</ele><time>2026-04-26T10:39:28.875Z</time></trkpt><trkpt lat="42.3900363" lon="13.1478"><ele>982.8571428571429</ele><time>2026-04-26T10:39:29.859Z</time></trkpt><trkpt lat="42.3900984" lon="13.1477389"><ele>986.0</ele><time>2026-04-26T10:39:30.883Z</time></trkpt><trkpt lat="42.3901635" lon="13.1476839"><ele>986.0000000000001</ele><time>2026-04-26T10:39:31.863Z</time></trkpt><trkpt lat="42.3902235" lon="13.1476225"><ele>986.0</ele><time>2026-04-26T10:39:32.862Z</time></trkpt><trkpt lat="42.390288" lon="13.1475615"><ele>986.0</ele><time>2026-04-26T10:39:33.875Z</time></trkpt><trkpt lat="42.3903473" lon="13.1475017"><ele>986.0</ele><time>2026-04-26T10:39:34.867Z</time></trkpt><trkpt lat="42.3904192" lon="13.1474537"><ele>986.0000000000001</ele><time>2026-04-26T10:39:35.859Z</time></trkpt><trkpt lat="42.3904871" lon="13.1474215"><ele>986.0</ele><time>2026-04-26T10:39:36.864Z</time></trkpt><trkpt lat="42.3905569" lon="13.1473936"><ele>985.3333333333334</ele><time>2026-04-26T10:39:37.865Z</time></trkpt><trkpt lat="42.390624" lon="13.1473655"><ele>984.6666666666667</ele><time>2026-04-26T10:39:38.874Z</time></trkpt><trkpt lat="42.3906902" lon="13.1473467"><ele>984.0</ele><time>2026-04-26T10:39:39.864Z</time></trkpt><trkpt lat="42.390771" lon="13.1473246"><ele>983.3333333333333</ele><time>2026-04-26T10:39:40.898Z</time></trkpt><trkpt lat="42.3908586" lon="13.1473018"><ele>982.6666666666666</ele><time>2026-04-26T10:39:41.868Z</time></trkpt><trkpt lat="42.3909453" lon="13.1472771"><ele>982.0</ele><time>2026-04-26T10:39:42.873Z</time></trkpt><trkpt lat="42.391021" lon="13.1472548"><ele>981.9999999999999</ele><time>2026-04-26T10:39:43.866Z</time></trkpt><trkpt lat="42.3910887" lon="13.1472246"><ele>982.0</ele><time>2026-04-26T10:39:44.916Z</time></trkpt><trkpt lat="42.3912019" lon="13.147127"><ele>982.0</ele><time>2026-04-26T10:39:46.874Z</time></trkpt><trkpt lat="42.3912577" lon="13.1470577"><ele>982.0</ele><time>2026-04-26T10:39:47.86Z</time></trkpt><trkpt lat="42.3913166" lon="13.1469911"><ele>981.9999999999999</ele><time>2026-04-26T10:39:48.866Z</time></trkpt><trkpt lat="42.3913779" lon="13.1469405"><ele>982.0</ele><time>2026-04-26T10:39:49.878Z</time></trkpt><trkpt lat="42.3914371" lon="13.1469015"><ele>986.1666666666666</ele><time>2026-04-26T10:39:50.866Z</time></trkpt><trkpt lat="42.391504" lon="13.1468736"><ele>990.3333333333333</ele><time>2026-04-26T10:39:51.884Z</time></trkpt><trkpt lat="42.3915793" lon="13.1468533"><ele>994.5</ele><time>2026-04-26T10:39:52.865Z</time></trkpt><trkpt lat="42.3916626" lon="13.1468414"><ele>998.6666666666667</ele><time>2026-04-26T10:39:53.861Z</time></trkpt><trkpt lat="42.3917414" lon="13.146826"><ele>1002.8333333333334</ele><time>2026-04-26T10:39:54.869Z</time></trkpt><trkpt lat="42.3918191" lon="13.146809"><ele>1007.0</ele><time>2026-04-26T10:39:55.864Z</time></trkpt><trkpt lat="42.3918976" lon="13.1467857"><ele>1007.0000000000001</ele><time>2026-04-26T10:39:56.872Z</time></trkpt><trkpt lat="42.3919791" lon="13.1467591"><ele>1007.0</ele><time>2026-04-26T10:39:57.861Z</time></trkpt><trkpt lat="42.3920606" lon="13.1467256"><ele>1007.0</ele><time>2026-04-26T10:39:58.871Z</time></trkpt><trkpt lat="42.3921327" lon="13.146679"><ele>1007.0</ele><time>2026-04-26T10:39:59.864Z</time></trkpt><trkpt lat="42.392204" lon="13.1466296"><ele>1007.0000000000001</ele><time>2026-04-26T10:40:00.864Z</time></trkpt><trkpt lat="42.3922789" lon="13.1465731"><ele>1007.0</ele><time>2026-04-26T10:40:01.866Z</time></trkpt><trkpt lat="42.3923574" lon="13.1464996"><ele>1006.6666666666667</ele><time>2026-04-26T10:40:02.877Z</time></trkpt><trkpt lat="42.3924362" lon="13.1464311"><ele>1006.3333333333334</ele><time>2026-04-26T10:40:03.892Z</time></trkpt><trkpt lat="42.3925066" lon="13.1463762"><ele>1006.0</ele><time>2026-04-26T10:40:04.869Z</time></trkpt><trkpt lat="42.3925763" lon="13.1463312"><ele>1005.6666666666667</ele><time>2026-04-26T10:40:05.868Z</time></trkpt><trkpt lat="42.3926504" lon="13.1462856"><ele>1005.3333333333334</ele><time>2026-04-26T10:40:06.863Z</time></trkpt><trkpt lat="42.3927182" lon="13.1462503"><ele>1005.0</ele><time>2026-04-26T10:40:07.874Z</time></trkpt><trkpt lat="42.3928287" lon="13.1462073"><ele>1005.0</ele><time>2026-04-26T10:40:09.87Z</time></trkpt><trkpt lat="42.3929229" lon="13.1462308"><ele>1005.0</ele><time>2026-04-26T10:40:11.868Z</time></trkpt><trkpt lat="42.3930025" lon="13.1463135"><ele>1005.0</ele><time>2026-04-26T10:40:13.87Z</time></trkpt><trkpt lat="42.3930383" lon="13.1464481"><ele>1005.0</ele><time>2026-04-26T10:40:15.869Z</time></trkpt><trkpt lat="42.3930445" lon="13.1465346"><ele>1005.0</ele><time>2026-04-26T10:40:16.865Z</time></trkpt><trkpt lat="42.3930492" lon="13.1466277"><ele>1005.0</ele><time>2026-04-26T10:40:17.882Z</time></trkpt><trkpt lat="42.3930524" lon="13.1467317"><ele>1007.8</ele><time>2026-04-26T10:40:18.862Z</time></trkpt><trkpt lat="42.3930549" lon="13.1468548"><ele>1010.6</ele><time>2026-04-26T10:40:19.86Z</time></trkpt><trkpt lat="42.3930611" lon="13.1469838"><ele>1013.4000000000001</ele><time>2026-04-26T10:40:20.86Z</time></trkpt><trkpt lat="42.3930681" lon="13.1471221"><ele>1016.2</ele><time>2026-04-26T10:40:21.867Z</time></trkpt><trkpt lat="42.3930784" lon="13.1472669"><ele>1019.0</ele><time>2026-04-26T10:40:22.861Z</time></trkpt><trkpt lat="42.3930899" lon="13.1474079"><ele>1021.5000000000001</ele><time>2026-04-26T10:40:23.861Z</time></trkpt><trkpt lat="42.3931002" lon="13.1475394"><ele>1024.0</ele><time>2026-04-26T10:40:24.917Z</time></trkpt><trkpt lat="42.3931149" lon="13.1476518"><ele>1026.5</ele><time>2026-04-26T10:40:25.861Z</time></trkpt><trkpt lat="42.3931352" lon="13.1477664"><ele>1029.0</ele><time>2026-04-26T10:40:26.871Z</time></trkpt><trkpt lat="42.3931595" lon="13.1478794"><ele>1031.5</ele><time>2026-04-26T10:40:27.857Z</time></trkpt><trkpt lat="42.3931915" lon="13.1479835"><ele>1034.0</ele><time>2026-04-26T10:40:28.865Z</time></trkpt><trkpt lat="42.3932351" lon="13.1480746"><ele>1034.0</ele><time>2026-04-26T10:40:29.86Z</time></trkpt><trkpt lat="42.3932906" lon="13.1481629"><ele>1034.0</ele><time>2026-04-26T10:40:30.865Z</time></trkpt><trkpt lat="42.3933521" lon="13.1482572"><ele>1034.0</ele><time>2026-04-26T10:40:31.861Z</time></trkpt><trkpt lat="42.3934119" lon="13.1483518"><ele>1034.0</ele><time>2026-04-26T10:40:32.858Z</time></trkpt><trkpt lat="42.3934794" lon="13.1484353"><ele>1034.0</ele><time>2026-04-26T10:40:33.86Z</time></trkpt><trkpt lat="42.3935403" lon="13.148505"><ele>1034.0</ele><time>2026-04-26T10:40:34.862Z</time></trkpt><trkpt lat="42.3936263" lon="13.1486259"><ele>1039.8</ele><time>2026-04-26T10:40:36.854Z</time></trkpt><trkpt lat="42.393671" lon="13.1487678"><ele>1045.6000000000001</ele><time>2026-04-26T10:40:38.858Z</time></trkpt><trkpt lat="42.3936803" lon="13.1488598"><ele>1051.4</ele><time>2026-04-26T10:40:39.859Z</time></trkpt><trkpt lat="42.3936836" lon="13.1489713"><ele>1057.2</ele><time>2026-04-26T10:40:40.857Z</time></trkpt><trkpt lat="42.3936926" lon="13.1490994"><ele>1063.0</ele><time>2026-04-26T10:40:41.862Z</time></trkpt><trkpt lat="42.3937084" lon="13.1492431"><ele>1069.6</ele><time>2026-04-26T10:40:42.861Z</time></trkpt><trkpt lat="42.3937204" lon="13.1493806"><ele>1076.1999999999998</ele><time>2026-04-26T10:40:43.854Z</time></trkpt><trkpt lat="42.3937295" lon="13.1495039"><ele>1082.8</ele><time>2026-04-26T10:40:44.857Z</time></trkpt><trkpt lat="42.3937342" lon="13.1496337"><ele>1089.3999999999999</ele><time>2026-04-26T10:40:45.862Z</time></trkpt><trkpt lat="42.3937324" lon="13.1497578"><ele>1096.0</ele><time>2026-04-26T10:40:46.857Z</time></trkpt><trkpt lat="42.3937283" lon="13.1498772"><ele>1093.6</ele><time>2026-04-26T10:40:47.869Z</time></trkpt><trkpt lat="42.3937253" lon="13.1499712"><ele>1091.1999999999998</ele><time>2026-04-26T10:40:48.86Z</time></trkpt><trkpt lat="42.3937888" lon="13.1501086"><ele>1088.8000000000002</ele><time>2026-04-26T10:40:50.857Z</time></trkpt><trkpt lat="42.3938602" lon="13.1501561"><ele>1086.4</ele><time>2026-04-26T10:40:52.862Z</time></trkpt><trkpt lat="42.3940045" lon="13.1501162"><ele>1084.0</ele><time>2026-04-26T10:40:54.869Z</time></trkpt><trkpt lat="42.3940703" lon="13.1500802"><ele>1084.0</ele><time>2026-04-26T10:40:55.864Z</time></trkpt><trkpt lat="42.3941403" lon="13.150035"><ele>1084.0</ele><time>2026-04-26T10:40:56.882Z</time></trkpt><trkpt lat="42.394198" lon="13.1499803"><ele>1084.0</ele><time>2026-04-26T10:40:57.873Z</time></trkpt><trkpt lat="42.3942573" lon="13.1499099"><ele>1084.0</ele><time>2026-04-26T10:40:58.857Z</time></trkpt><trkpt lat="42.394329" lon="13.1498206"><ele>1084.0</ele><time>2026-04-26T10:40:59.859Z</time></trkpt><trkpt lat="42.3944113" lon="13.1497118"><ele>1084.0</ele><time>2026-04-26T10:41:00.864Z</time></trkpt><trkpt lat="42.3944789" lon="13.1496025"><ele>1080.2</ele><time>2026-04-26T10:41:01.857Z</time></trkpt><trkpt lat="42.3945388" lon="13.1494983"><ele>1076.4</ele><time>2026-04-26T10:41:02.85Z</time></trkpt><trkpt lat="42.3946029" lon="13.1493833"><ele>1072.6</ele><time>2026-04-26T10:41:03.866Z</time></trkpt><trkpt lat="42.3946523" lon="13.149282"><ele>1068.8</ele><time>2026-04-26T10:41:04.854Z</time></trkpt><trkpt lat="42.394697" lon="13.1491727"><ele>1065.0</ele><time>2026-04-26T10:41:05.86Z</time></trkpt><trkpt lat="42.3947396" lon="13.1490584"><ele>1068.5</ele><time>2026-04-26T10:41:06.853Z</time></trkpt><trkpt lat="42.3947765" lon="13.148941"><ele>1072.0</ele><time>2026-04-26T10:41:07.852Z</time></trkpt><trkpt lat="42.3948055" lon="13.148832"><ele>1075.5</ele><time>2026-04-26T10:41:08.852Z</time></trkpt><trkpt lat="42.3948255" lon="13.1487275"><ele>1079.0</ele><time>2026-04-26T10:41:09.86Z</time></trkpt><trkpt lat="42.3948498" lon="13.148624"><ele>1082.5</ele><time>2026-04-26T10:41:10.861Z</time></trkpt><trkpt lat="42.3948734" lon="13.1485142"><ele>1086.0</ele><time>2026-04-26T10:41:11.861Z</time></trkpt><trkpt lat="42.3948959" lon="13.1484032"><ele>1086.0</ele><time>2026-04-26T10:41:12.865Z</time></trkpt><trkpt lat="42.3949186" lon="13.1482962"><ele>1086.0</ele><time>2026-04-26T10:41:13.868Z</time></trkpt><trkpt lat="42.3949536" lon="13.1481892"><ele>1086.0</ele><time>2026-04-26T10:41:14.866Z</time></trkpt><trkpt lat="42.3949932" lon="13.1480819"><ele>1086.0</ele><time>2026-04-26T10:41:15.861Z</time></trkpt><trkpt lat="42.395031" lon="13.1479953"><ele>1086.0</ele><time>2026-04-26T10:41:16.947Z</time></trkpt><trkpt lat="42.3951153" lon="13.1478944"><ele>1086.0</ele><time>2026-04-26T10:41:18.867Z</time></trkpt><trkpt lat="42.395214" lon="13.1478345"><ele>1084.6</ele><time>2026-04-26T10:41:20.863Z</time></trkpt><trkpt lat="42.3953132" lon="13.1478337"><ele>1083.1999999999998</ele><time>2026-04-26T10:41:22.857Z</time></trkpt><trkpt lat="42.3954179" lon="13.1478778"><ele>1081.8000000000002</ele><time>2026-04-26T10:41:24.858Z</time></trkpt><trkpt lat="42.3954777" lon="13.1479099"><ele>1080.4</ele><time>2026-04-26T10:41:25.854Z</time></trkpt><trkpt lat="42.3955849" lon="13.1479305"><ele>1079.0</ele><time>2026-04-26T10:41:27.862Z</time></trkpt><trkpt lat="42.3957108" lon="13.1478994"><ele>1079.0</ele><time>2026-04-26T10:41:29.916Z</time></trkpt><trkpt lat="42.3957762" lon="13.1479006"><ele>1079.0</ele><time>2026-04-26T10:41:30.867Z</time></trkpt><trkpt lat="42.3958475" lon="13.1479291"><ele>1079.0</ele><time>2026-04-26T10:41:31.893Z</time></trkpt><trkpt lat="42.3959161" lon="13.1479562"><ele>1079.0</ele><time>2026-04-26T10:41:32.86Z</time></trkpt><trkpt lat="42.3959834" lon="13.1479773"><ele>1079.0</ele><time>2026-04-26T10:41:33.864Z</time></trkpt><trkpt lat="42.3960582" lon="13.1479988"><ele>1079.0</ele><time>2026-04-26T10:41:34.86Z</time></trkpt><trkpt lat="42.3961413" lon="13.1480059"><ele>1079.0</ele><time>2026-04-26T10:41:35.869Z</time></trkpt><trkpt lat="42.3962241" lon="13.1480002"><ele>1079.0</ele><time>2026-04-26T10:41:36.858Z</time></trkpt><trkpt lat="42.3962982" lon="13.1479928"><ele>1079.0</ele><time>2026-04-26T10:41:37.861Z</time></trkpt><trkpt lat="42.3963723" lon="13.1479652"><ele>1079.0</ele><time>2026-04-26T10:41:38.862Z</time></trkpt><trkpt lat="42.3964569" lon="13.1479205"><ele>1079.0</ele><time>2026-04-26T10:41:39.862Z</time></trkpt><trkpt lat="42.3965481" lon="13.147872"><ele>1079.0</ele><time>2026-04-26T10:41:40.921Z</time></trkpt><trkpt lat="42.3966364" lon="13.1478444"><ele>1079.0</ele><time>2026-04-26T10:41:41.858Z</time></trkpt><trkpt lat="42.3967131" lon="13.1478257"><ele>1081.5</ele><time>2026-04-26T10:41:42.862Z</time></trkpt><trkpt lat="42.3967788" lon="13.1478162"><ele>1084.0</ele><time>2026-04-26T10:41:43.863Z</time></trkpt><trkpt lat="42.3968863" lon="13.1478267"><ele>1086.5</ele><time>2026-04-26T10:41:45.864Z</time></trkpt><trkpt lat="42.3970169" lon="13.147834"><ele>1089.0</ele><time>2026-04-26T10:41:47.865Z</time></trkpt><trkpt lat="42.3970883" lon="13.147837"><ele>1091.5</ele><time>2026-04-26T10:41:48.865Z</time></trkpt><trkpt lat="42.3971532" lon="13.1478278"><ele>1094.0</ele><time>2026-04-26T10:41:49.861Z</time></trkpt><trkpt lat="42.3972201" lon="13.1478272"><ele>1097.2</ele><time>2026-04-26T10:41:50.868Z</time></trkpt><trkpt lat="42.3972833" lon="13.1478131"><ele>1100.4</ele><time>2026-04-26T10:41:51.867Z</time></trkpt><trkpt lat="42.397399" lon="13.1477822"><ele>1103.6</ele><time>2026-04-26T10:41:53.929Z</time></trkpt><trkpt lat="42.3974618" lon="13.1477711"><ele>1106.8</ele><time>2026-04-26T10:41:54.859Z</time></trkpt><trkpt lat="42.3975347" lon="13.1477539"><ele>1110.0</ele><time>2026-04-26T10:41:56.016Z</time></trkpt><trkpt lat="42.3976965" lon="13.1477258"><ele>1110.0</ele><time>2026-04-26T10:41:57.865Z</time></trkpt><trkpt lat="42.3977774" lon="13.1477165"><ele>1110.0</ele><time>2026-04-26T10:41:58.875Z</time></trkpt><trkpt lat="42.3978609" lon="13.1477141"><ele>1110.0</ele><time>2026-04-26T10:41:59.865Z</time></trkpt><trkpt lat="42.3979434" lon="13.1477228"><ele>1110.0</ele><time>2026-04-26T10:42:00.884Z</time></trkpt><trkpt lat="42.3980264" lon="13.1477324"><ele>1110.0</ele><time>2026-04-26T10:42:01.864Z</time></trkpt><trkpt lat="42.3980933" lon="13.147737"><ele>1110.0</ele><time>2026-04-26T10:42:02.863Z</time></trkpt><trkpt lat="42.3982114" lon="13.147679"><ele>1112.8333333333333</ele><time>2026-04-26T10:42:04.861Z</time></trkpt><trkpt lat="42.3982759" lon="13.1476308"><ele>1115.6666666666667</ele><time>2026-04-26T10:42:05.885Z</time></trkpt><trkpt lat="42.3983597" lon="13.1475869"><ele>1118.5</ele><time>2026-04-26T10:42:06.872Z</time></trkpt><trkpt lat="42.3984417" lon="13.147536"><ele>1121.3333333333335</ele><time>2026-04-26T10:42:07.867Z</time></trkpt><trkpt lat="42.3985203" lon="13.1474731"><ele>1124.1666666666667</ele><time>2026-04-26T10:42:08.924Z</time></trkpt><trkpt lat="42.3985954" lon="13.1474228"><ele>1127.0</ele><time>2026-04-26T10:42:09.864Z</time></trkpt><trkpt lat="42.3986717" lon="13.1473875"><ele>1124.5</ele><time>2026-04-26T10:42:10.884Z</time></trkpt><trkpt lat="42.3987503" lon="13.1473542"><ele>1122.0</ele><time>2026-04-26T10:42:11.869Z</time></trkpt><trkpt lat="42.3988355" lon="13.1473189"><ele>1119.5</ele><time>2026-04-26T10:42:12.859Z</time></trkpt><trkpt lat="42.3989288" lon="13.1472899"><ele>1117.0</ele><time>2026-04-26T10:42:13.879Z</time></trkpt><trkpt lat="42.3990155" lon="13.1472633"><ele>1114.5</ele><time>2026-04-26T10:42:14.862Z</time></trkpt><trkpt lat="42.3991058" lon="13.1472554"><ele>1112.0</ele><time>2026-04-26T10:42:15.868Z</time></trkpt><trkpt lat="42.3991975" lon="13.1472447"><ele>1112.0</ele><time>2026-04-26T10:42:16.865Z</time></trkpt><trkpt lat="42.3992861" lon="13.1472437"><ele>1112.0</ele><time>2026-04-26T10:42:17.883Z</time></trkpt><trkpt lat="42.3993648" lon="13.1472513"><ele>1112.0</ele><time>2026-04-26T10:42:18.865Z</time></trkpt><trkpt lat="42.3994458" lon="13.1472579"><ele>1112.0</ele><time>2026-04-26T10:42:19.866Z</time></trkpt><trkpt lat="42.3995268" lon="13.1472617"><ele>1112.0</ele><time>2026-04-26T10:42:20.87Z</time></trkpt><trkpt lat="42.3996062" lon="13.1472569"><ele>1112.0</ele><time>2026-04-26T10:42:21.919Z</time></trkpt><trkpt lat="42.3996822" lon="13.1472443"><ele>1113.3333333333335</ele><time>2026-04-26T10:42:22.925Z</time></trkpt><trkpt lat="42.3997535" lon="13.147233"><ele>1114.6666666666667</ele><time>2026-04-26T10:42:23.894Z</time></trkpt><trkpt lat="42.3998225" lon="13.1472269"><ele>1116.0</ele><time>2026-04-26T10:42:24.864Z</time></trkpt><trkpt lat="42.3999339" lon="13.1471995"><ele>1117.3333333333333</ele><time>2026-04-26T10:42:26.86Z</time></trkpt><trkpt lat="42.4000085" lon="13.1471944"><ele>1118.6666666666665</ele><time>2026-04-26T10:42:28.857Z</time></trkpt><trkpt lat="42.4000079" lon="13.1472868"><ele>1120.0</ele><time>2026-04-26T10:42:31.854Z</time></trkpt><trkpt lat="42.3999418" lon="13.14734"><ele>1120.0</ele><time>2026-04-26T10:42:33.855Z</time></trkpt><trkpt lat="42.3998007" lon="13.1473413"><ele>1120.0</ele><time>2026-04-26T10:42:35.85Z</time></trkpt><trkpt lat="42.3997079" lon="13.1473517"><ele>1120.0</ele><time>2026-04-26T10:42:36.86Z</time></trkpt><trkpt lat="42.3996077" lon="13.1473705"><ele>1120.0</ele><time>2026-04-26T10:42:37.856Z</time></trkpt><trkpt lat="42.3995114" lon="13.1473902"><ele>1120.0</ele><time>2026-04-26T10:42:38.863Z</time></trkpt><trkpt lat="42.3994239" lon="13.1474037"><ele>1125.5</ele><time>2026-04-26T10:42:39.851Z</time></trkpt><trkpt lat="42.3993459" lon="13.147421"><ele>1131.0</ele><time>2026-04-26T10:42:40.861Z</time></trkpt><trkpt lat="42.3992766" lon="13.147445"><ele>1136.5</ele><time>2026-04-26T10:42:41.856Z</time></trkpt><trkpt lat="42.3992002" lon="13.1474762"><ele>1142.0</ele><time>2026-04-26T10:42:42.864Z</time></trkpt><trkpt lat="42.3991218" lon="13.147534"><ele>1147.5</ele><time>2026-04-26T10:42:43.859Z</time></trkpt><trkpt lat="42.3990359" lon="13.1476098"><ele>1153.0</ele><time>2026-04-26T10:42:44.855Z</time></trkpt><trkpt lat="42.3989578" lon="13.1476832"><ele>1153.0</ele><time>2026-04-26T10:42:45.862Z</time></trkpt><trkpt lat="42.3988797" lon="13.147755"><ele>1153.0</ele><time>2026-04-26T10:42:46.85Z</time></trkpt><trkpt lat="42.3988052" lon="13.1478381"><ele>1153.0</ele><time>2026-04-26T10:42:47.858Z</time></trkpt><trkpt lat="42.3987222" lon="13.1479262"><ele>1153.0</ele><time>2026-04-26T10:42:48.86Z</time></trkpt><trkpt lat="42.39864" lon="13.1480142"><ele>1153.0</ele><time>2026-04-26T10:42:49.865Z</time></trkpt><trkpt lat="42.3985602" lon="13.1481029"><ele>1155.2</ele><time>2026-04-26T10:42:50.86Z</time></trkpt><trkpt lat="42.3984699" lon="13.1481877"><ele>1157.4</ele><time>2026-04-26T10:42:51.857Z</time></trkpt><trkpt lat="42.3983871" lon="13.1482627"><ele>1159.6000000000001</ele><time>2026-04-26T10:42:52.857Z</time></trkpt><trkpt lat="42.3983007" lon="13.1483359"><ele>1161.8</ele><time>2026-04-26T10:42:53.861Z</time></trkpt><trkpt lat="42.3982165" lon="13.1484114"><ele>1164.0</ele><time>2026-04-26T10:42:54.862Z</time></trkpt><trkpt lat="42.3981378" lon="13.148487"><ele>1164.0</ele><time>2026-04-26T10:42:55.864Z</time></trkpt><trkpt lat="42.3980568" lon="13.1485633"><ele>1164.0</ele><time>2026-04-26T10:42:56.86Z</time></trkpt><trkpt lat="42.3979775" lon="13.1486375"><ele>1164.0</ele><time>2026-04-26T10:42:57.874Z</time></trkpt><trkpt lat="42.3979012" lon="13.1487113"><ele>1164.0</ele><time>2026-04-26T10:42:58.855Z</time></trkpt><trkpt lat="42.3978274" lon="13.1487866"><ele>1164.0</ele><time>2026-04-26T10:42:59.862Z</time></trkpt><trkpt lat="42.3977609" lon="13.1488616"><ele>1161.0</ele><time>2026-04-26T10:43:00.852Z</time></trkpt><trkpt lat="42.3977036" lon="13.1489292"><ele>1158.0</ele><time>2026-04-26T10:43:01.861Z</time></trkpt><trkpt lat="42.3976519" lon="13.1489902"><ele>1155.0</ele><time>2026-04-26T10:43:02.862Z</time></trkpt><trkpt lat="42.397548" lon="13.1490644"><ele>1152.0</ele><time>2026-04-26T10:43:04.864Z</time></trkpt><trkpt lat="42.3974826" lon="13.1490958"><ele>1149.0</ele><time>2026-04-26T10:43:05.884Z</time></trkpt><trkpt lat="42.3974101" lon="13.1491121"><ele>1146.0</ele><time>2026-04-26T10:43:06.878Z</time></trkpt><trkpt lat="42.397337" lon="13.1491323"><ele>1149.6666666666667</ele><time>2026-04-26T10:43:07.865Z</time></trkpt><trkpt lat="42.3972596" lon="13.1491475"><ele>1153.3333333333333</ele><time>2026-04-26T10:43:08.869Z</time></trkpt><trkpt lat="42.3971872" lon="13.1491635"><ele>1157.0</ele><time>2026-04-26T10:43:09.887Z</time></trkpt><trkpt lat="42.3970656" lon="13.1491933"><ele>1160.6666666666665</ele><time>2026-04-26T10:43:11.864Z</time></trkpt><trkpt lat="42.3969979" lon="13.1492181"><ele>1164.3333333333333</ele><time>2026-04-26T10:43:12.872Z</time></trkpt><trkpt lat="42.3969194" lon="13.1492514"><ele>1168.0</ele><time>2026-04-26T10:43:13.866Z</time></trkpt><trkpt lat="42.3968358" lon="13.1492859"><ele>1168.0</ele><time>2026-04-26T10:43:14.903Z</time></trkpt><trkpt lat="42.3967526" lon="13.1493324"><ele>1168.0</ele><time>2026-04-26T10:43:15.867Z</time></trkpt><trkpt lat="42.3966784" lon="13.1493887"><ele>1168.0</ele><time>2026-04-26T10:43:16.866Z</time></trkpt><trkpt lat="42.3966111" lon="13.149445"><ele>1168.0</ele><time>2026-04-26T10:43:17.865Z</time></trkpt><trkpt lat="42.3965473" lon="13.1494994"><ele>1168.0</ele><time>2026-04-26T10:43:18.87Z</time></trkpt><trkpt lat="42.3964849" lon="13.1495528"><ele>1168.0</ele><time>2026-04-26T10:43:19.875Z</time></trkpt><trkpt lat="42.3964093" lon="13.1496206"><ele>1168.0</ele><time>2026-04-26T10:43:20.859Z</time></trkpt><trkpt lat="42.3963365" lon="13.1497007"><ele>1168.0</ele><time>2026-04-26T10:43:21.877Z</time></trkpt><trkpt lat="42.3962611" lon="13.149761"><ele>1168.0</ele><time>2026-04-26T10:43:22.865Z</time></trkpt><trkpt lat="42.3961865" lon="13.1498015"><ele>1168.0</ele><time>2026-04-26T10:43:23.868Z</time></trkpt><trkpt lat="42.3961173" lon="13.1498448"><ele>1168.0</ele><time>2026-04-26T10:43:24.868Z</time></trkpt><trkpt lat="42.3960528" lon="13.1498998"><ele>1168.0</ele><time>2026-04-26T10:43:25.861Z</time></trkpt><trkpt lat="42.395994" lon="13.149947"><ele>1170.4</ele><time>2026-04-26T10:43:26.898Z</time></trkpt><trkpt lat="42.3959092" lon="13.1500411"><ele>1172.8</ele><time>2026-04-26T10:43:28.869Z</time></trkpt><trkpt lat="42.3958651" lon="13.1501258"><ele>1175.2</ele><time>2026-04-26T10:43:30.862Z</time></trkpt><trkpt lat="42.3959304" lon="13.15018"><ele>1177.6</ele><time>2026-04-26T10:43:34.86Z</time></trkpt><trkpt lat="42.3960051" lon="13.1500928"><ele>1180.0</ele><time>2026-04-26T10:43:36.869Z</time></trkpt><trkpt lat="42.3961075" lon="13.1500078"><ele>1180.0</ele><time>2026-04-26T10:43:38.867Z</time></trkpt><trkpt lat="42.3961764" lon="13.1500012"><ele>1180.0</ele><time>2026-04-26T10:43:39.865Z</time></trkpt><trkpt lat="42.3962512" lon="13.1499961"><ele>1180.0</ele><time>2026-04-26T10:43:40.873Z</time></trkpt><trkpt lat="42.396336" lon="13.1499757"><ele>1180.0</ele><time>2026-04-26T10:43:41.874Z</time></trkpt><trkpt lat="42.3964238" lon="13.1499543"><ele>1180.0</ele><time>2026-04-26T10:43:42.87Z</time></trkpt><trkpt lat="42.3965075" lon="13.1499422"><ele>1180.0</ele><time>2026-04-26T10:43:43.868Z</time></trkpt><trkpt lat="42.3966017" lon="13.1499336"><ele>1178.0</ele><time>2026-04-26T10:43:44.869Z</time></trkpt><trkpt lat="42.3966978" lon="13.1499288"><ele>1176.0</ele><time>2026-04-26T10:43:45.873Z</time></trkpt><trkpt lat="42.3967942" lon="13.1499161"><ele>1174.0</ele><time>2026-04-26T10:43:46.871Z</time></trkpt><trkpt lat="42.3968863" lon="13.1499006"><ele>1172.0</ele><time>2026-04-26T10:43:47.866Z</time></trkpt><trkpt lat="42.3969637" lon="13.1498912"><ele>1170.0</ele><time>2026-04-26T10:43:48.863Z</time></trkpt><trkpt lat="42.3970367" lon="13.1498729"><ele>1168.0</ele><time>2026-04-26T10:43:49.868Z</time></trkpt><trkpt lat="42.3971036" lon="13.1498639"><ele>1170.3333333333333</ele><time>2026-04-26T10:43:50.869Z</time></trkpt><trkpt lat="42.3972251" lon="13.1498645"><ele>1172.6666666666665</ele><time>2026-04-26T10:43:52.898Z</time></trkpt><trkpt lat="42.3972897" lon="13.1498738"><ele>1175.0</ele><time>2026-04-26T10:43:53.922Z</time></trkpt><trkpt lat="42.3973523" lon="13.1498927"><ele>1177.3333333333333</ele><time>2026-04-26T10:43:54.874Z</time></trkpt><trkpt lat="42.3974158" lon="13.1499208"><ele>1179.6666666666667</ele><time>2026-04-26T10:43:55.873Z</time></trkpt><trkpt lat="42.3974832" lon="13.1499625"><ele>1182.0</ele><time>2026-04-26T10:43:56.877Z</time></trkpt><trkpt lat="42.3975465" lon="13.1500013"><ele>1187.6666666666667</ele><time>2026-04-26T10:43:57.865Z</time></trkpt><trkpt lat="42.3976122" lon="13.1500307"><ele>1193.3333333333333</ele><time>2026-04-26T10:43:58.866Z</time></trkpt><trkpt lat="42.3977314" lon="13.1500477"><ele>1199.0</ele><time>2026-04-26T10:44:00.857Z</time></trkpt><trkpt lat="42.3978005" lon="13.1500453"><ele>1204.6666666666665</ele><time>2026-04-26T10:44:01.86Z</time></trkpt><trkpt lat="42.3978728" lon="13.1500314"><ele>1210.3333333333333</ele><time>2026-04-26T10:44:02.87Z</time></trkpt><trkpt lat="42.3979395" lon="13.1500019"><ele>1216.0</ele><time>2026-04-26T10:44:03.917Z</time></trkpt><trkpt lat="42.3980509" lon="13.1499104"><ele>1213.3333333333333</ele><time>2026-04-26T10:44:05.897Z</time></trkpt><trkpt lat="42.3981089" lon="13.1498518"><ele>1210.6666666666665</ele><time>2026-04-26T10:44:06.859Z</time></trkpt><trkpt lat="42.3981695" lon="13.1497966"><ele>1208.0</ele><time>2026-04-26T10:44:07.862Z</time></trkpt><trkpt lat="42.3982359" lon="13.149747"><ele>1205.3333333333333</ele><time>2026-04-26T10:44:08.854Z</time></trkpt><trkpt lat="42.3983006" lon="13.1497078"><ele>1202.6666666666667</ele><time>2026-04-26T10:44:09.866Z</time></trkpt><trkpt lat="42.3983731" lon="13.1496685"><ele>1200.0</ele><time>2026-04-26T10:44:10.865Z</time></trkpt><trkpt lat="42.3984502" lon="13.1496316"><ele>1200.0</ele><time>2026-04-26T10:44:11.868Z</time></trkpt><trkpt lat="42.3985373" lon="13.1495919"><ele>1200.0</ele><time>2026-04-26T10:44:12.877Z</time></trkpt><trkpt lat="42.398617" lon="13.149563"><ele>1200.0</ele><time>2026-04-26T10:44:13.871Z</time></trkpt><trkpt lat="42.3986913" lon="13.1495289"><ele>1200.0</ele><time>2026-04-26T10:44:14.859Z</time></trkpt><trkpt lat="42.3987632" lon="13.1494893"><ele>1200.0</ele><time>2026-04-26T10:44:15.863Z</time></trkpt><trkpt lat="42.3988511" lon="13.1494539"><ele>1200.0</ele><time>2026-04-26T10:44:16.87Z</time></trkpt><trkpt lat="42.3989508" lon="13.1494164"><ele>1205.8</ele><time>2026-04-26T10:44:17.866Z</time></trkpt><trkpt lat="42.3990572" lon="13.1493748"><ele>1211.6</ele><time>2026-04-26T10:44:18.932Z</time></trkpt><trkpt lat="42.3991615" lon="13.1493291"><ele>1217.4</ele><time>2026-04-26T10:44:19.861Z</time></trkpt><trkpt lat="42.3992524" lon="13.1492854"><ele>1223.2</ele><time>2026-04-26T10:44:20.863Z</time></trkpt><trkpt lat="42.3993389" lon="13.1492445"><ele>1229.0</ele><time>2026-04-26T10:44:21.867Z</time></trkpt><trkpt lat="42.3994137" lon="13.1492043"><ele>1229.0</ele><time>2026-04-26T10:44:22.869Z</time></trkpt><trkpt lat="42.3994892" lon="13.1491616"><ele>1229.0</ele><time>2026-04-26T10:44:23.863Z</time></trkpt><trkpt lat="42.399573" lon="13.1491233"><ele>1229.0</ele><time>2026-04-26T10:44:24.856Z</time></trkpt><trkpt lat="42.3996481" lon="13.1490974"><ele>1229.0</ele><time>2026-04-26T10:44:25.869Z</time></trkpt><trkpt lat="42.3997142" lon="13.1490846"><ele>1229.0</ele><time>2026-04-26T10:44:26.853Z</time></trkpt><trkpt lat="42.3998392" lon="13.1491132"><ele>1229.0</ele><time>2026-04-26T10:44:28.863Z</time></trkpt><trkpt lat="42.3999119" lon="13.1491483"><ele>1232.4</ele><time>2026-04-26T10:44:29.863Z</time></trkpt><trkpt lat="42.3999843" lon="13.1491867"><ele>1235.8000000000002</ele><time>2026-04-26T10:44:30.862Z</time></trkpt><trkpt lat="42.400055" lon="13.1492008"><ele>1239.1999999999998</ele><time>2026-04-26T10:44:31.863Z</time></trkpt><trkpt lat="42.4001445" lon="13.1491967"><ele>1242.6</ele><time>2026-04-26T10:44:32.862Z</time></trkpt><trkpt lat="42.4002496" lon="13.1491778"><ele>1246.0</ele><time>2026-04-26T10:44:33.864Z</time></trkpt><trkpt lat="42.4003563" lon="13.149156"><ele>1246.0</ele><time>2026-04-26T10:44:34.862Z</time></trkpt><trkpt lat="42.4004566" lon="13.1491372"><ele>1246.0</ele><time>2026-04-26T10:44:35.858Z</time></trkpt><trkpt lat="42.4005531" lon="13.149125"><ele>1246.0</ele><time>2026-04-26T10:44:36.856Z</time></trkpt><trkpt lat="42.4006435" lon="13.1491181"><ele>1246.0</ele><time>2026-04-26T10:44:37.856Z</time></trkpt><trkpt lat="42.4007231" lon="13.1491064"><ele>1246.0</ele><time>2026-04-26T10:44:38.874Z</time></trkpt><trkpt lat="42.4008023" lon="13.1490985"><ele>1246.0</ele><time>2026-04-26T10:44:39.866Z</time></trkpt><trkpt lat="42.4008719" lon="13.1490995"><ele>1245.857142857143</ele><time>2026-04-26T10:44:40.859Z</time></trkpt><trkpt lat="42.4009437" lon="13.1491191"><ele>1245.7142857142858</ele><time>2026-04-26T10:44:41.859Z</time></trkpt><trkpt lat="42.4010053" lon="13.1491397"><ele>1245.5714285714284</ele><time>2026-04-26T10:44:42.867Z</time></trkpt><trkpt lat="42.4010646" lon="13.1491748"><ele>1245.4285714285716</ele><time>2026-04-26T10:44:43.888Z</time></trkpt><trkpt lat="42.4011253" lon="13.1492195"><ele>1245.2857142857142</ele><time>2026-04-26T10:44:44.869Z</time></trkpt><trkpt lat="42.4011829" lon="13.1492715"><ele>1245.142857142857</ele><time>2026-04-26T10:44:45.855Z</time></trkpt><trkpt lat="42.4012408" lon="13.1493238"><ele>1245.0</ele><time>2026-04-26T10:44:46.856Z</time></trkpt><trkpt lat="42.4012958" lon="13.1493746"><ele>1246.8333333333333</ele><time>2026-04-26T10:44:47.861Z</time></trkpt><trkpt lat="42.4013946" lon="13.1493979"><ele>1248.6666666666667</ele><time>2026-04-26T10:44:49.86Z</time></trkpt><trkpt lat="42.4014882" lon="13.1493282"><ele>1250.5</ele><time>2026-04-26T10:44:51.86Z</time></trkpt><trkpt lat="42.4015399" lon="13.1492773"><ele>1252.3333333333335</ele><time>2026-04-26T10:44:52.887Z</time></trkpt><trkpt lat="42.401606" lon="13.1491971"><ele>1254.1666666666667</ele><time>2026-04-26T10:44:53.85Z</time></trkpt><trkpt lat="42.4016663" lon="13.1491141"><ele>1256.0</ele><time>2026-04-26T10:44:54.853Z</time></trkpt><trkpt lat="42.4017331" lon="13.1490304"><ele>1249.2</ele><time>2026-04-26T10:44:55.853Z</time></trkpt><trkpt lat="42.4018045" lon="13.1489415"><ele>1242.3999999999999</ele><time>2026-04-26T10:44:56.857Z</time></trkpt><trkpt lat="42.4018649" lon="13.1488484"><ele>1235.6</ele><time>2026-04-26T10:44:57.861Z</time></trkpt><trkpt lat="42.40193" lon="13.1487582"><ele>1228.8</ele><time>2026-04-26T10:44:58.859Z</time></trkpt><trkpt lat="42.4019966" lon="13.1486618"><ele>1222.0</ele><time>2026-04-26T10:44:59.861Z</time></trkpt><trkpt lat="42.402057" lon="13.1485758"><ele>1222.0</ele><time>2026-04-26T10:45:00.856Z</time></trkpt><trkpt lat="42.4021071" lon="13.1485175"><ele>1222.0</ele><time>2026-04-26T10:45:01.856Z</time></trkpt><trkpt lat="42.4021864" lon="13.1483954"><ele>1222.0</ele><time>2026-04-26T10:45:03.858Z</time></trkpt><trkpt lat="42.40222" lon="13.148319"><ele>1222.0</ele><time>2026-04-26T10:45:04.871Z</time></trkpt><trkpt lat="42.4022539" lon="13.1482443"><ele>1222.0</ele><time>2026-04-26T10:45:05.868Z</time></trkpt><trkpt lat="42.402284" lon="13.1481634"><ele>1222.0</ele><time>2026-04-26T10:45:06.867Z</time></trkpt><trkpt lat="42.4023211" lon="13.1480805"><ele>1228.2</ele><time>2026-04-26T10:45:07.86Z</time></trkpt><trkpt lat="42.4023645" lon="13.1479889"><ele>1234.4</ele><time>2026-04-26T10:45:08.864Z</time></trkpt><trkpt lat="42.4024172" lon="13.147882"><ele>1240.6</ele><time>2026-04-26T10:45:09.86Z</time></trkpt><trkpt lat="42.4024623" lon="13.1477596"><ele>1246.8</ele><time>2026-04-26T10:45:10.859Z</time></trkpt><trkpt lat="42.4025086" lon="13.1476449"><ele>1253.0</ele><time>2026-04-26T10:45:11.864Z</time></trkpt><trkpt lat="42.4025624" lon="13.1475294"><ele>1253.0</ele><time>2026-04-26T10:45:12.862Z</time></trkpt><trkpt lat="42.402623" lon="13.1474186"><ele>1253.0</ele><time>2026-04-26T10:45:13.859Z</time></trkpt><trkpt lat="42.4026762" lon="13.1473127"><ele>1253.0</ele><time>2026-04-26T10:45:14.858Z</time></trkpt><trkpt lat="42.4027202" lon="13.1472108"><ele>1253.0</ele><time>2026-04-26T10:45:15.867Z</time></trkpt><trkpt lat="42.4027645" lon="13.1471115"><ele>1253.0</ele><time>2026-04-26T10:45:16.872Z</time></trkpt><trkpt lat="42.4027974" lon="13.1470229"><ele>1253.0</ele><time>2026-04-26T10:45:17.858Z</time></trkpt><trkpt lat="42.4028376" lon="13.1469345"><ele>1253.6666666666667</ele><time>2026-04-26T10:45:18.887Z</time></trkpt><trkpt lat="42.4028876" lon="13.1468553"><ele>1254.3333333333335</ele><time>2026-04-26T10:45:19.866Z</time></trkpt><trkpt lat="42.4029373" lon="13.14677"><ele>1255.0</ele><time>2026-04-26T10:45:20.89Z</time></trkpt><trkpt lat="42.4029836" lon="13.1466641"><ele>1255.6666666666667</ele><time>2026-04-26T10:45:21.871Z</time></trkpt><trkpt lat="42.4030326" lon="13.1465746"><ele>1256.3333333333333</ele><time>2026-04-26T10:45:22.876Z</time></trkpt><trkpt lat="42.4030811" lon="13.1464917"><ele>1257.0</ele><time>2026-04-26T10:45:23.88Z</time></trkpt><trkpt lat="42.4031326" lon="13.1464088"><ele>1257.0</ele><time>2026-04-26T10:45:24.869Z</time></trkpt><trkpt lat="42.4031923" lon="13.1463289"><ele>1257.0</ele><time>2026-04-26T10:45:25.885Z</time></trkpt><trkpt lat="42.403267" lon="13.1462509"><ele>1257.0</ele><time>2026-04-26T10:45:26.868Z</time></trkpt><trkpt lat="42.4033458" lon="13.1461804"><ele>1257.0</ele><time>2026-04-26T10:45:27.868Z</time></trkpt><trkpt lat="42.403422" lon="13.1461144"><ele>1257.0</ele><time>2026-04-26T10:45:28.878Z</time></trkpt><trkpt lat="42.4035043" lon="13.146063"><ele>1257.0</ele><time>2026-04-26T10:45:29.875Z</time></trkpt><trkpt lat="42.4035847" lon="13.1460282"><ele>1257.0</ele><time>2026-04-26T10:45:30.887Z</time></trkpt><trkpt lat="42.4036656" lon="13.1459997"><ele>1257.0</ele><time>2026-04-26T10:45:31.861Z</time></trkpt><trkpt lat="42.4037455" lon="13.1459687"><ele>1257.0</ele><time>2026-04-26T10:45:32.872Z</time></trkpt><trkpt lat="42.4038306" lon="13.1459442"><ele>1257.0</ele><time>2026-04-26T10:45:33.868Z</time></trkpt><trkpt lat="42.4039065" lon="13.1459282"><ele>1257.0</ele><time>2026-04-26T10:45:34.87Z</time></trkpt><trkpt lat="42.4039761" lon="13.1459146"><ele>1260.8333333333333</ele><time>2026-04-26T10:45:35.868Z</time></trkpt><trkpt lat="42.4040471" lon="13.1459083"><ele>1264.6666666666667</ele><time>2026-04-26T10:45:36.861Z</time></trkpt><trkpt lat="42.4041168" lon="13.145892"><ele>1268.5</ele><time>2026-04-26T10:45:37.863Z</time></trkpt><trkpt lat="42.4041888" lon="13.1458764"><ele>1272.3333333333335</ele><time>2026-04-26T10:45:38.849Z</time></trkpt><trkpt lat="42.4042753" lon="13.1458557"><ele>1276.1666666666667</ele><time>2026-04-26T10:45:39.852Z</time></trkpt><trkpt lat="42.4043754" lon="13.1458206"><ele>1280.0</ele><time>2026-04-26T10:45:40.854Z</time></trkpt><trkpt lat="42.4044794" lon="13.1457956"><ele>1280.0</ele><time>2026-04-26T10:45:41.851Z</time></trkpt><trkpt lat="42.4045832" lon="13.1457712"><ele>1280.0</ele><time>2026-04-26T10:45:42.858Z</time></trkpt><trkpt lat="42.4046876" lon="13.1457562"><ele>1280.0</ele><time>2026-04-26T10:45:43.86Z</time></trkpt><trkpt lat="42.4047846" lon="13.1457389"><ele>1280.0</ele><time>2026-04-26T10:45:44.855Z</time></trkpt><trkpt lat="42.4048795" lon="13.1457297"><ele>1280.0</ele><time>2026-04-26T10:45:45.859Z</time></trkpt><trkpt lat="42.4049665" lon="13.1457232"><ele>1282.0</ele><time>2026-04-26T10:45:46.866Z</time></trkpt><trkpt lat="42.4050471" lon="13.14572"><ele>1284.0</ele><time>2026-04-26T10:45:47.859Z</time></trkpt><trkpt lat="42.4051201" lon="13.1457219"><ele>1286.0</ele><time>2026-04-26T10:45:48.992Z</time></trkpt><trkpt lat="42.4052755" lon="13.1457458"><ele>1288.0</ele><time>2026-04-26T10:45:50.862Z</time></trkpt><trkpt lat="42.4053579" lon="13.1457479"><ele>1290.0</ele><time>2026-04-26T10:45:51.86Z</time></trkpt><trkpt lat="42.4054386" lon="13.1457562"><ele>1292.2</ele><time>2026-04-26T10:45:52.865Z</time></trkpt><trkpt lat="42.4055316" lon="13.1457443"><ele>1294.4</ele><time>2026-04-26T10:45:53.864Z</time></trkpt><trkpt lat="42.4056388" lon="13.1457202"><ele>1296.6</ele><time>2026-04-26T10:45:54.868Z</time></trkpt><trkpt lat="42.4057597" lon="13.1456939"><ele>1298.8</ele><time>2026-04-26T10:45:55.858Z</time></trkpt><trkpt lat="42.40587" lon="13.1456765"><ele>1301.0</ele><time>2026-04-26T10:45:56.879Z</time></trkpt><trkpt lat="42.4059752" lon="13.14566"><ele>1295.8</ele><time>2026-04-26T10:45:57.866Z</time></trkpt><trkpt lat="42.4060774" lon="13.1456493"><ele>1290.6</ele><time>2026-04-26T10:45:58.874Z</time></trkpt><trkpt lat="42.4061757" lon="13.1456406"><ele>1285.4</ele><time>2026-04-26T10:45:59.856Z</time></trkpt><trkpt lat="42.40627" lon="13.1456382"><ele>1280.2</ele><time>2026-04-26T10:46:00.86Z</time></trkpt><trkpt lat="42.4063647" lon="13.1456366"><ele>1275.0</ele><time>2026-04-26T10:46:01.897Z</time></trkpt><trkpt lat="42.4064602" lon="13.1456278"><ele>1275.0</ele><time>2026-04-26T10:46:02.857Z</time></trkpt><trkpt lat="42.4065625" lon="13.1456098"><ele>1275.0</ele><time>2026-04-26T10:46:03.856Z</time></trkpt><trkpt lat="42.406665" lon="13.1456019"><ele>1275.0</ele><time>2026-04-26T10:46:04.856Z</time></trkpt><trkpt lat="42.4067801" lon="13.1456031"><ele>1275.0</ele><time>2026-04-26T10:46:05.876Z</time></trkpt><trkpt lat="42.4068919" lon="13.1455918"><ele>1275.0</ele><time>2026-04-26T10:46:06.863Z</time></trkpt><trkpt lat="42.4070135" lon="13.1455925"><ele>1275.0</ele><time>2026-04-26T10:46:07.863Z</time></trkpt><trkpt lat="42.407116" lon="13.145583"><ele>1275.0</ele><time>2026-04-26T10:46:08.855Z</time></trkpt><trkpt lat="42.4072047" lon="13.1455675"><ele>1275.0</ele><time>2026-04-26T10:46:09.86Z</time></trkpt><trkpt lat="42.4072846" lon="13.1455463"><ele>1275.0</ele><time>2026-04-26T10:46:10.862Z</time></trkpt><trkpt lat="42.4073901" lon="13.1454373"><ele>1275.0</ele><time>2026-04-26T10:46:12.879Z</time></trkpt><trkpt lat="42.4074496" lon="13.1453202"><ele>1279.2</ele><time>2026-04-26T10:46:13.858Z</time></trkpt><trkpt lat="42.4075069" lon="13.1452038"><ele>1283.4</ele><time>2026-04-26T10:46:14.863Z</time></trkpt><trkpt lat="42.4075461" lon="13.1450787"><ele>1287.6</ele><time>2026-04-26T10:46:15.865Z</time></trkpt><trkpt lat="42.4075839" lon="13.1449459"><ele>1291.8</ele><time>2026-04-26T10:46:16.857Z</time></trkpt><trkpt lat="42.4076155" lon="13.1448168"><ele>1296.0</ele><time>2026-04-26T10:46:17.859Z</time></trkpt><trkpt lat="42.4076555" lon="13.1446985"><ele>1296.0</ele><time>2026-04-26T10:46:18.863Z</time></trkpt><trkpt lat="42.4076955" lon="13.1445608"><ele>1296.0</ele><time>2026-04-26T10:46:19.85Z</time></trkpt><trkpt lat="42.4077321" lon="13.1444245"><ele>1296.0</ele><time>2026-04-26T10:46:20.861Z</time></trkpt><trkpt lat="42.4077799" lon="13.1443129"><ele>1296.0</ele><time>2026-04-26T10:46:21.899Z</time></trkpt><trkpt lat="42.4078232" lon="13.1442019"><ele>1296.0</ele><time>2026-04-26T10:46:22.859Z</time></trkpt><trkpt lat="42.4078577" lon="13.1441017"><ele>1292.0</ele><time>2026-04-26T10:46:23.859Z</time></trkpt><trkpt lat="42.4078919" lon="13.1440027"><ele>1288.0</ele><time>2026-04-26T10:46:24.859Z</time></trkpt><trkpt lat="42.4079278" lon="13.143911"><ele>1284.0</ele><time>2026-04-26T10:46:25.859Z</time></trkpt><trkpt lat="42.4079711" lon="13.1438282"><ele>1280.0</ele><time>2026-04-26T10:46:26.91Z</time></trkpt><trkpt lat="42.4080617" lon="13.1437147"><ele>1276.0</ele><time>2026-04-26T10:46:28.867Z</time></trkpt><trkpt lat="42.4081344" lon="13.1435821"><ele>1282.6</ele><time>2026-04-26T10:46:30.867Z</time></trkpt><trkpt lat="42.4081759" lon="13.1434847"><ele>1289.1999999999998</ele><time>2026-04-26T10:46:31.878Z</time></trkpt><trkpt lat="42.408222" lon="13.1433757"><ele>1295.8000000000002</ele><time>2026-04-26T10:46:32.868Z</time></trkpt><trkpt lat="42.4082793" lon="13.1432651"><ele>1302.4</ele><time>2026-04-26T10:46:33.867Z</time></trkpt><trkpt lat="42.4083355" lon="13.1431634"><ele>1309.0</ele><time>2026-04-26T10:46:34.868Z</time></trkpt><trkpt lat="42.4083862" lon="13.1430719"><ele>1309.0</ele><time>2026-04-26T10:46:35.86Z</time></trkpt><trkpt lat="42.4084263" lon="13.1429886"><ele>1309.0</ele><time>2026-04-26T10:46:36.883Z</time></trkpt><trkpt lat="42.4084599" lon="13.1428398"><ele>1309.0</ele><time>2026-04-26T10:46:38.855Z</time></trkpt><trkpt lat="42.4084767" lon="13.1427062"><ele>1309.0</ele><time>2026-04-26T10:46:40.857Z</time></trkpt><trkpt lat="42.4084671" lon="13.1426114"><ele>1309.0</ele><time>2026-04-26T10:46:41.874Z</time></trkpt><trkpt lat="42.4084561" lon="13.1424867"><ele>1309.6</ele><time>2026-04-26T10:46:42.855Z</time></trkpt><trkpt lat="42.4084467" lon="13.1423597"><ele>1310.2</ele><time>2026-04-26T10:46:43.859Z</time></trkpt><trkpt lat="42.4084381" lon="13.1422165"><ele>1310.8</ele><time>2026-04-26T10:46:44.859Z</time></trkpt><trkpt lat="42.4084362" lon="13.142062"><ele>1311.3999999999999</ele><time>2026-04-26T10:46:45.878Z</time></trkpt><trkpt lat="42.4084237" lon="13.1419276"><ele>1312.0</ele><time>2026-04-26T10:46:46.859Z</time></trkpt><trkpt lat="42.4084088" lon="13.1418137"><ele>1311.9999999999998</ele><time>2026-04-26T10:46:47.865Z</time></trkpt><trkpt lat="42.4083971" lon="13.1417059"><ele>1312.0</ele><time>2026-04-26T10:46:48.864Z</time></trkpt><trkpt lat="42.4083831" lon="13.1416125"><ele>1312.0</ele><time>2026-04-26T10:46:49.864Z</time></trkpt><trkpt lat="42.4083677" lon="13.1415203"><ele>1312.0</ele><time>2026-04-26T10:46:50.872Z</time></trkpt><trkpt lat="42.4083559" lon="13.1414256"><ele>1312.0</ele><time>2026-04-26T10:46:51.869Z</time></trkpt><trkpt lat="42.4083467" lon="13.1413166"><ele>1311.9999999999998</ele><time>2026-04-26T10:46:52.861Z</time></trkpt><trkpt lat="42.4083359" lon="13.1412154"><ele>1312.0</ele><time>2026-04-26T10:46:53.891Z</time></trkpt><trkpt lat="42.4083238" lon="13.141117"><ele>1313.3333333333333</ele><time>2026-04-26T10:46:54.869Z</time></trkpt><trkpt lat="42.4083144" lon="13.1410227"><ele>1314.6666666666665</ele><time>2026-04-26T10:46:55.863Z</time></trkpt><trkpt lat="42.4083064" lon="13.1409157"><ele>1316.0</ele><time>2026-04-26T10:46:56.862Z</time></trkpt><trkpt lat="42.4083059" lon="13.1408108"><ele>1317.3333333333333</ele><time>2026-04-26T10:46:57.868Z</time></trkpt><trkpt lat="42.4083046" lon="13.1407006"><ele>1318.6666666666667</ele><time>2026-04-26T10:46:58.859Z</time></trkpt><trkpt lat="42.4082983" lon="13.1405903"><ele>1320.0</ele><time>2026-04-26T10:46:59.871Z</time></trkpt><trkpt lat="42.4082967" lon="13.1404721"><ele>1320.5</ele><time>2026-04-26T10:47:00.866Z</time></trkpt><trkpt lat="42.4082895" lon="13.1403429"><ele>1321.0</ele><time>2026-04-26T10:47:01.858Z</time></trkpt><trkpt lat="42.4082911" lon="13.1402117"><ele>1321.5</ele><time>2026-04-26T10:47:02.856Z</time></trkpt><trkpt lat="42.4082911" lon="13.1400924"><ele>1322.0</ele><time>2026-04-26T10:47:03.856Z</time></trkpt><trkpt lat="42.4082863" lon="13.1399924"><ele>1322.5</ele><time>2026-04-26T10:47:04.865Z</time></trkpt><trkpt lat="42.4082746" lon="13.1398939"><ele>1323.0</ele><time>2026-04-26T10:47:05.857Z</time></trkpt><trkpt lat="42.4082649" lon="13.1398053"><ele>1319.0</ele><time>2026-04-26T10:47:06.918Z</time></trkpt><trkpt lat="42.4082808" lon="13.1396568"><ele>1315.0</ele><time>2026-04-26T10:47:08.866Z</time></trkpt><trkpt lat="42.408368" lon="13.1395373"><ele>1311.0</ele><time>2026-04-26T10:47:10.874Z</time></trkpt><trkpt lat="42.4084437" lon="13.139502"><ele>1307.0</ele><time>2026-04-26T10:47:11.86Z</time></trkpt><trkpt lat="42.4085206" lon="13.1394551"><ele>1303.0</ele><time>2026-04-26T10:47:12.862Z</time></trkpt><trkpt lat="42.4086001" lon="13.1394068"><ele>1303.0</ele><time>2026-04-26T10:47:13.861Z</time></trkpt><trkpt lat="42.4086796" lon="13.1393546"><ele>1303.0</ele><time>2026-04-26T10:47:14.864Z</time></trkpt><trkpt lat="42.4087544" lon="13.1392983"><ele>1303.0</ele><time>2026-04-26T10:47:15.869Z</time></trkpt><trkpt lat="42.4088361" lon="13.1392407"><ele>1303.0</ele><time>2026-04-26T10:47:16.861Z</time></trkpt><trkpt lat="42.4089127" lon="13.1391881"><ele>1303.0</ele><time>2026-04-26T10:47:17.868Z</time></trkpt><trkpt lat="42.4089843" lon="13.1391398"><ele>1303.0</ele><time>2026-04-26T10:47:18.866Z</time></trkpt><trkpt lat="42.4090545" lon="13.1390987"><ele>1302.1666666666665</ele><time>2026-04-26T10:47:19.867Z</time></trkpt><trkpt lat="42.4091264" lon="13.1390553"><ele>1301.3333333333333</ele><time>2026-04-26T10:47:20.866Z</time></trkpt><trkpt lat="42.4091917" lon="13.1390128"><ele>1300.5</ele><time>2026-04-26T10:47:21.86Z</time></trkpt><trkpt lat="42.4092642" lon="13.1389737"><ele>1299.6666666666667</ele><time>2026-04-26T10:47:22.875Z</time></trkpt><trkpt lat="42.4093374" lon="13.1389434"><ele>1298.8333333333335</ele><time>2026-04-26T10:47:23.871Z</time></trkpt><trkpt lat="42.4094172" lon="13.1389142"><ele>1298.0</ele><time>2026-04-26T10:47:24.864Z</time></trkpt><trkpt lat="42.4095001" lon="13.1388772"><ele>1298.0</ele><time>2026-04-26T10:47:25.863Z</time></trkpt><trkpt lat="42.4095851" lon="13.1388346"><ele>1298.0</ele><time>2026-04-26T10:47:26.868Z</time></trkpt><trkpt lat="42.4096619" lon="13.1387973"><ele>1298.0</ele><time>2026-04-26T10:47:27.871Z</time></trkpt><trkpt lat="42.4097239" lon="13.1387707"><ele>1298.0</ele><time>2026-04-26T10:47:28.866Z</time></trkpt><trkpt lat="42.4097903" lon="13.1387362"><ele>1298.0</ele><time>2026-04-26T10:47:29.871Z</time></trkpt><trkpt lat="42.4098635" lon="13.1386968"><ele>1298.0</ele><time>2026-04-26T10:47:30.93Z</time></trkpt><trkpt lat="42.4099404" lon="13.1386492"><ele>1301.3333333333335</ele><time>2026-04-26T10:47:31.872Z</time></trkpt><trkpt lat="42.4100138" lon="13.1386098"><ele>1304.6666666666667</ele><time>2026-04-26T10:47:32.895Z</time></trkpt><trkpt lat="42.4100819" lon="13.1385881"><ele>1308.0</ele><time>2026-04-26T10:47:33.874Z</time></trkpt><trkpt lat="42.4102014" lon="13.1385509"><ele>1311.3333333333333</ele><time>2026-04-26T10:47:35.862Z</time></trkpt><trkpt lat="42.4102663" lon="13.1385419"><ele>1314.6666666666665</ele><time>2026-04-26T10:47:36.847Z</time></trkpt><trkpt lat="42.4103347" lon="13.1385336"><ele>1318.0</ele><time>2026-04-26T10:47:37.851Z</time></trkpt><trkpt lat="42.4104079" lon="13.1385238"><ele>1318.0</ele><time>2026-04-26T10:47:38.858Z</time></trkpt><trkpt lat="42.4104778" lon="13.1385194"><ele>1318.0</ele><time>2026-04-26T10:47:39.857Z</time></trkpt><trkpt lat="42.4105455" lon="13.1385267"><ele>1318.0</ele><time>2026-04-26T10:47:40.849Z</time></trkpt><trkpt lat="42.4106086" lon="13.1385474"><ele>1318.0</ele><time>2026-04-26T10:47:41.845Z</time></trkpt><trkpt lat="42.4106774" lon="13.1385886"><ele>1318.0</ele><time>2026-04-26T10:47:42.845Z</time></trkpt><trkpt lat="42.4107474" lon="13.1386431"><ele>1318.0</ele><time>2026-04-26T10:47:43.903Z</time></trkpt><trkpt lat="42.4108037" lon="13.1386875"><ele>1318.0</ele><time>2026-04-26T10:47:44.855Z</time></trkpt><trkpt lat="42.4108887" lon="13.138778"><ele>1318.0</ele><time>2026-04-26T10:47:46.866Z</time></trkpt><trkpt lat="42.410949" lon="13.1389168"><ele>1318.0</ele><time>2026-04-26T10:47:48.851Z</time></trkpt><trkpt lat="42.4109957" lon="13.1390602"><ele>1318.0</ele><time>2026-04-26T10:47:50.858Z</time></trkpt><trkpt lat="42.4110166" lon="13.139149"><ele>1318.0</ele><time>2026-04-26T10:47:51.854Z</time></trkpt><trkpt lat="42.4110207" lon="13.1392406"><ele>1318.0</ele><time>2026-04-26T10:47:52.86Z</time></trkpt><trkpt lat="42.4110079" lon="13.1393406"><ele>1318.0</ele><time>2026-04-26T10:47:53.853Z</time></trkpt><trkpt lat="42.4109924" lon="13.1394497"><ele>1321.8333333333333</ele><time>2026-04-26T10:47:54.855Z</time></trkpt><trkpt lat="42.4109835" lon="13.1395575"><ele>1325.6666666666665</ele><time>2026-04-26T10:47:55.854Z</time></trkpt><trkpt lat="42.4109607" lon="13.1396532"><ele>1329.5</ele><time>2026-04-26T10:47:56.905Z</time></trkpt><trkpt lat="42.4109497" lon="13.1397449"><ele>1333.3333333333333</ele><time>2026-04-26T10:47:57.86Z</time></trkpt><trkpt lat="42.4109676" lon="13.1398291"><ele>1337.1666666666667</ele><time>2026-04-26T10:47:58.857Z</time></trkpt><trkpt lat="42.4110138" lon="13.1399223"><ele>1341.0</ele><time>2026-04-26T10:47:59.861Z</time></trkpt><trkpt lat="42.4110772" lon="13.1399866"><ele>1342.0</ele><time>2026-04-26T10:48:00.856Z</time></trkpt><trkpt lat="42.4111605" lon="13.1400255"><ele>1343.0</ele><time>2026-04-26T10:48:01.849Z</time></trkpt><trkpt lat="42.4112564" lon="13.1400488"><ele>1344.0</ele><time>2026-04-26T10:48:02.857Z</time></trkpt><trkpt lat="42.4113667" lon="13.1400742"><ele>1345.0</ele><time>2026-04-26T10:48:03.859Z</time></trkpt><trkpt lat="42.4114796" lon="13.1401001"><ele>1346.0</ele><time>2026-04-26T10:48:04.862Z</time></trkpt><trkpt lat="42.4115983" lon="13.1401316"><ele>1343.0</ele><time>2026-04-26T10:48:05.853Z</time></trkpt><trkpt lat="42.4117144" lon="13.1401687"><ele>1340.0</ele><time>2026-04-26T10:48:06.848Z</time></trkpt><trkpt lat="42.4118372" lon="13.1402042"><ele>1337.0</ele><time>2026-04-26T10:48:07.855Z</time></trkpt><trkpt lat="42.4119687" lon="13.1402356"><ele>1334.0</ele><time>2026-04-26T10:48:08.856Z</time></trkpt><trkpt lat="42.4120956" lon="13.1402673"><ele>1332.0</ele><time>2026-04-26T10:48:09.858Z</time></trkpt><trkpt lat="42.4122223" lon="13.1403019"><ele>1330.0</ele><time>2026-04-26T10:48:10.86Z</time></trkpt><trkpt lat="42.4123512" lon="13.1403399"><ele>1328.0</ele><time>2026-04-26T10:48:11.849Z</time></trkpt><trkpt lat="42.4124894" lon="13.1403856"><ele>1326.0</ele><time>2026-04-26T10:48:12.905Z</time></trkpt><trkpt lat="42.4126202" lon="13.1404368"><ele>1326.0</ele><time>2026-04-26T10:48:13.856Z</time></trkpt><trkpt lat="42.4127395" lon="13.1404968"><ele>1326.0</ele><time>2026-04-26T10:48:14.843Z</time></trkpt><trkpt lat="42.4128469" lon="13.1405484"><ele>1326.0</ele><time>2026-04-26T10:48:15.863Z</time></trkpt><trkpt lat="42.4129522" lon="13.1405939"><ele>1326.0</ele><time>2026-04-26T10:48:16.855Z</time></trkpt><trkpt lat="42.4130548" lon="13.1406356"><ele>1324.4</ele><time>2026-04-26T10:48:17.859Z</time></trkpt><trkpt lat="42.4131573" lon="13.1406768"><ele>1322.8</ele><time>2026-04-26T10:48:18.855Z</time></trkpt><trkpt lat="42.4132502" lon="13.1407217"><ele>1321.2</ele><time>2026-04-26T10:48:19.855Z</time></trkpt><trkpt lat="42.4133315" lon="13.140774"><ele>1319.6000000000001</ele><time>2026-04-26T10:48:20.847Z</time></trkpt><trkpt lat="42.4134153" lon="13.1408289"><ele>1318.0</ele><time>2026-04-26T10:48:21.859Z</time></trkpt><trkpt lat="42.4135083" lon="13.1408765"><ele>1322.4</ele><time>2026-04-26T10:48:22.856Z</time></trkpt><trkpt lat="42.4136152" lon="13.1409271"><ele>1326.8000000000002</ele><time>2026-04-26T10:48:23.852Z</time></trkpt><trkpt lat="42.4137209" lon="13.1409821"><ele>1331.2</ele><time>2026-04-26T10:48:24.845Z</time></trkpt><trkpt lat="42.4138206" lon="13.141022"><ele>1335.6</ele><time>2026-04-26T10:48:25.853Z</time></trkpt><trkpt lat="42.4139166" lon="13.1410568"><ele>1340.0</ele><time>2026-04-26T10:48:26.852Z</time></trkpt><trkpt lat="42.4140141" lon="13.1410947"><ele>1340.0</ele><time>2026-04-26T10:48:27.848Z</time></trkpt><trkpt lat="42.4141218" lon="13.1411641"><ele>1340.0</ele><time>2026-04-26T10:48:28.845Z</time></trkpt><trkpt lat="42.4142476" lon="13.1412314"><ele>1340.0</ele><time>2026-04-26T10:48:29.858Z</time></trkpt><trkpt lat="42.4143742" lon="13.1412932"><ele>1340.0</ele><time>2026-04-26T10:48:30.85Z</time></trkpt><trkpt lat="42.4144997" lon="13.1413431"><ele>1340.0</ele><time>2026-04-26T10:48:31.872Z</time></trkpt><trkpt lat="42.4146211" lon="13.1413972"><ele>1340.0</ele><time>2026-04-26T10:48:32.866Z</time></trkpt><trkpt lat="42.4147283" lon="13.1414412"><ele>1340.0</ele><time>2026-04-26T10:48:33.869Z</time></trkpt><trkpt lat="42.4148291" lon="13.1414775"><ele>1340.0</ele><time>2026-04-26T10:48:34.859Z</time></trkpt><trkpt lat="42.4149092" lon="13.1415101"><ele>1340.0</ele><time>2026-04-26T10:48:35.857Z</time></trkpt><trkpt lat="42.4150157" lon="13.1415936"><ele>1341.6666666666667</ele><time>2026-04-26T10:48:37.904Z</time></trkpt><trkpt lat="42.4150662" lon="13.1416658"><ele>1343.3333333333335</ele><time>2026-04-26T10:48:38.863Z</time></trkpt><trkpt lat="42.4151058" lon="13.1417626"><ele>1345.0</ele><time>2026-04-26T10:48:39.865Z</time></trkpt><trkpt lat="42.4151388" lon="13.1418655"><ele>1346.6666666666667</ele><time>2026-04-26T10:48:40.858Z</time></trkpt><trkpt lat="42.4151684" lon="13.1419552"><ele>1348.3333333333333</ele><time>2026-04-26T10:48:41.858Z</time></trkpt><trkpt lat="42.4152133" lon="13.142102"><ele>1350.0</ele><time>2026-04-26T10:48:43.859Z</time></trkpt><trkpt lat="42.4152199" lon="13.1421944"><ele>1350.0</ele><time>2026-04-26T10:48:44.858Z</time></trkpt><trkpt lat="42.4152206" lon="13.1422884"><ele>1350.0</ele><time>2026-04-26T10:48:45.86Z</time></trkpt><trkpt lat="42.4152048" lon="13.1424012"><ele>1350.0</ele><time>2026-04-26T10:48:46.882Z</time></trkpt><trkpt lat="42.4151793" lon="13.1425141"><ele>1350.0</ele><time>2026-04-26T10:48:47.875Z</time></trkpt><trkpt lat="42.4151506" lon="13.1426279"><ele>1350.0</ele><time>2026-04-26T10:48:48.917Z</time></trkpt><trkpt lat="42.4151232" lon="13.1427352"><ele>1350.0</ele><time>2026-04-26T10:48:49.881Z</time></trkpt><trkpt lat="42.4150911" lon="13.1428488"><ele>1351.2</ele><time>2026-04-26T10:48:50.869Z</time></trkpt><trkpt lat="42.4150561" lon="13.1429627"><ele>1352.4</ele><time>2026-04-26T10:48:51.866Z</time></trkpt><trkpt lat="42.415017" lon="13.1430779"><ele>1353.6</ele><time>2026-04-26T10:48:52.883Z</time></trkpt><trkpt lat="42.4149835" lon="13.1431963"><ele>1354.8</ele><time>2026-04-26T10:48:53.865Z</time></trkpt><trkpt lat="42.4149551" lon="13.1433009"><ele>1356.0</ele><time>2026-04-26T10:48:54.852Z</time></trkpt><trkpt lat="42.4149274" lon="13.1434165"><ele>1356.0</ele><time>2026-04-26T10:48:55.853Z</time></trkpt><trkpt lat="42.4149178" lon="13.143527"><ele>1356.0</ele><time>2026-04-26T10:48:56.857Z</time></trkpt><trkpt lat="42.414925" lon="13.1436254"><ele>1356.0</ele><time>2026-04-26T10:48:57.868Z</time></trkpt><trkpt lat="42.4149375" lon="13.1437106"><ele>1356.0</ele><time>2026-04-26T10:48:58.86Z</time></trkpt><trkpt lat="42.4150263" lon="13.143837"><ele>1356.0</ele><time>2026-04-26T10:49:00.862Z</time></trkpt><trkpt lat="42.4150988" lon="13.1438514"><ele>1356.0</ele><time>2026-04-26T10:49:01.871Z</time></trkpt><trkpt lat="42.4151734" lon="13.143838"><ele>1356.0</ele><time>2026-04-26T10:49:02.856Z</time></trkpt><trkpt lat="42.415247" lon="13.1438262"><ele>1356.0</ele><time>2026-04-26T10:49:03.866Z</time></trkpt><trkpt lat="42.4153136" lon="13.1437901"><ele>1356.0</ele><time>2026-04-26T10:49:04.86Z</time></trkpt><trkpt lat="42.4153796" lon="13.1437382"><ele>1356.0</ele><time>2026-04-26T10:49:05.86Z</time></trkpt><trkpt lat="42.4154462" lon="13.1436825"><ele>1356.0</ele><time>2026-04-26T10:49:06.862Z</time></trkpt><trkpt lat="42.4155122" lon="13.1436131"><ele>1356.0</ele><time>2026-04-26T10:49:07.861Z</time></trkpt><trkpt lat="42.415563" lon="13.1435376"><ele>1356.5</ele><time>2026-04-26T10:49:08.864Z</time></trkpt><trkpt lat="42.4156092" lon="13.1434578"><ele>1357.0</ele><time>2026-04-26T10:49:09.869Z</time></trkpt><trkpt lat="42.4156623" lon="13.1433833"><ele>1357.5</ele><time>2026-04-26T10:49:10.866Z</time></trkpt><trkpt lat="42.4157198" lon="13.1433163"><ele>1358.0</ele><time>2026-04-26T10:49:11.887Z</time></trkpt><trkpt lat="42.4157943" lon="13.1432491"><ele>1358.5</ele><time>2026-04-26T10:49:12.852Z</time></trkpt><trkpt lat="42.4158717" lon="13.143182"><ele>1359.0</ele><time>2026-04-26T10:49:13.872Z</time></trkpt><trkpt lat="42.415941" lon="13.1431154"><ele>1356.3333333333333</ele><time>2026-04-26T10:49:14.867Z</time></trkpt><trkpt lat="42.4159989" lon="13.1430366"><ele>1353.6666666666667</ele><time>2026-04-26T10:49:15.872Z</time></trkpt><trkpt lat="42.4160667" lon="13.1429502"><ele>1351.0</ele><time>2026-04-26T10:49:16.861Z</time></trkpt><trkpt lat="42.4161263" lon="13.1428783"><ele>1348.3333333333335</ele><time>2026-04-26T10:49:17.862Z</time></trkpt><trkpt lat="42.416179" lon="13.1427995"><ele>1345.6666666666667</ele><time>2026-04-26T10:49:18.862Z</time></trkpt><trkpt lat="42.4162294" lon="13.142725"><ele>1343.0</ele><time>2026-04-26T10:49:19.863Z</time></trkpt><trkpt lat="42.4162663" lon="13.1426532"><ele>1343.0</ele><time>2026-04-26T10:49:20.865Z</time></trkpt><trkpt lat="42.4163067" lon="13.1425572"><ele>1343.0</ele><time>2026-04-26T10:49:21.879Z</time></trkpt><trkpt lat="42.4163431" lon="13.1424642"><ele>1343.0</ele><time>2026-04-26T10:49:22.86Z</time></trkpt><trkpt lat="42.4163825" lon="13.1423839"><ele>1343.0</ele><time>2026-04-26T10:49:23.862Z</time></trkpt><trkpt lat="42.416427" lon="13.14231"><ele>1343.0</ele><time>2026-04-26T10:49:24.867Z</time></trkpt><trkpt lat="42.416478" lon="13.1422529"><ele>1343.0</ele><time>2026-04-26T10:49:25.863Z</time></trkpt><trkpt lat="42.4165315" lon="13.1422078"><ele>1343.0</ele><time>2026-04-26T10:49:26.857Z</time></trkpt><trkpt lat="42.416594" lon="13.1421687"><ele>1342.3333333333335</ele><time>2026-04-26T10:49:27.868Z</time></trkpt><trkpt lat="42.4166679" lon="13.142127"><ele>1341.6666666666667</ele><time>2026-04-26T10:49:28.907Z</time></trkpt><trkpt lat="42.4167285" lon="13.1420942"><ele>1341.0</ele><time>2026-04-26T10:49:29.868Z</time></trkpt><trkpt lat="42.416823" lon="13.1420699"><ele>1340.3333333333333</ele><time>2026-04-26T10:49:31.878Z</time></trkpt><trkpt lat="42.4169285" lon="13.1420692"><ele>1339.6666666666665</ele><time>2026-04-26T10:49:33.863Z</time></trkpt><trkpt lat="42.4169965" lon="13.142083"><ele>1339.0</ele><time>2026-04-26T10:49:34.858Z</time></trkpt><trkpt lat="42.4170702" lon="13.142096"><ele>1339.0</ele><time>2026-04-26T10:49:35.866Z</time></trkpt><trkpt lat="42.4171423" lon="13.1421084"><ele>1339.0</ele><time>2026-04-26T10:49:36.863Z</time></trkpt><trkpt lat="42.417212" lon="13.142137"><ele>1339.0</ele><time>2026-04-26T10:49:37.896Z</time></trkpt><trkpt lat="42.4172865" lon="13.1421702"><ele>1339.0</ele><time>2026-04-26T10:49:38.862Z</time></trkpt><trkpt lat="42.4173693" lon="13.1422151"><ele>1339.0</ele><time>2026-04-26T10:49:39.862Z</time></trkpt><trkpt lat="42.4174497" lon="13.142245"><ele>1339.0</ele><time>2026-04-26T10:49:40.862Z</time></trkpt><trkpt lat="42.4175264" lon="13.1422538"><ele>1341.8000000000002</ele><time>2026-04-26T10:49:41.925Z</time></trkpt><trkpt lat="42.4176003" lon="13.1422224"><ele>1344.6000000000001</ele><time>2026-04-26T10:49:42.869Z</time></trkpt><trkpt lat="42.4176898" lon="13.1421796"><ele>1347.4</ele><time>2026-04-26T10:49:43.867Z</time></trkpt><trkpt lat="42.4177921" lon="13.1421188"><ele>1350.2</ele><time>2026-04-26T10:49:44.865Z</time></trkpt><trkpt lat="42.4178775" lon="13.1420516"><ele>1353.0</ele><time>2026-04-26T10:49:45.858Z</time></trkpt><trkpt lat="42.4179593" lon="13.1419938"><ele>1354.3333333333333</ele><time>2026-04-26T10:49:46.858Z</time></trkpt><trkpt lat="42.4180271" lon="13.1419424"><ele>1355.6666666666667</ele><time>2026-04-26T10:49:47.868Z</time></trkpt><trkpt lat="42.4180901" lon="13.1418757"><ele>1357.0</ele><time>2026-04-26T10:49:48.866Z</time></trkpt><trkpt lat="42.4181565" lon="13.1418139"><ele>1358.3333333333335</ele><time>2026-04-26T10:49:49.869Z</time></trkpt><trkpt lat="42.4182185" lon="13.1417551"><ele>1359.6666666666667</ele><time>2026-04-26T10:49:50.864Z</time></trkpt><trkpt lat="42.4182791" lon="13.141708"><ele>1361.0</ele><time>2026-04-26T10:49:51.862Z</time></trkpt><trkpt lat="42.4183416" lon="13.1416561"><ele>1361.0</ele><time>2026-04-26T10:49:52.873Z</time></trkpt><trkpt lat="42.4184119" lon="13.1416083"><ele>1361.0</ele><time>2026-04-26T10:49:53.856Z</time></trkpt><trkpt lat="42.4184877" lon="13.1415595"><ele>1361.0</ele><time>2026-04-26T10:49:54.886Z</time></trkpt><trkpt lat="42.4185664" lon="13.1414973"><ele>1361.0</ele><time>2026-04-26T10:49:55.863Z</time></trkpt><trkpt lat="42.4186445" lon="13.14143"><ele>1361.0</ele><time>2026-04-26T10:49:56.859Z</time></trkpt><trkpt lat="42.4187338" lon="13.1413551"><ele>1359.8333333333335</ele><time>2026-04-26T10:49:57.862Z</time></trkpt><trkpt lat="42.418818" lon="13.1412848"><ele>1358.6666666666667</ele><time>2026-04-26T10:49:58.863Z</time></trkpt><trkpt lat="42.4188991" lon="13.1412133"><ele>1357.5</ele><time>2026-04-26T10:49:59.863Z</time></trkpt><trkpt lat="42.4189659" lon="13.1411573"><ele>1356.3333333333333</ele><time>2026-04-26T10:50:00.863Z</time></trkpt><trkpt lat="42.4190309" lon="13.1410959"><ele>1355.1666666666665</ele><time>2026-04-26T10:50:01.856Z</time></trkpt><trkpt lat="42.4190955" lon="13.1410354"><ele>1354.0</ele><time>2026-04-26T10:50:02.862Z</time></trkpt><trkpt lat="42.4191577" lon="13.1409809"><ele>1354.0</ele><time>2026-04-26T10:50:03.861Z</time></trkpt><trkpt lat="42.4192252" lon="13.1409304"><ele>1354.0</ele><time>2026-04-26T10:50:04.859Z</time></trkpt><trkpt lat="42.4192847" lon="13.1408968"><ele>1354.0</ele><time>2026-04-26T10:50:05.913Z</time></trkpt><trkpt lat="42.4193563" lon="13.1408596"><ele>1354.0</ele><time>2026-04-26T10:50:06.856Z</time></trkpt><trkpt lat="42.4194437" lon="13.1408137"><ele>1354.0</ele><time>2026-04-26T10:50:07.872Z</time></trkpt><trkpt lat="42.4195312" lon="13.1407552"><ele>1354.0</ele><time>2026-04-26T10:50:08.863Z</time></trkpt><trkpt lat="42.4196098" lon="13.1406926"><ele>1354.8000000000002</ele><time>2026-04-26T10:50:09.871Z</time></trkpt><trkpt lat="42.4197026" lon="13.1406017"><ele>1355.6000000000001</ele><time>2026-04-26T10:50:10.861Z</time></trkpt><trkpt lat="42.4198019" lon="13.1405022"><ele>1356.4</ele><time>2026-04-26T10:50:11.867Z</time></trkpt><trkpt lat="42.4198851" lon="13.1404074"><ele>1357.2</ele><time>2026-04-26T10:50:12.864Z</time></trkpt><trkpt lat="42.4199598" lon="13.1403174"><ele>1358.0</ele><time>2026-04-26T10:50:13.866Z</time></trkpt><trkpt lat="42.4200446" lon="13.1402318"><ele>1358.0</ele><time>2026-04-26T10:50:14.863Z</time></trkpt><trkpt lat="42.4201296" lon="13.1401538"><ele>1358.0</ele><time>2026-04-26T10:50:15.868Z</time></trkpt><trkpt lat="42.4202103" lon="13.1400826"><ele>1358.0</ele><time>2026-04-26T10:50:16.873Z</time></trkpt><trkpt lat="42.4202927" lon="13.1400102"><ele>1358.0</ele><time>2026-04-26T10:50:17.872Z</time></trkpt><trkpt lat="42.4203751" lon="13.139941"><ele>1358.0</ele><time>2026-04-26T10:50:18.869Z</time></trkpt><trkpt lat="42.4204687" lon="13.1398811"><ele>1357.6000000000001</ele><time>2026-04-26T10:50:19.869Z</time></trkpt><trkpt lat="42.4205634" lon="13.1398278"><ele>1357.2</ele><time>2026-04-26T10:50:20.92Z</time></trkpt><trkpt lat="42.420651" lon="13.1397675"><ele>1356.8</ele><time>2026-04-26T10:50:21.864Z</time></trkpt><trkpt lat="42.4207302" lon="13.139711"><ele>1356.4</ele><time>2026-04-26T10:50:22.886Z</time></trkpt><trkpt lat="42.4208063" lon="13.1396546"><ele>1356.0</ele><time>2026-04-26T10:50:23.866Z</time></trkpt><trkpt lat="42.4208824" lon="13.1396026"><ele>1356.0</ele><time>2026-04-26T10:50:24.873Z</time></trkpt><trkpt lat="42.4209485" lon="13.1395551"><ele>1356.0</ele><time>2026-04-26T10:50:25.88Z</time></trkpt><trkpt lat="42.421044" lon="13.1394655"><ele>1356.0</ele><time>2026-04-26T10:50:27.861Z</time></trkpt><trkpt lat="42.4211279" lon="13.1393427"><ele>1356.0</ele><time>2026-04-26T10:50:29.862Z</time></trkpt><trkpt lat="42.4211639" lon="13.1392674"><ele>1356.0</ele><time>2026-04-26T10:50:30.869Z</time></trkpt><trkpt lat="42.4212248" lon="13.1391562"><ele>1354.4</ele><time>2026-04-26T10:50:32.869Z</time></trkpt><trkpt lat="42.4213958" lon="13.1390216"><ele>1352.8</ele><time>2026-04-26T10:50:35.863Z</time></trkpt><trkpt lat="42.421458" lon="13.1389871"><ele>1351.2</ele><time>2026-04-26T10:50:36.861Z</time></trkpt><trkpt lat="42.4215154" lon="13.1389441"><ele>1349.6000000000001</ele><time>2026-04-26T10:50:37.862Z</time></trkpt><trkpt lat="42.421599" lon="13.1388381"><ele>1348.0</ele><time>2026-04-26T10:50:39.87Z</time></trkpt><trkpt lat="42.4216317" lon="13.1387633"><ele>1348.0</ele><time>2026-04-26T10:50:40.878Z</time></trkpt><trkpt lat="42.4216624" lon="13.1386846"><ele>1348.0</ele><time>2026-04-26T10:50:41.862Z</time></trkpt><trkpt lat="42.4217354" lon="13.1385571"><ele>1348.0</ele><time>2026-04-26T10:50:43.872Z</time></trkpt><trkpt lat="42.4218442" lon="13.1384943"><ele>1348.0</ele><time>2026-04-26T10:50:45.872Z</time></trkpt><trkpt lat="42.4219097" lon="13.1384861"><ele>1348.0</ele><time>2026-04-26T10:50:46.872Z</time></trkpt><trkpt lat="42.4219848" lon="13.1385155"><ele>1348.0</ele><time>2026-04-26T10:50:47.868Z</time></trkpt><trkpt lat="42.4220837" lon="13.1385688"><ele>1347.5</ele><time>2026-04-26T10:50:48.868Z</time></trkpt><trkpt lat="42.4221732" lon="13.1386211"><ele>1347.0</ele><time>2026-04-26T10:50:49.897Z</time></trkpt><trkpt lat="42.4222474" lon="13.1386693"><ele>1346.5</ele><time>2026-04-26T10:50:50.872Z</time></trkpt><trkpt lat="42.4223214" lon="13.1387153"><ele>1346.0</ele><time>2026-04-26T10:50:51.87Z</time></trkpt><trkpt lat="42.4223928" lon="13.1387548"><ele>1345.5</ele><time>2026-04-26T10:50:52.878Z</time></trkpt><trkpt lat="42.4224619" lon="13.1387708"><ele>1345.0</ele><time>2026-04-26T10:50:53.866Z</time></trkpt><trkpt lat="42.422527" lon="13.1387693"><ele>1345.0</ele><time>2026-04-26T10:50:54.864Z</time></trkpt><trkpt lat="42.4225929" lon="13.1387587"><ele>1345.0</ele><time>2026-04-26T10:50:55.867Z</time></trkpt><trkpt lat="42.4226665" lon="13.138743"><ele>1345.0</ele><time>2026-04-26T10:50:56.932Z</time></trkpt><trkpt lat="42.4227385" lon="13.13873"><ele>1345.0</ele><time>2026-04-26T10:50:57.868Z</time></trkpt><trkpt lat="42.4228174" lon="13.1387259"><ele>1345.0</ele><time>2026-04-26T10:50:58.861Z</time></trkpt><trkpt lat="42.4229018" lon="13.1387291"><ele>1345.0</ele><time>2026-04-26T10:50:59.87Z</time></trkpt><trkpt lat="42.4229779" lon="13.1387355"><ele>1344.3333333333333</ele><time>2026-04-26T10:51:00.866Z</time></trkpt><trkpt lat="42.4230415" lon="13.1387553"><ele>1343.6666666666665</ele><time>2026-04-26T10:51:01.865Z</time></trkpt><trkpt lat="42.4231546" lon="13.1388231"><ele>1343.0</ele><time>2026-04-26T10:51:03.864Z</time></trkpt><trkpt lat="42.4232437" lon="13.1389407"><ele>1342.3333333333333</ele><time>2026-04-26T10:51:05.872Z</time></trkpt><trkpt lat="42.423281" lon="13.1390181"><ele>1341.6666666666667</ele><time>2026-04-26T10:51:06.88Z</time></trkpt><trkpt lat="42.4233268" lon="13.1390837"><ele>1341.0</ele><time>2026-04-26T10:51:07.874Z</time></trkpt><trkpt lat="42.4234455" lon="13.1391031"><ele>1341.0</ele><time>2026-04-26T10:51:09.866Z</time></trkpt><trkpt lat="42.4235119" lon="13.1390607"><ele>1341.0</ele><time>2026-04-26T10:51:10.891Z</time></trkpt><trkpt lat="42.4235913" lon="13.1389935"><ele>1341.0</ele><time>2026-04-26T10:51:11.877Z</time></trkpt><trkpt lat="42.4236913" lon="13.1389058"><ele>1341.0</ele><time>2026-04-26T10:51:12.867Z</time></trkpt><trkpt lat="42.4237724" lon="13.1388257"><ele>1341.0</ele><time>2026-04-26T10:51:13.872Z</time></trkpt><trkpt lat="42.4238368" lon="13.1387562"><ele>1341.5714285714287</ele><time>2026-04-26T10:51:14.859Z</time></trkpt><trkpt lat="42.4238901" lon="13.1386946"><ele>1342.142857142857</ele><time>2026-04-26T10:51:15.888Z</time></trkpt><trkpt lat="42.4239386" lon="13.1386348"><ele>1342.7142857142858</ele><time>2026-04-26T10:51:16.867Z</time></trkpt><trkpt lat="42.4239929" lon="13.1385746"><ele>1343.2857142857142</ele><time>2026-04-26T10:51:17.863Z</time></trkpt><trkpt lat="42.424057" lon="13.1385301"><ele>1343.857142857143</ele><time>2026-04-26T10:51:18.866Z</time></trkpt><trkpt lat="42.4241153" lon="13.1384895"><ele>1344.4285714285716</ele><time>2026-04-26T10:51:19.876Z</time></trkpt><trkpt lat="42.4241766" lon="13.138449"><ele>1345.0</ele><time>2026-04-26T10:51:20.887Z</time></trkpt><trkpt lat="42.4242408" lon="13.1384087"><ele>1345.0</ele><time>2026-04-26T10:51:21.873Z</time></trkpt><trkpt lat="42.4243073" lon="13.1383693"><ele>1345.0</ele><time>2026-04-26T10:51:22.88Z</time></trkpt><trkpt lat="42.4243743" lon="13.138329"><ele>1345.0</ele><time>2026-04-26T10:51:23.871Z</time></trkpt><trkpt lat="42.4244478" lon="13.138279"><ele>1345.0</ele><time>2026-04-26T10:51:24.865Z</time></trkpt><trkpt lat="42.4245419" lon="13.1382186"><ele>1345.0</ele><time>2026-04-26T10:51:25.866Z</time></trkpt><trkpt lat="42.4246538" lon="13.1381431"><ele>1344.6</ele><time>2026-04-26T10:51:26.873Z</time></trkpt><trkpt lat="42.4247578" lon="13.1380782"><ele>1344.2</ele><time>2026-04-26T10:51:27.873Z</time></trkpt><trkpt lat="42.4248502" lon="13.1380232"><ele>1343.8000000000002</ele><time>2026-04-26T10:51:28.861Z</time></trkpt><trkpt lat="42.4249404" lon="13.1379651"><ele>1343.4</ele><time>2026-04-26T10:51:29.872Z</time></trkpt><trkpt lat="42.4250212" lon="13.1379037"><ele>1343.0</ele><time>2026-04-26T10:51:30.858Z</time></trkpt><trkpt lat="42.4250905" lon="13.1378389"><ele>1343.0</ele><time>2026-04-26T10:51:31.881Z</time></trkpt><trkpt lat="42.425153" lon="13.1377718"><ele>1343.0</ele><time>2026-04-26T10:51:32.867Z</time></trkpt><trkpt lat="42.4252023" lon="13.1377022"><ele>1343.0</ele><time>2026-04-26T10:51:33.872Z</time></trkpt><trkpt lat="42.4252349" lon="13.137626"><ele>1343.0</ele><time>2026-04-26T10:51:34.87Z</time></trkpt><trkpt lat="42.4252519" lon="13.1375436"><ele>1343.0</ele><time>2026-04-26T10:51:35.873Z</time></trkpt><trkpt lat="42.4252477" lon="13.1374461"><ele>1343.0</ele><time>2026-04-26T10:51:36.866Z</time></trkpt><trkpt lat="42.4252268" lon="13.1373438"><ele>1343.0</ele><time>2026-04-26T10:51:37.861Z</time></trkpt><trkpt lat="42.4251861" lon="13.1372259"><ele>1343.2</ele><time>2026-04-26T10:51:38.878Z</time></trkpt><trkpt lat="42.4251333" lon="13.1370839"><ele>1343.4</ele><time>2026-04-26T10:51:39.866Z</time></trkpt><trkpt lat="42.4250952" lon="13.1369417"><ele>1343.6000000000001</ele><time>2026-04-26T10:51:40.864Z</time></trkpt><trkpt lat="42.425074" lon="13.136826"><ele>1343.8000000000002</ele><time>2026-04-26T10:51:41.868Z</time></trkpt><trkpt lat="42.4250595" lon="13.1367059"><ele>1344.0</ele><time>2026-04-26T10:51:42.86Z</time></trkpt><trkpt lat="42.4250395" lon="13.1365782"><ele>1345.4</ele><time>2026-04-26T10:51:43.878Z</time></trkpt><trkpt lat="42.4250143" lon="13.1364677"><ele>1346.8000000000002</ele><time>2026-04-26T10:51:44.867Z</time></trkpt><trkpt lat="42.4249838" lon="13.1363568"><ele>1348.1999999999998</ele><time>2026-04-26T10:51:45.88Z</time></trkpt><trkpt lat="42.424944" lon="13.1362418"><ele>1349.6</ele><time>2026-04-26T10:51:46.87Z</time></trkpt><trkpt lat="42.4248985" lon="13.1361248"><ele>1351.0</ele><time>2026-04-26T10:51:47.88Z</time></trkpt><trkpt lat="42.4248533" lon="13.1360053"><ele>1351.0</ele><time>2026-04-26T10:51:48.929Z</time></trkpt><trkpt lat="42.4248068" lon="13.1358903"><ele>1351.0</ele><time>2026-04-26T10:51:49.863Z</time></trkpt><trkpt lat="42.424754" lon="13.1357563"><ele>1351.0</ele><time>2026-04-26T10:51:50.87Z</time></trkpt><trkpt lat="42.424704" lon="13.1356357"><ele>1351.0</ele><time>2026-04-26T10:51:51.862Z</time></trkpt><trkpt lat="42.4246656" lon="13.1355339"><ele>1351.0</ele><time>2026-04-26T10:51:52.873Z</time></trkpt><trkpt lat="42.4246335" lon="13.1354362"><ele>1354.4</ele><time>2026-04-26T10:51:53.874Z</time></trkpt><trkpt lat="42.4246049" lon="13.1353316"><ele>1357.8</ele><time>2026-04-26T10:51:54.868Z</time></trkpt><trkpt lat="42.424582" lon="13.1352178"><ele>1361.2</ele><time>2026-04-26T10:51:55.867Z</time></trkpt><trkpt lat="42.4245704" lon="13.135097"><ele>1364.6000000000001</ele><time>2026-04-26T10:51:56.86Z</time></trkpt><trkpt lat="42.4245685" lon="13.1349579"><ele>1368.0</ele><time>2026-04-26T10:51:57.882Z</time></trkpt><trkpt lat="42.4245708" lon="13.1348166"><ele>1368.0</ele><time>2026-04-26T10:51:58.866Z</time></trkpt><trkpt lat="42.4245755" lon="13.1346777"><ele>1368.0</ele><time>2026-04-26T10:51:59.863Z</time></trkpt><trkpt lat="42.4245857" lon="13.1345447"><ele>1368.0</ele><time>2026-04-26T10:52:00.867Z</time></trkpt><trkpt lat="42.4246008" lon="13.1344262"><ele>1368.0</ele><time>2026-04-26T10:52:01.917Z</time></trkpt><trkpt lat="42.4246239" lon="13.1343199"><ele>1368.0</ele><time>2026-04-26T10:52:02.858Z</time></trkpt><trkpt lat="42.4246527" lon="13.1342132"><ele>1368.6666666666667</ele><time>2026-04-26T10:52:03.9Z</time></trkpt><trkpt lat="42.4246804" lon="13.1341145"><ele>1369.3333333333333</ele><time>2026-04-26T10:52:04.869Z</time></trkpt><trkpt lat="42.4247132" lon="13.1340178"><ele>1370.0</ele><time>2026-04-26T10:52:05.879Z</time></trkpt><trkpt lat="42.4247582" lon="13.1339328"><ele>1370.6666666666665</ele><time>2026-04-26T10:52:06.87Z</time></trkpt><trkpt lat="42.4248155" lon="13.1338532"><ele>1371.3333333333333</ele><time>2026-04-26T10:52:07.866Z</time></trkpt><trkpt lat="42.4248849" lon="13.1337819"><ele>1372.0</ele><time>2026-04-26T10:52:08.869Z</time></trkpt><trkpt lat="42.424962" lon="13.1337194"><ele>1372.8333333333333</ele><time>2026-04-26T10:52:09.865Z</time></trkpt><trkpt lat="42.4250435" lon="13.1336518"><ele>1373.6666666666665</ele><time>2026-04-26T10:52:10.871Z</time></trkpt><trkpt lat="42.4251191" lon="13.1335717"><ele>1374.5</ele><time>2026-04-26T10:52:11.886Z</time></trkpt><trkpt lat="42.4251859" lon="13.1334932"><ele>1375.3333333333333</ele><time>2026-04-26T10:52:12.862Z</time></trkpt><trkpt lat="42.4252464" lon="13.1334377"><ele>1376.1666666666667</ele><time>2026-04-26T10:52:13.866Z</time></trkpt><trkpt lat="42.4253094" lon="13.1333996"><ele>1377.0</ele><time>2026-04-26T10:52:14.884Z</time></trkpt><trkpt lat="42.4253696" lon="13.1333495"><ele>1377.0</ele><time>2026-04-26T10:52:15.872Z</time></trkpt><trkpt lat="42.4254163" lon="13.1332838"><ele>1377.0</ele><time>2026-04-26T10:52:16.879Z</time></trkpt><trkpt lat="42.4254625" lon="13.1331949"><ele>1377.0</ele><time>2026-04-26T10:52:17.862Z</time></trkpt><trkpt lat="42.4255134" lon="13.1331058"><ele>1377.0</ele><time>2026-04-26T10:52:18.863Z</time></trkpt><trkpt lat="42.4255606" lon="13.1330351"><ele>1377.0</ele><time>2026-04-26T10:52:19.868Z</time></trkpt><trkpt lat="42.4256301" lon="13.1329007"><ele>1377.0</ele><time>2026-04-26T10:52:21.868Z</time></trkpt><trkpt lat="42.4256783" lon="13.1327898"><ele>1392.0</ele><time>2026-04-26T10:52:23.888Z</time></trkpt><trkpt lat="42.4256768" lon="13.1326713"><ele>1392.0</ele><time>2026-04-26T10:52:26.867Z</time></trkpt><trkpt lat="42.4256422" lon="13.132585"><ele>1392.0</ele><time>2026-04-26T10:52:28.906Z</time></trkpt><trkpt lat="42.4255859" lon="13.1324929"><ele>1392.0</ele><time>2026-04-26T10:52:31.881Z</time></trkpt><trkpt lat="42.4255321" lon="13.1324298"><ele>1392.0</ele><time>2026-04-26T10:52:34.862Z</time></trkpt><trkpt lat="42.4254808" lon="13.132364"><ele>1393.0</ele><time>2026-04-26T10:52:37.864Z</time></trkpt></trkseg><trkseg><trkpt lat="42.425452" lon="13.132267"><ele>1375.3333333333333</ele><time>2026-04-26T11:13:33.898Z</time></trkpt><trkpt lat="42.4255183" lon="13.1322101"><ele>1378.6666666666665</ele><time>2026-04-26T11:13:37.874Z</time></trkpt><trkpt lat="42.4255784" lon="13.1322848"><ele>1382.0</ele><time>2026-04-26T11:13:40.892Z</time></trkpt><trkpt lat="42.4255594" lon="13.1324079"><ele>1385.3333333333333</ele><time>2026-04-26T11:13:43.885Z</time></trkpt><trkpt lat="42.4255388" lon="13.132521"><ele>1388.6666666666667</ele><time>2026-04-26T11:13:46.879Z</time></trkpt><trkpt lat="42.4255684" lon="13.1326313"><ele>1392.0</ele><time>2026-04-26T11:13:49.872Z</time></trkpt><trkpt lat="42.4256128" lon="13.132727"><ele>1392.0</ele><time>2026-04-26T11:13:52.882Z</time></trkpt><trkpt lat="42.4256441" lon="13.1328169"><ele>1392.0</ele><time>2026-04-26T11:13:55.874Z</time></trkpt><trkpt lat="42.4256525" lon="13.1329142"><ele>1392.0</ele><time>2026-04-26T11:13:59.875Z</time></trkpt><trkpt lat="42.4255878" lon="13.1329842"><ele>1392.0</ele><time>2026-04-26T11:14:10.884Z</time></trkpt><trkpt lat="42.4255269" lon="13.1330861"><ele>1392.0</ele><time>2026-04-26T11:14:12.871Z</time></trkpt><trkpt lat="42.4254625" lon="13.1331936"><ele>1392.0</ele><time>2026-04-26T11:14:14.879Z</time></trkpt><trkpt lat="42.4253922" lon="13.1333099"><ele>1389.0</ele><time>2026-04-26T11:14:16.883Z</time></trkpt><trkpt lat="42.4253112" lon="13.1334001"><ele>1386.0</ele><time>2026-04-26T11:14:18.873Z</time></trkpt><trkpt lat="42.4252228" lon="13.1334685"><ele>1383.0</ele><time>2026-04-26T11:14:20.875Z</time></trkpt><trkpt lat="42.4251266" lon="13.1335588"><ele>1380.0</ele><time>2026-04-26T11:14:22.879Z</time></trkpt><trkpt lat="42.4250754" lon="13.1336116"><ele>1377.0</ele><time>2026-04-26T11:14:23.875Z</time></trkpt><trkpt lat="42.4250233" lon="13.1336673"><ele>1377.0</ele><time>2026-04-26T11:14:24.875Z</time></trkpt><trkpt lat="42.4249661" lon="13.1337223"><ele>1377.0</ele><time>2026-04-26T11:14:25.886Z</time></trkpt><trkpt lat="42.4249084" lon="13.1337744"><ele>1377.0</ele><time>2026-04-26T11:14:26.879Z</time></trkpt><trkpt lat="42.4248542" lon="13.1338278"><ele>1377.0</ele><time>2026-04-26T11:14:27.887Z</time></trkpt><trkpt lat="42.4248017" lon="13.1338881"><ele>1377.0</ele><time>2026-04-26T11:14:28.876Z</time></trkpt><trkpt lat="42.4247535" lon="13.1339582"><ele>1377.0</ele><time>2026-04-26T11:14:29.875Z</time></trkpt><trkpt lat="42.4247139" lon="13.1340363"><ele>1377.0</ele><time>2026-04-26T11:14:30.887Z</time></trkpt><trkpt lat="42.4246913" lon="13.1341285"><ele>1376.1666666666667</ele><time>2026-04-26T11:14:31.875Z</time></trkpt><trkpt lat="42.4246599" lon="13.1342873"><ele>1375.3333333333333</ele><time>2026-04-26T11:14:33.895Z</time></trkpt><trkpt lat="42.424641" lon="13.1343746"><ele>1374.5</ele><time>2026-04-26T11:14:34.872Z</time></trkpt><trkpt lat="42.4246238" lon="13.1344755"><ele>1373.6666666666665</ele><time>2026-04-26T11:14:35.879Z</time></trkpt><trkpt lat="42.4246034" lon="13.1345748"><ele>1372.8333333333333</ele><time>2026-04-26T11:14:36.874Z</time></trkpt><trkpt lat="42.4245881" lon="13.1346838"><ele>1372.0</ele><time>2026-04-26T11:14:37.886Z</time></trkpt><trkpt lat="42.4245751" lon="13.1348085"><ele>1371.1999999999998</ele><time>2026-04-26T11:14:38.893Z</time></trkpt><trkpt lat="42.4245712" lon="13.1349381"><ele>1370.4</ele><time>2026-04-26T11:14:39.878Z</time></trkpt><trkpt lat="42.4245689" lon="13.1350604"><ele>1369.6</ele><time>2026-04-26T11:14:40.88Z</time></trkpt><trkpt lat="42.4245705" lon="13.1351833"><ele>1368.8000000000002</ele><time>2026-04-26T11:14:41.874Z</time></trkpt><trkpt lat="42.4245844" lon="13.1353099"><ele>1368.0</ele><time>2026-04-26T11:14:42.878Z</time></trkpt><trkpt lat="42.4246162" lon="13.135432"><ele>1366.8000000000002</ele><time>2026-04-26T11:14:43.882Z</time></trkpt><trkpt lat="42.4246577" lon="13.1355567"><ele>1365.6</ele><time>2026-04-26T11:14:44.88Z</time></trkpt><trkpt lat="42.4247022" lon="13.1356807"><ele>1364.4</ele><time>2026-04-26T11:14:45.873Z</time></trkpt><trkpt lat="42.4247608" lon="13.1358127"><ele>1363.1999999999998</ele><time>2026-04-26T11:14:46.93Z</time></trkpt><trkpt lat="42.4248178" lon="13.1359575"><ele>1362.0</ele><time>2026-04-26T11:14:47.887Z</time></trkpt><trkpt lat="42.4248772" lon="13.1361198"><ele>1359.8</ele><time>2026-04-26T11:14:48.875Z</time></trkpt><trkpt lat="42.4249351" lon="13.1362705"><ele>1357.6</ele><time>2026-04-26T11:14:49.881Z</time></trkpt><trkpt lat="42.4249886" lon="13.1364084"><ele>1355.3999999999999</ele><time>2026-04-26T11:14:50.876Z</time></trkpt><trkpt lat="42.4250266" lon="13.13655"><ele>1353.1999999999998</ele><time>2026-04-26T11:14:51.908Z</time></trkpt><trkpt lat="42.4250448" lon="13.1366792"><ele>1351.0</ele><time>2026-04-26T11:14:52.879Z</time></trkpt><trkpt lat="42.4250648" lon="13.1368084"><ele>1349.8333333333333</ele><time>2026-04-26T11:14:53.883Z</time></trkpt><trkpt lat="42.4250806" lon="13.1369211"><ele>1348.6666666666665</ele><time>2026-04-26T11:14:54.874Z</time></trkpt><trkpt lat="42.4251" lon="13.1370284"><ele>1347.5</ele><time>2026-04-26T11:14:55.877Z</time></trkpt><trkpt lat="42.4251309" lon="13.1371255"><ele>1346.3333333333333</ele><time>2026-04-26T11:14:56.891Z</time></trkpt><trkpt lat="42.4251679" lon="13.1372227"><ele>1345.1666666666667</ele><time>2026-04-26T11:14:57.876Z</time></trkpt><trkpt lat="42.4252056" lon="13.137322"><ele>1344.0</ele><time>2026-04-26T11:14:58.886Z</time></trkpt><trkpt lat="42.4252361" lon="13.1374079"><ele>1343.8000000000002</ele><time>2026-04-26T11:14:59.929Z</time></trkpt><trkpt lat="42.4252474" lon="13.1375628"><ele>1343.6000000000001</ele><time>2026-04-26T11:15:01.898Z</time></trkpt><trkpt lat="42.4251987" lon="13.137693"><ele>1343.4</ele><time>2026-04-26T11:15:03.875Z</time></trkpt><trkpt lat="42.4250995" lon="13.1378041"><ele>1343.2</ele><time>2026-04-26T11:15:05.871Z</time></trkpt><trkpt lat="42.4250225" lon="13.1378676"><ele>1343.0</ele><time>2026-04-26T11:15:06.875Z</time></trkpt><trkpt lat="42.4249233" lon="13.1379446"><ele>1343.0</ele><time>2026-04-26T11:15:07.875Z</time></trkpt><trkpt lat="42.4248177" lon="13.1380224"><ele>1343.0</ele><time>2026-04-26T11:15:08.871Z</time></trkpt><trkpt lat="42.4247202" lon="13.1380846"><ele>1343.0</ele><time>2026-04-26T11:15:09.869Z</time></trkpt><trkpt lat="42.4246308" lon="13.1381374"><ele>1343.0</ele><time>2026-04-26T11:15:10.876Z</time></trkpt><trkpt lat="42.4245411" lon="13.1381942"><ele>1343.0</ele><time>2026-04-26T11:15:11.877Z</time></trkpt><trkpt lat="42.4244492" lon="13.1382571"><ele>1343.4</ele><time>2026-04-26T11:15:12.925Z</time></trkpt><trkpt lat="42.4243633" lon="13.1383177"><ele>1343.8000000000002</ele><time>2026-04-26T11:15:13.874Z</time></trkpt><trkpt lat="42.4242798" lon="13.1383767"><ele>1344.2</ele><time>2026-04-26T11:15:14.871Z</time></trkpt><trkpt lat="42.4241867" lon="13.1384384"><ele>1344.6</ele><time>2026-04-26T11:15:15.87Z</time></trkpt><trkpt lat="42.4240904" lon="13.1385045"><ele>1345.0</ele><time>2026-04-26T11:15:16.87Z</time></trkpt><trkpt lat="42.4240123" lon="13.1385661"><ele>1345.0</ele><time>2026-04-26T11:15:17.875Z</time></trkpt><trkpt lat="42.4239456" lon="13.1386276"><ele>1345.0</ele><time>2026-04-26T11:15:18.877Z</time></trkpt><trkpt lat="42.423889" lon="13.1386951"><ele>1345.0</ele><time>2026-04-26T11:15:19.868Z</time></trkpt><trkpt lat="42.4238327" lon="13.1387664"><ele>1345.0</ele><time>2026-04-26T11:15:20.868Z</time></trkpt><trkpt lat="42.4237733" lon="13.1388347"><ele>1345.0</ele><time>2026-04-26T11:15:21.87Z</time></trkpt><trkpt lat="42.423725" lon="13.1388903"><ele>1345.0</ele><time>2026-04-26T11:15:22.876Z</time></trkpt><trkpt lat="42.4236386" lon="13.1389608"><ele>1345.0</ele><time>2026-04-26T11:15:24.879Z</time></trkpt><trkpt lat="42.4235535" lon="13.1390196"><ele>1345.0</ele><time>2026-04-26T11:15:26.876Z</time></trkpt><trkpt lat="42.4235007" lon="13.1390682"><ele>1345.0</ele><time>2026-04-26T11:15:33.878Z</time></trkpt><trkpt lat="42.4235528" lon="13.1391548"><ele>1345.0</ele><time>2026-04-26T11:15:43.88Z</time></trkpt><trkpt lat="42.4236366" lon="13.1391041"><ele>1345.0</ele><time>2026-04-26T11:15:46.863Z</time></trkpt><trkpt lat="42.4237183" lon="13.1390365"><ele>1345.0</ele><time>2026-04-26T11:15:48.871Z</time></trkpt><trkpt lat="42.4238224" lon="13.1389636"><ele>1345.0</ele><time>2026-04-26T11:15:50.876Z</time></trkpt><trkpt lat="42.4238807" lon="13.1389253"><ele>1345.0</ele><time>2026-04-26T11:15:51.879Z</time></trkpt><trkpt lat="42.4239719" lon="13.1388574"><ele>1345.0</ele><time>2026-04-26T11:15:53.88Z</time></trkpt><trkpt lat="42.424064" lon="13.1387908"><ele>1345.0</ele><time>2026-04-26T11:15:55.878Z</time></trkpt><trkpt lat="42.4241245" lon="13.138765"><ele>1345.0</ele><time>2026-04-26T11:15:56.876Z</time></trkpt><trkpt lat="42.4241884" lon="13.1387419"><ele>1345.0</ele><time>2026-04-26T11:15:57.875Z</time></trkpt><trkpt lat="42.424258" lon="13.1387269"><ele>1345.0</ele><time>2026-04-26T11:15:58.87Z</time></trkpt><trkpt lat="42.4243378" lon="13.138733"><ele>1345.0</ele><time>2026-04-26T11:15:59.881Z</time></trkpt><trkpt lat="42.4244238" lon="13.1387501"><ele>1345.0</ele><time>2026-04-26T11:16:00.874Z</time></trkpt><trkpt lat="42.424511" lon="13.1387744"><ele>1345.0</ele><time>2026-04-26T11:16:01.883Z</time></trkpt><trkpt lat="42.4245852" lon="13.1388112"><ele>1345.0</ele><time>2026-04-26T11:16:02.885Z</time></trkpt><trkpt lat="42.4246446" lon="13.1388613"><ele>1345.0</ele><time>2026-04-26T11:16:03.887Z</time></trkpt><trkpt lat="42.4247027" lon="13.1389238"><ele>1345.0</ele><time>2026-04-26T11:16:04.947Z</time></trkpt><trkpt lat="42.4247576" lon="13.1389889"><ele>1345.0</ele><time>2026-04-26T11:16:05.945Z</time></trkpt><trkpt lat="42.4248054" lon="13.1390521"><ele>1345.0</ele><time>2026-04-26T11:16:06.883Z</time></trkpt><trkpt lat="42.4248883" lon="13.1391421"><ele>1345.0</ele><time>2026-04-26T11:16:08.871Z</time></trkpt><trkpt lat="42.4249716" lon="13.1392263"><ele>1345.0</ele><time>2026-04-26T11:16:10.874Z</time></trkpt><trkpt lat="42.4250489" lon="13.1393059"><ele>1345.0</ele><time>2026-04-26T11:16:12.871Z</time></trkpt><trkpt lat="42.4251438" lon="13.1393858"><ele>1345.2</ele><time>2026-04-26T11:16:14.871Z</time></trkpt><trkpt lat="42.4251964" lon="13.1394352"><ele>1345.4</ele><time>2026-04-26T11:16:15.879Z</time></trkpt><trkpt lat="42.4252917" lon="13.1395345"><ele>1345.6</ele><time>2026-04-26T11:16:17.937Z</time></trkpt><trkpt lat="42.4253568" lon="13.1396427"><ele>1345.8</ele><time>2026-04-26T11:16:19.879Z</time></trkpt><trkpt lat="42.4253879" lon="13.1397571"><ele>1346.0</ele><time>2026-04-26T11:16:21.878Z</time></trkpt><trkpt lat="42.4253882" lon="13.1398626"><ele>1345.8</ele><time>2026-04-26T11:16:23.88Z</time></trkpt><trkpt lat="42.4253607" lon="13.1399737"><ele>1345.6</ele><time>2026-04-26T11:16:25.882Z</time></trkpt><trkpt lat="42.425299" lon="13.140089"><ele>1345.4</ele><time>2026-04-26T11:16:27.874Z</time></trkpt><trkpt lat="42.4252003" lon="13.1402025"><ele>1345.2</ele><time>2026-04-26T11:16:29.869Z</time></trkpt><trkpt lat="42.4251492" lon="13.140255"><ele>1345.0</ele><time>2026-04-26T11:16:30.881Z</time></trkpt><trkpt lat="42.4251025" lon="13.1403203"><ele>1345.0</ele><time>2026-04-26T11:16:31.869Z</time></trkpt><trkpt lat="42.4250496" lon="13.1403909"><ele>1345.0</ele><time>2026-04-26T11:16:32.876Z</time></trkpt><trkpt lat="42.4249959" lon="13.1404663"><ele>1345.0</ele><time>2026-04-26T11:16:33.878Z</time></trkpt><trkpt lat="42.424937" lon="13.1405424"><ele>1345.0</ele><time>2026-04-26T11:16:34.881Z</time></trkpt><trkpt lat="42.4248782" lon="13.1406073"><ele>1345.0</ele><time>2026-04-26T11:16:35.879Z</time></trkpt><trkpt lat="42.4248214" lon="13.1406709"><ele>1345.0</ele><time>2026-04-26T11:16:36.879Z</time></trkpt><trkpt lat="42.4247641" lon="13.1407368"><ele>1345.0</ele><time>2026-04-26T11:16:37.881Z</time></trkpt><trkpt lat="42.4247069" lon="13.1407994"><ele>1345.0</ele><time>2026-04-26T11:16:38.875Z</time></trkpt><trkpt lat="42.4246537" lon="13.1408593"><ele>1345.0</ele><time>2026-04-26T11:16:39.879Z</time></trkpt><trkpt lat="42.4246024" lon="13.1409158"><ele>1345.0</ele><time>2026-04-26T11:16:40.878Z</time></trkpt><trkpt lat="42.4245074" lon="13.1410143"><ele>1345.0</ele><time>2026-04-26T11:16:42.877Z</time></trkpt><trkpt lat="42.4244199" lon="13.1411072"><ele>1345.0</ele><time>2026-04-26T11:16:44.873Z</time></trkpt><trkpt lat="42.4243455" lon="13.1411772"><ele>1346.0</ele><time>2026-04-26T11:16:46.878Z</time></trkpt><trkpt lat="42.4242719" lon="13.141255"><ele>1347.0</ele><time>2026-04-26T11:16:48.872Z</time></trkpt><trkpt lat="42.4241918" lon="13.1413456"><ele>1348.0</ele><time>2026-04-26T11:16:50.881Z</time></trkpt><trkpt lat="42.4241229" lon="13.1414237"><ele>1349.0</ele><time>2026-04-26T11:16:52.877Z</time></trkpt><trkpt lat="42.424053" lon="13.1415195"><ele>1350.0</ele><time>2026-04-26T11:16:54.878Z</time></trkpt><trkpt lat="42.4239575" lon="13.1416112"><ele>1350.0</ele><time>2026-04-26T11:16:56.869Z</time></trkpt><trkpt lat="42.4238552" lon="13.1416986"><ele>1350.0</ele><time>2026-04-26T11:16:58.874Z</time></trkpt><trkpt lat="42.4237602" lon="13.1417852"><ele>1350.0</ele><time>2026-04-26T11:17:00.866Z</time></trkpt><trkpt lat="42.4236771" lon="13.1418917"><ele>1350.0</ele><time>2026-04-26T11:17:02.876Z</time></trkpt><trkpt lat="42.4235985" lon="13.1420023"><ele>1350.0</ele><time>2026-04-26T11:17:04.879Z</time></trkpt><trkpt lat="42.4235186" lon="13.1421218"><ele>1350.0</ele><time>2026-04-26T11:17:06.875Z</time></trkpt><trkpt lat="42.4234823" lon="13.1421922"><ele>1350.0</ele><time>2026-04-26T11:17:07.872Z</time></trkpt><trkpt lat="42.4234155" lon="13.1423228"><ele>1350.0</ele><time>2026-04-26T11:17:09.877Z</time></trkpt><trkpt lat="42.4233528" lon="13.1424399"><ele>1350.0</ele><time>2026-04-26T11:17:11.875Z</time></trkpt><trkpt lat="42.4232851" lon="13.1425405"><ele>1350.1666666666667</ele><time>2026-04-26T11:17:13.878Z</time></trkpt><trkpt lat="42.4232088" lon="13.1425995"><ele>1350.3333333333333</ele><time>2026-04-26T11:17:15.876Z</time></trkpt><trkpt lat="42.423117" lon="13.1426041"><ele>1350.5</ele><time>2026-04-26T11:17:17.872Z</time></trkpt><trkpt lat="42.4230252" lon="13.1426052"><ele>1350.6666666666665</ele><time>2026-04-26T11:17:19.879Z</time></trkpt><trkpt lat="42.4229461" lon="13.1426108"><ele>1350.8333333333333</ele><time>2026-04-26T11:17:21.875Z</time></trkpt><trkpt lat="42.4228655" lon="13.1426232"><ele>1351.0</ele><time>2026-04-26T11:17:23.878Z</time></trkpt><trkpt lat="42.4227968" lon="13.1426489"><ele>1351.0</ele><time>2026-04-26T11:17:25.875Z</time></trkpt><trkpt lat="42.4227263" lon="13.142673"><ele>1351.0</ele><time>2026-04-26T11:17:28.877Z</time></trkpt><trkpt lat="42.4226838" lon="13.1427488"><ele>1351.0</ele><time>2026-04-26T11:17:52.877Z</time></trkpt><trkpt lat="42.4227501" lon="13.1428226"><ele>1351.0</ele><time>2026-04-26T11:17:55.875Z</time></trkpt><trkpt lat="42.4228251" lon="13.1428143"><ele>1351.0</ele><time>2026-04-26T11:17:57.875Z</time></trkpt><trkpt lat="42.4228999" lon="13.1427916"><ele>1351.0</ele><time>2026-04-26T11:17:59.877Z</time></trkpt><trkpt lat="42.4229964" lon="13.1427492"><ele>1352.6</ele><time>2026-04-26T11:18:01.877Z</time></trkpt><trkpt lat="42.4230976" lon="13.142684"><ele>1354.1999999999998</ele><time>2026-04-26T11:18:03.871Z</time></trkpt><trkpt lat="42.4231909" lon="13.1426213"><ele>1355.8000000000002</ele><time>2026-04-26T11:18:05.873Z</time></trkpt><trkpt lat="42.4232928" lon="13.1425456"><ele>1357.4</ele><time>2026-04-26T11:18:07.875Z</time></trkpt><trkpt lat="42.4233513" lon="13.1424978"><ele>1359.0</ele><time>2026-04-26T11:18:08.875Z</time></trkpt><trkpt lat="42.423411" lon="13.1424425"><ele>1359.0</ele><time>2026-04-26T11:18:09.878Z</time></trkpt><trkpt lat="42.4234613" lon="13.1423886"><ele>1359.0</ele><time>2026-04-26T11:18:10.876Z</time></trkpt><trkpt lat="42.4235092" lon="13.1423231"><ele>1359.0</ele><time>2026-04-26T11:18:11.873Z</time></trkpt><trkpt lat="42.4235571" lon="13.1422562"><ele>1359.0</ele><time>2026-04-26T11:18:12.924Z</time></trkpt><trkpt lat="42.423603" lon="13.1421931"><ele>1359.0</ele><time>2026-04-26T11:18:13.931Z</time></trkpt><trkpt lat="42.4236467" lon="13.14213"><ele>1359.0</ele><time>2026-04-26T11:18:14.94Z</time></trkpt><trkpt lat="42.4237262" lon="13.1420222"><ele>1359.0</ele><time>2026-04-26T11:18:16.87Z</time></trkpt><trkpt lat="42.4238121" lon="13.1419425"><ele>1358.0</ele><time>2026-04-26T11:18:18.876Z</time></trkpt><trkpt lat="42.4239022" lon="13.1418573"><ele>1357.0</ele><time>2026-04-26T11:18:20.876Z</time></trkpt><trkpt lat="42.4239555" lon="13.1418105"><ele>1356.0</ele><time>2026-04-26T11:18:21.875Z</time></trkpt><trkpt lat="42.4240428" lon="13.1416954"><ele>1355.0</ele><time>2026-04-26T11:18:23.873Z</time></trkpt><trkpt lat="42.4240722" lon="13.1416127"><ele>1354.0</ele><time>2026-04-26T11:18:24.874Z</time></trkpt><trkpt lat="42.4240992" lon="13.1415282"><ele>1353.0</ele><time>2026-04-26T11:18:25.875Z</time></trkpt><trkpt lat="42.4241312" lon="13.1414447"><ele>1352.5714285714287</ele><time>2026-04-26T11:18:26.873Z</time></trkpt><trkpt lat="42.4241608" lon="13.1413673"><ele>1352.142857142857</ele><time>2026-04-26T11:18:27.876Z</time></trkpt><trkpt lat="42.4241906" lon="13.1412884"><ele>1351.7142857142858</ele><time>2026-04-26T11:18:28.878Z</time></trkpt><trkpt lat="42.4242265" lon="13.141209"><ele>1351.2857142857142</ele><time>2026-04-26T11:18:29.878Z</time></trkpt><trkpt lat="42.4242648" lon="13.141129"><ele>1350.857142857143</ele><time>2026-04-26T11:18:30.874Z</time></trkpt><trkpt lat="42.4243016" lon="13.1410506"><ele>1350.4285714285713</ele><time>2026-04-26T11:18:31.877Z</time></trkpt><trkpt lat="42.4243382" lon="13.1409766"><ele>1350.0</ele><time>2026-04-26T11:18:32.876Z</time></trkpt><trkpt lat="42.4243686" lon="13.1408994"><ele>1350.0</ele><time>2026-04-26T11:18:33.88Z</time></trkpt><trkpt lat="42.4244209" lon="13.140774"><ele>1350.0</ele><time>2026-04-26T11:18:35.878Z</time></trkpt><trkpt lat="42.4244798" lon="13.1406354"><ele>1350.0</ele><time>2026-04-26T11:18:37.874Z</time></trkpt><trkpt lat="42.4245349" lon="13.140488"><ele>1350.0</ele><time>2026-04-26T11:18:39.875Z</time></trkpt><trkpt lat="42.4245698" lon="13.1404028"><ele>1350.0</ele><time>2026-04-26T11:18:40.88Z</time></trkpt><trkpt lat="42.4246051" lon="13.1403155"><ele>1349.7142857142858</ele><time>2026-04-26T11:18:41.881Z</time></trkpt><trkpt lat="42.4246424" lon="13.1402183"><ele>1349.4285714285716</ele><time>2026-04-26T11:18:42.871Z</time></trkpt><trkpt lat="42.4246839" lon="13.1401244"><ele>1349.1428571428573</ele><time>2026-04-26T11:18:43.873Z</time></trkpt><trkpt lat="42.4247261" lon="13.1400405"><ele>1348.857142857143</ele><time>2026-04-26T11:18:44.874Z</time></trkpt><trkpt lat="42.4247649" lon="13.1399586"><ele>1348.5714285714287</ele><time>2026-04-26T11:18:45.874Z</time></trkpt><trkpt lat="42.4247966" lon="13.1398727"><ele>1348.2857142857144</ele><time>2026-04-26T11:18:46.877Z</time></trkpt><trkpt lat="42.4248276" lon="13.1397929"><ele>1348.0</ele><time>2026-04-26T11:18:47.879Z</time></trkpt><trkpt lat="42.424867" lon="13.1396429"><ele>1347.6000000000001</ele><time>2026-04-26T11:18:49.879Z</time></trkpt><trkpt lat="42.4249037" lon="13.139494"><ele>1347.2</ele><time>2026-04-26T11:18:51.878Z</time></trkpt><trkpt lat="42.4249381" lon="13.1393567"><ele>1346.8</ele><time>2026-04-26T11:18:53.878Z</time></trkpt><trkpt lat="42.4249512" lon="13.1392267"><ele>1346.4</ele><time>2026-04-26T11:18:55.875Z</time></trkpt><trkpt lat="42.4249217" lon="13.139134"><ele>1346.0</ele><time>2026-04-26T11:18:57.878Z</time></trkpt><trkpt lat="42.4248579" lon="13.1390553"><ele>1345.8</ele><time>2026-04-26T11:18:59.882Z</time></trkpt><trkpt lat="42.4247767" lon="13.138979"><ele>1345.6</ele><time>2026-04-26T11:19:01.874Z</time></trkpt><trkpt lat="42.4246872" lon="13.1388953"><ele>1345.4</ele><time>2026-04-26T11:19:03.875Z</time></trkpt><trkpt lat="42.4246372" lon="13.1388361"><ele>1345.2</ele><time>2026-04-26T11:19:04.877Z</time></trkpt><trkpt lat="42.4245232" lon="13.1387567"><ele>1345.0</ele><time>2026-04-26T11:19:06.878Z</time></trkpt><trkpt lat="42.4244576" lon="13.1387295"><ele>1345.0</ele><time>2026-04-26T11:19:07.872Z</time></trkpt><trkpt lat="42.4243907" lon="13.1387068"><ele>1345.0</ele><time>2026-04-26T11:19:08.874Z</time></trkpt><trkpt lat="42.4243254" lon="13.1387042"><ele>1345.0</ele><time>2026-04-26T11:19:09.871Z</time></trkpt><trkpt lat="42.4242581" lon="13.1387072"><ele>1345.0</ele><time>2026-04-26T11:19:10.881Z</time></trkpt><trkpt lat="42.4241399" lon="13.1387414"><ele>1345.0</ele><time>2026-04-26T11:19:12.872Z</time></trkpt><trkpt lat="42.4240315" lon="13.1387914"><ele>1345.0</ele><time>2026-04-26T11:19:14.861Z</time></trkpt><trkpt lat="42.4239304" lon="13.1388658"><ele>1345.0</ele><time>2026-04-26T11:19:16.87Z</time></trkpt><trkpt lat="42.4238256" lon="13.1389267"><ele>1345.0</ele><time>2026-04-26T11:19:18.88Z</time></trkpt><trkpt lat="42.4237315" lon="13.138972"><ele>1345.0</ele><time>2026-04-26T11:19:20.911Z</time></trkpt><trkpt lat="42.4236136" lon="13.1390447"><ele>1345.0</ele><time>2026-04-26T11:19:22.877Z</time></trkpt><trkpt lat="42.4235533" lon="13.139082"><ele>1345.0</ele><time>2026-04-26T11:19:23.875Z</time></trkpt><trkpt lat="42.4234438" lon="13.1390947"><ele>1344.0</ele><time>2026-04-26T11:19:25.888Z</time></trkpt><trkpt lat="42.4233478" lon="13.1390651"><ele>1343.0</ele><time>2026-04-26T11:19:27.881Z</time></trkpt><trkpt lat="42.4232637" lon="13.1389606"><ele>1342.0</ele><time>2026-04-26T11:19:29.939Z</time></trkpt><trkpt lat="42.4231821" lon="13.1388394"><ele>1341.0</ele><time>2026-04-26T11:19:31.865Z</time></trkpt><trkpt lat="42.4230803" lon="13.1387486"><ele>1341.0000000000002</ele><time>2026-04-26T11:19:33.872Z</time></trkpt><trkpt lat="42.423014" lon="13.1387155"><ele>1341.0</ele><time>2026-04-26T11:19:34.873Z</time></trkpt><trkpt lat="42.4229469" lon="13.138692"><ele>1341.0</ele><time>2026-04-26T11:19:35.873Z</time></trkpt><trkpt lat="42.4228779" lon="13.1386766"><ele>1341.0</ele><time>2026-04-26T11:19:36.875Z</time></trkpt><trkpt lat="42.4228031" lon="13.1386728"><ele>1341.0</ele><time>2026-04-26T11:19:37.88Z</time></trkpt><trkpt lat="42.4227232" lon="13.138675"><ele>1341.0000000000002</ele><time>2026-04-26T11:19:38.874Z</time></trkpt><trkpt lat="42.422645" lon="13.1386856"><ele>1341.0</ele><time>2026-04-26T11:19:39.867Z</time></trkpt><trkpt lat="42.4225583" lon="13.1386981"><ele>1341.6666666666667</ele><time>2026-04-26T11:19:40.874Z</time></trkpt><trkpt lat="42.4224725" lon="13.1387104"><ele>1342.3333333333333</ele><time>2026-04-26T11:19:41.873Z</time></trkpt><trkpt lat="42.4223984" lon="13.1387113"><ele>1343.0</ele><time>2026-04-26T11:19:42.871Z</time></trkpt><trkpt lat="42.4223346" lon="13.1386986"><ele>1343.6666666666665</ele><time>2026-04-26T11:19:43.874Z</time></trkpt><trkpt lat="42.4222233" lon="13.1386207"><ele>1344.3333333333333</ele><time>2026-04-26T11:19:45.875Z</time></trkpt><trkpt lat="42.4221489" lon="13.1385789"><ele>1345.0</ele><time>2026-04-26T11:19:46.879Z</time></trkpt><trkpt lat="42.422065" lon="13.1385362"><ele>1345.5</ele><time>2026-04-26T11:19:47.872Z</time></trkpt><trkpt lat="42.4219816" lon="13.1384946"><ele>1346.0</ele><time>2026-04-26T11:19:48.884Z</time></trkpt><trkpt lat="42.4219094" lon="13.1384822"><ele>1346.5</ele><time>2026-04-26T11:19:49.88Z</time></trkpt><trkpt lat="42.4218437" lon="13.1384905"><ele>1347.0</ele><time>2026-04-26T11:19:50.872Z</time></trkpt><trkpt lat="42.4217795" lon="13.1385142"><ele>1347.5</ele><time>2026-04-26T11:19:51.867Z</time></trkpt><trkpt lat="42.4217244" lon="13.1385594"><ele>1348.0</ele><time>2026-04-26T11:19:52.885Z</time></trkpt><trkpt lat="42.4216569" lon="13.1386928"><ele>1348.0</ele><time>2026-04-26T11:19:54.874Z</time></trkpt><trkpt lat="42.4216046" lon="13.1388224"><ele>1348.0</ele><time>2026-04-26T11:19:56.875Z</time></trkpt><trkpt lat="42.4215371" lon="13.1389187"><ele>1348.0</ele><time>2026-04-26T11:19:58.878Z</time></trkpt><trkpt lat="42.4214352" lon="13.1389911"><ele>1348.0</ele><time>2026-04-26T11:20:00.882Z</time></trkpt><trkpt lat="42.421368" lon="13.1390218"><ele>1348.0</ele><time>2026-04-26T11:20:01.873Z</time></trkpt><trkpt lat="42.421305" lon="13.1390683"><ele>1349.3333333333333</ele><time>2026-04-26T11:20:02.871Z</time></trkpt><trkpt lat="42.4212448" lon="13.1391189"><ele>1350.6666666666665</ele><time>2026-04-26T11:20:03.87Z</time></trkpt><trkpt lat="42.4211954" lon="13.1391796"><ele>1352.0</ele><time>2026-04-26T11:20:04.891Z</time></trkpt><trkpt lat="42.4211416" lon="13.1393003"><ele>1353.3333333333333</ele><time>2026-04-26T11:20:06.876Z</time></trkpt><trkpt lat="42.4210756" lon="13.1394043"><ele>1354.6666666666667</ele><time>2026-04-26T11:20:08.87Z</time></trkpt><trkpt lat="42.4210295" lon="13.1394747"><ele>1356.0</ele><time>2026-04-26T11:20:09.87Z</time></trkpt><trkpt lat="42.4209283" lon="13.1395753"><ele>1356.0</ele><time>2026-04-26T11:20:11.871Z</time></trkpt><trkpt lat="42.4208365" lon="13.1396272"><ele>1356.0</ele><time>2026-04-26T11:20:12.871Z</time></trkpt><trkpt lat="42.4207433" lon="13.1396907"><ele>1356.0</ele><time>2026-04-26T11:20:13.871Z</time></trkpt><trkpt lat="42.4206543" lon="13.1397513"><ele>1356.0</ele><time>2026-04-26T11:20:14.869Z</time></trkpt><trkpt lat="42.4205802" lon="13.1398009"><ele>1356.0</ele><time>2026-04-26T11:20:15.874Z</time></trkpt><trkpt lat="42.4205032" lon="13.1398571"><ele>1356.3333333333333</ele><time>2026-04-26T11:20:16.871Z</time></trkpt><trkpt lat="42.4204274" lon="13.1399002"><ele>1356.6666666666667</ele><time>2026-04-26T11:20:17.874Z</time></trkpt><trkpt lat="42.4203534" lon="13.1399546"><ele>1357.0</ele><time>2026-04-26T11:20:18.865Z</time></trkpt><trkpt lat="42.420283" lon="13.1400048"><ele>1357.3333333333335</ele><time>2026-04-26T11:20:19.876Z</time></trkpt><trkpt lat="42.420223" lon="13.1400675"><ele>1357.6666666666667</ele><time>2026-04-26T11:20:20.869Z</time></trkpt><trkpt lat="42.4201553" lon="13.1401307"><ele>1358.0</ele><time>2026-04-26T11:20:21.861Z</time></trkpt><trkpt lat="42.4200845" lon="13.1401862"><ele>1358.0</ele><time>2026-04-26T11:20:22.885Z</time></trkpt><trkpt lat="42.4200145" lon="13.1402516"><ele>1358.0</ele><time>2026-04-26T11:20:23.926Z</time></trkpt><trkpt lat="42.4199508" lon="13.1403174"><ele>1358.0</ele><time>2026-04-26T11:20:24.87Z</time></trkpt><trkpt lat="42.4199008" lon="13.1403757"><ele>1358.0</ele><time>2026-04-26T11:20:25.869Z</time></trkpt><trkpt lat="42.419851" lon="13.1404351"><ele>1358.0</ele><time>2026-04-26T11:20:26.874Z</time></trkpt><trkpt lat="42.4197622" lon="13.1405383"><ele>1358.0</ele><time>2026-04-26T11:20:28.876Z</time></trkpt><trkpt lat="42.4196871" lon="13.1406139"><ele>1357.3333333333335</ele><time>2026-04-26T11:20:30.874Z</time></trkpt><trkpt lat="42.4196186" lon="13.1406797"><ele>1356.6666666666667</ele><time>2026-04-26T11:20:32.87Z</time></trkpt><trkpt lat="42.4195482" lon="13.1407388"><ele>1356.0</ele><time>2026-04-26T11:20:34.875Z</time></trkpt><trkpt lat="42.4194752" lon="13.1407978"><ele>1355.3333333333333</ele><time>2026-04-26T11:20:36.878Z</time></trkpt><trkpt lat="42.419396" lon="13.1408419"><ele>1354.6666666666665</ele><time>2026-04-26T11:20:38.87Z</time></trkpt><trkpt lat="42.4193142" lon="13.1408777"><ele>1354.0</ele><time>2026-04-26T11:20:40.875Z</time></trkpt><trkpt lat="42.4192364" lon="13.1409167"><ele>1354.0</ele><time>2026-04-26T11:20:42.877Z</time></trkpt><trkpt lat="42.419182" lon="13.1409597"><ele>1354.0</ele><time>2026-04-26T11:20:44.873Z</time></trkpt><trkpt lat="42.4191305" lon="13.1410123"><ele>1354.0</ele><time>2026-04-26T11:20:47.924Z</time></trkpt><trkpt lat="42.4190735" lon="13.1410571"><ele>1354.0</ele><time>2026-04-26T11:21:12.869Z</time></trkpt><trkpt lat="42.4189948" lon="13.1411212"><ele>1354.0</ele><time>2026-04-26T11:21:14.873Z</time></trkpt><trkpt lat="42.418889" lon="13.1412143"><ele>1354.0</ele><time>2026-04-26T11:21:16.869Z</time></trkpt><trkpt lat="42.4188241" lon="13.1412707"><ele>1355.4</ele><time>2026-04-26T11:21:17.869Z</time></trkpt><trkpt lat="42.41875" lon="13.141339"><ele>1356.8000000000002</ele><time>2026-04-26T11:21:18.873Z</time></trkpt><trkpt lat="42.4186605" lon="13.1414179"><ele>1358.1999999999998</ele><time>2026-04-26T11:21:19.876Z</time></trkpt><trkpt lat="42.4185697" lon="13.1414869"><ele>1359.6</ele><time>2026-04-26T11:21:20.865Z</time></trkpt><trkpt lat="42.4184813" lon="13.1415555"><ele>1361.0</ele><time>2026-04-26T11:21:21.869Z</time></trkpt><trkpt lat="42.4183887" lon="13.1416183"><ele>1361.0</ele><time>2026-04-26T11:21:22.871Z</time></trkpt><trkpt lat="42.4182971" lon="13.1416843"><ele>1361.0</ele><time>2026-04-26T11:21:23.87Z</time></trkpt><trkpt lat="42.4182109" lon="13.1417587"><ele>1361.0</ele><time>2026-04-26T11:21:24.869Z</time></trkpt><trkpt lat="42.4181207" lon="13.141838"><ele>1361.0</ele><time>2026-04-26T11:21:25.864Z</time></trkpt><trkpt lat="42.41804" lon="13.1419247"><ele>1361.0</ele><time>2026-04-26T11:21:26.867Z</time></trkpt><trkpt lat="42.4179533" lon="13.1419943"><ele>1359.4</ele><time>2026-04-26T11:21:27.872Z</time></trkpt><trkpt lat="42.4178632" lon="13.142052"><ele>1357.8</ele><time>2026-04-26T11:21:28.924Z</time></trkpt><trkpt lat="42.4177735" lon="13.1421115"><ele>1356.2</ele><time>2026-04-26T11:21:29.874Z</time></trkpt><trkpt lat="42.4176845" lon="13.1421758"><ele>1354.6000000000001</ele><time>2026-04-26T11:21:30.879Z</time></trkpt><trkpt lat="42.4175981" lon="13.1422194"><ele>1353.0</ele><time>2026-04-26T11:21:31.89Z</time></trkpt><trkpt lat="42.4175311" lon="13.1422407"><ele>1353.0</ele><time>2026-04-26T11:21:32.865Z</time></trkpt><trkpt lat="42.4174563" lon="13.142239"><ele>1353.0</ele><time>2026-04-26T11:21:33.863Z</time></trkpt><trkpt lat="42.417382" lon="13.1422092"><ele>1353.0</ele><time>2026-04-26T11:21:34.862Z</time></trkpt><trkpt lat="42.41729" lon="13.142156"><ele>1353.0</ele><time>2026-04-26T11:21:35.866Z</time></trkpt><trkpt lat="42.4171937" lon="13.1420949"><ele>1353.0</ele><time>2026-04-26T11:21:36.865Z</time></trkpt><trkpt lat="42.4170952" lon="13.1420578"><ele>1350.6666666666667</ele><time>2026-04-26T11:21:37.867Z</time></trkpt><trkpt lat="42.417007" lon="13.1420385"><ele>1348.3333333333333</ele><time>2026-04-26T11:21:38.872Z</time></trkpt><trkpt lat="42.4169251" lon="13.1420387"><ele>1346.0</ele><time>2026-04-26T11:21:39.863Z</time></trkpt><trkpt lat="42.4168509" lon="13.14204"><ele>1343.6666666666665</ele><time>2026-04-26T11:21:40.874Z</time></trkpt><trkpt lat="42.4167872" lon="13.1420581"><ele>1341.3333333333333</ele><time>2026-04-26T11:21:41.869Z</time></trkpt><trkpt lat="42.4166728" lon="13.1421224"><ele>1339.0</ele><time>2026-04-26T11:21:43.87Z</time></trkpt><trkpt lat="42.416612" lon="13.1421591"><ele>1339.0</ele><time>2026-04-26T11:21:44.876Z</time></trkpt><trkpt lat="42.416503" lon="13.142245"><ele>1339.0</ele><time>2026-04-26T11:21:46.894Z</time></trkpt><trkpt lat="42.4164505" lon="13.1422928"><ele>1339.0</ele><time>2026-04-26T11:21:47.873Z</time></trkpt><trkpt lat="42.4164042" lon="13.1423523"><ele>1339.0</ele><time>2026-04-26T11:21:48.883Z</time></trkpt><trkpt lat="42.4163259" lon="13.1424679"><ele>1339.0</ele><time>2026-04-26T11:21:50.892Z</time></trkpt><trkpt lat="42.4162505" lon="13.1426153"><ele>1339.5714285714287</ele><time>2026-04-26T11:21:52.874Z</time></trkpt><trkpt lat="42.4162092" lon="13.1426953"><ele>1340.142857142857</ele><time>2026-04-26T11:21:53.871Z</time></trkpt><trkpt lat="42.4161688" lon="13.1427705"><ele>1340.7142857142858</ele><time>2026-04-26T11:21:54.954Z</time></trkpt><trkpt lat="42.4161275" lon="13.1428396"><ele>1341.2857142857142</ele><time>2026-04-26T11:21:55.871Z</time></trkpt><trkpt lat="42.4160842" lon="13.1429046"><ele>1341.857142857143</ele><time>2026-04-26T11:21:56.887Z</time></trkpt><trkpt lat="42.4160348" lon="13.1429774"><ele>1342.4285714285713</ele><time>2026-04-26T11:21:57.874Z</time></trkpt><trkpt lat="42.4159835" lon="13.1430455"><ele>1343.0</ele><time>2026-04-26T11:21:58.87Z</time></trkpt><trkpt lat="42.415929" lon="13.143108"><ele>1343.0</ele><time>2026-04-26T11:21:59.887Z</time></trkpt><trkpt lat="42.4158771" lon="13.1431607"><ele>1343.0</ele><time>2026-04-26T11:22:00.867Z</time></trkpt><trkpt lat="42.4157956" lon="13.143249"><ele>1343.0</ele><time>2026-04-26T11:22:02.869Z</time></trkpt><trkpt lat="42.4156997" lon="13.143333"><ele>1343.0</ele><time>2026-04-26T11:22:04.88Z</time></trkpt><trkpt lat="42.4156206" lon="13.14342"><ele>1343.0</ele><time>2026-04-26T11:22:06.876Z</time></trkpt><trkpt lat="42.4155468" lon="13.1435303"><ele>1345.6000000000001</ele><time>2026-04-26T11:22:09.02Z</time></trkpt><trkpt lat="42.415468" lon="13.1436395"><ele>1348.2</ele><time>2026-04-26T11:22:10.87Z</time></trkpt><trkpt lat="42.4153697" lon="13.1437387"><ele>1350.8</ele><time>2026-04-26T11:22:12.866Z</time></trkpt><trkpt lat="42.4153179" lon="13.1437883"><ele>1353.4</ele><time>2026-04-26T11:22:13.868Z</time></trkpt><trkpt lat="42.4152615" lon="13.1438295"><ele>1356.0</ele><time>2026-04-26T11:22:14.862Z</time></trkpt><trkpt lat="42.4151465" lon="13.1438878"><ele>1356.0</ele><time>2026-04-26T11:22:16.861Z</time></trkpt><trkpt lat="42.41508" lon="13.14388"><ele>1356.0</ele><time>2026-04-26T11:22:17.865Z</time></trkpt><trkpt lat="42.4150117" lon="13.1438463"><ele>1356.0</ele><time>2026-04-26T11:22:18.863Z</time></trkpt><trkpt lat="42.4149635" lon="13.1437893"><ele>1356.0</ele><time>2026-04-26T11:22:19.874Z</time></trkpt><trkpt lat="42.4149165" lon="13.1437265"><ele>1356.0</ele><time>2026-04-26T11:22:20.871Z</time></trkpt><trkpt lat="42.4148658" lon="13.1435832"><ele>1356.0</ele><time>2026-04-26T11:22:22.867Z</time></trkpt><trkpt lat="42.4148557" lon="13.143423"><ele>1356.0</ele><time>2026-04-26T11:22:24.863Z</time></trkpt><trkpt lat="42.414881" lon="13.1432508"><ele>1356.0</ele><time>2026-04-26T11:22:26.863Z</time></trkpt><trkpt lat="42.4149107" lon="13.1431399"><ele>1356.0</ele><time>2026-04-26T11:22:27.858Z</time></trkpt><trkpt lat="42.4149488" lon="13.1430082"><ele>1356.0</ele><time>2026-04-26T11:22:28.865Z</time></trkpt><trkpt lat="42.4149941" lon="13.1428751"><ele>1356.0</ele><time>2026-04-26T11:22:29.865Z</time></trkpt><trkpt lat="42.4150349" lon="13.1427576"><ele>1356.5</ele><time>2026-04-26T11:22:30.866Z</time></trkpt><trkpt lat="42.4150799" lon="13.1426447"><ele>1357.0</ele><time>2026-04-26T11:22:31.858Z</time></trkpt><trkpt lat="42.4151141" lon="13.1425387"><ele>1357.5</ele><time>2026-04-26T11:22:32.867Z</time></trkpt><trkpt lat="42.4151446" lon="13.1424266"><ele>1358.0</ele><time>2026-04-26T11:22:33.869Z</time></trkpt><trkpt lat="42.4151675" lon="13.1423234"><ele>1358.5</ele><time>2026-04-26T11:22:34.87Z</time></trkpt><trkpt lat="42.4151894" lon="13.1422298"><ele>1359.0</ele><time>2026-04-26T11:22:35.866Z</time></trkpt><trkpt lat="42.4152079" lon="13.1421394"><ele>1357.5</ele><time>2026-04-26T11:22:36.865Z</time></trkpt><trkpt lat="42.4152179" lon="13.141983"><ele>1356.0</ele><time>2026-04-26T11:22:38.868Z</time></trkpt><trkpt lat="42.4151954" lon="13.141895"><ele>1354.5</ele><time>2026-04-26T11:22:39.87Z</time></trkpt><trkpt lat="42.4151539" lon="13.1418078"><ele>1353.0</ele><time>2026-04-26T11:22:40.877Z</time></trkpt><trkpt lat="42.4151099" lon="13.1417152"><ele>1351.5</ele><time>2026-04-26T11:22:41.871Z</time></trkpt><trkpt lat="42.415062" lon="13.1416256"><ele>1350.0</ele><time>2026-04-26T11:22:42.867Z</time></trkpt><trkpt lat="42.4150165" lon="13.1415366"><ele>1348.0</ele><time>2026-04-26T11:22:43.866Z</time></trkpt><trkpt lat="42.4149229" lon="13.1414288"><ele>1346.0</ele><time>2026-04-26T11:22:45.874Z</time></trkpt><trkpt lat="42.414852" lon="13.141395"><ele>1344.0</ele><time>2026-04-26T11:22:46.869Z</time></trkpt><trkpt lat="42.4147465" lon="13.1413655"><ele>1342.0</ele><time>2026-04-26T11:22:47.865Z</time></trkpt><trkpt lat="42.4146425" lon="13.1413262"><ele>1340.0</ele><time>2026-04-26T11:22:48.879Z</time></trkpt><trkpt lat="42.4145283" lon="13.1412875"><ele>1340.0</ele><time>2026-04-26T11:22:49.873Z</time></trkpt><trkpt lat="42.4144214" lon="13.1412445"><ele>1340.0</ele><time>2026-04-26T11:22:50.879Z</time></trkpt><trkpt lat="42.4143359" lon="13.1412143"><ele>1340.0</ele><time>2026-04-26T11:22:51.868Z</time></trkpt><trkpt lat="42.41425" lon="13.141173"><ele>1340.0</ele><time>2026-04-26T11:22:52.867Z</time></trkpt><trkpt lat="42.4141687" lon="13.1411363"><ele>1340.0</ele><time>2026-04-26T11:22:53.866Z</time></trkpt><trkpt lat="42.4140921" lon="13.1410897"><ele>1340.0</ele><time>2026-04-26T11:22:54.868Z</time></trkpt><trkpt lat="42.4140018" lon="13.1410438"><ele>1340.0</ele><time>2026-04-26T11:22:55.866Z</time></trkpt><trkpt lat="42.4139177" lon="13.1409915"><ele>1340.0</ele><time>2026-04-26T11:22:56.866Z</time></trkpt><trkpt lat="42.4138332" lon="13.1409588"><ele>1340.0</ele><time>2026-04-26T11:22:57.88Z</time></trkpt><trkpt lat="42.4137447" lon="13.1409413"><ele>1340.0</ele><time>2026-04-26T11:22:58.868Z</time></trkpt><trkpt lat="42.4136563" lon="13.140917"><ele>1341.3333333333335</ele><time>2026-04-26T11:22:59.913Z</time></trkpt><trkpt lat="42.4135768" lon="13.1408906"><ele>1342.6666666666667</ele><time>2026-04-26T11:23:00.877Z</time></trkpt><trkpt lat="42.413498" lon="13.1408604"><ele>1344.0</ele><time>2026-04-26T11:23:01.876Z</time></trkpt><trkpt lat="42.4134174" lon="13.140819"><ele>1345.3333333333333</ele><time>2026-04-26T11:23:02.899Z</time></trkpt><trkpt lat="42.4133354" lon="13.1407698"><ele>1346.6666666666665</ele><time>2026-04-26T11:23:03.873Z</time></trkpt><trkpt lat="42.4132558" lon="13.1407255"><ele>1348.0</ele><time>2026-04-26T11:23:04.867Z</time></trkpt><trkpt lat="42.4131774" lon="13.1406722"><ele>1343.6000000000001</ele><time>2026-04-26T11:23:05.875Z</time></trkpt><trkpt lat="42.4130954" lon="13.1406268"><ele>1339.2</ele><time>2026-04-26T11:23:06.867Z</time></trkpt><trkpt lat="42.4130071" lon="13.1405896"><ele>1334.8</ele><time>2026-04-26T11:23:07.863Z</time></trkpt><trkpt lat="42.4129166" lon="13.1405563"><ele>1330.4</ele><time>2026-04-26T11:23:08.872Z</time></trkpt><trkpt lat="42.4128266" lon="13.1405207"><ele>1326.0</ele><time>2026-04-26T11:23:09.862Z</time></trkpt><trkpt lat="42.4127339" lon="13.1404737"><ele>1326.0</ele><time>2026-04-26T11:23:10.884Z</time></trkpt><trkpt lat="42.4126398" lon="13.1404205"><ele>1326.0</ele><time>2026-04-26T11:23:11.869Z</time></trkpt><trkpt lat="42.4125383" lon="13.1403663"><ele>1326.0</ele><time>2026-04-26T11:23:12.877Z</time></trkpt><trkpt lat="42.4124376" lon="13.1403243"><ele>1326.0</ele><time>2026-04-26T11:23:13.862Z</time></trkpt><trkpt lat="42.4123368" lon="13.1402892"><ele>1326.0</ele><time>2026-04-26T11:23:14.867Z</time></trkpt><trkpt lat="42.4122424" lon="13.1402653"><ele>1327.6</ele><time>2026-04-26T11:23:15.864Z</time></trkpt><trkpt lat="42.4121514" lon="13.1402461"><ele>1329.1999999999998</ele><time>2026-04-26T11:23:16.86Z</time></trkpt><trkpt lat="42.4120541" lon="13.1402254"><ele>1330.8000000000002</ele><time>2026-04-26T11:23:17.868Z</time></trkpt><trkpt lat="42.4119488" lon="13.140207"><ele>1332.4</ele><time>2026-04-26T11:23:18.872Z</time></trkpt><trkpt lat="42.411843" lon="13.1401813"><ele>1334.0</ele><time>2026-04-26T11:23:19.868Z</time></trkpt><trkpt lat="42.4117331" lon="13.1401444"><ele>1334.0</ele><time>2026-04-26T11:23:20.854Z</time></trkpt><trkpt lat="42.4116251" lon="13.1401128"><ele>1334.0</ele><time>2026-04-26T11:23:21.858Z</time></trkpt><trkpt lat="42.4115233" lon="13.1400882"><ele>1334.0</ele><time>2026-04-26T11:23:22.862Z</time></trkpt><trkpt lat="42.411424" lon="13.1400641"><ele>1334.0</ele><time>2026-04-26T11:23:23.868Z</time></trkpt><trkpt lat="42.4113349" lon="13.1400448"><ele>1334.0</ele><time>2026-04-26T11:23:24.868Z</time></trkpt><trkpt lat="42.4112552" lon="13.1400343"><ele>1335.1666666666667</ele><time>2026-04-26T11:23:25.882Z</time></trkpt><trkpt lat="42.411187" lon="13.1400253"><ele>1336.3333333333335</ele><time>2026-04-26T11:23:26.876Z</time></trkpt><trkpt lat="42.4111225" lon="13.1400105"><ele>1337.5</ele><time>2026-04-26T11:23:27.898Z</time></trkpt><trkpt lat="42.4110642" lon="13.1399747"><ele>1338.6666666666667</ele><time>2026-04-26T11:23:28.867Z</time></trkpt><trkpt lat="42.4109797" lon="13.1398813"><ele>1339.8333333333333</ele><time>2026-04-26T11:23:30.86Z</time></trkpt><trkpt lat="42.4109502" lon="13.1397958"><ele>1341.0</ele><time>2026-04-26T11:23:31.862Z</time></trkpt><trkpt lat="42.410935" lon="13.1396981"><ele>1341.0</ele><time>2026-04-26T11:23:32.857Z</time></trkpt><trkpt lat="42.4109505" lon="13.1395887"><ele>1341.0</ele><time>2026-04-26T11:23:33.863Z</time></trkpt><trkpt lat="42.4109693" lon="13.1394781"><ele>1341.0</ele><time>2026-04-26T11:23:34.863Z</time></trkpt><trkpt lat="42.4109838" lon="13.139368"><ele>1341.0</ele><time>2026-04-26T11:23:35.876Z</time></trkpt><trkpt lat="42.4109938" lon="13.1392656"><ele>1341.0</ele><time>2026-04-26T11:23:36.87Z</time></trkpt><trkpt lat="42.4110015" lon="13.1391684"><ele>1341.0</ele><time>2026-04-26T11:23:37.866Z</time></trkpt><trkpt lat="42.4110035" lon="13.1390098"><ele>1336.4</ele><time>2026-04-26T11:23:39.864Z</time></trkpt><trkpt lat="42.4109532" lon="13.1388641"><ele>1331.8</ele><time>2026-04-26T11:23:41.869Z</time></trkpt><trkpt lat="42.410872" lon="13.1387349"><ele>1327.2</ele><time>2026-04-26T11:23:43.877Z</time></trkpt><trkpt lat="42.4108135" lon="13.1386811"><ele>1322.6000000000001</ele><time>2026-04-26T11:23:44.876Z</time></trkpt><trkpt lat="42.4107456" lon="13.1386229"><ele>1318.0</ele><time>2026-04-26T11:23:45.87Z</time></trkpt><trkpt lat="42.4106825" lon="13.1385849"><ele>1318.0</ele><time>2026-04-26T11:23:46.873Z</time></trkpt><trkpt lat="42.4106162" lon="13.1385409"><ele>1318.0</ele><time>2026-04-26T11:23:47.875Z</time></trkpt><trkpt lat="42.4104935" lon="13.1384969"><ele>1318.0</ele><time>2026-04-26T11:23:49.934Z</time></trkpt><trkpt lat="42.4104279" lon="13.138495"><ele>1318.0</ele><time>2026-04-26T11:23:50.878Z</time></trkpt><trkpt lat="42.4103536" lon="13.1385043"><ele>1318.0</ele><time>2026-04-26T11:23:51.921Z</time></trkpt><trkpt lat="42.4102751" lon="13.1385113"><ele>1318.0</ele><time>2026-04-26T11:23:52.869Z</time></trkpt><trkpt lat="42.4101907" lon="13.1385185"><ele>1318.0</ele><time>2026-04-26T11:23:53.873Z</time></trkpt><trkpt lat="42.4101051" lon="13.1385414"><ele>1318.0</ele><time>2026-04-26T11:23:54.874Z</time></trkpt><trkpt lat="42.4100168" lon="13.138576"><ele>1318.0</ele><time>2026-04-26T11:23:55.872Z</time></trkpt><trkpt lat="42.409937" lon="13.1386134"><ele>1318.0</ele><time>2026-04-26T11:23:56.876Z</time></trkpt><trkpt lat="42.4098628" lon="13.1386471"><ele>1318.0</ele><time>2026-04-26T11:23:57.878Z</time></trkpt><trkpt lat="42.409796" lon="13.1386803"><ele>1318.0</ele><time>2026-04-26T11:23:58.876Z</time></trkpt><trkpt lat="42.4097362" lon="13.1387138"><ele>1318.0</ele><time>2026-04-26T11:23:59.864Z</time></trkpt><trkpt lat="42.4096719" lon="13.1387445"><ele>1318.0</ele><time>2026-04-26T11:24:00.874Z</time></trkpt><trkpt lat="42.4096066" lon="13.1387759"><ele>1318.0</ele><time>2026-04-26T11:24:01.878Z</time></trkpt><trkpt lat="42.409533" lon="13.1388094"><ele>1318.0</ele><time>2026-04-26T11:24:02.875Z</time></trkpt><trkpt lat="42.4094538" lon="13.138846"><ele>1318.0</ele><time>2026-04-26T11:24:03.869Z</time></trkpt><trkpt lat="42.4093696" lon="13.1388894"><ele>1318.0</ele><time>2026-04-26T11:24:04.883Z</time></trkpt><trkpt lat="42.4092829" lon="13.1389231"><ele>1320.0</ele><time>2026-04-26T11:24:05.915Z</time></trkpt><trkpt lat="42.4092063" lon="13.1389606"><ele>1322.0</ele><time>2026-04-26T11:24:06.876Z</time></trkpt><trkpt lat="42.4091262" lon="13.1390046"><ele>1324.0</ele><time>2026-04-26T11:24:07.87Z</time></trkpt><trkpt lat="42.4090404" lon="13.1390593"><ele>1326.0</ele><time>2026-04-26T11:24:08.871Z</time></trkpt><trkpt lat="42.4089612" lon="13.1391139"><ele>1328.0</ele><time>2026-04-26T11:24:09.874Z</time></trkpt><trkpt lat="42.4088907" lon="13.1391722"><ele>1330.0</ele><time>2026-04-26T11:24:10.876Z</time></trkpt><trkpt lat="42.4088237" lon="13.1392229"><ele>1325.5</ele><time>2026-04-26T11:24:11.868Z</time></trkpt><trkpt lat="42.4087514" lon="13.1392776"><ele>1321.0</ele><time>2026-04-26T11:24:12.871Z</time></trkpt><trkpt lat="42.4086747" lon="13.1393437"><ele>1316.5</ele><time>2026-04-26T11:24:13.869Z</time></trkpt><trkpt lat="42.4085941" lon="13.1394008"><ele>1312.0</ele><time>2026-04-26T11:24:14.869Z</time></trkpt><trkpt lat="42.4085208" lon="13.1394494"><ele>1307.5</ele><time>2026-04-26T11:24:15.871Z</time></trkpt><trkpt lat="42.4084522" lon="13.1394959"><ele>1303.0</ele><time>2026-04-26T11:24:16.873Z</time></trkpt><trkpt lat="42.4083898" lon="13.1395328"><ele>1303.0</ele><time>2026-04-26T11:24:17.873Z</time></trkpt><trkpt lat="42.4083006" lon="13.1396002"><ele>1303.0</ele><time>2026-04-26T11:24:19.872Z</time></trkpt><trkpt lat="42.4082638" lon="13.139724"><ele>1303.0</ele><time>2026-04-26T11:24:21.868Z</time></trkpt><trkpt lat="42.4082668" lon="13.1398773"><ele>1303.0</ele><time>2026-04-26T11:24:23.866Z</time></trkpt><trkpt lat="42.4082792" lon="13.1399759"><ele>1303.0</ele><time>2026-04-26T11:24:24.885Z</time></trkpt><trkpt lat="42.4082851" lon="13.1400671"><ele>1305.4285714285716</ele><time>2026-04-26T11:24:25.877Z</time></trkpt><trkpt lat="42.4082875" lon="13.1401697"><ele>1307.857142857143</ele><time>2026-04-26T11:24:26.874Z</time></trkpt><trkpt lat="42.4082895" lon="13.1402674"><ele>1310.2857142857142</ele><time>2026-04-26T11:24:27.876Z</time></trkpt><trkpt lat="42.4082921" lon="13.140371"><ele>1312.7142857142858</ele><time>2026-04-26T11:24:28.867Z</time></trkpt><trkpt lat="42.4082896" lon="13.1404724"><ele>1315.142857142857</ele><time>2026-04-26T11:24:29.87Z</time></trkpt><trkpt lat="42.4082845" lon="13.1405702"><ele>1317.5714285714287</ele><time>2026-04-26T11:24:30.919Z</time></trkpt><trkpt lat="42.4082854" lon="13.1406643"><ele>1320.0</ele><time>2026-04-26T11:24:31.873Z</time></trkpt><trkpt lat="42.4082901" lon="13.1407494"><ele>1320.0</ele><time>2026-04-26T11:24:32.872Z</time></trkpt><trkpt lat="42.4082903" lon="13.1408398"><ele>1320.0</ele><time>2026-04-26T11:24:33.891Z</time></trkpt><trkpt lat="42.4082904" lon="13.1409367"><ele>1320.0</ele><time>2026-04-26T11:24:34.864Z</time></trkpt><trkpt lat="42.408302" lon="13.1410457"><ele>1320.0</ele><time>2026-04-26T11:24:35.879Z</time></trkpt><trkpt lat="42.4083049" lon="13.1411531"><ele>1320.0</ele><time>2026-04-26T11:24:36.867Z</time></trkpt><trkpt lat="42.4083139" lon="13.1412615"><ele>1320.0</ele><time>2026-04-26T11:24:37.889Z</time></trkpt><trkpt lat="42.4083274" lon="13.1413667"><ele>1320.0</ele><time>2026-04-26T11:24:38.865Z</time></trkpt><trkpt lat="42.4083407" lon="13.1414832"><ele>1320.0</ele><time>2026-04-26T11:24:39.881Z</time></trkpt><trkpt lat="42.4083586" lon="13.1416059"><ele>1320.0</ele><time>2026-04-26T11:24:40.88Z</time></trkpt><trkpt lat="42.4083713" lon="13.1417313"><ele>1320.0</ele><time>2026-04-26T11:24:41.873Z</time></trkpt><trkpt lat="42.408388" lon="13.1418504"><ele>1320.0</ele><time>2026-04-26T11:24:42.931Z</time></trkpt><trkpt lat="42.408403" lon="13.1419743"><ele>1318.6666666666667</ele><time>2026-04-26T11:24:43.881Z</time></trkpt><trkpt lat="42.4084136" lon="13.1420861"><ele>1317.3333333333333</ele><time>2026-04-26T11:24:44.87Z</time></trkpt><trkpt lat="42.408421" lon="13.142194"><ele>1316.0</ele><time>2026-04-26T11:24:45.873Z</time></trkpt><trkpt lat="42.4084227" lon="13.1423001"><ele>1314.6666666666665</ele><time>2026-04-26T11:24:46.869Z</time></trkpt><trkpt lat="42.4084244" lon="13.1424062"><ele>1313.3333333333333</ele><time>2026-04-26T11:24:47.876Z</time></trkpt><trkpt lat="42.4084273" lon="13.1425009"><ele>1312.0</ele><time>2026-04-26T11:24:48.868Z</time></trkpt><trkpt lat="42.4084437" lon="13.1426698"><ele>1311.3999999999999</ele><time>2026-04-26T11:24:50.87Z</time></trkpt><trkpt lat="42.4084401" lon="13.1428184"><ele>1310.8</ele><time>2026-04-26T11:24:52.864Z</time></trkpt><trkpt lat="42.4083962" lon="13.142961"><ele>1310.2</ele><time>2026-04-26T11:24:54.869Z</time></trkpt><trkpt lat="42.4083574" lon="13.1430396"><ele>1309.6</ele><time>2026-04-26T11:24:55.862Z</time></trkpt><trkpt lat="42.4083079" lon="13.143129"><ele>1309.0</ele><time>2026-04-26T11:24:56.912Z</time></trkpt><trkpt lat="42.4082658" lon="13.1432149"><ele>1311.1666666666665</ele><time>2026-04-26T11:24:57.87Z</time></trkpt><trkpt lat="42.4082205" lon="13.1433038"><ele>1313.3333333333333</ele><time>2026-04-26T11:24:58.888Z</time></trkpt><trkpt lat="42.4081819" lon="13.1433962"><ele>1315.5</ele><time>2026-04-26T11:24:59.872Z</time></trkpt><trkpt lat="42.408143" lon="13.1434836"><ele>1317.6666666666667</ele><time>2026-04-26T11:25:00.869Z</time></trkpt><trkpt lat="42.4081068" lon="13.1435735"><ele>1319.8333333333335</ele><time>2026-04-26T11:25:01.872Z</time></trkpt><trkpt lat="42.4080386" lon="13.1436704"><ele>1322.0</ele><time>2026-04-26T11:25:03.88Z</time></trkpt><trkpt lat="42.4079575" lon="13.1438043"><ele>1317.6666666666667</ele><time>2026-04-26T11:25:05.861Z</time></trkpt><trkpt lat="42.4079099" lon="13.1438838"><ele>1313.3333333333335</ele><time>2026-04-26T11:25:06.87Z</time></trkpt><trkpt lat="42.4078725" lon="13.1439631"><ele>1309.0</ele><time>2026-04-26T11:25:07.873Z</time></trkpt><trkpt lat="42.4078386" lon="13.1440469"><ele>1304.6666666666667</ele><time>2026-04-26T11:25:08.869Z</time></trkpt><trkpt lat="42.4078065" lon="13.1441464"><ele>1300.3333333333333</ele><time>2026-04-26T11:25:09.916Z</time></trkpt><trkpt lat="42.4077733" lon="13.1442512"><ele>1296.0</ele><time>2026-04-26T11:25:10.874Z</time></trkpt><trkpt lat="42.4077363" lon="13.1443631"><ele>1296.0</ele><time>2026-04-26T11:25:11.87Z</time></trkpt><trkpt lat="42.4076864" lon="13.1444767"><ele>1296.0</ele><time>2026-04-26T11:25:12.869Z</time></trkpt><trkpt lat="42.4076483" lon="13.1445919"><ele>1296.0</ele><time>2026-04-26T11:25:13.871Z</time></trkpt><trkpt lat="42.4076122" lon="13.1447044"><ele>1296.0</ele><time>2026-04-26T11:25:14.864Z</time></trkpt><trkpt lat="42.4075758" lon="13.144814"><ele>1296.0</ele><time>2026-04-26T11:25:15.866Z</time></trkpt><trkpt lat="42.4075451" lon="13.1448998"><ele>1296.0</ele><time>2026-04-26T11:25:16.894Z</time></trkpt><trkpt lat="42.4075177" lon="13.1449801"><ele>1298.5714285714287</ele><time>2026-04-26T11:25:17.87Z</time></trkpt><trkpt lat="42.4074886" lon="13.145059"><ele>1301.142857142857</ele><time>2026-04-26T11:25:18.88Z</time></trkpt><trkpt lat="42.4074554" lon="13.1451382"><ele>1303.7142857142858</ele><time>2026-04-26T11:25:19.869Z</time></trkpt><trkpt lat="42.407416" lon="13.1452074"><ele>1306.2857142857142</ele><time>2026-04-26T11:25:20.871Z</time></trkpt><trkpt lat="42.4073608" lon="13.1452885"><ele>1308.857142857143</ele><time>2026-04-26T11:25:21.868Z</time></trkpt><trkpt lat="42.4072974" lon="13.1453568"><ele>1311.4285714285713</ele><time>2026-04-26T11:25:22.865Z</time></trkpt><trkpt lat="42.4072379" lon="13.1454065"><ele>1314.0</ele><time>2026-04-26T11:25:23.87Z</time></trkpt><trkpt lat="42.4071582" lon="13.1454392"><ele>1307.5</ele><time>2026-04-26T11:25:24.865Z</time></trkpt><trkpt lat="42.4070764" lon="13.145448"><ele>1301.0</ele><time>2026-04-26T11:25:25.855Z</time></trkpt><trkpt lat="42.4070085" lon="13.1454537"><ele>1294.5</ele><time>2026-04-26T11:25:26.866Z</time></trkpt><trkpt lat="42.4069369" lon="13.145459"><ele>1288.0</ele><time>2026-04-26T11:25:27.868Z</time></trkpt><trkpt lat="42.4068645" lon="13.1454803"><ele>1281.5</ele><time>2026-04-26T11:25:28.867Z</time></trkpt><trkpt lat="42.4067877" lon="13.1455026"><ele>1275.0</ele><time>2026-04-26T11:25:29.864Z</time></trkpt><trkpt lat="42.4066976" lon="13.1455006"><ele>1275.0</ele><time>2026-04-26T11:25:30.872Z</time></trkpt><trkpt lat="42.4066143" lon="13.1454955"><ele>1275.0</ele><time>2026-04-26T11:25:31.874Z</time></trkpt><trkpt lat="42.4065356" lon="13.145506"><ele>1275.0</ele><time>2026-04-26T11:25:32.865Z</time></trkpt><trkpt lat="42.4064645" lon="13.1455346"><ele>1275.0</ele><time>2026-04-26T11:25:33.883Z</time></trkpt><trkpt lat="42.4063921" lon="13.1455713"><ele>1275.0</ele><time>2026-04-26T11:25:34.875Z</time></trkpt><trkpt lat="42.406307" lon="13.1455896"><ele>1275.0</ele><time>2026-04-26T11:25:35.868Z</time></trkpt><trkpt lat="42.4062146" lon="13.1456013"><ele>1272.0</ele><time>2026-04-26T11:25:36.858Z</time></trkpt><trkpt lat="42.4061155" lon="13.1456247"><ele>1269.0</ele><time>2026-04-26T11:25:37.865Z</time></trkpt><trkpt lat="42.4060277" lon="13.1456375"><ele>1266.0</ele><time>2026-04-26T11:25:38.868Z</time></trkpt><trkpt lat="42.4059352" lon="13.1456524"><ele>1263.0</ele><time>2026-04-26T11:25:39.869Z</time></trkpt><trkpt lat="42.405827" lon="13.1456693"><ele>1260.0</ele><time>2026-04-26T11:25:40.859Z</time></trkpt><trkpt lat="42.405722" lon="13.1456858"><ele>1260.0</ele><time>2026-04-26T11:25:41.868Z</time></trkpt><trkpt lat="42.4056265" lon="13.1456939"><ele>1260.0</ele><time>2026-04-26T11:25:42.862Z</time></trkpt><trkpt lat="42.4055276" lon="13.1457079"><ele>1260.0</ele><time>2026-04-26T11:25:43.867Z</time></trkpt><trkpt lat="42.4054372" lon="13.1457314"><ele>1260.0</ele><time>2026-04-26T11:25:44.865Z</time></trkpt><trkpt lat="42.4053408" lon="13.1457359"><ele>1260.0</ele><time>2026-04-26T11:25:45.867Z</time></trkpt><trkpt lat="42.405257" lon="13.1457261"><ele>1257.0</ele><time>2026-04-26T11:25:46.872Z</time></trkpt><trkpt lat="42.4051753" lon="13.1457089"><ele>1254.0</ele><time>2026-04-26T11:25:47.873Z</time></trkpt><trkpt lat="42.4051022" lon="13.1456872"><ele>1251.0</ele><time>2026-04-26T11:25:48.872Z</time></trkpt><trkpt lat="42.4050294" lon="13.1456835"><ele>1248.0</ele><time>2026-04-26T11:25:49.876Z</time></trkpt><trkpt lat="42.4049527" lon="13.1456816"><ele>1245.0</ele><time>2026-04-26T11:25:50.864Z</time></trkpt><trkpt lat="42.4048731" lon="13.1456909"><ele>1242.0</ele><time>2026-04-26T11:25:51.873Z</time></trkpt><trkpt lat="42.4047927" lon="13.1457055"><ele>1242.0</ele><time>2026-04-26T11:25:52.869Z</time></trkpt><trkpt lat="42.4046937" lon="13.1457076"><ele>1242.0</ele><time>2026-04-26T11:25:53.86Z</time></trkpt><trkpt lat="42.4045879" lon="13.1457174"><ele>1242.0</ele><time>2026-04-26T11:25:54.865Z</time></trkpt><trkpt lat="42.4044977" lon="13.1457336"><ele>1242.0</ele><time>2026-04-26T11:25:55.866Z</time></trkpt><trkpt lat="42.4044164" lon="13.145736"><ele>1242.0</ele><time>2026-04-26T11:25:56.871Z</time></trkpt><trkpt lat="42.4043343" lon="13.1457369"><ele>1244.5</ele><time>2026-04-26T11:25:57.863Z</time></trkpt><trkpt lat="42.4042587" lon="13.1457407"><ele>1247.0</ele><time>2026-04-26T11:25:58.862Z</time></trkpt><trkpt lat="42.4041736" lon="13.1457504"><ele>1249.5</ele><time>2026-04-26T11:25:59.859Z</time></trkpt><trkpt lat="42.4041034" lon="13.1457645"><ele>1252.0</ele><time>2026-04-26T11:26:00.861Z</time></trkpt><trkpt lat="42.4039732" lon="13.145793"><ele>1254.5</ele><time>2026-04-26T11:26:02.868Z</time></trkpt><trkpt lat="42.4038979" lon="13.1458112"><ele>1257.0</ele><time>2026-04-26T11:26:03.905Z</time></trkpt><trkpt lat="42.4038106" lon="13.1458392"><ele>1257.0</ele><time>2026-04-26T11:26:04.863Z</time></trkpt><trkpt lat="42.403715" lon="13.145889"><ele>1257.0</ele><time>2026-04-26T11:26:05.867Z</time></trkpt><trkpt lat="42.4036083" lon="13.1459443"><ele>1257.0</ele><time>2026-04-26T11:26:06.869Z</time></trkpt><trkpt lat="42.4035182" lon="13.1459988"><ele>1257.0</ele><time>2026-04-26T11:26:07.866Z</time></trkpt><trkpt lat="42.4034292" lon="13.1460499"><ele>1257.0</ele><time>2026-04-26T11:26:08.856Z</time></trkpt><trkpt lat="42.4033526" lon="13.1461034"><ele>1257.0000000000002</ele><time>2026-04-26T11:26:09.89Z</time></trkpt><trkpt lat="42.4032838" lon="13.1461577"><ele>1257.0</ele><time>2026-04-26T11:26:10.859Z</time></trkpt><trkpt lat="42.4032222" lon="13.1462183"><ele>1257.0</ele><time>2026-04-26T11:26:11.878Z</time></trkpt><trkpt lat="42.4031635" lon="13.1462805"><ele>1257.0</ele><time>2026-04-26T11:26:12.868Z</time></trkpt><trkpt lat="42.4031077" lon="13.1463363"><ele>1257.0</ele><time>2026-04-26T11:26:13.872Z</time></trkpt><trkpt lat="42.4030557" lon="13.1464088"><ele>1257.0000000000002</ele><time>2026-04-26T11:26:14.91Z</time></trkpt><trkpt lat="42.4030113" lon="13.1464742"><ele>1257.0</ele><time>2026-04-26T11:26:15.868Z</time></trkpt><trkpt lat="42.4029025" lon="13.1466352"><ele>1253.3333333333333</ele><time>2026-04-26T11:26:18.879Z</time></trkpt><trkpt lat="42.4028638" lon="13.1467103"><ele>1249.6666666666667</ele><time>2026-04-26T11:26:19.868Z</time></trkpt><trkpt lat="42.4028298" lon="13.1467846"><ele>1246.0</ele><time>2026-04-26T11:26:20.861Z</time></trkpt><trkpt lat="42.402789" lon="13.1468719"><ele>1242.3333333333335</ele><time>2026-04-26T11:26:21.867Z</time></trkpt><trkpt lat="42.4027464" lon="13.1469377"><ele>1238.6666666666667</ele><time>2026-04-26T11:26:22.893Z</time></trkpt><trkpt lat="42.4026778" lon="13.1470947"><ele>1235.0</ele><time>2026-04-26T11:26:24.872Z</time></trkpt><trkpt lat="42.4026479" lon="13.1471813"><ele>1234.9999999999998</ele><time>2026-04-26T11:26:25.87Z</time></trkpt><trkpt lat="42.4026141" lon="13.1472601"><ele>1235.0</ele><time>2026-04-26T11:26:26.863Z</time></trkpt><trkpt lat="42.4025733" lon="13.1473365"><ele>1235.0</ele><time>2026-04-26T11:26:27.869Z</time></trkpt><trkpt lat="42.4025302" lon="13.1474179"><ele>1235.0</ele><time>2026-04-26T11:26:28.867Z</time></trkpt><trkpt lat="42.4024817" lon="13.147504"><ele>1235.0</ele><time>2026-04-26T11:26:30Z</time></trkpt><trkpt lat="42.4024349" lon="13.1475798"><ele>1234.9999999999998</ele><time>2026-04-26T11:26:30.907Z</time></trkpt><trkpt lat="42.4023955" lon="13.1476678"><ele>1235.0</ele><time>2026-04-26T11:26:31.865Z</time></trkpt><trkpt lat="42.4023534" lon="13.1477724"><ele>1232.8333333333335</ele><time>2026-04-26T11:26:32.881Z</time></trkpt><trkpt lat="42.4023079" lon="13.1478644"><ele>1230.6666666666667</ele><time>2026-04-26T11:26:33.87Z</time></trkpt><trkpt lat="42.4022612" lon="13.1479531"><ele>1228.5</ele><time>2026-04-26T11:26:34.872Z</time></trkpt><trkpt lat="42.4022207" lon="13.1480328"><ele>1226.3333333333333</ele><time>2026-04-26T11:26:35.872Z</time></trkpt><trkpt lat="42.4021831" lon="13.1481265"><ele>1224.1666666666665</ele><time>2026-04-26T11:26:36.868Z</time></trkpt><trkpt lat="42.4021459" lon="13.1482245"><ele>1222.0</ele><time>2026-04-26T11:26:37.861Z</time></trkpt><trkpt lat="42.4021081" lon="13.1483191"><ele>1222.0</ele><time>2026-04-26T11:26:38.882Z</time></trkpt><trkpt lat="42.4020653" lon="13.1484089"><ele>1222.0</ele><time>2026-04-26T11:26:39.869Z</time></trkpt><trkpt lat="42.4020129" lon="13.1484899"><ele>1222.0</ele><time>2026-04-26T11:26:40.875Z</time></trkpt><trkpt lat="42.4019525" lon="13.1485671"><ele>1222.0</ele><time>2026-04-26T11:26:41.861Z</time></trkpt><trkpt lat="42.4018881" lon="13.1486527"><ele>1222.0</ele><time>2026-04-26T11:26:42.905Z</time></trkpt><trkpt lat="42.4018299" lon="13.1487394"><ele>1222.0</ele><time>2026-04-26T11:26:43.862Z</time></trkpt><trkpt lat="42.4017802" lon="13.1488239"><ele>1222.0</ele><time>2026-04-26T11:26:44.903Z</time></trkpt><trkpt lat="42.4017362" lon="13.1488941"><ele>1222.0</ele><time>2026-04-26T11:26:45.86Z</time></trkpt><trkpt lat="42.4016802" lon="13.1489633"><ele>1222.0</ele><time>2026-04-26T11:26:46.872Z</time></trkpt><trkpt lat="42.4016228" lon="13.1490365"><ele>1222.0</ele><time>2026-04-26T11:26:47.87Z</time></trkpt><trkpt lat="42.4015742" lon="13.1491012"><ele>1222.0</ele><time>2026-04-26T11:26:48.874Z</time></trkpt><trkpt lat="42.4015173" lon="13.149195"><ele>1222.0</ele><time>2026-04-26T11:26:50.853Z</time></trkpt><trkpt lat="42.4014453" lon="13.1492635"><ele>1218.6</ele><time>2026-04-26T11:26:52.856Z</time></trkpt><trkpt lat="42.4013664" lon="13.1492729"><ele>1215.2</ele><time>2026-04-26T11:26:54.863Z</time></trkpt><trkpt lat="42.4012669" lon="13.1491958"><ele>1211.8</ele><time>2026-04-26T11:26:56.853Z</time></trkpt><trkpt lat="42.4011923" lon="13.1491185"><ele>1208.4</ele><time>2026-04-26T11:26:57.856Z</time></trkpt><trkpt lat="42.4011131" lon="13.149051"><ele>1205.0</ele><time>2026-04-26T11:26:58.86Z</time></trkpt><trkpt lat="42.4010424" lon="13.1490199"><ele>1205.0</ele><time>2026-04-26T11:26:59.87Z</time></trkpt><trkpt lat="42.4009072" lon="13.1490053"><ele>1205.0</ele><time>2026-04-26T11:27:01.857Z</time></trkpt><trkpt lat="42.400807" lon="13.149011"><ele>1205.0</ele><time>2026-04-26T11:27:02.858Z</time></trkpt><trkpt lat="42.4006858" lon="13.1490196"><ele>1205.0</ele><time>2026-04-26T11:27:03.867Z</time></trkpt><trkpt lat="42.4005788" lon="13.1490304"><ele>1205.0</ele><time>2026-04-26T11:27:04.863Z</time></trkpt><trkpt lat="42.4004759" lon="13.1490382"><ele>1205.0</ele><time>2026-04-26T11:27:05.877Z</time></trkpt><trkpt lat="42.4003845" lon="13.1490449"><ele>1205.0</ele><time>2026-04-26T11:27:06.864Z</time></trkpt><trkpt lat="42.4002956" lon="13.1490618"><ele>1205.0</ele><time>2026-04-26T11:27:07.873Z</time></trkpt><trkpt lat="42.4002166" lon="13.1490774"><ele>1205.0</ele><time>2026-04-26T11:27:08.86Z</time></trkpt><trkpt lat="42.4001368" lon="13.1490872"><ele>1205.0</ele><time>2026-04-26T11:27:09.886Z</time></trkpt><trkpt lat="42.4000602" lon="13.1490992"><ele>1205.0</ele><time>2026-04-26T11:27:10.869Z</time></trkpt><trkpt lat="42.3999919" lon="13.1491061"><ele>1205.0</ele><time>2026-04-26T11:27:11.858Z</time></trkpt><trkpt lat="42.3999214" lon="13.1490945"><ele>1205.0</ele><time>2026-04-26T11:27:12.887Z</time></trkpt><trkpt lat="42.3998564" lon="13.1490592"><ele>1205.0</ele><time>2026-04-26T11:27:13.862Z</time></trkpt><trkpt lat="42.3997991" lon="13.1490225"><ele>1205.0</ele><time>2026-04-26T11:27:14.86Z</time></trkpt><trkpt lat="42.3996825" lon="13.148995"><ele>1205.0</ele><time>2026-04-26T11:27:16.862Z</time></trkpt><trkpt lat="42.3996187" lon="13.149001"><ele>1203.4285714285716</ele><time>2026-04-26T11:27:17.869Z</time></trkpt><trkpt lat="42.3995543" lon="13.1490179"><ele>1201.857142857143</ele><time>2026-04-26T11:27:18.861Z</time></trkpt><trkpt lat="42.3994917" lon="13.1490419"><ele>1200.2857142857142</ele><time>2026-04-26T11:27:19.885Z</time></trkpt><trkpt lat="42.3994266" lon="13.1490772"><ele>1198.7142857142858</ele><time>2026-04-26T11:27:20.868Z</time></trkpt><trkpt lat="42.3993598" lon="13.1491163"><ele>1197.142857142857</ele><time>2026-04-26T11:27:21.867Z</time></trkpt><trkpt lat="42.3992893" lon="13.1491488"><ele>1195.5714285714287</ele><time>2026-04-26T11:27:22.864Z</time></trkpt><trkpt lat="42.3992034" lon="13.1491851"><ele>1194.0</ele><time>2026-04-26T11:27:23.865Z</time></trkpt><trkpt lat="42.3991162" lon="13.1492251"><ele>1195.0</ele><time>2026-04-26T11:27:24.874Z</time></trkpt><trkpt lat="42.3990279" lon="13.1492669"><ele>1196.0</ele><time>2026-04-26T11:27:25.865Z</time></trkpt><trkpt lat="42.3989447" lon="13.1493068"><ele>1197.0</ele><time>2026-04-26T11:27:26.876Z</time></trkpt><trkpt lat="42.3988664" lon="13.1493512"><ele>1198.0</ele><time>2026-04-26T11:27:27.874Z</time></trkpt><trkpt lat="42.3987917" lon="13.1493962"><ele>1199.0</ele><time>2026-04-26T11:27:28.868Z</time></trkpt><trkpt lat="42.398717" lon="13.1494405"><ele>1200.0</ele><time>2026-04-26T11:27:29.879Z</time></trkpt><trkpt lat="42.3986451" lon="13.1494793"><ele>1200.0</ele><time>2026-04-26T11:27:30.857Z</time></trkpt><trkpt lat="42.3985714" lon="13.1495249"><ele>1200.0</ele><time>2026-04-26T11:27:31.863Z</time></trkpt><trkpt lat="42.3984977" lon="13.1495603"><ele>1200.0</ele><time>2026-04-26T11:27:32.858Z</time></trkpt><trkpt lat="42.3984198" lon="13.149595"><ele>1200.0</ele><time>2026-04-26T11:27:33.885Z</time></trkpt><trkpt lat="42.398342" lon="13.1496289"><ele>1200.0</ele><time>2026-04-26T11:27:34.864Z</time></trkpt><trkpt lat="42.3982579" lon="13.1496575"><ele>1200.0</ele><time>2026-04-26T11:27:35.871Z</time></trkpt><trkpt lat="42.3981785" lon="13.1496919"><ele>1200.0</ele><time>2026-04-26T11:27:36.867Z</time></trkpt><trkpt lat="42.3981079" lon="13.1497308"><ele>1200.0</ele><time>2026-04-26T11:27:37.868Z</time></trkpt><trkpt lat="42.3980477" lon="13.1497741"><ele>1200.0</ele><time>2026-04-26T11:27:38.872Z</time></trkpt><trkpt lat="42.3979494" lon="13.1498669"><ele>1200.0</ele><time>2026-04-26T11:27:40.892Z</time></trkpt><trkpt lat="42.3978449" lon="13.1499396"><ele>1200.0</ele><time>2026-04-26T11:27:42.867Z</time></trkpt><trkpt lat="42.3977412" lon="13.1499649"><ele>1204.0</ele><time>2026-04-26T11:27:44.899Z</time></trkpt><trkpt lat="42.397624" lon="13.1499719"><ele>1208.0</ele><time>2026-04-26T11:27:46.87Z</time></trkpt><trkpt lat="42.3975226" lon="13.1499315"><ele>1212.0</ele><time>2026-04-26T11:27:48.864Z</time></trkpt><trkpt lat="42.3974251" lon="13.149859"><ele>1216.0</ele><time>2026-04-26T11:27:50.864Z</time></trkpt><trkpt lat="42.3973161" lon="13.1497985"><ele>1210.3333333333333</ele><time>2026-04-26T11:27:52.863Z</time></trkpt><trkpt lat="42.3971888" lon="13.1497471"><ele>1204.6666666666665</ele><time>2026-04-26T11:27:54.861Z</time></trkpt><trkpt lat="42.3971124" lon="13.1497384"><ele>1199.0</ele><time>2026-04-26T11:27:55.861Z</time></trkpt><trkpt lat="42.397033" lon="13.1497462"><ele>1193.3333333333333</ele><time>2026-04-26T11:27:56.86Z</time></trkpt><trkpt lat="42.3969569" lon="13.1497643"><ele>1187.6666666666667</ele><time>2026-04-26T11:27:57.879Z</time></trkpt><trkpt lat="42.3968828" lon="13.1497778"><ele>1182.0</ele><time>2026-04-26T11:27:58.912Z</time></trkpt><trkpt lat="42.3968128" lon="13.1497922"><ele>1181.6666666666667</ele><time>2026-04-26T11:27:59.866Z</time></trkpt><trkpt lat="42.3967447" lon="13.1498071"><ele>1181.3333333333333</ele><time>2026-04-26T11:28:00.87Z</time></trkpt><trkpt lat="42.3966816" lon="13.1498236"><ele>1181.0</ele><time>2026-04-26T11:28:01.866Z</time></trkpt><trkpt lat="42.3966183" lon="13.1498361"><ele>1180.6666666666665</ele><time>2026-04-26T11:28:02.866Z</time></trkpt><trkpt lat="42.3965358" lon="13.1498527"><ele>1180.3333333333333</ele><time>2026-04-26T11:28:03.888Z</time></trkpt><trkpt lat="42.3964359" lon="13.1498797"><ele>1180.0</ele><time>2026-04-26T11:28:04.878Z</time></trkpt><trkpt lat="42.3963322" lon="13.1499103"><ele>1180.0</ele><time>2026-04-26T11:28:05.866Z</time></trkpt><trkpt lat="42.3962313" lon="13.1499431"><ele>1180.0</ele><time>2026-04-26T11:28:06.857Z</time></trkpt><trkpt lat="42.3961483" lon="13.1499633"><ele>1180.0</ele><time>2026-04-26T11:28:07.863Z</time></trkpt><trkpt lat="42.3960416" lon="13.1500037"><ele>1180.0</ele><time>2026-04-26T11:28:09.876Z</time></trkpt><trkpt lat="42.3959899" lon="13.1500675"><ele>1180.0</ele><time>2026-04-26T11:28:11.86Z</time></trkpt><trkpt lat="42.3959398" lon="13.1501404"><ele>1180.0</ele><time>2026-04-26T11:28:14.87Z</time></trkpt><trkpt lat="42.3958567" lon="13.1501543"><ele>1180.0</ele><time>2026-04-26T11:28:17.865Z</time></trkpt><trkpt lat="42.3958582" lon="13.1500486"><ele>1180.0</ele><time>2026-04-26T11:28:20.866Z</time></trkpt><trkpt lat="42.3959246" lon="13.1499459"><ele>1180.0</ele><time>2026-04-26T11:28:23.88Z</time></trkpt><trkpt lat="42.3960841" lon="13.1498357"><ele>1180.0</ele><time>2026-04-26T11:28:26.864Z</time></trkpt><trkpt lat="42.3961954" lon="13.1497658"><ele>1178.0</ele><time>2026-04-26T11:28:28.867Z</time></trkpt><trkpt lat="42.3962527" lon="13.1497261"><ele>1176.0</ele><time>2026-04-26T11:28:29.869Z</time></trkpt><trkpt lat="42.3963082" lon="13.1496853"><ele>1174.0</ele><time>2026-04-26T11:28:30.868Z</time></trkpt><trkpt lat="42.3963693" lon="13.1496251"><ele>1172.0</ele><time>2026-04-26T11:28:31.858Z</time></trkpt><trkpt lat="42.3964378" lon="13.1495535"><ele>1170.0</ele><time>2026-04-26T11:28:32.861Z</time></trkpt><trkpt lat="42.3965072" lon="13.1494861"><ele>1168.0</ele><time>2026-04-26T11:28:33.867Z</time></trkpt><trkpt lat="42.3965711" lon="13.1494273"><ele>1168.0</ele><time>2026-04-26T11:28:34.865Z</time></trkpt><trkpt lat="42.3966302" lon="13.1493818"><ele>1168.0</ele><time>2026-04-26T11:28:35.869Z</time></trkpt><trkpt lat="42.3966918" lon="13.1493461"><ele>1168.0</ele><time>2026-04-26T11:28:36.869Z</time></trkpt><trkpt lat="42.3967551" lon="13.1493101"><ele>1168.0</ele><time>2026-04-26T11:28:37.869Z</time></trkpt><trkpt lat="42.3968173" lon="13.1492732"><ele>1168.0</ele><time>2026-04-26T11:28:38.879Z</time></trkpt><trkpt lat="42.3968784" lon="13.1492367"><ele>1168.0</ele><time>2026-04-26T11:28:39.873Z</time></trkpt><trkpt lat="42.3969445" lon="13.149207"><ele>1168.0</ele><time>2026-04-26T11:28:40.893Z</time></trkpt><trkpt lat="42.39701" lon="13.1491884"><ele>1168.0</ele><time>2026-04-26T11:28:41.876Z</time></trkpt><trkpt lat="42.397079" lon="13.1491773"><ele>1168.0</ele><time>2026-04-26T11:28:42.867Z</time></trkpt><trkpt lat="42.3971463" lon="13.1491648"><ele>1168.0</ele><time>2026-04-26T11:28:43.875Z</time></trkpt><trkpt lat="42.3972118" lon="13.1491452"><ele>1168.0</ele><time>2026-04-26T11:28:44.87Z</time></trkpt><trkpt lat="42.3972852" lon="13.1491184"><ele>1168.0</ele><time>2026-04-26T11:28:45.882Z</time></trkpt><trkpt lat="42.3973569" lon="13.1490989"><ele>1168.0</ele><time>2026-04-26T11:28:46.876Z</time></trkpt><trkpt lat="42.3974314" lon="13.1490844"><ele>1168.0</ele><time>2026-04-26T11:28:47.898Z</time></trkpt><trkpt lat="42.3975018" lon="13.1490678"><ele>1164.857142857143</ele><time>2026-04-26T11:28:48.876Z</time></trkpt><trkpt lat="42.3975664" lon="13.149037"><ele>1161.7142857142858</ele><time>2026-04-26T11:28:49.877Z</time></trkpt><trkpt lat="42.3976254" lon="13.148994"><ele>1158.5714285714287</ele><time>2026-04-26T11:28:50.877Z</time></trkpt><trkpt lat="42.3976789" lon="13.1489446"><ele>1155.4285714285716</ele><time>2026-04-26T11:28:51.891Z</time></trkpt><trkpt lat="42.3977321" lon="13.148894"><ele>1152.2857142857144</ele><time>2026-04-26T11:28:52.88Z</time></trkpt><trkpt lat="42.3977813" lon="13.1488376"><ele>1149.142857142857</ele><time>2026-04-26T11:28:53.874Z</time></trkpt><trkpt lat="42.3978374" lon="13.1487674"><ele>1146.0</ele><time>2026-04-26T11:28:54.861Z</time></trkpt><trkpt lat="42.3978996" lon="13.1486969"><ele>1146.0</ele><time>2026-04-26T11:28:55.876Z</time></trkpt><trkpt lat="42.3979652" lon="13.1486255"><ele>1146.0</ele><time>2026-04-26T11:28:56.872Z</time></trkpt><trkpt lat="42.398034" lon="13.1485573"><ele>1146.0</ele><time>2026-04-26T11:28:57.864Z</time></trkpt><trkpt lat="42.3981042" lon="13.1484873"><ele>1146.0</ele><time>2026-04-26T11:28:58.872Z</time></trkpt><trkpt lat="42.3981848" lon="13.1484077"><ele>1146.0</ele><time>2026-04-26T11:28:59.863Z</time></trkpt><trkpt lat="42.3982796" lon="13.1483194"><ele>1149.6</ele><time>2026-04-26T11:29:00.851Z</time></trkpt><trkpt lat="42.3983785" lon="13.1482347"><ele>1153.1999999999998</ele><time>2026-04-26T11:29:01.863Z</time></trkpt><trkpt lat="42.39847" lon="13.1481557"><ele>1156.8000000000002</ele><time>2026-04-26T11:29:02.866Z</time></trkpt><trkpt lat="42.3985529" lon="13.1480842"><ele>1160.4</ele><time>2026-04-26T11:29:03.859Z</time></trkpt><trkpt lat="42.398634" lon="13.1480118"><ele>1164.0</ele><time>2026-04-26T11:29:04.873Z</time></trkpt><trkpt lat="42.3987086" lon="13.1479393"><ele>1162.1666666666667</ele><time>2026-04-26T11:29:05.914Z</time></trkpt><trkpt lat="42.3987726" lon="13.1478683"><ele>1160.3333333333333</ele><time>2026-04-26T11:29:06.868Z</time></trkpt><trkpt lat="42.3988362" lon="13.1478029"><ele>1158.5</ele><time>2026-04-26T11:29:07.856Z</time></trkpt><trkpt lat="42.398896" lon="13.1477371"><ele>1156.6666666666665</ele><time>2026-04-26T11:29:08.869Z</time></trkpt><trkpt lat="42.3989564" lon="13.1476796"><ele>1154.8333333333333</ele><time>2026-04-26T11:29:09.871Z</time></trkpt><trkpt lat="42.3990188" lon="13.147625"><ele>1153.0</ele><time>2026-04-26T11:29:10.874Z</time></trkpt><trkpt lat="42.3990798" lon="13.1475733"><ele>1153.0</ele><time>2026-04-26T11:29:11.869Z</time></trkpt><trkpt lat="42.3991402" lon="13.1475198"><ele>1153.0</ele><time>2026-04-26T11:29:12.858Z</time></trkpt><trkpt lat="42.3991975" lon="13.1474708"><ele>1153.0</ele><time>2026-04-26T11:29:13.861Z</time></trkpt><trkpt lat="42.3992558" lon="13.1474314"><ele>1153.0</ele><time>2026-04-26T11:29:14.872Z</time></trkpt><trkpt lat="42.3993547" lon="13.1473907"><ele>1153.0</ele><time>2026-04-26T11:29:16.872Z</time></trkpt><trkpt lat="42.399467" lon="13.1473666"><ele>1153.0</ele><time>2026-04-26T11:29:18.88Z</time></trkpt><trkpt lat="42.3995392" lon="13.1473557"><ele>1147.5</ele><time>2026-04-26T11:29:19.87Z</time></trkpt><trkpt lat="42.3996155" lon="13.1473406"><ele>1142.0</ele><time>2026-04-26T11:29:20.871Z</time></trkpt><trkpt lat="42.3996869" lon="13.1473242"><ele>1136.5</ele><time>2026-04-26T11:29:21.867Z</time></trkpt><trkpt lat="42.3997528" lon="13.147306"><ele>1131.0</ele><time>2026-04-26T11:29:22.884Z</time></trkpt><trkpt lat="42.3998717" lon="13.1472896"><ele>1125.5</ele><time>2026-04-26T11:29:24.862Z</time></trkpt><trkpt lat="42.3999701" lon="13.147275"><ele>1120.0</ele><time>2026-04-26T11:29:26.872Z</time></trkpt><trkpt lat="42.4000243" lon="13.1471913"><ele>1120.0</ele><time>2026-04-26T11:29:28.875Z</time></trkpt><trkpt lat="42.4000069" lon="13.1471071"><ele>1120.0</ele><time>2026-04-26T11:29:30.861Z</time></trkpt><trkpt lat="42.3999203" lon="13.1470918"><ele>1120.0</ele><time>2026-04-26T11:29:33.858Z</time></trkpt><trkpt lat="42.3998356" lon="13.1471541"><ele>1120.0</ele><time>2026-04-26T11:29:35.856Z</time></trkpt><trkpt lat="42.3997209" lon="13.1471954"><ele>1120.0</ele><time>2026-04-26T11:29:37.857Z</time></trkpt><trkpt lat="42.3996424" lon="13.1472081"><ele>1120.0</ele><time>2026-04-26T11:29:38.875Z</time></trkpt><trkpt lat="42.3995574" lon="13.1472196"><ele>1118.6666666666665</ele><time>2026-04-26T11:29:39.868Z</time></trkpt><trkpt lat="42.3994739" lon="13.1472243"><ele>1117.3333333333333</ele><time>2026-04-26T11:29:40.862Z</time></trkpt><trkpt lat="42.3993902" lon="13.1472226"><ele>1116.0</ele><time>2026-04-26T11:29:41.87Z</time></trkpt><trkpt lat="42.3993091" lon="13.1472095"><ele>1114.6666666666667</ele><time>2026-04-26T11:29:42.867Z</time></trkpt><trkpt lat="42.3992315" lon="13.1472029"><ele>1113.3333333333335</ele><time>2026-04-26T11:29:43.861Z</time></trkpt><trkpt lat="42.3991561" lon="13.1472086"><ele>1112.0</ele><time>2026-04-26T11:29:44.855Z</time></trkpt><trkpt lat="42.3990844" lon="13.147214"><ele>1112.0</ele><time>2026-04-26T11:29:45.868Z</time></trkpt><trkpt lat="42.3990063" lon="13.1472167"><ele>1112.0</ele><time>2026-04-26T11:29:46.859Z</time></trkpt><trkpt lat="42.3989359" lon="13.1472295"><ele>1112.0</ele><time>2026-04-26T11:29:47.864Z</time></trkpt><trkpt lat="42.3988633" lon="13.1472526"><ele>1112.0</ele><time>2026-04-26T11:29:48.863Z</time></trkpt><trkpt lat="42.3987913" lon="13.1472775"><ele>1112.0</ele><time>2026-04-26T11:29:49.872Z</time></trkpt><trkpt lat="42.3987242" lon="13.1473038"><ele>1112.0</ele><time>2026-04-26T11:29:50.872Z</time></trkpt><trkpt lat="42.3986523" lon="13.1473325"><ele>1112.0</ele><time>2026-04-26T11:29:51.879Z</time></trkpt><trkpt lat="42.3985866" lon="13.1473642"><ele>1114.5</ele><time>2026-04-26T11:29:52.87Z</time></trkpt><trkpt lat="42.3985236" lon="13.1473988"><ele>1117.0</ele><time>2026-04-26T11:29:53.872Z</time></trkpt><trkpt lat="42.3984672" lon="13.1474382"><ele>1119.5</ele><time>2026-04-26T11:29:54.863Z</time></trkpt><trkpt lat="42.3983627" lon="13.1475124"><ele>1122.0</ele><time>2026-04-26T11:29:56.873Z</time></trkpt><trkpt lat="42.3982497" lon="13.1475694"><ele>1124.5</ele><time>2026-04-26T11:29:58.936Z</time></trkpt><trkpt lat="42.3981831" lon="13.1476029"><ele>1127.0</ele><time>2026-04-26T11:29:59.873Z</time></trkpt><trkpt lat="42.3981184" lon="13.1476385"><ele>1127.0</ele><time>2026-04-26T11:30:00.887Z</time></trkpt><trkpt lat="42.3980489" lon="13.1476573"><ele>1127.0</ele><time>2026-04-26T11:30:01.868Z</time></trkpt><trkpt lat="42.3979788" lon="13.1476614"><ele>1127.0</ele><time>2026-04-26T11:30:02.874Z</time></trkpt><trkpt lat="42.3978967" lon="13.147652"><ele>1127.0</ele><time>2026-04-26T11:30:03.875Z</time></trkpt><trkpt lat="42.3978126" lon="13.1476426"><ele>1127.0</ele><time>2026-04-26T11:30:04.881Z</time></trkpt><trkpt lat="42.397732" lon="13.1476389"><ele>1127.0</ele><time>2026-04-26T11:30:05.871Z</time></trkpt><trkpt lat="42.3976567" lon="13.147638"><ele>1124.1666666666667</ele><time>2026-04-26T11:30:06.867Z</time></trkpt><trkpt lat="42.3975823" lon="13.147648"><ele>1121.3333333333335</ele><time>2026-04-26T11:30:07.861Z</time></trkpt><trkpt lat="42.3975087" lon="13.1476783"><ele>1118.5</ele><time>2026-04-26T11:30:08.876Z</time></trkpt><trkpt lat="42.3974352" lon="13.1477056"><ele>1115.6666666666667</ele><time>2026-04-26T11:30:09.873Z</time></trkpt><trkpt lat="42.3973639" lon="13.1477314"><ele>1112.8333333333333</ele><time>2026-04-26T11:30:10.886Z</time></trkpt><trkpt lat="42.3972429" lon="13.1477622"><ele>1110.0</ele><time>2026-04-26T11:30:12.902Z</time></trkpt><trkpt lat="42.397119" lon="13.147778"><ele>1107.7142857142858</ele><time>2026-04-26T11:30:14.887Z</time></trkpt><trkpt lat="42.3970561" lon="13.1477941"><ele>1105.4285714285716</ele><time>2026-04-26T11:30:15.868Z</time></trkpt><trkpt lat="42.3969829" lon="13.1477897"><ele>1103.142857142857</ele><time>2026-04-26T11:30:16.904Z</time></trkpt><trkpt lat="42.3969065" lon="13.147778"><ele>1100.857142857143</ele><time>2026-04-26T11:30:17.871Z</time></trkpt><trkpt lat="42.3968361" lon="13.1477602"><ele>1098.5714285714284</ele><time>2026-04-26T11:30:18.871Z</time></trkpt><trkpt lat="42.3967574" lon="13.1477576"><ele>1096.2857142857142</ele><time>2026-04-26T11:30:19.87Z</time></trkpt><trkpt lat="42.3966801" lon="13.147768"><ele>1094.0</ele><time>2026-04-26T11:30:20.871Z</time></trkpt><trkpt lat="42.3966056" lon="13.1477812"><ele>1094.0</ele><time>2026-04-26T11:30:21.865Z</time></trkpt><trkpt lat="42.3965262" lon="13.1478039"><ele>1094.0</ele><time>2026-04-26T11:30:22.909Z</time></trkpt><trkpt lat="42.3964466" lon="13.1478395"><ele>1094.0</ele><time>2026-04-26T11:30:23.864Z</time></trkpt><trkpt lat="42.3963819" lon="13.1478822"><ele>1094.0</ele><time>2026-04-26T11:30:24.862Z</time></trkpt><trkpt lat="42.3963155" lon="13.1479137"><ele>1094.0</ele><time>2026-04-26T11:30:25.868Z</time></trkpt><trkpt lat="42.3962479" lon="13.1479281"><ele>1094.0</ele><time>2026-04-26T11:30:26.871Z</time></trkpt><trkpt lat="42.3961791" lon="13.1479343"><ele>1094.0</ele><time>2026-04-26T11:30:27.873Z</time></trkpt><trkpt lat="42.3961006" lon="13.14793"><ele>1091.5</ele><time>2026-04-26T11:30:28.874Z</time></trkpt><trkpt lat="42.3960259" lon="13.147921"><ele>1089.0</ele><time>2026-04-26T11:30:29.864Z</time></trkpt><trkpt lat="42.3959566" lon="13.1479144"><ele>1086.5</ele><time>2026-04-26T11:30:30.873Z</time></trkpt><trkpt lat="42.3958373" lon="13.147898"><ele>1084.0</ele><time>2026-04-26T11:30:32.874Z</time></trkpt><trkpt lat="42.395778" lon="13.1478682"><ele>1081.5</ele><time>2026-04-26T11:30:33.866Z</time></trkpt><trkpt lat="42.3956584" lon="13.1478793"><ele>1079.0</ele><time>2026-04-26T11:30:35.867Z</time></trkpt><trkpt lat="42.3955394" lon="13.147903"><ele>1075.0</ele><time>2026-04-26T11:30:37.88Z</time></trkpt><trkpt lat="42.3954167" lon="13.147872"><ele>1071.0</ele><time>2026-04-26T11:30:39.875Z</time></trkpt><trkpt lat="42.3953053" lon="13.1478308"><ele>1067.0</ele><time>2026-04-26T11:30:41.864Z</time></trkpt><trkpt lat="42.395196" lon="13.1478031"><ele>1063.0</ele><time>2026-04-26T11:30:43.858Z</time></trkpt><trkpt lat="42.3950913" lon="13.1478215"><ele>1063.0</ele><time>2026-04-26T11:30:45.861Z</time></trkpt><trkpt lat="42.3950093" lon="13.1478961"><ele>1063.0</ele><time>2026-04-26T11:30:47.863Z</time></trkpt><trkpt lat="42.3949451" lon="13.1480008"><ele>1063.0</ele><time>2026-04-26T11:30:49.864Z</time></trkpt><trkpt lat="42.3949141" lon="13.1480834"><ele>1063.0</ele><time>2026-04-26T11:30:50.91Z</time></trkpt><trkpt lat="42.3948791" lon="13.1481882"><ele>1063.0</ele><time>2026-04-26T11:30:51.864Z</time></trkpt><trkpt lat="42.3948354" lon="13.1483096"><ele>1067.6</ele><time>2026-04-26T11:30:52.868Z</time></trkpt><trkpt lat="42.3947952" lon="13.1484188"><ele>1072.1999999999998</ele><time>2026-04-26T11:30:53.866Z</time></trkpt><trkpt lat="42.3947662" lon="13.1485257"><ele>1076.8</ele><time>2026-04-26T11:30:54.881Z</time></trkpt><trkpt lat="42.3947437" lon="13.1486258"><ele>1081.3999999999999</ele><time>2026-04-26T11:30:55.86Z</time></trkpt><trkpt lat="42.3947152" lon="13.1487176"><ele>1086.0</ele><time>2026-04-26T11:30:56.87Z</time></trkpt><trkpt lat="42.3946806" lon="13.1488851"><ele>1082.5</ele><time>2026-04-26T11:30:58.896Z</time></trkpt><trkpt lat="42.3946547" lon="13.1489703"><ele>1079.0</ele><time>2026-04-26T11:30:59.886Z</time></trkpt><trkpt lat="42.3946248" lon="13.1490606"><ele>1075.5</ele><time>2026-04-26T11:31:00.868Z</time></trkpt><trkpt lat="42.39459" lon="13.1491585"><ele>1072.0</ele><time>2026-04-26T11:31:01.868Z</time></trkpt><trkpt lat="42.3945533" lon="13.1492525"><ele>1068.5</ele><time>2026-04-26T11:31:02.866Z</time></trkpt><trkpt lat="42.3945157" lon="13.149347"><ele>1065.0</ele><time>2026-04-26T11:31:03.883Z</time></trkpt><trkpt lat="42.3944713" lon="13.1494304"><ele>1065.0</ele><time>2026-04-26T11:31:04.866Z</time></trkpt><trkpt lat="42.3944242" lon="13.1495142"><ele>1065.0</ele><time>2026-04-26T11:31:05.863Z</time></trkpt><trkpt lat="42.3943747" lon="13.1495973"><ele>1065.0</ele><time>2026-04-26T11:31:06.86Z</time></trkpt><trkpt lat="42.3943248" lon="13.1496775"><ele>1065.0</ele><time>2026-04-26T11:31:07.857Z</time></trkpt><trkpt lat="42.3942788" lon="13.1497594"><ele>1065.0</ele><time>2026-04-26T11:31:08.865Z</time></trkpt><trkpt lat="42.3942294" lon="13.1498404"><ele>1065.0</ele><time>2026-04-26T11:31:09.862Z</time></trkpt><trkpt lat="42.3941859" lon="13.1499137"><ele>1068.1666666666667</ele><time>2026-04-26T11:31:10.862Z</time></trkpt><trkpt lat="42.3941428" lon="13.1499873"><ele>1071.3333333333333</ele><time>2026-04-26T11:31:11.861Z</time></trkpt><trkpt lat="42.3940973" lon="13.150049"><ele>1074.5</ele><time>2026-04-26T11:31:12.864Z</time></trkpt><trkpt lat="42.3940122" lon="13.1500966"><ele>1077.6666666666665</ele><time>2026-04-26T11:31:14.864Z</time></trkpt><trkpt lat="42.3939229" lon="13.1500975"><ele>1080.8333333333333</ele><time>2026-04-26T11:31:16.855Z</time></trkpt><trkpt lat="42.3938433" lon="13.1499969"><ele>1084.0</ele><time>2026-04-26T11:31:18.864Z</time></trkpt><trkpt lat="42.3938209" lon="13.1499122"><ele>1086.0</ele><time>2026-04-26T11:31:19.86Z</time></trkpt><trkpt lat="42.3937951" lon="13.1498117"><ele>1088.0</ele><time>2026-04-26T11:31:20.858Z</time></trkpt><trkpt lat="42.3937786" lon="13.1497029"><ele>1090.0</ele><time>2026-04-26T11:31:21.864Z</time></trkpt><trkpt lat="42.393775" lon="13.1495846"><ele>1092.0</ele><time>2026-04-26T11:31:22.855Z</time></trkpt><trkpt lat="42.3937725" lon="13.1494543"><ele>1094.0</ele><time>2026-04-26T11:31:23.867Z</time></trkpt><trkpt lat="42.3937698" lon="13.1493224"><ele>1096.0</ele><time>2026-04-26T11:31:24.865Z</time></trkpt><trkpt lat="42.3937558" lon="13.1491892"><ele>1096.0</ele><time>2026-04-26T11:31:25.863Z</time></trkpt><trkpt lat="42.3937468" lon="13.1490627"><ele>1096.0</ele><time>2026-04-26T11:31:26.866Z</time></trkpt><trkpt lat="42.3937351" lon="13.1489415"><ele>1096.0</ele><time>2026-04-26T11:31:27.868Z</time></trkpt><trkpt lat="42.3937331" lon="13.1488502"><ele>1096.0</ele><time>2026-04-26T11:31:28.858Z</time></trkpt><trkpt lat="42.3937068" lon="13.1486902"><ele>1096.0</ele><time>2026-04-26T11:31:30.861Z</time></trkpt><trkpt lat="42.3936829" lon="13.1486105"><ele>1096.0</ele><time>2026-04-26T11:31:31.86Z</time></trkpt><trkpt lat="42.3936131" lon="13.1484934"><ele>1090.5</ele><time>2026-04-26T11:31:33.861Z</time></trkpt><trkpt lat="42.3935384" lon="13.1483937"><ele>1085.0</ele><time>2026-04-26T11:31:35.861Z</time></trkpt><trkpt lat="42.3934879" lon="13.1483308"><ele>1079.5</ele><time>2026-04-26T11:31:36.856Z</time></trkpt><trkpt lat="42.3934222" lon="13.1482646"><ele>1074.0</ele><time>2026-04-26T11:31:37.864Z</time></trkpt><trkpt lat="42.3933654" lon="13.1481941"><ele>1068.5</ele><time>2026-04-26T11:31:38.861Z</time></trkpt><trkpt lat="42.3933095" lon="13.1481155"><ele>1063.0</ele><time>2026-04-26T11:31:39.855Z</time></trkpt><trkpt lat="42.3932566" lon="13.1480318"><ele>1058.1666666666665</ele><time>2026-04-26T11:31:40.862Z</time></trkpt><trkpt lat="42.3932165" lon="13.1479531"><ele>1053.3333333333333</ele><time>2026-04-26T11:31:41.864Z</time></trkpt><trkpt lat="42.3931842" lon="13.1478757"><ele>1048.5</ele><time>2026-04-26T11:31:42.865Z</time></trkpt><trkpt lat="42.3931515" lon="13.1477901"><ele>1043.6666666666667</ele><time>2026-04-26T11:31:43.871Z</time></trkpt><trkpt lat="42.3931306" lon="13.1476891"><ele>1038.8333333333335</ele><time>2026-04-26T11:31:44.866Z</time></trkpt><trkpt lat="42.393116" lon="13.1475838"><ele>1034.0</ele><time>2026-04-26T11:31:45.865Z</time></trkpt><trkpt lat="42.3931023" lon="13.1474588"><ele>1031.5</ele><time>2026-04-26T11:31:46.868Z</time></trkpt><trkpt lat="42.3930919" lon="13.1473481"><ele>1029.0</ele><time>2026-04-26T11:31:47.87Z</time></trkpt><trkpt lat="42.39308" lon="13.1472456"><ele>1026.5</ele><time>2026-04-26T11:31:48.863Z</time></trkpt><trkpt lat="42.3930709" lon="13.1471551"><ele>1024.0</ele><time>2026-04-26T11:31:49.862Z</time></trkpt><trkpt lat="42.393064" lon="13.14706"><ele>1021.5000000000001</ele><time>2026-04-26T11:31:50.864Z</time></trkpt><trkpt lat="42.3930552" lon="13.1469751"><ele>1019.0</ele><time>2026-04-26T11:31:51.872Z</time></trkpt><trkpt lat="42.393037" lon="13.1468051"><ele>1019.0</ele><time>2026-04-26T11:31:53.859Z</time></trkpt><trkpt lat="42.3930285" lon="13.1466293"><ele>1019.0000000000001</ele><time>2026-04-26T11:31:55.86Z</time></trkpt><trkpt lat="42.3930262" lon="13.1464746"><ele>1019.0000000000001</ele><time>2026-04-26T11:31:57.855Z</time></trkpt><trkpt lat="42.393015" lon="13.1463491"><ele>1019.0</ele><time>2026-04-26T11:31:59.859Z</time></trkpt><trkpt lat="42.3929846" lon="13.1462447"><ele>1019.0</ele><time>2026-04-26T11:32:01.868Z</time></trkpt><trkpt lat="42.3929213" lon="13.1461744"><ele>1016.6666666666667</ele><time>2026-04-26T11:32:03.867Z</time></trkpt><trkpt lat="42.3928295" lon="13.1461464"><ele>1014.3333333333334</ele><time>2026-04-26T11:32:05.854Z</time></trkpt><trkpt lat="42.392717" lon="13.1461987"><ele>1012.0</ele><time>2026-04-26T11:32:07.856Z</time></trkpt><trkpt lat="42.3926529" lon="13.1462348"><ele>1009.6666666666667</ele><time>2026-04-26T11:32:08.856Z</time></trkpt><trkpt lat="42.392579" lon="13.1462858"><ele>1007.3333333333334</ele><time>2026-04-26T11:32:09.856Z</time></trkpt><trkpt lat="42.3925079" lon="13.1463437"><ele>1005.0</ele><time>2026-04-26T11:32:10.863Z</time></trkpt><trkpt lat="42.3924417" lon="13.1463969"><ele>1005.0</ele><time>2026-04-26T11:32:11.862Z</time></trkpt><trkpt lat="42.392382" lon="13.1464456"><ele>1005.0</ele><time>2026-04-26T11:32:12.862Z</time></trkpt><trkpt lat="42.3923252" lon="13.1464934"><ele>1005.0</ele><time>2026-04-26T11:32:13.864Z</time></trkpt><trkpt lat="42.3922691" lon="13.1465392"><ele>1005.0</ele><time>2026-04-26T11:32:14.872Z</time></trkpt><trkpt lat="42.3921556" lon="13.1466213"><ele>1005.0</ele><time>2026-04-26T11:32:16.872Z</time></trkpt><trkpt lat="42.3920969" lon="13.1466545"><ele>1005.0</ele><time>2026-04-26T11:32:17.866Z</time></trkpt><trkpt lat="42.3920264" lon="13.1466896"><ele>1005.4</ele><time>2026-04-26T11:32:18.872Z</time></trkpt><trkpt lat="42.391934" lon="13.1467216"><ele>1005.8</ele><time>2026-04-26T11:32:19.867Z</time></trkpt><trkpt lat="42.3918338" lon="13.1467539"><ele>1006.2</ele><time>2026-04-26T11:32:20.865Z</time></trkpt><trkpt lat="42.3917373" lon="13.1467796"><ele>1006.6</ele><time>2026-04-26T11:32:21.862Z</time></trkpt><trkpt lat="42.3916396" lon="13.1467979"><ele>1007.0</ele><time>2026-04-26T11:32:22.863Z</time></trkpt><trkpt lat="42.3915537" lon="13.1468082"><ele>1007.0</ele><time>2026-04-26T11:32:23.903Z</time></trkpt><trkpt lat="42.3914785" lon="13.1468238"><ele>1007.0</ele><time>2026-04-26T11:32:24.864Z</time></trkpt><trkpt lat="42.3914118" lon="13.1468461"><ele>1007.0</ele><time>2026-04-26T11:32:25.861Z</time></trkpt><trkpt lat="42.3913475" lon="13.1468807"><ele>1007.0</ele><time>2026-04-26T11:32:26.857Z</time></trkpt><trkpt lat="42.3912904" lon="13.1469199"><ele>1007.0</ele><time>2026-04-26T11:32:27.87Z</time></trkpt><trkpt lat="42.3912318" lon="13.1469749"><ele>1007.0</ele><time>2026-04-26T11:32:28.864Z</time></trkpt><trkpt lat="42.3911693" lon="13.1470523"><ele>1007.0</ele><time>2026-04-26T11:32:29.871Z</time></trkpt><trkpt lat="42.3911041" lon="13.1471174"><ele>1002.8333333333334</ele><time>2026-04-26T11:32:30.869Z</time></trkpt><trkpt lat="42.3910507" lon="13.1471648"><ele>998.6666666666667</ele><time>2026-04-26T11:32:31.866Z</time></trkpt><trkpt lat="42.3909416" lon="13.1472292"><ele>994.5</ele><time>2026-04-26T11:32:33.869Z</time></trkpt><trkpt lat="42.3908721" lon="13.1472481"><ele>990.3333333333333</ele><time>2026-04-26T11:32:34.863Z</time></trkpt><trkpt lat="42.3908018" lon="13.1472622"><ele>986.1666666666666</ele><time>2026-04-26T11:32:35.904Z</time></trkpt><trkpt lat="42.3907328" lon="13.1472879"><ele>982.0</ele><time>2026-04-26T11:32:36.854Z</time></trkpt><trkpt lat="42.3906472" lon="13.1473139"><ele>981.9999999999999</ele><time>2026-04-26T11:32:37.867Z</time></trkpt><trkpt lat="42.3905653" lon="13.1473368"><ele>982.0</ele><time>2026-04-26T11:32:38.86Z</time></trkpt><trkpt lat="42.3904879" lon="13.1473717"><ele>982.0</ele><time>2026-04-26T11:32:39.864Z</time></trkpt><trkpt lat="42.3904083" lon="13.1473999"><ele>982.0</ele><time>2026-04-26T11:32:40.87Z</time></trkpt><trkpt lat="42.3903408" lon="13.1474348"><ele>981.9999999999999</ele><time>2026-04-26T11:32:41.862Z</time></trkpt><trkpt lat="42.3902815" lon="13.1474826"><ele>982.0</ele><time>2026-04-26T11:32:42.88Z</time></trkpt><trkpt lat="42.3902221" lon="13.1475356"><ele>982.5714285714286</ele><time>2026-04-26T11:32:43.865Z</time></trkpt><trkpt lat="42.3901627" lon="13.1475995"><ele>983.1428571428571</ele><time>2026-04-26T11:32:44.867Z</time></trkpt><trkpt lat="42.3901059" lon="13.1476674"><ele>983.7142857142857</ele><time>2026-04-26T11:32:45.891Z</time></trkpt><trkpt lat="42.390051" lon="13.1477291"><ele>984.2857142857142</ele><time>2026-04-26T11:32:46.872Z</time></trkpt><trkpt lat="42.389988" lon="13.1477822"><ele>984.8571428571429</ele><time>2026-04-26T11:32:47.871Z</time></trkpt><trkpt lat="42.3899326" lon="13.1478338"><ele>985.4285714285713</ele><time>2026-04-26T11:32:48.868Z</time></trkpt><trkpt lat="42.3898762" lon="13.1478884"><ele>986.0</ele><time>2026-04-26T11:32:49.884Z</time></trkpt><trkpt lat="42.3898214" lon="13.1479536"><ele>986.0</ele><time>2026-04-26T11:32:50.867Z</time></trkpt><trkpt lat="42.389779" lon="13.1480191"><ele>986.0</ele><time>2026-04-26T11:32:51.864Z</time></trkpt><trkpt lat="42.3897402" lon="13.148087"><ele>986.0</ele><time>2026-04-26T11:32:52.882Z</time></trkpt><trkpt lat="42.3897089" lon="13.148165"><ele>986.0</ele><time>2026-04-26T11:32:53.871Z</time></trkpt><trkpt lat="42.3896733" lon="13.1482463"><ele>986.0</ele><time>2026-04-26T11:32:54.867Z</time></trkpt><trkpt lat="42.389635" lon="13.1483344"><ele>986.0</ele><time>2026-04-26T11:32:55.882Z</time></trkpt><trkpt lat="42.3895975" lon="13.1484261"><ele>986.0</ele><time>2026-04-26T11:32:56.866Z</time></trkpt><trkpt lat="42.3895621" lon="13.148529"><ele>982.4</ele><time>2026-04-26T11:32:57.879Z</time></trkpt><trkpt lat="42.3895343" lon="13.1486372"><ele>978.8</ele><time>2026-04-26T11:32:58.871Z</time></trkpt><trkpt lat="42.3895042" lon="13.1487676"><ele>975.1999999999999</ele><time>2026-04-26T11:32:59.874Z</time></trkpt><trkpt lat="42.3894816" lon="13.1489003"><ele>971.5999999999999</ele><time>2026-04-26T11:33:00.879Z</time></trkpt><trkpt lat="42.389474" lon="13.1490242"><ele>968.0</ele><time>2026-04-26T11:33:01.869Z</time></trkpt><trkpt lat="42.3894576" lon="13.1491368"><ele>968.0</ele><time>2026-04-26T11:33:02.857Z</time></trkpt><trkpt lat="42.3894389" lon="13.1492459"><ele>968.0</ele><time>2026-04-26T11:33:03.867Z</time></trkpt><trkpt lat="42.3893967" lon="13.1493641"><ele>968.0</ele><time>2026-04-26T11:33:04.893Z</time></trkpt><trkpt lat="42.3893494" lon="13.1495021"><ele>968.0</ele><time>2026-04-26T11:33:05.865Z</time></trkpt><trkpt lat="42.3893031" lon="13.1496545"><ele>968.0</ele><time>2026-04-26T11:33:06.872Z</time></trkpt><trkpt lat="42.389267" lon="13.1497985"><ele>971.0</ele><time>2026-04-26T11:33:07.865Z</time></trkpt><trkpt lat="42.3892273" lon="13.1499338"><ele>974.0</ele><time>2026-04-26T11:33:08.891Z</time></trkpt><trkpt lat="42.389182" lon="13.1500885"><ele>977.0</ele><time>2026-04-26T11:33:09.864Z</time></trkpt><trkpt lat="42.3891296" lon="13.1502512"><ele>980.0</ele><time>2026-04-26T11:33:10.874Z</time></trkpt><trkpt lat="42.389077" lon="13.1504235"><ele>980.0</ele><time>2026-04-26T11:33:11.912Z</time></trkpt><trkpt lat="42.3890223" lon="13.1505844"><ele>980.0</ele><time>2026-04-26T11:33:12.866Z</time></trkpt><trkpt lat="42.3889555" lon="13.1507407"><ele>980.0</ele><time>2026-04-26T11:33:13.887Z</time></trkpt><trkpt lat="42.3888905" lon="13.1508866"><ele>980.0</ele><time>2026-04-26T11:33:14.867Z</time></trkpt><trkpt lat="42.3888286" lon="13.151016"><ele>973.75</ele><time>2026-04-26T11:33:15.88Z</time></trkpt><trkpt lat="42.3887656" lon="13.1511412"><ele>967.5</ele><time>2026-04-26T11:33:16.873Z</time></trkpt><trkpt lat="42.3886898" lon="13.1512627"><ele>961.25</ele><time>2026-04-26T11:33:17.875Z</time></trkpt><trkpt lat="42.3886034" lon="13.151374"><ele>955.0</ele><time>2026-04-26T11:33:18.859Z</time></trkpt><trkpt lat="42.3885224" lon="13.1514841"><ele>958.0</ele><time>2026-04-26T11:33:19.876Z</time></trkpt><trkpt lat="42.3884489" lon="13.151588"><ele>961.0</ele><time>2026-04-26T11:33:20.869Z</time></trkpt><trkpt lat="42.388378" lon="13.1516855"><ele>964.0</ele><time>2026-04-26T11:33:21.909Z</time></trkpt><trkpt lat="42.3883096" lon="13.1517818"><ele>967.0</ele><time>2026-04-26T11:33:22.86Z</time></trkpt><trkpt lat="42.3882462" lon="13.1518766"><ele>970.0</ele><time>2026-04-26T11:33:23.868Z</time></trkpt><trkpt lat="42.388184" lon="13.1519672"><ele>970.0</ele><time>2026-04-26T11:33:24.899Z</time></trkpt><trkpt lat="42.3881236" lon="13.1520496"><ele>970.0</ele><time>2026-04-26T11:33:25.867Z</time></trkpt><trkpt lat="42.3880636" lon="13.1521404"><ele>970.0</ele><time>2026-04-26T11:33:26.872Z</time></trkpt><trkpt lat="42.3880034" lon="13.152236"><ele>970.0</ele><time>2026-04-26T11:33:27.865Z</time></trkpt><trkpt lat="42.3879357" lon="13.1523401"><ele>970.0</ele><time>2026-04-26T11:33:28.864Z</time></trkpt><trkpt lat="42.3878598" lon="13.1524523"><ele>968.2</ele><time>2026-04-26T11:33:29.869Z</time></trkpt><trkpt lat="42.3877808" lon="13.1525686"><ele>966.4</ele><time>2026-04-26T11:33:30.868Z</time></trkpt><trkpt lat="42.3876933" lon="13.1526801"><ele>964.5999999999999</ele><time>2026-04-26T11:33:31.866Z</time></trkpt><trkpt lat="42.3876091" lon="13.152769"><ele>962.8</ele><time>2026-04-26T11:33:32.897Z</time></trkpt><trkpt lat="42.3875224" lon="13.1528376"><ele>961.0</ele><time>2026-04-26T11:33:33.863Z</time></trkpt><trkpt lat="42.3874208" lon="13.1528629"><ele>961.0</ele><time>2026-04-26T11:33:34.873Z</time></trkpt><trkpt lat="42.3873206" lon="13.1528513"><ele>961.0</ele><time>2026-04-26T11:33:35.862Z</time></trkpt><trkpt lat="42.3872082" lon="13.1528074"><ele>961.0</ele><time>2026-04-26T11:33:36.859Z</time></trkpt><trkpt lat="42.3871068" lon="13.1527416"><ele>961.0</ele><time>2026-04-26T11:33:37.989Z</time></trkpt><trkpt lat="42.3869266" lon="13.1525609"><ele>959.8571428571428</ele><time>2026-04-26T11:33:39.865Z</time></trkpt><trkpt lat="42.386859" lon="13.1524854"><ele>958.7142857142856</ele><time>2026-04-26T11:33:40.863Z</time></trkpt><trkpt lat="42.3867843" lon="13.1524456"><ele>957.5714285714286</ele><time>2026-04-26T11:33:41.872Z</time></trkpt><trkpt lat="42.3867134" lon="13.1524529"><ele>956.4285714285713</ele><time>2026-04-26T11:33:42.884Z</time></trkpt><trkpt lat="42.386651" lon="13.152491"><ele>955.2857142857142</ele><time>2026-04-26T11:33:43.872Z</time></trkpt><trkpt lat="42.386605" lon="13.1525559"><ele>954.1428571428571</ele><time>2026-04-26T11:33:44.864Z</time></trkpt><trkpt lat="42.3865635" lon="13.152624"><ele>953.0</ele><time>2026-04-26T11:33:45.863Z</time></trkpt><trkpt lat="42.3864377" lon="13.1526744"><ele>953.0</ele><time>2026-04-26T11:33:47.875Z</time></trkpt><trkpt lat="42.3863567" lon="13.1526345"><ele>953.0</ele><time>2026-04-26T11:33:48.86Z</time></trkpt><trkpt lat="42.3862594" lon="13.1525748"><ele>953.0</ele><time>2026-04-26T11:33:49.865Z</time></trkpt><trkpt lat="42.3861581" lon="13.1525292"><ele>953.0</ele><time>2026-04-26T11:33:50.907Z</time></trkpt><trkpt lat="42.386053" lon="13.1525051"><ele>953.0</ele><time>2026-04-26T11:33:51.862Z</time></trkpt><trkpt lat="42.3859557" lon="13.1524986"><ele>953.0</ele><time>2026-04-26T11:33:52.862Z</time></trkpt><trkpt lat="42.3858558" lon="13.1524706"><ele>953.0</ele><time>2026-04-26T11:33:53.865Z</time></trkpt><trkpt lat="42.3857596" lon="13.1524142"><ele>953.0</ele><time>2026-04-26T11:33:54.86Z</time></trkpt><trkpt lat="42.3856666" lon="13.1523522"><ele>953.0</ele><time>2026-04-26T11:33:55.858Z</time></trkpt><trkpt lat="42.3855786" lon="13.1522749"><ele>953.0</ele><time>2026-04-26T11:33:56.865Z</time></trkpt><trkpt lat="42.3854948" lon="13.152209"><ele>950.6666666666667</ele><time>2026-04-26T11:33:57.864Z</time></trkpt><trkpt lat="42.3854217" lon="13.1521502"><ele>948.3333333333334</ele><time>2026-04-26T11:33:58.874Z</time></trkpt><trkpt lat="42.3853501" lon="13.1521014"><ele>946.0</ele><time>2026-04-26T11:33:59.864Z</time></trkpt><trkpt lat="42.3852791" lon="13.1520478"><ele>943.6666666666667</ele><time>2026-04-26T11:34:00.862Z</time></trkpt><trkpt lat="42.3852076" lon="13.1519977"><ele>941.3333333333334</ele><time>2026-04-26T11:34:01.863Z</time></trkpt><trkpt lat="42.3851248" lon="13.1519779"><ele>939.0</ele><time>2026-04-26T11:34:02.862Z</time></trkpt><trkpt lat="42.3850188" lon="13.1519748"><ele>939.0</ele><time>2026-04-26T11:34:03.857Z</time></trkpt><trkpt lat="42.3849093" lon="13.151997"><ele>939.0</ele><time>2026-04-26T11:34:04.864Z</time></trkpt><trkpt lat="42.3847964" lon="13.1520135"><ele>939.0</ele><time>2026-04-26T11:34:05.869Z</time></trkpt><trkpt lat="42.3846785" lon="13.1520359"><ele>939.0</ele><time>2026-04-26T11:34:06.877Z</time></trkpt><trkpt lat="42.3845609" lon="13.152045"><ele>937.25</ele><time>2026-04-26T11:34:07.879Z</time></trkpt><trkpt lat="42.3844416" lon="13.1520512"><ele>935.5</ele><time>2026-04-26T11:34:08.868Z</time></trkpt><trkpt lat="42.3843107" lon="13.1520502"><ele>933.75</ele><time>2026-04-26T11:34:09.872Z</time></trkpt><trkpt lat="42.384184" lon="13.152038"><ele>932.0</ele><time>2026-04-26T11:34:10.878Z</time></trkpt><trkpt lat="42.3840587" lon="13.1520161"><ele>932.0</ele><time>2026-04-26T11:34:11.863Z</time></trkpt><trkpt lat="42.3839351" lon="13.1519769"><ele>932.0</ele><time>2026-04-26T11:34:12.859Z</time></trkpt><trkpt lat="42.3838094" lon="13.1519331"><ele>932.0</ele><time>2026-04-26T11:34:13.864Z</time></trkpt><trkpt lat="42.3836818" lon="13.1518856"><ele>932.0</ele><time>2026-04-26T11:34:14.864Z</time></trkpt><trkpt lat="42.3835322" lon="13.1518267"><ele>931.3333333333334</ele><time>2026-04-26T11:34:15.919Z</time></trkpt><trkpt lat="42.3833684" lon="13.1517652"><ele>930.6666666666667</ele><time>2026-04-26T11:34:16.859Z</time></trkpt><trkpt lat="42.383224" lon="13.1517062"><ele>930.0</ele><time>2026-04-26T11:34:17.863Z</time></trkpt><trkpt lat="42.3830825" lon="13.1516614"><ele>930.25</ele><time>2026-04-26T11:34:18.866Z</time></trkpt><trkpt lat="42.3829448" lon="13.1516495"><ele>930.5</ele><time>2026-04-26T11:34:19.86Z</time></trkpt><trkpt lat="42.3828045" lon="13.1516494"><ele>930.75</ele><time>2026-04-26T11:34:20.868Z</time></trkpt><trkpt lat="42.3826476" lon="13.1516525"><ele>931.0</ele><time>2026-04-26T11:34:21.87Z</time></trkpt><trkpt lat="42.3824912" lon="13.1516539"><ele>931.0</ele><time>2026-04-26T11:34:22.892Z</time></trkpt><trkpt lat="42.3823436" lon="13.1516543"><ele>931.0</ele><time>2026-04-26T11:34:23.878Z</time></trkpt><trkpt lat="42.3822127" lon="13.1516568"><ele>931.0</ele><time>2026-04-26T11:34:24.867Z</time></trkpt><trkpt lat="42.3820944" lon="13.1516742"><ele>931.0</ele><time>2026-04-26T11:34:25.886Z</time></trkpt><trkpt lat="42.3819882" lon="13.1517081"><ele>929.1999999999999</ele><time>2026-04-26T11:34:26.87Z</time></trkpt><trkpt lat="42.381905" lon="13.1517738"><ele>927.3999999999999</ele><time>2026-04-26T11:34:27.87Z</time></trkpt><trkpt lat="42.3818516" lon="13.1518648"><ele>925.6</ele><time>2026-04-26T11:34:28.92Z</time></trkpt><trkpt lat="42.3818128" lon="13.1520081"><ele>923.8</ele><time>2026-04-26T11:34:29.867Z</time></trkpt><trkpt lat="42.3817719" lon="13.1521652"><ele>922.0</ele><time>2026-04-26T11:34:30.871Z</time></trkpt><trkpt lat="42.3817234" lon="13.1522853"><ele>921.9999999999999</ele><time>2026-04-26T11:34:31.877Z</time></trkpt><trkpt lat="42.3816605" lon="13.1523697"><ele>922.0</ele><time>2026-04-26T11:34:32.875Z</time></trkpt><trkpt lat="42.3816057" lon="13.1524202"><ele>922.0</ele><time>2026-04-26T11:34:33.88Z</time></trkpt><trkpt lat="42.3815462" lon="13.1524519"><ele>922.0</ele><time>2026-04-26T11:34:35.875Z</time></trkpt><trkpt lat="42.3815055" lon="13.1523744"><ele>921.9999999999999</ele><time>2026-04-26T11:34:37.861Z</time></trkpt><trkpt lat="42.3815143" lon="13.1522894"><ele>922.0</ele><time>2026-04-26T11:34:38.862Z</time></trkpt><trkpt lat="42.3815651" lon="13.1521021"><ele>922.0</ele><time>2026-04-26T11:34:40.877Z</time></trkpt><trkpt lat="42.3816023" lon="13.1519678"><ele>922.0</ele><time>2026-04-26T11:34:41.914Z</time></trkpt><trkpt lat="42.3816305" lon="13.1518139"><ele>922.0</ele><time>2026-04-26T11:34:42.874Z</time></trkpt><trkpt lat="42.3816553" lon="13.1516653"><ele>922.0</ele><time>2026-04-26T11:34:43.868Z</time></trkpt><trkpt lat="42.3817021" lon="13.1515313"><ele>922.0</ele><time>2026-04-26T11:34:44.874Z</time></trkpt><trkpt lat="42.3817467" lon="13.1513998"><ele>919.25</ele><time>2026-04-26T11:34:45.872Z</time></trkpt><trkpt lat="42.3818043" lon="13.1512596"><ele>916.5</ele><time>2026-04-26T11:34:46.866Z</time></trkpt><trkpt lat="42.3818952" lon="13.1511031"><ele>913.75</ele><time>2026-04-26T11:34:47.872Z</time></trkpt><trkpt lat="42.3820189" lon="13.1509431"><ele>911.0</ele><time>2026-04-26T11:34:48.872Z</time></trkpt><trkpt lat="42.3821572" lon="13.1507954"><ele>910.6666666666667</ele><time>2026-04-26T11:34:49.867Z</time></trkpt><trkpt lat="42.3823047" lon="13.1506431"><ele>910.3333333333333</ele><time>2026-04-26T11:34:50.869Z</time></trkpt><trkpt lat="42.3824572" lon="13.1504868"><ele>910.0</ele><time>2026-04-26T11:34:51.866Z</time></trkpt><trkpt lat="42.3826188" lon="13.1503887"><ele>910.0</ele><time>2026-04-26T11:34:52.87Z</time></trkpt><trkpt lat="42.3827869" lon="13.1503399"><ele>910.0</ele><time>2026-04-26T11:34:53.865Z</time></trkpt><trkpt lat="42.3829706" lon="13.1503274"><ele>910.0</ele><time>2026-04-26T11:34:54.933Z</time></trkpt><trkpt lat="42.3831635" lon="13.1503552"><ele>911.0</ele><time>2026-04-26T11:34:55.867Z</time></trkpt><trkpt lat="42.3833563" lon="13.1503722"><ele>912.0</ele><time>2026-04-26T11:34:56.865Z</time></trkpt><trkpt lat="42.3835271" lon="13.1503593"><ele>913.0</ele><time>2026-04-26T11:34:57.865Z</time></trkpt><trkpt lat="42.3836941" lon="13.1502911"><ele>913.6666666666666</ele><time>2026-04-26T11:34:58.866Z</time></trkpt><trkpt lat="42.3838635" lon="13.1501937"><ele>914.3333333333333</ele><time>2026-04-26T11:34:59.866Z</time></trkpt><trkpt lat="42.3840659" lon="13.1500576"><ele>915.0</ele><time>2026-04-26T11:35:00.867Z</time></trkpt><trkpt lat="42.3842586" lon="13.1499141"><ele>912.3333333333333</ele><time>2026-04-26T11:35:01.863Z</time></trkpt><trkpt lat="42.3844401" lon="13.1497693"><ele>909.6666666666666</ele><time>2026-04-26T11:35:02.87Z</time></trkpt><trkpt lat="42.3846172" lon="13.1496159"><ele>907.0</ele><time>2026-04-26T11:35:03.868Z</time></trkpt><trkpt lat="42.3847947" lon="13.1494571"><ele>907.0</ele><time>2026-04-26T11:35:04.87Z</time></trkpt><trkpt lat="42.3849667" lon="13.1492885"><ele>907.0</ele><time>2026-04-26T11:35:05.872Z</time></trkpt><trkpt lat="42.3851342" lon="13.1491207"><ele>907.0</ele><time>2026-04-26T11:35:06.871Z</time></trkpt><trkpt lat="42.3852946" lon="13.1489564"><ele>906.3333333333333</ele><time>2026-04-26T11:35:07.91Z</time></trkpt><trkpt lat="42.3854587" lon="13.1487791"><ele>905.6666666666667</ele><time>2026-04-26T11:35:08.859Z</time></trkpt><trkpt lat="42.3856258" lon="13.1486022"><ele>905.0</ele><time>2026-04-26T11:35:09.871Z</time></trkpt><trkpt lat="42.3857998" lon="13.1484255"><ele>905.0</ele><time>2026-04-26T11:35:10.861Z</time></trkpt><trkpt lat="42.3859784" lon="13.1482842"><ele>905.0</ele><time>2026-04-26T11:35:11.867Z</time></trkpt><trkpt lat="42.3861499" lon="13.1481617"><ele>905.0</ele><time>2026-04-26T11:35:12.865Z</time></trkpt><trkpt lat="42.3863387" lon="13.1480726"><ele>903.3333333333334</ele><time>2026-04-26T11:35:13.867Z</time></trkpt><trkpt lat="42.386543" lon="13.1480107"><ele>901.6666666666667</ele><time>2026-04-26T11:35:14.872Z</time></trkpt><trkpt lat="42.3867429" lon="13.1479655"><ele>900.0</ele><time>2026-04-26T11:35:15.865Z</time></trkpt><trkpt lat="42.3869433" lon="13.147916"><ele>900.0</ele><time>2026-04-26T11:35:16.858Z</time></trkpt><trkpt lat="42.3871284" lon="13.1478426"><ele>900.0</ele><time>2026-04-26T11:35:17.869Z</time></trkpt><trkpt lat="42.3872922" lon="13.1477325"><ele>900.0</ele><time>2026-04-26T11:35:18.869Z</time></trkpt><trkpt lat="42.3874358" lon="13.1475895"><ele>900.3333333333333</ele><time>2026-04-26T11:35:19.867Z</time></trkpt><trkpt lat="42.3875673" lon="13.1474212"><ele>900.6666666666666</ele><time>2026-04-26T11:35:20.9Z</time></trkpt><trkpt lat="42.3877015" lon="13.147222"><ele>901.0</ele><time>2026-04-26T11:35:21.87Z</time></trkpt><trkpt lat="42.3878344" lon="13.1470141"><ele>901.3333333333333</ele><time>2026-04-26T11:35:22.87Z</time></trkpt><trkpt lat="42.3879519" lon="13.1468067"><ele>901.6666666666667</ele><time>2026-04-26T11:35:23.861Z</time></trkpt><trkpt lat="42.38806" lon="13.1466113"><ele>902.0</ele><time>2026-04-26T11:35:24.861Z</time></trkpt><trkpt lat="42.3881621" lon="13.146413"><ele>898.6666666666667</ele><time>2026-04-26T11:35:25.863Z</time></trkpt><trkpt lat="42.3882528" lon="13.1461936"><ele>895.3333333333333</ele><time>2026-04-26T11:35:26.862Z</time></trkpt><trkpt lat="42.3883195" lon="13.1459536"><ele>892.0</ele><time>2026-04-26T11:35:27.87Z</time></trkpt><trkpt lat="42.3883687" lon="13.1456797"><ele>891.0</ele><time>2026-04-26T11:35:28.872Z</time></trkpt><trkpt lat="42.388397" lon="13.1453917"><ele>890.0</ele><time>2026-04-26T11:35:29.876Z</time></trkpt><trkpt lat="42.3884122" lon="13.1451266"><ele>889.0</ele><time>2026-04-26T11:35:30.864Z</time></trkpt><trkpt lat="42.3884261" lon="13.1448807"><ele>887.3333333333333</ele><time>2026-04-26T11:35:31.882Z</time></trkpt><trkpt lat="42.3884472" lon="13.1446415"><ele>885.6666666666667</ele><time>2026-04-26T11:35:32.861Z</time></trkpt><trkpt lat="42.3884812" lon="13.1444052"><ele>884.0</ele><time>2026-04-26T11:35:33.9Z</time></trkpt><trkpt lat="42.3885404" lon="13.1441645"><ele>883.3333333333334</ele><time>2026-04-26T11:35:34.871Z</time></trkpt><trkpt lat="42.3886146" lon="13.1439324"><ele>882.6666666666667</ele><time>2026-04-26T11:35:35.862Z</time></trkpt><trkpt lat="42.388715" lon="13.1437192"><ele>882.0</ele><time>2026-04-26T11:35:36.867Z</time></trkpt><trkpt lat="42.3888435" lon="13.1435107"><ele>881.6666666666667</ele><time>2026-04-26T11:35:37.867Z</time></trkpt><trkpt lat="42.3889969" lon="13.1433014"><ele>881.3333333333334</ele><time>2026-04-26T11:35:38.861Z</time></trkpt><trkpt lat="42.3891565" lon="13.1430975"><ele>881.0</ele><time>2026-04-26T11:35:39.857Z</time></trkpt><trkpt lat="42.3893085" lon="13.1429048"><ele>881.0</ele><time>2026-04-26T11:35:40.865Z</time></trkpt><trkpt lat="42.3894486" lon="13.142726"><ele>881.0</ele><time>2026-04-26T11:35:41.865Z</time></trkpt><trkpt lat="42.3895899" lon="13.1425483"><ele>881.0</ele><time>2026-04-26T11:35:42.865Z</time></trkpt><trkpt lat="42.3897223" lon="13.1423798"><ele>882.0</ele><time>2026-04-26T11:35:43.871Z</time></trkpt><trkpt lat="42.389841" lon="13.1422042"><ele>883.0</ele><time>2026-04-26T11:35:44.869Z</time></trkpt><trkpt lat="42.3899516" lon="13.1420036"><ele>884.0</ele><time>2026-04-26T11:35:45.864Z</time></trkpt><trkpt lat="42.390044" lon="13.1417835"><ele>884.0</ele><time>2026-04-26T11:35:46.868Z</time></trkpt><trkpt lat="42.3901397" lon="13.1415515"><ele>884.0</ele><time>2026-04-26T11:35:47.872Z</time></trkpt><trkpt lat="42.3902478" lon="13.1413205"><ele>884.0</ele><time>2026-04-26T11:35:48.869Z</time></trkpt><trkpt lat="42.3903613" lon="13.1411219"><ele>886.6666666666667</ele><time>2026-04-26T11:35:49.863Z</time></trkpt><trkpt lat="42.390483" lon="13.1409261"><ele>889.3333333333333</ele><time>2026-04-26T11:35:50.87Z</time></trkpt><trkpt lat="42.3906116" lon="13.1407524"><ele>892.0</ele><time>2026-04-26T11:35:51.864Z</time></trkpt><trkpt lat="42.3907531" lon="13.1406022"><ele>885.6666666666666</ele><time>2026-04-26T11:35:52.875Z</time></trkpt><trkpt lat="42.3909106" lon="13.1404758"><ele>879.3333333333333</ele><time>2026-04-26T11:35:53.863Z</time></trkpt><trkpt lat="42.3910744" lon="13.1403617"><ele>873.0</ele><time>2026-04-26T11:35:54.87Z</time></trkpt><trkpt lat="42.3912427" lon="13.1402456"><ele>872.0</ele><time>2026-04-26T11:35:55.871Z</time></trkpt><trkpt lat="42.3914184" lon="13.1401217"><ele>871.0</ele><time>2026-04-26T11:35:56.867Z</time></trkpt><trkpt lat="42.3915868" lon="13.1399856"><ele>870.0</ele><time>2026-04-26T11:35:57.873Z</time></trkpt><trkpt lat="42.3917511" lon="13.1398495"><ele>870.0</ele><time>2026-04-26T11:35:58.866Z</time></trkpt><trkpt lat="42.3919163" lon="13.1397056"><ele>870.0</ele><time>2026-04-26T11:35:59.865Z</time></trkpt><trkpt lat="42.3920893" lon="13.139569"><ele>870.0</ele><time>2026-04-26T11:36:00.864Z</time></trkpt><trkpt lat="42.3922888" lon="13.1394598"><ele>871.5</ele><time>2026-04-26T11:36:01.875Z</time></trkpt><trkpt lat="42.3925174" lon="13.1393621"><ele>873.0</ele><time>2026-04-26T11:36:02.868Z</time></trkpt><trkpt lat="42.3927488" lon="13.1392982"><ele>873.0</ele><time>2026-04-26T11:36:03.86Z</time></trkpt><trkpt lat="42.3929752" lon="13.13926"><ele>873.0</ele><time>2026-04-26T11:36:04.867Z</time></trkpt><trkpt lat="42.3931897" lon="13.139221"><ele>873.0</ele><time>2026-04-26T11:36:05.872Z</time></trkpt><trkpt lat="42.3934064" lon="13.1391865"><ele>873.6666666666667</ele><time>2026-04-26T11:36:06.853Z</time></trkpt><trkpt lat="42.3936233" lon="13.1391688"><ele>874.3333333333334</ele><time>2026-04-26T11:36:07.864Z</time></trkpt><trkpt lat="42.3938341" lon="13.1391734"><ele>875.0</ele><time>2026-04-26T11:36:08.858Z</time></trkpt><trkpt lat="42.3940463" lon="13.1391853"><ele>875.0</ele><time>2026-04-26T11:36:09.871Z</time></trkpt><trkpt lat="42.39425" lon="13.1391838"><ele>875.0</ele><time>2026-04-26T11:36:10.863Z</time></trkpt><trkpt lat="42.3944475" lon="13.1391885"><ele>875.0</ele><time>2026-04-26T11:36:11.869Z</time></trkpt><trkpt lat="42.3946461" lon="13.1391917"><ele>872.6666666666667</ele><time>2026-04-26T11:36:12.876Z</time></trkpt><trkpt lat="42.3948413" lon="13.1391935"><ele>870.3333333333333</ele><time>2026-04-26T11:36:13.862Z</time></trkpt><trkpt lat="42.3950334" lon="13.1391881"><ele>868.0</ele><time>2026-04-26T11:36:14.863Z</time></trkpt><trkpt lat="42.3952227" lon="13.1391798"><ele>868.0</ele><time>2026-04-26T11:36:15.864Z</time></trkpt><trkpt lat="42.395416" lon="13.1391646"><ele>868.0</ele><time>2026-04-26T11:36:16.859Z</time></trkpt><trkpt lat="42.3956131" lon="13.1391372"><ele>868.0</ele><time>2026-04-26T11:36:17.869Z</time></trkpt><trkpt lat="42.3958171" lon="13.1390921"><ele>866.0</ele><time>2026-04-26T11:36:18.863Z</time></trkpt><trkpt lat="42.396013" lon="13.1390149"><ele>864.0</ele><time>2026-04-26T11:36:19.866Z</time></trkpt><trkpt lat="42.3962096" lon="13.138897"><ele>862.0</ele><time>2026-04-26T11:36:20.859Z</time></trkpt><trkpt lat="42.3964025" lon="13.1387615"><ele>862.0</ele><time>2026-04-26T11:36:21.867Z</time></trkpt><trkpt lat="42.3965952" lon="13.1386174"><ele>862.0</ele><time>2026-04-26T11:36:22.866Z</time></trkpt><trkpt lat="42.396794" lon="13.138473"><ele>862.0</ele><time>2026-04-26T11:36:23.864Z</time></trkpt><trkpt lat="42.3969931" lon="13.1383341"><ele>859.6666666666666</ele><time>2026-04-26T11:36:24.871Z</time></trkpt><trkpt lat="42.397191" lon="13.1382014"><ele>857.3333333333333</ele><time>2026-04-26T11:36:25.876Z</time></trkpt><trkpt lat="42.3973876" lon="13.1380638"><ele>855.0</ele><time>2026-04-26T11:36:26.866Z</time></trkpt><trkpt lat="42.3975943" lon="13.1379216"><ele>855.0</ele><time>2026-04-26T11:36:27.87Z</time></trkpt><trkpt lat="42.3978128" lon="13.1377751"><ele>855.0</ele><time>2026-04-26T11:36:28.869Z</time></trkpt><trkpt lat="42.3980322" lon="13.137618"><ele>853.0</ele><time>2026-04-26T11:36:29.872Z</time></trkpt><trkpt lat="42.3982375" lon="13.1374518"><ele>851.0</ele><time>2026-04-26T11:36:30.868Z</time></trkpt><trkpt lat="42.398421" lon="13.1372665"><ele>851.0</ele><time>2026-04-26T11:36:31.865Z</time></trkpt><trkpt lat="42.3985874" lon="13.1370541"><ele>851.0</ele><time>2026-04-26T11:36:32.866Z</time></trkpt><trkpt lat="42.3987537" lon="13.1368409"><ele>852.5</ele><time>2026-04-26T11:36:33.867Z</time></trkpt><trkpt lat="42.3989101" lon="13.1366173"><ele>854.0</ele><time>2026-04-26T11:36:34.868Z</time></trkpt><trkpt lat="42.3990715" lon="13.1364042"><ele>850.0</ele><time>2026-04-26T11:36:35.869Z</time></trkpt><trkpt lat="42.3992286" lon="13.1361896"><ele>846.0</ele><time>2026-04-26T11:36:36.866Z</time></trkpt><trkpt lat="42.3993828" lon="13.1359701"><ele>842.0</ele><time>2026-04-26T11:36:37.91Z</time></trkpt><trkpt lat="42.3995357" lon="13.1357588"><ele>840.6666666666667</ele><time>2026-04-26T11:36:38.87Z</time></trkpt><trkpt lat="42.3996871" lon="13.1355423"><ele>839.3333333333333</ele><time>2026-04-26T11:36:39.861Z</time></trkpt><trkpt lat="42.3998472" lon="13.1353483"><ele>838.0</ele><time>2026-04-26T11:36:40.874Z</time></trkpt><trkpt lat="42.4000159" lon="13.1351588"><ele>838.0</ele><time>2026-04-26T11:36:41.867Z</time></trkpt><trkpt lat="42.4001877" lon="13.134979"><ele>838.0</ele><time>2026-04-26T11:36:42.876Z</time></trkpt><trkpt lat="42.4003557" lon="13.1347962"><ele>838.0</ele><time>2026-04-26T11:36:43.866Z</time></trkpt><trkpt lat="42.400525" lon="13.1346169"><ele>837.3333333333333</ele><time>2026-04-26T11:36:44.871Z</time></trkpt><trkpt lat="42.4006992" lon="13.1344413"><ele>836.6666666666667</ele><time>2026-04-26T11:36:45.872Z</time></trkpt><trkpt lat="42.4008815" lon="13.1342841"><ele>836.0</ele><time>2026-04-26T11:36:46.863Z</time></trkpt><trkpt lat="42.4010686" lon="13.1341383"><ele>830.5</ele><time>2026-04-26T11:36:47.873Z</time></trkpt><trkpt lat="42.4012792" lon="13.1340132"><ele>825.0</ele><time>2026-04-26T11:36:48.864Z</time></trkpt><trkpt lat="42.4014948" lon="13.1338979"><ele>825.0</ele><time>2026-04-26T11:36:49.868Z</time></trkpt><trkpt lat="42.4016968" lon="13.133793"><ele>825.0</ele><time>2026-04-26T11:36:50.863Z</time></trkpt><trkpt lat="42.4018985" lon="13.133684"><ele>825.0</ele><time>2026-04-26T11:36:51.864Z</time></trkpt><trkpt lat="42.4020985" lon="13.1335538"><ele>823.3333333333333</ele><time>2026-04-26T11:36:52.866Z</time></trkpt><trkpt lat="42.4022891" lon="13.1333933"><ele>821.6666666666666</ele><time>2026-04-26T11:36:53.864Z</time></trkpt><trkpt lat="42.402471" lon="13.1332168"><ele>820.0</ele><time>2026-04-26T11:36:54.871Z</time></trkpt><trkpt lat="42.402646" lon="13.1330256"><ele>820.0</ele><time>2026-04-26T11:36:55.865Z</time></trkpt><trkpt lat="42.4028048" lon="13.1328218"><ele>820.0</ele><time>2026-04-26T11:36:56.864Z</time></trkpt><trkpt lat="42.4029453" lon="13.1326122"><ele>820.0</ele><time>2026-04-26T11:36:57.874Z</time></trkpt><trkpt lat="42.4030792" lon="13.132407"><ele>838.0</ele><time>2026-04-26T11:36:58.863Z</time></trkpt><trkpt lat="42.4032067" lon="13.1322051"><ele>817.0</ele><time>2026-04-26T11:36:59.863Z</time></trkpt></trkseg></trk></gpx>